<?xml version="1.0" encoding="UTF-8" standalone="no" ?>
<gpx xmlns="http://www.topografix.com/GPX/1/1" xmlns:xsi="http://www.w3.org/2001/XMLSchema-instance" xsi:schemaLocation="http://www.topografix.com/GPX/1/1 http://www.topografix.com/GPX/1/1/gpx.xsd" version="1.1" creator="VisuGPX - https://www.visugpx.com">
  <metadata>
    <name>VTT_Cransac Auzits Rulhe_09-08-11</name>
    <desc><![CDATA[Cransac Auzits Rulhe_09-08-11]]></desc>
  </metadata>
  <trk>
    <name><![CDATA[VTT_Cransac_Rulhe_2011-08-09]]></name>
    <trkseg>
      <trkpt lat="44.52304" lon="2.2926">
        <ele>328.5</ele>
        <time>2011-08-09T07:04:16Z</time>
      </trkpt>
      <trkpt lat="44.52365" lon="2.29277">
        <ele>318.3</ele>
        <time>2011-08-09T07:04:17Z</time>
      </trkpt>
      <trkpt lat="44.52372" lon="2.29284">
        <ele>316.9</ele>
        <time>2011-08-09T07:04:18Z</time>
      </trkpt>
      <trkpt lat="44.52377" lon="2.29294">
        <ele>316</ele>
        <time>2011-08-09T07:04:19Z</time>
      </trkpt>
      <trkpt lat="44.52378" lon="2.29298">
        <ele>315.9</ele>
        <time>2011-08-09T07:04:20Z</time>
      </trkpt>
      <trkpt lat="44.52381" lon="2.29313">
        <ele>315.8</ele>
        <time>2011-08-09T07:21:46Z</time>
      </trkpt>
      <trkpt lat="44.5238" lon="2.29319">
        <ele>326.5</ele>
        <time>2011-08-09T07:21:48Z</time>
      </trkpt>
      <trkpt lat="44.5238" lon="2.29322">
        <ele>326.3</ele>
        <time>2011-08-09T07:21:49Z</time>
      </trkpt>
      <trkpt lat="44.5238" lon="2.29325">
        <ele>326.1</ele>
        <time>2011-08-09T07:21:50Z</time>
      </trkpt>
      <trkpt lat="44.5238" lon="2.2933">
        <ele>325.9</ele>
        <time>2011-08-09T07:21:51Z</time>
      </trkpt>
      <trkpt lat="44.52381" lon="2.29334">
        <ele>326.4</ele>
        <time>2011-08-09T07:21:52Z</time>
      </trkpt>
      <trkpt lat="44.5238" lon="2.29338">
        <ele>326.8</ele>
        <time>2011-08-09T07:21:53Z</time>
      </trkpt>
      <trkpt lat="44.5238" lon="2.29343">
        <ele>327.1</ele>
        <time>2011-08-09T07:21:54Z</time>
      </trkpt>
      <trkpt lat="44.52379" lon="2.29347">
        <ele>326.7</ele>
        <time>2011-08-09T07:21:55Z</time>
      </trkpt>
      <trkpt lat="44.52379" lon="2.29351">
        <ele>326.4</ele>
        <time>2011-08-09T07:21:56Z</time>
      </trkpt>
      <trkpt lat="44.52379" lon="2.29355">
        <ele>326.2</ele>
        <time>2011-08-09T07:21:57Z</time>
      </trkpt>
      <trkpt lat="44.52378" lon="2.29359">
        <ele>326.4</ele>
        <time>2011-08-09T07:21:58Z</time>
      </trkpt>
      <trkpt lat="44.52377" lon="2.29362">
        <ele>326.6</ele>
        <time>2011-08-09T07:21:59Z</time>
      </trkpt>
      <trkpt lat="44.52377" lon="2.29366">
        <ele>326.7</ele>
        <time>2011-08-09T07:22:00Z</time>
      </trkpt>
      <trkpt lat="44.52376" lon="2.29369">
        <ele>326.8</ele>
        <time>2011-08-09T07:22:01Z</time>
      </trkpt>
      <trkpt lat="44.52376" lon="2.29372">
        <ele>326.8</ele>
        <time>2011-08-09T07:22:02Z</time>
      </trkpt>
      <trkpt lat="44.52375" lon="2.29376">
        <ele>326.8</ele>
        <time>2011-08-09T07:22:03Z</time>
      </trkpt>
      <trkpt lat="44.52374" lon="2.2938">
        <ele>326.8</ele>
        <time>2011-08-09T07:22:04Z</time>
      </trkpt>
      <trkpt lat="44.52373" lon="2.29383">
        <ele>326.6</ele>
        <time>2011-08-09T07:22:05Z</time>
      </trkpt>
      <trkpt lat="44.52373" lon="2.29387">
        <ele>326.4</ele>
        <time>2011-08-09T07:22:06Z</time>
      </trkpt>
      <trkpt lat="44.52371" lon="2.2939">
        <ele>326.2</ele>
        <time>2011-08-09T07:22:07Z</time>
      </trkpt>
      <trkpt lat="44.5237" lon="2.29396">
        <ele>326.2</ele>
        <time>2011-08-09T07:22:09Z</time>
      </trkpt>
      <trkpt lat="44.5237" lon="2.29402">
        <ele>327</ele>
        <time>2011-08-09T07:22:11Z</time>
      </trkpt>
      <trkpt lat="44.5237" lon="2.29408">
        <ele>328</ele>
        <time>2011-08-09T07:22:13Z</time>
      </trkpt>
      <trkpt lat="44.52369" lon="2.29414">
        <ele>328.3</ele>
        <time>2011-08-09T07:22:15Z</time>
      </trkpt>
      <trkpt lat="44.52369" lon="2.29417">
        <ele>328.4</ele>
        <time>2011-08-09T07:22:16Z</time>
      </trkpt>
      <trkpt lat="44.52369" lon="2.29426">
        <ele>329.4</ele>
        <time>2011-08-09T07:22:19Z</time>
      </trkpt>
      <trkpt lat="44.52369" lon="2.29429">
        <ele>329.6</ele>
        <time>2011-08-09T07:22:20Z</time>
      </trkpt>
      <trkpt lat="44.52369" lon="2.29432">
        <ele>329.2</ele>
        <time>2011-08-09T07:22:21Z</time>
      </trkpt>
      <trkpt lat="44.5237" lon="2.29436">
        <ele>328.9</ele>
        <time>2011-08-09T07:22:22Z</time>
      </trkpt>
      <trkpt lat="44.5237" lon="2.29439">
        <ele>328.7</ele>
        <time>2011-08-09T07:22:23Z</time>
      </trkpt>
      <trkpt lat="44.5237" lon="2.29443">
        <ele>328.6</ele>
        <time>2011-08-09T07:22:24Z</time>
      </trkpt>
      <trkpt lat="44.5237" lon="2.29447">
        <ele>328.5</ele>
        <time>2011-08-09T07:22:25Z</time>
      </trkpt>
      <trkpt lat="44.52369" lon="2.2945">
        <ele>328.4</ele>
        <time>2011-08-09T07:22:26Z</time>
      </trkpt>
      <trkpt lat="44.52369" lon="2.29454">
        <ele>328.9</ele>
        <time>2011-08-09T07:22:27Z</time>
      </trkpt>
      <trkpt lat="44.52368" lon="2.29458">
        <ele>329.2</ele>
        <time>2011-08-09T07:22:28Z</time>
      </trkpt>
      <trkpt lat="44.52367" lon="2.29461">
        <ele>329.4</ele>
        <time>2011-08-09T07:22:29Z</time>
      </trkpt>
      <trkpt lat="44.52366" lon="2.29464">
        <ele>329</ele>
        <time>2011-08-09T07:22:30Z</time>
      </trkpt>
      <trkpt lat="44.52365" lon="2.29468">
        <ele>328.8</ele>
        <time>2011-08-09T07:22:31Z</time>
      </trkpt>
      <trkpt lat="44.52363" lon="2.29471">
        <ele>328.6</ele>
        <time>2011-08-09T07:22:32Z</time>
      </trkpt>
      <trkpt lat="44.52361" lon="2.29473">
        <ele>328.4</ele>
        <time>2011-08-09T07:22:33Z</time>
      </trkpt>
      <trkpt lat="44.52358" lon="2.29478">
        <ele>328.2</ele>
        <time>2011-08-09T07:22:35Z</time>
      </trkpt>
      <trkpt lat="44.52356" lon="2.29481">
        <ele>328.5</ele>
        <time>2011-08-09T07:22:37Z</time>
      </trkpt>
      <trkpt lat="44.52353" lon="2.29487">
        <ele>328.7</ele>
        <time>2011-08-09T07:22:40Z</time>
      </trkpt>
      <trkpt lat="44.5235" lon="2.29491">
        <ele>328.5</ele>
        <time>2011-08-09T07:22:43Z</time>
      </trkpt>
      <trkpt lat="44.52352" lon="2.29487">
        <ele>328.6</ele>
        <time>2011-08-09T07:22:47Z</time>
      </trkpt>
      <trkpt lat="44.52355" lon="2.29484">
        <ele>328.9</ele>
        <time>2011-08-09T07:22:49Z</time>
      </trkpt>
      <trkpt lat="44.52357" lon="2.29482">
        <ele>329.4</ele>
        <time>2011-08-09T07:22:51Z</time>
      </trkpt>
      <trkpt lat="44.5236" lon="2.29478">
        <ele>330.3</ele>
        <time>2011-08-09T07:22:54Z</time>
      </trkpt>
      <trkpt lat="44.52362" lon="2.29473">
        <ele>330.8</ele>
        <time>2011-08-09T07:22:57Z</time>
      </trkpt>
      <trkpt lat="44.52364" lon="2.29469">
        <ele>331.2</ele>
        <time>2011-08-09T07:23:00Z</time>
      </trkpt>
      <trkpt lat="44.52364" lon="2.29463">
        <ele>331.5</ele>
        <time>2011-08-09T07:23:03Z</time>
      </trkpt>
      <trkpt lat="44.52363" lon="2.29457">
        <ele>332.5</ele>
        <time>2011-08-09T07:23:06Z</time>
      </trkpt>
      <trkpt lat="44.52362" lon="2.29451">
        <ele>332.9</ele>
        <time>2011-08-09T07:23:09Z</time>
      </trkpt>
      <trkpt lat="44.5236" lon="2.29447">
        <ele>333.7</ele>
        <time>2011-08-09T07:23:12Z</time>
      </trkpt>
      <trkpt lat="44.52356" lon="2.29448">
        <ele>335.7</ele>
        <time>2011-08-09T07:23:18Z</time>
      </trkpt>
      <trkpt lat="44.52355" lon="2.29449">
        <ele>335.9</ele>
        <time>2011-08-09T07:23:19Z</time>
      </trkpt>
      <trkpt lat="44.52351" lon="2.29455">
        <ele>336.5</ele>
        <time>2011-08-09T07:23:24Z</time>
      </trkpt>
      <trkpt lat="44.52348" lon="2.2946">
        <ele>336.5</ele>
        <time>2011-08-09T07:23:28Z</time>
      </trkpt>
      <trkpt lat="44.52345" lon="2.29463">
        <ele>337.4</ele>
        <time>2011-08-09T07:23:32Z</time>
      </trkpt>
      <trkpt lat="44.52341" lon="2.29465">
        <ele>338.4</ele>
        <time>2011-08-09T07:23:37Z</time>
      </trkpt>
      <trkpt lat="44.52337" lon="2.29467">
        <ele>339.2</ele>
        <time>2011-08-09T07:23:42Z</time>
      </trkpt>
      <trkpt lat="44.52333" lon="2.29467">
        <ele>339.9</ele>
        <time>2011-08-09T07:23:45Z</time>
      </trkpt>
      <trkpt lat="44.5233" lon="2.29463">
        <ele>340.8</ele>
        <time>2011-08-09T07:23:48Z</time>
      </trkpt>
      <trkpt lat="44.5233" lon="2.29458">
        <ele>341.2</ele>
        <time>2011-08-09T07:23:51Z</time>
      </trkpt>
      <trkpt lat="44.52331" lon="2.29454">
        <ele>341.4</ele>
        <time>2011-08-09T07:23:54Z</time>
      </trkpt>
      <trkpt lat="44.52332" lon="2.29449">
        <ele>342.3</ele>
        <time>2011-08-09T07:23:57Z</time>
      </trkpt>
      <trkpt lat="44.52333" lon="2.29443">
        <ele>343.2</ele>
        <time>2011-08-09T07:24:00Z</time>
      </trkpt>
      <trkpt lat="44.52333" lon="2.29438">
        <ele>343.8</ele>
        <time>2011-08-09T07:24:03Z</time>
      </trkpt>
      <trkpt lat="44.52333" lon="2.29433">
        <ele>343.9</ele>
        <time>2011-08-09T07:24:06Z</time>
      </trkpt>
      <trkpt lat="44.52333" lon="2.29428">
        <ele>344.6</ele>
        <time>2011-08-09T07:24:09Z</time>
      </trkpt>
      <trkpt lat="44.52331" lon="2.29422">
        <ele>345.4</ele>
        <time>2011-08-09T07:24:12Z</time>
      </trkpt>
      <trkpt lat="44.52331" lon="2.29416">
        <ele>345.8</ele>
        <time>2011-08-09T07:24:15Z</time>
      </trkpt>
      <trkpt lat="44.5233" lon="2.29411">
        <ele>346.9</ele>
        <time>2011-08-09T07:24:18Z</time>
      </trkpt>
      <trkpt lat="44.5233" lon="2.29406">
        <ele>346.8</ele>
        <time>2011-08-09T07:24:21Z</time>
      </trkpt>
      <trkpt lat="44.5233" lon="2.29404">
        <ele>347.3</ele>
        <time>2011-08-09T07:24:22Z</time>
      </trkpt>
      <trkpt lat="44.52329" lon="2.29394">
        <ele>348.9</ele>
        <time>2011-08-09T07:24:27Z</time>
      </trkpt>
      <trkpt lat="44.52327" lon="2.29389">
        <ele>348.8</ele>
        <time>2011-08-09T07:24:30Z</time>
      </trkpt>
      <trkpt lat="44.52325" lon="2.29385">
        <ele>349.6</ele>
        <time>2011-08-09T07:24:33Z</time>
      </trkpt>
      <trkpt lat="44.52323" lon="2.29381">
        <ele>349.4</ele>
        <time>2011-08-09T07:24:36Z</time>
      </trkpt>
      <trkpt lat="44.5232" lon="2.29377">
        <ele>349.8</ele>
        <time>2011-08-09T07:24:39Z</time>
      </trkpt>
      <trkpt lat="44.52317" lon="2.29373">
        <ele>350.1</ele>
        <time>2011-08-09T07:24:42Z</time>
      </trkpt>
      <trkpt lat="44.52314" lon="2.29369">
        <ele>350.5</ele>
        <time>2011-08-09T07:24:45Z</time>
      </trkpt>
      <trkpt lat="44.52311" lon="2.29366">
        <ele>351.1</ele>
        <time>2011-08-09T07:24:48Z</time>
      </trkpt>
      <trkpt lat="44.52307" lon="2.29364">
        <ele>351.5</ele>
        <time>2011-08-09T07:24:52Z</time>
      </trkpt>
      <trkpt lat="44.52303" lon="2.29364">
        <ele>352.3</ele>
        <time>2011-08-09T07:24:56Z</time>
      </trkpt>
      <trkpt lat="44.52299" lon="2.29366">
        <ele>353.4</ele>
        <time>2011-08-09T07:25:02Z</time>
      </trkpt>
      <trkpt lat="44.52295" lon="2.29368">
        <ele>353.6</ele>
        <time>2011-08-09T07:25:07Z</time>
      </trkpt>
      <trkpt lat="44.52291" lon="2.2937">
        <ele>353.6</ele>
        <time>2011-08-09T07:25:11Z</time>
      </trkpt>
      <trkpt lat="44.52288" lon="2.29373">
        <ele>354.2</ele>
        <time>2011-08-09T07:25:15Z</time>
      </trkpt>
      <trkpt lat="44.52285" lon="2.29375">
        <ele>354.6</ele>
        <time>2011-08-09T07:25:18Z</time>
      </trkpt>
      <trkpt lat="44.52282" lon="2.29378">
        <ele>354.3</ele>
        <time>2011-08-09T07:25:21Z</time>
      </trkpt>
      <trkpt lat="44.52279" lon="2.29381">
        <ele>354.9</ele>
        <time>2011-08-09T07:25:24Z</time>
      </trkpt>
      <trkpt lat="44.52278" lon="2.29382">
        <ele>355.1</ele>
        <time>2011-08-09T07:25:25Z</time>
      </trkpt>
      <trkpt lat="44.52271" lon="2.29386">
        <ele>356.2</ele>
        <time>2011-08-09T07:25:31Z</time>
      </trkpt>
      <trkpt lat="44.52268" lon="2.29389">
        <ele>356.3</ele>
        <time>2011-08-09T07:25:34Z</time>
      </trkpt>
      <trkpt lat="44.52265" lon="2.29391">
        <ele>357.9</ele>
        <time>2011-08-09T07:25:37Z</time>
      </trkpt>
      <trkpt lat="44.52261" lon="2.29394">
        <ele>359</ele>
        <time>2011-08-09T07:25:41Z</time>
      </trkpt>
      <trkpt lat="44.52258" lon="2.29397">
        <ele>358.6</ele>
        <time>2011-08-09T07:25:44Z</time>
      </trkpt>
      <trkpt lat="44.52255" lon="2.29399">
        <ele>358.7</ele>
        <time>2011-08-09T07:25:47Z</time>
      </trkpt>
      <trkpt lat="44.52251" lon="2.29402">
        <ele>359.9</ele>
        <time>2011-08-09T07:25:50Z</time>
      </trkpt>
      <trkpt lat="44.52248" lon="2.29407">
        <ele>360.9</ele>
        <time>2011-08-09T07:25:53Z</time>
      </trkpt>
      <trkpt lat="44.52249" lon="2.29413">
        <ele>362.9</ele>
        <time>2011-08-09T07:25:57Z</time>
      </trkpt>
      <trkpt lat="44.5225" lon="2.29418">
        <ele>362.3</ele>
        <time>2011-08-09T07:26:00Z</time>
      </trkpt>
      <trkpt lat="44.5225" lon="2.29424">
        <ele>362.9</ele>
        <time>2011-08-09T07:26:03Z</time>
      </trkpt>
      <trkpt lat="44.5225" lon="2.29429">
        <ele>363.7</ele>
        <time>2011-08-09T07:26:06Z</time>
      </trkpt>
      <trkpt lat="44.5225" lon="2.29434">
        <ele>363.4</ele>
        <time>2011-08-09T07:26:09Z</time>
      </trkpt>
      <trkpt lat="44.5225" lon="2.29439">
        <ele>362.8</ele>
        <time>2011-08-09T07:26:11Z</time>
      </trkpt>
      <trkpt lat="44.5225" lon="2.29444">
        <ele>362.4</ele>
        <time>2011-08-09T07:26:13Z</time>
      </trkpt>
      <trkpt lat="44.5225" lon="2.2945">
        <ele>362.2</ele>
        <time>2011-08-09T07:26:15Z</time>
      </trkpt>
      <trkpt lat="44.52249" lon="2.29455">
        <ele>362.3</ele>
        <time>2011-08-09T07:26:17Z</time>
      </trkpt>
      <trkpt lat="44.52247" lon="2.29459">
        <ele>362.3</ele>
        <time>2011-08-09T07:26:19Z</time>
      </trkpt>
      <trkpt lat="44.52245" lon="2.29465">
        <ele>362</ele>
        <time>2011-08-09T07:26:22Z</time>
      </trkpt>
      <trkpt lat="44.52243" lon="2.29469">
        <ele>362.7</ele>
        <time>2011-08-09T07:26:24Z</time>
      </trkpt>
      <trkpt lat="44.52242" lon="2.29473">
        <ele>363</ele>
        <time>2011-08-09T07:26:26Z</time>
      </trkpt>
      <trkpt lat="44.5224" lon="2.29475">
        <ele>363.1</ele>
        <time>2011-08-09T07:26:27Z</time>
      </trkpt>
      <trkpt lat="44.52238" lon="2.2948">
        <ele>362.9</ele>
        <time>2011-08-09T07:26:30Z</time>
      </trkpt>
      <trkpt lat="44.52235" lon="2.29484">
        <ele>362.5</ele>
        <time>2011-08-09T07:26:32Z</time>
      </trkpt>
      <trkpt lat="44.52233" lon="2.29487">
        <ele>363.5</ele>
        <time>2011-08-09T07:26:34Z</time>
      </trkpt>
      <trkpt lat="44.52231" lon="2.2949">
        <ele>363.9</ele>
        <time>2011-08-09T07:26:36Z</time>
      </trkpt>
      <trkpt lat="44.52228" lon="2.29493">
        <ele>364.2</ele>
        <time>2011-08-09T07:26:38Z</time>
      </trkpt>
      <trkpt lat="44.52226" lon="2.29496">
        <ele>364.4</ele>
        <time>2011-08-09T07:26:40Z</time>
      </trkpt>
      <trkpt lat="44.52223" lon="2.29498">
        <ele>364.4</ele>
        <time>2011-08-09T07:26:42Z</time>
      </trkpt>
      <trkpt lat="44.52219" lon="2.295">
        <ele>364.4</ele>
        <time>2011-08-09T07:26:44Z</time>
      </trkpt>
      <trkpt lat="44.52216" lon="2.295">
        <ele>364.6</ele>
        <time>2011-08-09T07:26:46Z</time>
      </trkpt>
      <trkpt lat="44.52213" lon="2.295">
        <ele>365</ele>
        <time>2011-08-09T07:26:48Z</time>
      </trkpt>
      <trkpt lat="44.52209" lon="2.29497">
        <ele>365.9</ele>
        <time>2011-08-09T07:26:51Z</time>
      </trkpt>
      <trkpt lat="44.52205" lon="2.29495">
        <ele>368.1</ele>
        <time>2011-08-09T07:26:54Z</time>
      </trkpt>
      <trkpt lat="44.52202" lon="2.29492">
        <ele>368.7</ele>
        <time>2011-08-09T07:26:57Z</time>
      </trkpt>
      <trkpt lat="44.52199" lon="2.29489">
        <ele>368.5</ele>
        <time>2011-08-09T07:27:00Z</time>
      </trkpt>
      <trkpt lat="44.52195" lon="2.29486">
        <ele>369.9</ele>
        <time>2011-08-09T07:27:03Z</time>
      </trkpt>
      <trkpt lat="44.52192" lon="2.29483">
        <ele>370.5</ele>
        <time>2011-08-09T07:27:06Z</time>
      </trkpt>
      <trkpt lat="44.52188" lon="2.29483">
        <ele>371.6</ele>
        <time>2011-08-09T07:27:09Z</time>
      </trkpt>
      <trkpt lat="44.52184" lon="2.29485">
        <ele>372.6</ele>
        <time>2011-08-09T07:27:12Z</time>
      </trkpt>
      <trkpt lat="44.5218" lon="2.29488">
        <ele>372.4</ele>
        <time>2011-08-09T07:27:15Z</time>
      </trkpt>
      <trkpt lat="44.52176" lon="2.29491">
        <ele>373.3</ele>
        <time>2011-08-09T07:27:18Z</time>
      </trkpt>
      <trkpt lat="44.52173" lon="2.29494">
        <ele>373.9</ele>
        <time>2011-08-09T07:27:21Z</time>
      </trkpt>
      <trkpt lat="44.52169" lon="2.29497">
        <ele>374.6</ele>
        <time>2011-08-09T07:27:24Z</time>
      </trkpt>
      <trkpt lat="44.52165" lon="2.295">
        <ele>375.4</ele>
        <time>2011-08-09T07:27:27Z</time>
      </trkpt>
      <trkpt lat="44.52164" lon="2.295">
        <ele>375.3</ele>
        <time>2011-08-09T07:27:28Z</time>
      </trkpt>
      <trkpt lat="44.52158" lon="2.29505">
        <ele>375.8</ele>
        <time>2011-08-09T07:27:33Z</time>
      </trkpt>
      <trkpt lat="44.52154" lon="2.29508">
        <ele>376</ele>
        <time>2011-08-09T07:27:36Z</time>
      </trkpt>
      <trkpt lat="44.52151" lon="2.2951">
        <ele>376.2</ele>
        <time>2011-08-09T07:27:38Z</time>
      </trkpt>
      <trkpt lat="44.52148" lon="2.29514">
        <ele>375.9</ele>
        <time>2011-08-09T07:27:41Z</time>
      </trkpt>
      <trkpt lat="44.52145" lon="2.29516">
        <ele>376</ele>
        <time>2011-08-09T07:27:43Z</time>
      </trkpt>
      <trkpt lat="44.52142" lon="2.29519">
        <ele>376.4</ele>
        <time>2011-08-09T07:27:45Z</time>
      </trkpt>
      <trkpt lat="44.52138" lon="2.29521">
        <ele>376.5</ele>
        <time>2011-08-09T07:27:47Z</time>
      </trkpt>
      <trkpt lat="44.52135" lon="2.29524">
        <ele>376.2</ele>
        <time>2011-08-09T07:27:49Z</time>
      </trkpt>
      <trkpt lat="44.52132" lon="2.29526">
        <ele>375.7</ele>
        <time>2011-08-09T07:27:51Z</time>
      </trkpt>
      <trkpt lat="44.52129" lon="2.29527">
        <ele>375.5</ele>
        <time>2011-08-09T07:27:53Z</time>
      </trkpt>
      <trkpt lat="44.52126" lon="2.29528">
        <ele>375.4</ele>
        <time>2011-08-09T07:27:55Z</time>
      </trkpt>
      <trkpt lat="44.52122" lon="2.29529">
        <ele>375.6</ele>
        <time>2011-08-09T07:27:57Z</time>
      </trkpt>
      <trkpt lat="44.52119" lon="2.29529">
        <ele>376.1</ele>
        <time>2011-08-09T07:27:59Z</time>
      </trkpt>
      <trkpt lat="44.52116" lon="2.29529">
        <ele>376.5</ele>
        <time>2011-08-09T07:28:00Z</time>
      </trkpt>
      <trkpt lat="44.52114" lon="2.29528">
        <ele>376.8</ele>
        <time>2011-08-09T07:28:01Z</time>
      </trkpt>
      <trkpt lat="44.52112" lon="2.29528">
        <ele>376.7</ele>
        <time>2011-08-09T07:28:02Z</time>
      </trkpt>
      <trkpt lat="44.5211" lon="2.29527">
        <ele>376.7</ele>
        <time>2011-08-09T07:28:03Z</time>
      </trkpt>
      <trkpt lat="44.52107" lon="2.29526">
        <ele>376.7</ele>
        <time>2011-08-09T07:28:04Z</time>
      </trkpt>
      <trkpt lat="44.52105" lon="2.29524">
        <ele>376.3</ele>
        <time>2011-08-09T07:28:05Z</time>
      </trkpt>
      <trkpt lat="44.52102" lon="2.29523">
        <ele>376.1</ele>
        <time>2011-08-09T07:28:06Z</time>
      </trkpt>
      <trkpt lat="44.52099" lon="2.29521">
        <ele>375.9</ele>
        <time>2011-08-09T07:28:07Z</time>
      </trkpt>
      <trkpt lat="44.52096" lon="2.2952">
        <ele>375.7</ele>
        <time>2011-08-09T07:28:08Z</time>
      </trkpt>
      <trkpt lat="44.52094" lon="2.29518">
        <ele>375.9</ele>
        <time>2011-08-09T07:28:09Z</time>
      </trkpt>
      <trkpt lat="44.52091" lon="2.29517">
        <ele>376</ele>
        <time>2011-08-09T07:28:10Z</time>
      </trkpt>
      <trkpt lat="44.52089" lon="2.29516">
        <ele>376.1</ele>
        <time>2011-08-09T07:28:11Z</time>
      </trkpt>
      <trkpt lat="44.52086" lon="2.29515">
        <ele>375.6</ele>
        <time>2011-08-09T07:28:12Z</time>
      </trkpt>
      <trkpt lat="44.52082" lon="2.29515">
        <ele>375</ele>
        <time>2011-08-09T07:28:14Z</time>
      </trkpt>
      <trkpt lat="44.5208" lon="2.29514">
        <ele>374.8</ele>
        <time>2011-08-09T07:28:15Z</time>
      </trkpt>
      <trkpt lat="44.52078" lon="2.29513">
        <ele>374.6</ele>
        <time>2011-08-09T07:28:16Z</time>
      </trkpt>
      <trkpt lat="44.52075" lon="2.29513">
        <ele>374.5</ele>
        <time>2011-08-09T07:28:17Z</time>
      </trkpt>
      <trkpt lat="44.52073" lon="2.29512">
        <ele>374.4</ele>
        <time>2011-08-09T07:28:18Z</time>
      </trkpt>
      <trkpt lat="44.52069" lon="2.29513">
        <ele>374.3</ele>
        <time>2011-08-09T07:28:20Z</time>
      </trkpt>
      <trkpt lat="44.52065" lon="2.29515">
        <ele>374.6</ele>
        <time>2011-08-09T07:28:22Z</time>
      </trkpt>
      <trkpt lat="44.52061" lon="2.29517">
        <ele>374.7</ele>
        <time>2011-08-09T07:28:24Z</time>
      </trkpt>
      <trkpt lat="44.52058" lon="2.2952">
        <ele>374.6</ele>
        <time>2011-08-09T07:28:26Z</time>
      </trkpt>
      <trkpt lat="44.52057" lon="2.29522">
        <ele>374.5</ele>
        <time>2011-08-09T07:28:27Z</time>
      </trkpt>
      <trkpt lat="44.52056" lon="2.29525">
        <ele>374.6</ele>
        <time>2011-08-09T07:28:28Z</time>
      </trkpt>
      <trkpt lat="44.52055" lon="2.29528">
        <ele>374.7</ele>
        <time>2011-08-09T07:28:29Z</time>
      </trkpt>
      <trkpt lat="44.52055" lon="2.29532">
        <ele>374.7</ele>
        <time>2011-08-09T07:28:30Z</time>
      </trkpt>
      <trkpt lat="44.52055" lon="2.29537">
        <ele>373.9</ele>
        <time>2011-08-09T07:28:31Z</time>
      </trkpt>
      <trkpt lat="44.52055" lon="2.29542">
        <ele>373.3</ele>
        <time>2011-08-09T07:28:32Z</time>
      </trkpt>
      <trkpt lat="44.52055" lon="2.29548">
        <ele>372.9</ele>
        <time>2011-08-09T07:28:33Z</time>
      </trkpt>
      <trkpt lat="44.52055" lon="2.29553">
        <ele>372.6</ele>
        <time>2011-08-09T07:28:34Z</time>
      </trkpt>
      <trkpt lat="44.52056" lon="2.29559">
        <ele>372.4</ele>
        <time>2011-08-09T07:28:35Z</time>
      </trkpt>
      <trkpt lat="44.52055" lon="2.29565">
        <ele>372.3</ele>
        <time>2011-08-09T07:28:36Z</time>
      </trkpt>
      <trkpt lat="44.52052" lon="2.2957">
        <ele>371.7</ele>
        <time>2011-08-09T07:28:37Z</time>
      </trkpt>
      <trkpt lat="44.52049" lon="2.29574">
        <ele>371.2</ele>
        <time>2011-08-09T07:28:38Z</time>
      </trkpt>
      <trkpt lat="44.52046" lon="2.29577">
        <ele>370.9</ele>
        <time>2011-08-09T07:28:39Z</time>
      </trkpt>
      <trkpt lat="44.52043" lon="2.2958">
        <ele>370.6</ele>
        <time>2011-08-09T07:28:40Z</time>
      </trkpt>
      <trkpt lat="44.5204" lon="2.29582">
        <ele>370.2</ele>
        <time>2011-08-09T07:28:41Z</time>
      </trkpt>
      <trkpt lat="44.52038" lon="2.29584">
        <ele>370</ele>
        <time>2011-08-09T07:28:42Z</time>
      </trkpt>
      <trkpt lat="44.52036" lon="2.29586">
        <ele>369.7</ele>
        <time>2011-08-09T07:28:43Z</time>
      </trkpt>
      <trkpt lat="44.52034" lon="2.29588">
        <ele>369.7</ele>
        <time>2011-08-09T07:28:44Z</time>
      </trkpt>
      <trkpt lat="44.52032" lon="2.2959">
        <ele>369.8</ele>
        <time>2011-08-09T07:28:45Z</time>
      </trkpt>
      <trkpt lat="44.5203" lon="2.29592">
        <ele>369.8</ele>
        <time>2011-08-09T07:28:46Z</time>
      </trkpt>
      <trkpt lat="44.52028" lon="2.29594">
        <ele>370.1</ele>
        <time>2011-08-09T07:28:47Z</time>
      </trkpt>
      <trkpt lat="44.52025" lon="2.29596">
        <ele>370.4</ele>
        <time>2011-08-09T07:28:48Z</time>
      </trkpt>
      <trkpt lat="44.52022" lon="2.29599">
        <ele>370.6</ele>
        <time>2011-08-09T07:28:49Z</time>
      </trkpt>
      <trkpt lat="44.52019" lon="2.29602">
        <ele>370.4</ele>
        <time>2011-08-09T07:28:50Z</time>
      </trkpt>
      <trkpt lat="44.52016" lon="2.29606">
        <ele>370.2</ele>
        <time>2011-08-09T07:28:51Z</time>
      </trkpt>
      <trkpt lat="44.52013" lon="2.2961">
        <ele>370</ele>
        <time>2011-08-09T07:28:52Z</time>
      </trkpt>
      <trkpt lat="44.5201" lon="2.29613">
        <ele>370.2</ele>
        <time>2011-08-09T07:28:53Z</time>
      </trkpt>
      <trkpt lat="44.52008" lon="2.29617">
        <ele>370.3</ele>
        <time>2011-08-09T07:28:54Z</time>
      </trkpt>
      <trkpt lat="44.52005" lon="2.2962">
        <ele>370.4</ele>
        <time>2011-08-09T07:28:55Z</time>
      </trkpt>
      <trkpt lat="44.52002" lon="2.29623">
        <ele>370.4</ele>
        <time>2011-08-09T07:28:56Z</time>
      </trkpt>
      <trkpt lat="44.52" lon="2.29625">
        <ele>370.4</ele>
        <time>2011-08-09T07:28:57Z</time>
      </trkpt>
      <trkpt lat="44.51997" lon="2.29628">
        <ele>370.3</ele>
        <time>2011-08-09T07:28:58Z</time>
      </trkpt>
      <trkpt lat="44.51994" lon="2.29631">
        <ele>370.3</ele>
        <time>2011-08-09T07:28:59Z</time>
      </trkpt>
      <trkpt lat="44.51991" lon="2.29634">
        <ele>370.4</ele>
        <time>2011-08-09T07:29:00Z</time>
      </trkpt>
      <trkpt lat="44.51989" lon="2.29637">
        <ele>370.4</ele>
        <time>2011-08-09T07:29:01Z</time>
      </trkpt>
      <trkpt lat="44.51986" lon="2.29638">
        <ele>370.4</ele>
        <time>2011-08-09T07:29:02Z</time>
      </trkpt>
      <trkpt lat="44.51983" lon="2.2964">
        <ele>370.2</ele>
        <time>2011-08-09T07:29:03Z</time>
      </trkpt>
      <trkpt lat="44.51979" lon="2.29643">
        <ele>370.1</ele>
        <time>2011-08-09T07:29:04Z</time>
      </trkpt>
      <trkpt lat="44.51976" lon="2.29647">
        <ele>370</ele>
        <time>2011-08-09T07:29:05Z</time>
      </trkpt>
      <trkpt lat="44.51973" lon="2.29651">
        <ele>369.5</ele>
        <time>2011-08-09T07:29:06Z</time>
      </trkpt>
      <trkpt lat="44.51969" lon="2.29656">
        <ele>369.1</ele>
        <time>2011-08-09T07:29:07Z</time>
      </trkpt>
      <trkpt lat="44.51966" lon="2.29661">
        <ele>368.9</ele>
        <time>2011-08-09T07:29:08Z</time>
      </trkpt>
      <trkpt lat="44.5196" lon="2.29668">
        <ele>368</ele>
        <time>2011-08-09T07:29:09Z</time>
      </trkpt>
      <trkpt lat="44.51954" lon="2.29674">
        <ele>367.4</ele>
        <time>2011-08-09T07:29:10Z</time>
      </trkpt>
      <trkpt lat="44.51948" lon="2.2968">
        <ele>366.9</ele>
        <time>2011-08-09T07:29:11Z</time>
      </trkpt>
      <trkpt lat="44.51941" lon="2.29685">
        <ele>365.7</ele>
        <time>2011-08-09T07:29:12Z</time>
      </trkpt>
      <trkpt lat="44.51936" lon="2.29689">
        <ele>364.9</ele>
        <time>2011-08-09T07:29:13Z</time>
      </trkpt>
      <trkpt lat="44.5193" lon="2.29692">
        <ele>364.2</ele>
        <time>2011-08-09T07:29:14Z</time>
      </trkpt>
      <trkpt lat="44.51925" lon="2.29695">
        <ele>363.7</ele>
        <time>2011-08-09T07:29:15Z</time>
      </trkpt>
      <trkpt lat="44.51919" lon="2.29699">
        <ele>363.9</ele>
        <time>2011-08-09T07:29:16Z</time>
      </trkpt>
      <trkpt lat="44.51915" lon="2.29703">
        <ele>364</ele>
        <time>2011-08-09T07:29:17Z</time>
      </trkpt>
      <trkpt lat="44.5191" lon="2.29709">
        <ele>364.1</ele>
        <time>2011-08-09T07:29:18Z</time>
      </trkpt>
      <trkpt lat="44.51905" lon="2.29714">
        <ele>363.8</ele>
        <time>2011-08-09T07:29:19Z</time>
      </trkpt>
      <trkpt lat="44.51899" lon="2.29722">
        <ele>363.6</ele>
        <time>2011-08-09T07:29:20Z</time>
      </trkpt>
      <trkpt lat="44.51895" lon="2.2973">
        <ele>363.4</ele>
        <time>2011-08-09T07:29:21Z</time>
      </trkpt>
      <trkpt lat="44.51891" lon="2.29739">
        <ele>362.9</ele>
        <time>2011-08-09T07:29:22Z</time>
      </trkpt>
      <trkpt lat="44.51888" lon="2.29746">
        <ele>362.5</ele>
        <time>2011-08-09T07:29:23Z</time>
      </trkpt>
      <trkpt lat="44.51886" lon="2.29752">
        <ele>362.2</ele>
        <time>2011-08-09T07:29:24Z</time>
      </trkpt>
      <trkpt lat="44.51884" lon="2.29758">
        <ele>362.3</ele>
        <time>2011-08-09T07:29:25Z</time>
      </trkpt>
      <trkpt lat="44.51881" lon="2.29763">
        <ele>362.3</ele>
        <time>2011-08-09T07:29:26Z</time>
      </trkpt>
      <trkpt lat="44.51879" lon="2.29769">
        <ele>362.4</ele>
        <time>2011-08-09T07:29:27Z</time>
      </trkpt>
      <trkpt lat="44.51877" lon="2.29774">
        <ele>362.7</ele>
        <time>2011-08-09T07:29:28Z</time>
      </trkpt>
      <trkpt lat="44.51874" lon="2.29779">
        <ele>363</ele>
        <time>2011-08-09T07:29:29Z</time>
      </trkpt>
      <trkpt lat="44.51871" lon="2.29784">
        <ele>363.2</ele>
        <time>2011-08-09T07:29:30Z</time>
      </trkpt>
      <trkpt lat="44.51869" lon="2.29789">
        <ele>363.3</ele>
        <time>2011-08-09T07:29:31Z</time>
      </trkpt>
      <trkpt lat="44.51867" lon="2.29794">
        <ele>363.9</ele>
        <time>2011-08-09T07:29:32Z</time>
      </trkpt>
      <trkpt lat="44.51866" lon="2.29798">
        <ele>364.3</ele>
        <time>2011-08-09T07:29:33Z</time>
      </trkpt>
      <trkpt lat="44.51864" lon="2.29801">
        <ele>364.6</ele>
        <time>2011-08-09T07:29:34Z</time>
      </trkpt>
      <trkpt lat="44.51863" lon="2.29804">
        <ele>364.6</ele>
        <time>2011-08-09T07:29:35Z</time>
      </trkpt>
      <trkpt lat="44.51861" lon="2.29808">
        <ele>364.6</ele>
        <time>2011-08-09T07:29:36Z</time>
      </trkpt>
      <trkpt lat="44.51859" lon="2.29811">
        <ele>364.6</ele>
        <time>2011-08-09T07:29:37Z</time>
      </trkpt>
      <trkpt lat="44.51858" lon="2.29815">
        <ele>364.9</ele>
        <time>2011-08-09T07:29:38Z</time>
      </trkpt>
      <trkpt lat="44.51857" lon="2.29818">
        <ele>365.2</ele>
        <time>2011-08-09T07:29:39Z</time>
      </trkpt>
      <trkpt lat="44.51856" lon="2.29821">
        <ele>365.4</ele>
        <time>2011-08-09T07:29:40Z</time>
      </trkpt>
      <trkpt lat="44.51854" lon="2.29825">
        <ele>366.1</ele>
        <time>2011-08-09T07:29:41Z</time>
      </trkpt>
      <trkpt lat="44.51852" lon="2.29828">
        <ele>366.7</ele>
        <time>2011-08-09T07:29:42Z</time>
      </trkpt>
      <trkpt lat="44.5185" lon="2.29831">
        <ele>367.1</ele>
        <time>2011-08-09T07:29:43Z</time>
      </trkpt>
      <trkpt lat="44.51848" lon="2.29836">
        <ele>367.3</ele>
        <time>2011-08-09T07:29:45Z</time>
      </trkpt>
      <trkpt lat="44.51846" lon="2.29838">
        <ele>367.4</ele>
        <time>2011-08-09T07:29:46Z</time>
      </trkpt>
      <trkpt lat="44.51843" lon="2.2984">
        <ele>367.7</ele>
        <time>2011-08-09T07:29:47Z</time>
      </trkpt>
      <trkpt lat="44.51841" lon="2.29841">
        <ele>367.9</ele>
        <time>2011-08-09T07:29:48Z</time>
      </trkpt>
      <trkpt lat="44.51837" lon="2.29841">
        <ele>368.2</ele>
        <time>2011-08-09T07:29:50Z</time>
      </trkpt>
      <trkpt lat="44.51834" lon="2.29841">
        <ele>368.1</ele>
        <time>2011-08-09T07:29:51Z</time>
      </trkpt>
      <trkpt lat="44.5183" lon="2.29842">
        <ele>368</ele>
        <time>2011-08-09T07:29:53Z</time>
      </trkpt>
      <trkpt lat="44.51826" lon="2.29843">
        <ele>368</ele>
        <time>2011-08-09T07:29:55Z</time>
      </trkpt>
      <trkpt lat="44.51822" lon="2.29844">
        <ele>368.8</ele>
        <time>2011-08-09T07:29:57Z</time>
      </trkpt>
      <trkpt lat="44.51819" lon="2.29846">
        <ele>369.9</ele>
        <time>2011-08-09T07:29:59Z</time>
      </trkpt>
      <trkpt lat="44.51816" lon="2.29848">
        <ele>370.2</ele>
        <time>2011-08-09T07:30:01Z</time>
      </trkpt>
      <trkpt lat="44.51813" lon="2.29849">
        <ele>370.8</ele>
        <time>2011-08-09T07:30:03Z</time>
      </trkpt>
      <trkpt lat="44.51809" lon="2.29851">
        <ele>371.5</ele>
        <time>2011-08-09T07:30:06Z</time>
      </trkpt>
      <trkpt lat="44.51805" lon="2.29852">
        <ele>372.2</ele>
        <time>2011-08-09T07:30:09Z</time>
      </trkpt>
      <trkpt lat="44.51801" lon="2.29853">
        <ele>373.7</ele>
        <time>2011-08-09T07:30:12Z</time>
      </trkpt>
      <trkpt lat="44.51798" lon="2.29854">
        <ele>374.4</ele>
        <time>2011-08-09T07:30:15Z</time>
      </trkpt>
      <trkpt lat="44.51794" lon="2.29854">
        <ele>376.1</ele>
        <time>2011-08-09T07:30:18Z</time>
      </trkpt>
      <trkpt lat="44.5179" lon="2.29855">
        <ele>376.8</ele>
        <time>2011-08-09T07:30:21Z</time>
      </trkpt>
      <trkpt lat="44.51787" lon="2.29855">
        <ele>378.2</ele>
        <time>2011-08-09T07:30:24Z</time>
      </trkpt>
      <trkpt lat="44.51783" lon="2.29855">
        <ele>378.9</ele>
        <time>2011-08-09T07:30:27Z</time>
      </trkpt>
      <trkpt lat="44.5178" lon="2.29856">
        <ele>379.4</ele>
        <time>2011-08-09T07:30:30Z</time>
      </trkpt>
      <trkpt lat="44.51778" lon="2.29856">
        <ele>379.5</ele>
        <time>2011-08-09T07:30:31Z</time>
      </trkpt>
      <trkpt lat="44.51772" lon="2.29856">
        <ele>380.6</ele>
        <time>2011-08-09T07:30:36Z</time>
      </trkpt>
      <trkpt lat="44.51768" lon="2.29857">
        <ele>381.4</ele>
        <time>2011-08-09T07:30:39Z</time>
      </trkpt>
      <trkpt lat="44.51763" lon="2.29858">
        <ele>382</ele>
        <time>2011-08-09T07:30:42Z</time>
      </trkpt>
      <trkpt lat="44.5176" lon="2.29859">
        <ele>382.5</ele>
        <time>2011-08-09T07:30:46Z</time>
      </trkpt>
      <trkpt lat="44.51756" lon="2.2986">
        <ele>383.6</ele>
        <time>2011-08-09T07:30:49Z</time>
      </trkpt>
      <trkpt lat="44.51753" lon="2.2986">
        <ele>383.8</ele>
        <time>2011-08-09T07:30:52Z</time>
      </trkpt>
      <trkpt lat="44.51748" lon="2.2986">
        <ele>383.6</ele>
        <time>2011-08-09T07:30:56Z</time>
      </trkpt>
      <trkpt lat="44.51745" lon="2.29862">
        <ele>383.7</ele>
        <time>2011-08-09T07:30:59Z</time>
      </trkpt>
      <trkpt lat="44.51741" lon="2.29863">
        <ele>383.9</ele>
        <time>2011-08-09T07:31:02Z</time>
      </trkpt>
      <trkpt lat="44.51736" lon="2.29863">
        <ele>383.6</ele>
        <time>2011-08-09T07:31:06Z</time>
      </trkpt>
      <trkpt lat="44.51734" lon="2.29863">
        <ele>383.9</ele>
        <time>2011-08-09T07:31:07Z</time>
      </trkpt>
      <trkpt lat="44.51732" lon="2.29863">
        <ele>384.2</ele>
        <time>2011-08-09T07:31:08Z</time>
      </trkpt>
      <trkpt lat="44.5173" lon="2.29863">
        <ele>384.4</ele>
        <time>2011-08-09T07:31:09Z</time>
      </trkpt>
      <trkpt lat="44.51727" lon="2.29863">
        <ele>384.2</ele>
        <time>2011-08-09T07:31:10Z</time>
      </trkpt>
      <trkpt lat="44.51725" lon="2.29864">
        <ele>384.1</ele>
        <time>2011-08-09T07:31:11Z</time>
      </trkpt>
      <trkpt lat="44.51722" lon="2.29864">
        <ele>384</ele>
        <time>2011-08-09T07:31:12Z</time>
      </trkpt>
      <trkpt lat="44.51719" lon="2.29865">
        <ele>383.9</ele>
        <time>2011-08-09T07:31:13Z</time>
      </trkpt>
      <trkpt lat="44.51716" lon="2.29866">
        <ele>383.7</ele>
        <time>2011-08-09T07:31:14Z</time>
      </trkpt>
      <trkpt lat="44.51714" lon="2.29867">
        <ele>383.6</ele>
        <time>2011-08-09T07:31:15Z</time>
      </trkpt>
      <trkpt lat="44.51711" lon="2.29869">
        <ele>383.5</ele>
        <time>2011-08-09T07:31:16Z</time>
      </trkpt>
      <trkpt lat="44.51709" lon="2.29871">
        <ele>383</ele>
        <time>2011-08-09T07:31:17Z</time>
      </trkpt>
      <trkpt lat="44.51706" lon="2.29873">
        <ele>382.5</ele>
        <time>2011-08-09T07:31:18Z</time>
      </trkpt>
      <trkpt lat="44.51703" lon="2.29874">
        <ele>382.2</ele>
        <time>2011-08-09T07:31:19Z</time>
      </trkpt>
      <trkpt lat="44.517" lon="2.29876">
        <ele>382.3</ele>
        <time>2011-08-09T07:31:20Z</time>
      </trkpt>
      <trkpt lat="44.51697" lon="2.29878">
        <ele>382.3</ele>
        <time>2011-08-09T07:31:21Z</time>
      </trkpt>
      <trkpt lat="44.51695" lon="2.2988">
        <ele>382.4</ele>
        <time>2011-08-09T07:31:22Z</time>
      </trkpt>
      <trkpt lat="44.51693" lon="2.29883">
        <ele>382.8</ele>
        <time>2011-08-09T07:31:23Z</time>
      </trkpt>
      <trkpt lat="44.5169" lon="2.29885">
        <ele>383.1</ele>
        <time>2011-08-09T07:31:24Z</time>
      </trkpt>
      <trkpt lat="44.51688" lon="2.29888">
        <ele>383.3</ele>
        <time>2011-08-09T07:31:25Z</time>
      </trkpt>
      <trkpt lat="44.51685" lon="2.2989">
        <ele>382.7</ele>
        <time>2011-08-09T07:31:26Z</time>
      </trkpt>
      <trkpt lat="44.51683" lon="2.29893">
        <ele>382.3</ele>
        <time>2011-08-09T07:31:27Z</time>
      </trkpt>
      <trkpt lat="44.5168" lon="2.29895">
        <ele>382</ele>
        <time>2011-08-09T07:31:28Z</time>
      </trkpt>
      <trkpt lat="44.51679" lon="2.29897">
        <ele>381.8</ele>
        <time>2011-08-09T07:31:29Z</time>
      </trkpt>
      <trkpt lat="44.51676" lon="2.29898">
        <ele>381.8</ele>
        <time>2011-08-09T07:31:30Z</time>
      </trkpt>
      <trkpt lat="44.51674" lon="2.299">
        <ele>381.9</ele>
        <time>2011-08-09T07:31:31Z</time>
      </trkpt>
      <trkpt lat="44.51672" lon="2.29901">
        <ele>381.9</ele>
        <time>2011-08-09T07:31:32Z</time>
      </trkpt>
      <trkpt lat="44.51667" lon="2.29905">
        <ele>383.4</ele>
        <time>2011-08-09T07:31:35Z</time>
      </trkpt>
      <trkpt lat="44.51664" lon="2.29908">
        <ele>383.3</ele>
        <time>2011-08-09T07:31:37Z</time>
      </trkpt>
      <trkpt lat="44.5166" lon="2.29911">
        <ele>383.6</ele>
        <time>2011-08-09T07:31:39Z</time>
      </trkpt>
      <trkpt lat="44.51657" lon="2.29914">
        <ele>384</ele>
        <time>2011-08-09T07:31:41Z</time>
      </trkpt>
      <trkpt lat="44.51653" lon="2.29917">
        <ele>385.2</ele>
        <time>2011-08-09T07:31:43Z</time>
      </trkpt>
      <trkpt lat="44.51651" lon="2.2992">
        <ele>385.9</ele>
        <time>2011-08-09T07:31:45Z</time>
      </trkpt>
      <trkpt lat="44.51648" lon="2.29922">
        <ele>386.3</ele>
        <time>2011-08-09T07:31:47Z</time>
      </trkpt>
      <trkpt lat="44.51645" lon="2.29925">
        <ele>387</ele>
        <time>2011-08-09T07:31:49Z</time>
      </trkpt>
      <trkpt lat="44.51642" lon="2.29926">
        <ele>387.7</ele>
        <time>2011-08-09T07:31:51Z</time>
      </trkpt>
      <trkpt lat="44.51639" lon="2.29926">
        <ele>387.6</ele>
        <time>2011-08-09T07:31:52Z</time>
      </trkpt>
      <trkpt lat="44.51637" lon="2.29925">
        <ele>387.5</ele>
        <time>2011-08-09T07:31:53Z</time>
      </trkpt>
      <trkpt lat="44.51634" lon="2.29924">
        <ele>387.4</ele>
        <time>2011-08-09T07:31:54Z</time>
      </trkpt>
      <trkpt lat="44.51631" lon="2.29923">
        <ele>387.4</ele>
        <time>2011-08-09T07:31:55Z</time>
      </trkpt>
      <trkpt lat="44.51629" lon="2.29921">
        <ele>387.4</ele>
        <time>2011-08-09T07:31:56Z</time>
      </trkpt>
      <trkpt lat="44.51626" lon="2.2992">
        <ele>387.4</ele>
        <time>2011-08-09T07:31:57Z</time>
      </trkpt>
      <trkpt lat="44.51623" lon="2.29918">
        <ele>387.3</ele>
        <time>2011-08-09T07:31:58Z</time>
      </trkpt>
      <trkpt lat="44.5162" lon="2.29917">
        <ele>387.2</ele>
        <time>2011-08-09T07:31:59Z</time>
      </trkpt>
      <trkpt lat="44.51617" lon="2.29915">
        <ele>387.1</ele>
        <time>2011-08-09T07:32:00Z</time>
      </trkpt>
      <trkpt lat="44.51614" lon="2.29913">
        <ele>387.1</ele>
        <time>2011-08-09T07:32:01Z</time>
      </trkpt>
      <trkpt lat="44.51611" lon="2.29912">
        <ele>386.7</ele>
        <time>2011-08-09T07:32:02Z</time>
      </trkpt>
      <trkpt lat="44.51608" lon="2.2991">
        <ele>386.4</ele>
        <time>2011-08-09T07:32:03Z</time>
      </trkpt>
      <trkpt lat="44.51606" lon="2.29909">
        <ele>386.2</ele>
        <time>2011-08-09T07:32:04Z</time>
      </trkpt>
      <trkpt lat="44.51603" lon="2.29907">
        <ele>386.3</ele>
        <time>2011-08-09T07:32:05Z</time>
      </trkpt>
      <trkpt lat="44.51601" lon="2.29906">
        <ele>386.4</ele>
        <time>2011-08-09T07:32:06Z</time>
      </trkpt>
      <trkpt lat="44.51598" lon="2.29905">
        <ele>386.4</ele>
        <time>2011-08-09T07:32:07Z</time>
      </trkpt>
      <trkpt lat="44.51595" lon="2.29904">
        <ele>386.3</ele>
        <time>2011-08-09T07:32:08Z</time>
      </trkpt>
      <trkpt lat="44.51592" lon="2.29903">
        <ele>386.2</ele>
        <time>2011-08-09T07:32:09Z</time>
      </trkpt>
      <trkpt lat="44.51589" lon="2.29901">
        <ele>386.2</ele>
        <time>2011-08-09T07:32:10Z</time>
      </trkpt>
      <trkpt lat="44.51586" lon="2.29899">
        <ele>385.9</ele>
        <time>2011-08-09T07:32:11Z</time>
      </trkpt>
      <trkpt lat="44.51583" lon="2.29898">
        <ele>385.7</ele>
        <time>2011-08-09T07:32:12Z</time>
      </trkpt>
      <trkpt lat="44.51581" lon="2.29896">
        <ele>385.6</ele>
        <time>2011-08-09T07:32:13Z</time>
      </trkpt>
      <trkpt lat="44.51578" lon="2.29894">
        <ele>385.7</ele>
        <time>2011-08-09T07:32:14Z</time>
      </trkpt>
      <trkpt lat="44.51575" lon="2.29892">
        <ele>385.7</ele>
        <time>2011-08-09T07:32:15Z</time>
      </trkpt>
      <trkpt lat="44.51572" lon="2.2989">
        <ele>385.7</ele>
        <time>2011-08-09T07:32:16Z</time>
      </trkpt>
      <trkpt lat="44.5157" lon="2.29888">
        <ele>385.7</ele>
        <time>2011-08-09T07:32:17Z</time>
      </trkpt>
      <trkpt lat="44.51567" lon="2.29886">
        <ele>385.9</ele>
        <time>2011-08-09T07:32:18Z</time>
      </trkpt>
      <trkpt lat="44.51564" lon="2.29883">
        <ele>386</ele>
        <time>2011-08-09T07:32:19Z</time>
      </trkpt>
      <trkpt lat="44.51562" lon="2.29881">
        <ele>386.1</ele>
        <time>2011-08-09T07:32:20Z</time>
      </trkpt>
      <trkpt lat="44.51559" lon="2.29879">
        <ele>386.3</ele>
        <time>2011-08-09T07:32:21Z</time>
      </trkpt>
      <trkpt lat="44.51557" lon="2.29877">
        <ele>386.4</ele>
        <time>2011-08-09T07:32:22Z</time>
      </trkpt>
      <trkpt lat="44.51555" lon="2.29875">
        <ele>386.5</ele>
        <time>2011-08-09T07:32:23Z</time>
      </trkpt>
      <trkpt lat="44.51552" lon="2.29871">
        <ele>386.8</ele>
        <time>2011-08-09T07:32:25Z</time>
      </trkpt>
      <trkpt lat="44.51549" lon="2.29869">
        <ele>386.9</ele>
        <time>2011-08-09T07:32:27Z</time>
      </trkpt>
      <trkpt lat="44.51545" lon="2.29866">
        <ele>386.8</ele>
        <time>2011-08-09T07:32:29Z</time>
      </trkpt>
      <trkpt lat="44.51544" lon="2.29864">
        <ele>387</ele>
        <time>2011-08-09T07:32:30Z</time>
      </trkpt>
      <trkpt lat="44.51542" lon="2.29862">
        <ele>387.1</ele>
        <time>2011-08-09T07:32:31Z</time>
      </trkpt>
      <trkpt lat="44.51539" lon="2.29859">
        <ele>387.2</ele>
        <time>2011-08-09T07:32:32Z</time>
      </trkpt>
      <trkpt lat="44.51538" lon="2.29857">
        <ele>387.2</ele>
        <time>2011-08-09T07:32:33Z</time>
      </trkpt>
      <trkpt lat="44.51535" lon="2.29854">
        <ele>387.1</ele>
        <time>2011-08-09T07:32:34Z</time>
      </trkpt>
      <trkpt lat="44.51533" lon="2.29852">
        <ele>387.1</ele>
        <time>2011-08-09T07:32:35Z</time>
      </trkpt>
      <trkpt lat="44.51531" lon="2.2985">
        <ele>387.1</ele>
        <time>2011-08-09T07:32:36Z</time>
      </trkpt>
      <trkpt lat="44.51529" lon="2.29847">
        <ele>387.2</ele>
        <time>2011-08-09T07:32:37Z</time>
      </trkpt>
      <trkpt lat="44.51527" lon="2.29845">
        <ele>387.4</ele>
        <time>2011-08-09T07:32:38Z</time>
      </trkpt>
      <trkpt lat="44.51525" lon="2.29842">
        <ele>387.5</ele>
        <time>2011-08-09T07:32:39Z</time>
      </trkpt>
      <trkpt lat="44.51523" lon="2.2984">
        <ele>387.9</ele>
        <time>2011-08-09T07:32:40Z</time>
      </trkpt>
      <trkpt lat="44.51521" lon="2.29837">
        <ele>388.1</ele>
        <time>2011-08-09T07:32:41Z</time>
      </trkpt>
      <trkpt lat="44.51519" lon="2.29835">
        <ele>388.4</ele>
        <time>2011-08-09T07:32:42Z</time>
      </trkpt>
      <trkpt lat="44.51517" lon="2.29832">
        <ele>388.3</ele>
        <time>2011-08-09T07:32:43Z</time>
      </trkpt>
      <trkpt lat="44.51515" lon="2.2983">
        <ele>388.3</ele>
        <time>2011-08-09T07:32:44Z</time>
      </trkpt>
      <trkpt lat="44.51513" lon="2.29827">
        <ele>388.2</ele>
        <time>2011-08-09T07:32:45Z</time>
      </trkpt>
      <trkpt lat="44.51511" lon="2.29824">
        <ele>388.6</ele>
        <time>2011-08-09T07:32:46Z</time>
      </trkpt>
      <trkpt lat="44.51509" lon="2.29822">
        <ele>388.8</ele>
        <time>2011-08-09T07:32:47Z</time>
      </trkpt>
      <trkpt lat="44.51507" lon="2.2982">
        <ele>389</ele>
        <time>2011-08-09T07:32:48Z</time>
      </trkpt>
      <trkpt lat="44.51505" lon="2.29818">
        <ele>388.9</ele>
        <time>2011-08-09T07:32:49Z</time>
      </trkpt>
      <trkpt lat="44.51503" lon="2.29815">
        <ele>388.8</ele>
        <time>2011-08-09T07:32:50Z</time>
      </trkpt>
      <trkpt lat="44.51501" lon="2.29813">
        <ele>388.7</ele>
        <time>2011-08-09T07:32:51Z</time>
      </trkpt>
      <trkpt lat="44.51499" lon="2.29811">
        <ele>388.7</ele>
        <time>2011-08-09T07:32:52Z</time>
      </trkpt>
      <trkpt lat="44.51497" lon="2.29808">
        <ele>388.9</ele>
        <time>2011-08-09T07:32:53Z</time>
      </trkpt>
      <trkpt lat="44.51495" lon="2.29806">
        <ele>389</ele>
        <time>2011-08-09T07:32:54Z</time>
      </trkpt>
      <trkpt lat="44.51493" lon="2.29804">
        <ele>389.1</ele>
        <time>2011-08-09T07:32:55Z</time>
      </trkpt>
      <trkpt lat="44.51491" lon="2.29802">
        <ele>389.2</ele>
        <time>2011-08-09T07:32:56Z</time>
      </trkpt>
      <trkpt lat="44.51489" lon="2.298">
        <ele>389.2</ele>
        <time>2011-08-09T07:32:57Z</time>
      </trkpt>
      <trkpt lat="44.51487" lon="2.29798">
        <ele>389.2</ele>
        <time>2011-08-09T07:32:58Z</time>
      </trkpt>
      <trkpt lat="44.51485" lon="2.29796">
        <ele>389.6</ele>
        <time>2011-08-09T07:32:59Z</time>
      </trkpt>
      <trkpt lat="44.51484" lon="2.29794">
        <ele>389.8</ele>
        <time>2011-08-09T07:33:00Z</time>
      </trkpt>
      <trkpt lat="44.51482" lon="2.29792">
        <ele>390</ele>
        <time>2011-08-09T07:33:01Z</time>
      </trkpt>
      <trkpt lat="44.5148" lon="2.2979">
        <ele>390.5</ele>
        <time>2011-08-09T07:33:02Z</time>
      </trkpt>
      <trkpt lat="44.51478" lon="2.29787">
        <ele>390.8</ele>
        <time>2011-08-09T07:33:03Z</time>
      </trkpt>
      <trkpt lat="44.51476" lon="2.29785">
        <ele>391</ele>
        <time>2011-08-09T07:33:04Z</time>
      </trkpt>
      <trkpt lat="44.51474" lon="2.29783">
        <ele>391.3</ele>
        <time>2011-08-09T07:33:05Z</time>
      </trkpt>
      <trkpt lat="44.51472" lon="2.29781">
        <ele>391.5</ele>
        <time>2011-08-09T07:33:06Z</time>
      </trkpt>
      <trkpt lat="44.5147" lon="2.29779">
        <ele>391.6</ele>
        <time>2011-08-09T07:33:07Z</time>
      </trkpt>
      <trkpt lat="44.51469" lon="2.29776">
        <ele>391.7</ele>
        <time>2011-08-09T07:33:08Z</time>
      </trkpt>
      <trkpt lat="44.51467" lon="2.29774">
        <ele>391.2</ele>
        <time>2011-08-09T07:33:09Z</time>
      </trkpt>
      <trkpt lat="44.51464" lon="2.29772">
        <ele>390.9</ele>
        <time>2011-08-09T07:33:10Z</time>
      </trkpt>
      <trkpt lat="44.51462" lon="2.2977">
        <ele>390.6</ele>
        <time>2011-08-09T07:33:11Z</time>
      </trkpt>
      <trkpt lat="44.5146" lon="2.29768">
        <ele>391.1</ele>
        <time>2011-08-09T07:33:12Z</time>
      </trkpt>
      <trkpt lat="44.51458" lon="2.29766">
        <ele>391.4</ele>
        <time>2011-08-09T07:33:13Z</time>
      </trkpt>
      <trkpt lat="44.51456" lon="2.29764">
        <ele>391.7</ele>
        <time>2011-08-09T07:33:14Z</time>
      </trkpt>
      <trkpt lat="44.51454" lon="2.29762">
        <ele>391.3</ele>
        <time>2011-08-09T07:33:15Z</time>
      </trkpt>
      <trkpt lat="44.51452" lon="2.2976">
        <ele>391.1</ele>
        <time>2011-08-09T07:33:16Z</time>
      </trkpt>
      <trkpt lat="44.51449" lon="2.29758">
        <ele>390.8</ele>
        <time>2011-08-09T07:33:17Z</time>
      </trkpt>
      <trkpt lat="44.51447" lon="2.29756">
        <ele>391.2</ele>
        <time>2011-08-09T07:33:18Z</time>
      </trkpt>
      <trkpt lat="44.51445" lon="2.29754">
        <ele>391.4</ele>
        <time>2011-08-09T07:33:19Z</time>
      </trkpt>
      <trkpt lat="44.51443" lon="2.29752">
        <ele>391.6</ele>
        <time>2011-08-09T07:33:20Z</time>
      </trkpt>
      <trkpt lat="44.51441" lon="2.2975">
        <ele>392</ele>
        <time>2011-08-09T07:33:21Z</time>
      </trkpt>
      <trkpt lat="44.51439" lon="2.29748">
        <ele>392.3</ele>
        <time>2011-08-09T07:33:22Z</time>
      </trkpt>
      <trkpt lat="44.51437" lon="2.29746">
        <ele>392.6</ele>
        <time>2011-08-09T07:33:23Z</time>
      </trkpt>
      <trkpt lat="44.51434" lon="2.29744">
        <ele>392.7</ele>
        <time>2011-08-09T07:33:24Z</time>
      </trkpt>
      <trkpt lat="44.51432" lon="2.29742">
        <ele>392.7</ele>
        <time>2011-08-09T07:33:25Z</time>
      </trkpt>
      <trkpt lat="44.5143" lon="2.2974">
        <ele>392.6</ele>
        <time>2011-08-09T07:33:26Z</time>
      </trkpt>
      <trkpt lat="44.51428" lon="2.29738">
        <ele>392.6</ele>
        <time>2011-08-09T07:33:27Z</time>
      </trkpt>
      <trkpt lat="44.51426" lon="2.29735">
        <ele>392.7</ele>
        <time>2011-08-09T07:33:28Z</time>
      </trkpt>
      <trkpt lat="44.51424" lon="2.29733">
        <ele>392.8</ele>
        <time>2011-08-09T07:33:29Z</time>
      </trkpt>
      <trkpt lat="44.51421" lon="2.29731">
        <ele>392.8</ele>
        <time>2011-08-09T07:33:30Z</time>
      </trkpt>
      <trkpt lat="44.51419" lon="2.29729">
        <ele>392.9</ele>
        <time>2011-08-09T07:33:31Z</time>
      </trkpt>
      <trkpt lat="44.51416" lon="2.29727">
        <ele>393</ele>
        <time>2011-08-09T07:33:32Z</time>
      </trkpt>
      <trkpt lat="44.51414" lon="2.29725">
        <ele>393</ele>
        <time>2011-08-09T07:33:33Z</time>
      </trkpt>
      <trkpt lat="44.51412" lon="2.29722">
        <ele>393.4</ele>
        <time>2011-08-09T07:33:34Z</time>
      </trkpt>
      <trkpt lat="44.5141" lon="2.2972">
        <ele>393.6</ele>
        <time>2011-08-09T07:33:35Z</time>
      </trkpt>
      <trkpt lat="44.51408" lon="2.29718">
        <ele>393.8</ele>
        <time>2011-08-09T07:33:36Z</time>
      </trkpt>
      <trkpt lat="44.51405" lon="2.29716">
        <ele>393.8</ele>
        <time>2011-08-09T07:33:37Z</time>
      </trkpt>
      <trkpt lat="44.51403" lon="2.29713">
        <ele>393.7</ele>
        <time>2011-08-09T07:33:38Z</time>
      </trkpt>
      <trkpt lat="44.514" lon="2.29711">
        <ele>393.6</ele>
        <time>2011-08-09T07:33:39Z</time>
      </trkpt>
      <trkpt lat="44.51398" lon="2.29708">
        <ele>393.4</ele>
        <time>2011-08-09T07:33:40Z</time>
      </trkpt>
      <trkpt lat="44.51395" lon="2.29706">
        <ele>393.2</ele>
        <time>2011-08-09T07:33:41Z</time>
      </trkpt>
      <trkpt lat="44.51392" lon="2.29703">
        <ele>393.1</ele>
        <time>2011-08-09T07:33:42Z</time>
      </trkpt>
      <trkpt lat="44.5139" lon="2.29701">
        <ele>393</ele>
        <time>2011-08-09T07:33:43Z</time>
      </trkpt>
      <trkpt lat="44.51387" lon="2.29698">
        <ele>393.1</ele>
        <time>2011-08-09T07:33:44Z</time>
      </trkpt>
      <trkpt lat="44.51385" lon="2.29696">
        <ele>393.1</ele>
        <time>2011-08-09T07:33:45Z</time>
      </trkpt>
      <trkpt lat="44.51382" lon="2.29693">
        <ele>393.2</ele>
        <time>2011-08-09T07:33:46Z</time>
      </trkpt>
      <trkpt lat="44.5138" lon="2.2969">
        <ele>393.5</ele>
        <time>2011-08-09T07:33:47Z</time>
      </trkpt>
      <trkpt lat="44.51377" lon="2.29688">
        <ele>393.8</ele>
        <time>2011-08-09T07:33:48Z</time>
      </trkpt>
      <trkpt lat="44.51375" lon="2.29685">
        <ele>394</ele>
        <time>2011-08-09T07:33:49Z</time>
      </trkpt>
      <trkpt lat="44.51372" lon="2.29683">
        <ele>393.9</ele>
        <time>2011-08-09T07:33:50Z</time>
      </trkpt>
      <trkpt lat="44.5137" lon="2.2968">
        <ele>393.8</ele>
        <time>2011-08-09T07:33:51Z</time>
      </trkpt>
      <trkpt lat="44.51367" lon="2.29678">
        <ele>393.8</ele>
        <time>2011-08-09T07:33:52Z</time>
      </trkpt>
      <trkpt lat="44.51365" lon="2.29676">
        <ele>393.7</ele>
        <time>2011-08-09T07:33:53Z</time>
      </trkpt>
      <trkpt lat="44.51364" lon="2.29674">
        <ele>393.7</ele>
        <time>2011-08-09T07:33:54Z</time>
      </trkpt>
      <trkpt lat="44.51362" lon="2.29671">
        <ele>393.6</ele>
        <time>2011-08-09T07:33:55Z</time>
      </trkpt>
      <trkpt lat="44.5136" lon="2.29669">
        <ele>393.8</ele>
        <time>2011-08-09T07:33:56Z</time>
      </trkpt>
      <trkpt lat="44.51357" lon="2.29667">
        <ele>393.9</ele>
        <time>2011-08-09T07:33:57Z</time>
      </trkpt>
      <trkpt lat="44.51355" lon="2.29665">
        <ele>394</ele>
        <time>2011-08-09T07:33:58Z</time>
      </trkpt>
      <trkpt lat="44.51352" lon="2.29662">
        <ele>394.1</ele>
        <time>2011-08-09T07:33:59Z</time>
      </trkpt>
      <trkpt lat="44.5135" lon="2.2966">
        <ele>394</ele>
        <time>2011-08-09T07:34:00Z</time>
      </trkpt>
      <trkpt lat="44.51348" lon="2.29658">
        <ele>394</ele>
        <time>2011-08-09T07:34:01Z</time>
      </trkpt>
      <trkpt lat="44.51346" lon="2.29656">
        <ele>393.9</ele>
        <time>2011-08-09T07:34:02Z</time>
      </trkpt>
      <trkpt lat="44.51344" lon="2.29653">
        <ele>394</ele>
        <time>2011-08-09T07:34:03Z</time>
      </trkpt>
      <trkpt lat="44.51341" lon="2.29651">
        <ele>394.1</ele>
        <time>2011-08-09T07:34:04Z</time>
      </trkpt>
      <trkpt lat="44.51339" lon="2.29649">
        <ele>394.2</ele>
        <time>2011-08-09T07:34:05Z</time>
      </trkpt>
      <trkpt lat="44.51337" lon="2.29647">
        <ele>394.1</ele>
        <time>2011-08-09T07:34:06Z</time>
      </trkpt>
      <trkpt lat="44.51335" lon="2.29644">
        <ele>394</ele>
        <time>2011-08-09T07:34:07Z</time>
      </trkpt>
      <trkpt lat="44.51332" lon="2.29642">
        <ele>393.9</ele>
        <time>2011-08-09T07:34:08Z</time>
      </trkpt>
      <trkpt lat="44.5133" lon="2.2964">
        <ele>393.7</ele>
        <time>2011-08-09T07:34:09Z</time>
      </trkpt>
      <trkpt lat="44.51328" lon="2.29637">
        <ele>393.6</ele>
        <time>2011-08-09T07:34:10Z</time>
      </trkpt>
      <trkpt lat="44.51326" lon="2.29635">
        <ele>393.5</ele>
        <time>2011-08-09T07:34:11Z</time>
      </trkpt>
      <trkpt lat="44.51324" lon="2.29632">
        <ele>393</ele>
        <time>2011-08-09T07:34:12Z</time>
      </trkpt>
      <trkpt lat="44.51322" lon="2.29628">
        <ele>392.6</ele>
        <time>2011-08-09T07:34:13Z</time>
      </trkpt>
      <trkpt lat="44.51319" lon="2.29624">
        <ele>392.1</ele>
        <time>2011-08-09T07:34:15Z</time>
      </trkpt>
      <trkpt lat="44.51316" lon="2.29622">
        <ele>393.3</ele>
        <time>2011-08-09T07:34:18Z</time>
      </trkpt>
      <trkpt lat="44.51312" lon="2.29618">
        <ele>393.5</ele>
        <time>2011-08-09T07:34:23Z</time>
      </trkpt>
      <trkpt lat="44.5131" lon="2.29616">
        <ele>393.5</ele>
        <time>2011-08-09T07:34:24Z</time>
      </trkpt>
      <trkpt lat="44.51307" lon="2.29614">
        <ele>393.4</ele>
        <time>2011-08-09T07:34:25Z</time>
      </trkpt>
      <trkpt lat="44.51303" lon="2.29612">
        <ele>393.4</ele>
        <time>2011-08-09T07:34:26Z</time>
      </trkpt>
      <trkpt lat="44.51297" lon="2.2961">
        <ele>393.4</ele>
        <time>2011-08-09T07:34:27Z</time>
      </trkpt>
      <trkpt lat="44.51293" lon="2.29608">
        <ele>391.9</ele>
        <time>2011-08-09T07:34:28Z</time>
      </trkpt>
      <trkpt lat="44.51289" lon="2.29609">
        <ele>390.8</ele>
        <time>2011-08-09T07:34:29Z</time>
      </trkpt>
      <trkpt lat="44.51287" lon="2.29612">
        <ele>390</ele>
        <time>2011-08-09T07:34:30Z</time>
      </trkpt>
      <trkpt lat="44.51284" lon="2.29614">
        <ele>389.3</ele>
        <time>2011-08-09T07:34:31Z</time>
      </trkpt>
      <trkpt lat="44.51282" lon="2.29617">
        <ele>387.9</ele>
        <time>2011-08-09T07:34:32Z</time>
      </trkpt>
      <trkpt lat="44.5128" lon="2.2962">
        <ele>386.8</ele>
        <time>2011-08-09T07:34:33Z</time>
      </trkpt>
      <trkpt lat="44.51278" lon="2.29623">
        <ele>386</ele>
        <time>2011-08-09T07:34:34Z</time>
      </trkpt>
      <trkpt lat="44.51275" lon="2.29626">
        <ele>385.1</ele>
        <time>2011-08-09T07:34:35Z</time>
      </trkpt>
      <trkpt lat="44.51271" lon="2.29628">
        <ele>382.8</ele>
        <time>2011-08-09T07:34:43Z</time>
      </trkpt>
      <trkpt lat="44.5127" lon="2.29629">
        <ele>382.4</ele>
        <time>2011-08-09T07:34:44Z</time>
      </trkpt>
      <trkpt lat="44.51265" lon="2.29636">
        <ele>381.1</ele>
        <time>2011-08-09T07:34:54Z</time>
      </trkpt>
      <trkpt lat="44.51261" lon="2.2964">
        <ele>380.2</ele>
        <time>2011-08-09T07:35:04Z</time>
      </trkpt>
      <trkpt lat="44.51258" lon="2.29644">
        <ele>380.7</ele>
        <time>2011-08-09T07:35:17Z</time>
      </trkpt>
      <trkpt lat="44.51254" lon="2.29646">
        <ele>381.3</ele>
        <time>2011-08-09T07:35:34Z</time>
      </trkpt>
      <trkpt lat="44.5125" lon="2.29649">
        <ele>380.5</ele>
        <time>2011-08-09T07:35:37Z</time>
      </trkpt>
      <trkpt lat="44.51249" lon="2.29651">
        <ele>380.4</ele>
        <time>2011-08-09T07:35:38Z</time>
      </trkpt>
      <trkpt lat="44.51246" lon="2.29653">
        <ele>379.5</ele>
        <time>2011-08-09T07:35:39Z</time>
      </trkpt>
      <trkpt lat="44.51243" lon="2.29657">
        <ele>378.8</ele>
        <time>2011-08-09T07:35:40Z</time>
      </trkpt>
      <trkpt lat="44.51241" lon="2.29661">
        <ele>378.3</ele>
        <time>2011-08-09T07:35:41Z</time>
      </trkpt>
      <trkpt lat="44.51238" lon="2.29667">
        <ele>377.6</ele>
        <time>2011-08-09T07:35:42Z</time>
      </trkpt>
      <trkpt lat="44.51235" lon="2.29673">
        <ele>377.1</ele>
        <time>2011-08-09T07:35:43Z</time>
      </trkpt>
      <trkpt lat="44.51231" lon="2.29679">
        <ele>376.7</ele>
        <time>2011-08-09T07:35:44Z</time>
      </trkpt>
      <trkpt lat="44.51229" lon="2.29683">
        <ele>375.3</ele>
        <time>2011-08-09T07:35:45Z</time>
      </trkpt>
      <trkpt lat="44.51226" lon="2.29689">
        <ele>374.3</ele>
        <time>2011-08-09T07:35:46Z</time>
      </trkpt>
      <trkpt lat="44.51223" lon="2.29696">
        <ele>373.5</ele>
        <time>2011-08-09T07:35:47Z</time>
      </trkpt>
      <trkpt lat="44.5122" lon="2.29703">
        <ele>371.7</ele>
        <time>2011-08-09T07:35:48Z</time>
      </trkpt>
      <trkpt lat="44.51218" lon="2.29709">
        <ele>370.4</ele>
        <time>2011-08-09T07:35:49Z</time>
      </trkpt>
      <trkpt lat="44.51217" lon="2.29713">
        <ele>369.3</ele>
        <time>2011-08-09T07:35:50Z</time>
      </trkpt>
      <trkpt lat="44.51217" lon="2.29718">
        <ele>368</ele>
        <time>2011-08-09T07:35:51Z</time>
      </trkpt>
      <trkpt lat="44.51218" lon="2.29724">
        <ele>367.1</ele>
        <time>2011-08-09T07:35:52Z</time>
      </trkpt>
      <trkpt lat="44.51219" lon="2.2973">
        <ele>366.3</ele>
        <time>2011-08-09T07:35:53Z</time>
      </trkpt>
      <trkpt lat="44.5122" lon="2.29737">
        <ele>365.8</ele>
        <time>2011-08-09T07:35:54Z</time>
      </trkpt>
      <trkpt lat="44.51223" lon="2.29746">
        <ele>364.1</ele>
        <time>2011-08-09T07:35:55Z</time>
      </trkpt>
      <trkpt lat="44.51225" lon="2.29754">
        <ele>362.9</ele>
        <time>2011-08-09T07:35:56Z</time>
      </trkpt>
      <trkpt lat="44.51226" lon="2.29761">
        <ele>362</ele>
        <time>2011-08-09T07:35:57Z</time>
      </trkpt>
      <trkpt lat="44.51226" lon="2.29766">
        <ele>360</ele>
        <time>2011-08-09T07:35:58Z</time>
      </trkpt>
      <trkpt lat="44.51226" lon="2.2977">
        <ele>358.4</ele>
        <time>2011-08-09T07:35:59Z</time>
      </trkpt>
      <trkpt lat="44.51226" lon="2.29774">
        <ele>357.3</ele>
        <time>2011-08-09T07:36:00Z</time>
      </trkpt>
      <trkpt lat="44.51227" lon="2.29779">
        <ele>355.9</ele>
        <time>2011-08-09T07:36:01Z</time>
      </trkpt>
      <trkpt lat="44.51229" lon="2.29785">
        <ele>354.9</ele>
        <time>2011-08-09T07:36:02Z</time>
      </trkpt>
      <trkpt lat="44.51232" lon="2.29793">
        <ele>354.1</ele>
        <time>2011-08-09T07:36:03Z</time>
      </trkpt>
      <trkpt lat="44.51234" lon="2.298">
        <ele>352.5</ele>
        <time>2011-08-09T07:36:04Z</time>
      </trkpt>
      <trkpt lat="44.51235" lon="2.29806">
        <ele>351.3</ele>
        <time>2011-08-09T07:36:05Z</time>
      </trkpt>
      <trkpt lat="44.51236" lon="2.29812">
        <ele>350.4</ele>
        <time>2011-08-09T07:36:06Z</time>
      </trkpt>
      <trkpt lat="44.51238" lon="2.29818">
        <ele>348.8</ele>
        <time>2011-08-09T07:36:07Z</time>
      </trkpt>
      <trkpt lat="44.5124" lon="2.29823">
        <ele>347.5</ele>
        <time>2011-08-09T07:36:08Z</time>
      </trkpt>
      <trkpt lat="44.51242" lon="2.29828">
        <ele>346.6</ele>
        <time>2011-08-09T07:36:09Z</time>
      </trkpt>
      <trkpt lat="44.51244" lon="2.29833">
        <ele>345.9</ele>
        <time>2011-08-09T07:36:10Z</time>
      </trkpt>
      <trkpt lat="44.51245" lon="2.2984">
        <ele>344.8</ele>
        <time>2011-08-09T07:36:11Z</time>
      </trkpt>
      <trkpt lat="44.51248" lon="2.29847">
        <ele>343.9</ele>
        <time>2011-08-09T07:36:12Z</time>
      </trkpt>
      <trkpt lat="44.5125" lon="2.29854">
        <ele>343.2</ele>
        <time>2011-08-09T07:36:13Z</time>
      </trkpt>
      <trkpt lat="44.51253" lon="2.29861">
        <ele>341.4</ele>
        <time>2011-08-09T07:36:14Z</time>
      </trkpt>
      <trkpt lat="44.51255" lon="2.29868">
        <ele>340</ele>
        <time>2011-08-09T07:36:15Z</time>
      </trkpt>
      <trkpt lat="44.51257" lon="2.29871">
        <ele>339</ele>
        <time>2011-08-09T07:36:16Z</time>
      </trkpt>
      <trkpt lat="44.51259" lon="2.29875">
        <ele>336.8</ele>
        <time>2011-08-09T07:36:17Z</time>
      </trkpt>
      <trkpt lat="44.51259" lon="2.29881">
        <ele>332.6</ele>
        <time>2011-08-09T07:36:20Z</time>
      </trkpt>
      <trkpt lat="44.51259" lon="2.29886">
        <ele>330</ele>
        <time>2011-08-09T07:36:25Z</time>
      </trkpt>
      <trkpt lat="44.51259" lon="2.29892">
        <ele>328.6</ele>
        <time>2011-08-09T07:36:32Z</time>
      </trkpt>
      <trkpt lat="44.51255" lon="2.29893">
        <ele>328.7</ele>
        <time>2011-08-09T07:36:42Z</time>
      </trkpt>
      <trkpt lat="44.51254" lon="2.29888">
        <ele>329.3</ele>
        <time>2011-08-09T07:36:45Z</time>
      </trkpt>
      <trkpt lat="44.51251" lon="2.29883">
        <ele>329</ele>
        <time>2011-08-09T07:36:51Z</time>
      </trkpt>
      <trkpt lat="44.51251" lon="2.29882">
        <ele>329.4</ele>
        <time>2011-08-09T07:36:52Z</time>
      </trkpt>
      <trkpt lat="44.51245" lon="2.29879">
        <ele>330.7</ele>
        <time>2011-08-09T07:36:58Z</time>
      </trkpt>
      <trkpt lat="44.51243" lon="2.29877">
        <ele>330.6</ele>
        <time>2011-08-09T07:37:00Z</time>
      </trkpt>
      <trkpt lat="44.51239" lon="2.29875">
        <ele>330.6</ele>
        <time>2011-08-09T07:37:02Z</time>
      </trkpt>
      <trkpt lat="44.51237" lon="2.29874">
        <ele>330.5</ele>
        <time>2011-08-09T07:37:03Z</time>
      </trkpt>
      <trkpt lat="44.51233" lon="2.29871">
        <ele>330.2</ele>
        <time>2011-08-09T07:37:05Z</time>
      </trkpt>
      <trkpt lat="44.5123" lon="2.2987">
        <ele>330</ele>
        <time>2011-08-09T07:37:06Z</time>
      </trkpt>
      <trkpt lat="44.51228" lon="2.29869">
        <ele>329.8</ele>
        <time>2011-08-09T07:37:07Z</time>
      </trkpt>
      <trkpt lat="44.51226" lon="2.29868">
        <ele>329.1</ele>
        <time>2011-08-09T07:37:08Z</time>
      </trkpt>
      <trkpt lat="44.51223" lon="2.29866">
        <ele>328.5</ele>
        <time>2011-08-09T07:37:09Z</time>
      </trkpt>
      <trkpt lat="44.5122" lon="2.29865">
        <ele>328.1</ele>
        <time>2011-08-09T07:37:10Z</time>
      </trkpt>
      <trkpt lat="44.51218" lon="2.29863">
        <ele>328.1</ele>
        <time>2011-08-09T07:37:11Z</time>
      </trkpt>
      <trkpt lat="44.51215" lon="2.29861">
        <ele>328.1</ele>
        <time>2011-08-09T07:37:12Z</time>
      </trkpt>
      <trkpt lat="44.51212" lon="2.29859">
        <ele>328.1</ele>
        <time>2011-08-09T07:37:13Z</time>
      </trkpt>
      <trkpt lat="44.51209" lon="2.29857">
        <ele>327.7</ele>
        <time>2011-08-09T07:37:14Z</time>
      </trkpt>
      <trkpt lat="44.51206" lon="2.29854">
        <ele>327.3</ele>
        <time>2011-08-09T07:37:15Z</time>
      </trkpt>
      <trkpt lat="44.51202" lon="2.29852">
        <ele>327</ele>
        <time>2011-08-09T07:37:16Z</time>
      </trkpt>
      <trkpt lat="44.51198" lon="2.29849">
        <ele>326.8</ele>
        <time>2011-08-09T07:37:17Z</time>
      </trkpt>
      <trkpt lat="44.51193" lon="2.29847">
        <ele>326</ele>
        <time>2011-08-09T07:37:18Z</time>
      </trkpt>
      <trkpt lat="44.51189" lon="2.29844">
        <ele>325.4</ele>
        <time>2011-08-09T07:37:19Z</time>
      </trkpt>
      <trkpt lat="44.51185" lon="2.29841">
        <ele>324.9</ele>
        <time>2011-08-09T07:37:20Z</time>
      </trkpt>
      <trkpt lat="44.51182" lon="2.29837">
        <ele>324.3</ele>
        <time>2011-08-09T07:37:21Z</time>
      </trkpt>
      <trkpt lat="44.51177" lon="2.29833">
        <ele>323.9</ele>
        <time>2011-08-09T07:37:22Z</time>
      </trkpt>
      <trkpt lat="44.51172" lon="2.29829">
        <ele>323.5</ele>
        <time>2011-08-09T07:37:23Z</time>
      </trkpt>
      <trkpt lat="44.51168" lon="2.29824">
        <ele>322.7</ele>
        <time>2011-08-09T07:37:24Z</time>
      </trkpt>
      <trkpt lat="44.51164" lon="2.29817">
        <ele>322.1</ele>
        <time>2011-08-09T07:37:25Z</time>
      </trkpt>
      <trkpt lat="44.5116" lon="2.29811">
        <ele>321.6</ele>
        <time>2011-08-09T07:37:26Z</time>
      </trkpt>
      <trkpt lat="44.51157" lon="2.29807">
        <ele>320.9</ele>
        <time>2011-08-09T07:37:27Z</time>
      </trkpt>
      <trkpt lat="44.51152" lon="2.29802">
        <ele>320.4</ele>
        <time>2011-08-09T07:37:28Z</time>
      </trkpt>
      <trkpt lat="44.51149" lon="2.29798">
        <ele>320</ele>
        <time>2011-08-09T07:37:29Z</time>
      </trkpt>
      <trkpt lat="44.51144" lon="2.29793">
        <ele>319.4</ele>
        <time>2011-08-09T07:37:30Z</time>
      </trkpt>
      <trkpt lat="44.51141" lon="2.2979">
        <ele>319</ele>
        <time>2011-08-09T07:37:31Z</time>
      </trkpt>
      <trkpt lat="44.51139" lon="2.29787">
        <ele>318.7</ele>
        <time>2011-08-09T07:37:32Z</time>
      </trkpt>
      <trkpt lat="44.51137" lon="2.29786">
        <ele>318.4</ele>
        <time>2011-08-09T07:37:33Z</time>
      </trkpt>
      <trkpt lat="44.51134" lon="2.29786">
        <ele>318.7</ele>
        <time>2011-08-09T07:37:34Z</time>
      </trkpt>
      <trkpt lat="44.5113" lon="2.29784">
        <ele>319</ele>
        <time>2011-08-09T07:37:36Z</time>
      </trkpt>
      <trkpt lat="44.51127" lon="2.29785">
        <ele>318.6</ele>
        <time>2011-08-09T07:37:37Z</time>
      </trkpt>
      <trkpt lat="44.51124" lon="2.29785">
        <ele>318.3</ele>
        <time>2011-08-09T07:37:38Z</time>
      </trkpt>
      <trkpt lat="44.51121" lon="2.29784">
        <ele>318.1</ele>
        <time>2011-08-09T07:37:39Z</time>
      </trkpt>
      <trkpt lat="44.51119" lon="2.29783">
        <ele>318.5</ele>
        <time>2011-08-09T07:37:40Z</time>
      </trkpt>
      <trkpt lat="44.51116" lon="2.29782">
        <ele>318.8</ele>
        <time>2011-08-09T07:37:41Z</time>
      </trkpt>
      <trkpt lat="44.51113" lon="2.29781">
        <ele>319</ele>
        <time>2011-08-09T07:37:42Z</time>
      </trkpt>
      <trkpt lat="44.51111" lon="2.29781">
        <ele>319.3</ele>
        <time>2011-08-09T07:37:43Z</time>
      </trkpt>
      <trkpt lat="44.51108" lon="2.29782">
        <ele>319.6</ele>
        <time>2011-08-09T07:37:44Z</time>
      </trkpt>
      <trkpt lat="44.51105" lon="2.29783">
        <ele>319.7</ele>
        <time>2011-08-09T07:37:45Z</time>
      </trkpt>
      <trkpt lat="44.51102" lon="2.29784">
        <ele>320</ele>
        <time>2011-08-09T07:37:46Z</time>
      </trkpt>
      <trkpt lat="44.51099" lon="2.29785">
        <ele>320.1</ele>
        <time>2011-08-09T07:37:47Z</time>
      </trkpt>
      <trkpt lat="44.51096" lon="2.29786">
        <ele>320.3</ele>
        <time>2011-08-09T07:37:48Z</time>
      </trkpt>
      <trkpt lat="44.51094" lon="2.29786">
        <ele>320.4</ele>
        <time>2011-08-09T07:37:49Z</time>
      </trkpt>
      <trkpt lat="44.51091" lon="2.29788">
        <ele>320.2</ele>
        <time>2011-08-09T07:37:50Z</time>
      </trkpt>
      <trkpt lat="44.51089" lon="2.29789">
        <ele>320</ele>
        <time>2011-08-09T07:37:51Z</time>
      </trkpt>
      <trkpt lat="44.51087" lon="2.29789">
        <ele>319.9</ele>
        <time>2011-08-09T07:37:52Z</time>
      </trkpt>
      <trkpt lat="44.51084" lon="2.2979">
        <ele>320</ele>
        <time>2011-08-09T07:37:53Z</time>
      </trkpt>
      <trkpt lat="44.51082" lon="2.29791">
        <ele>320.1</ele>
        <time>2011-08-09T07:37:54Z</time>
      </trkpt>
      <trkpt lat="44.51079" lon="2.29791">
        <ele>320.1</ele>
        <time>2011-08-09T07:37:55Z</time>
      </trkpt>
      <trkpt lat="44.51076" lon="2.29792">
        <ele>320.5</ele>
        <time>2011-08-09T07:37:56Z</time>
      </trkpt>
      <trkpt lat="44.51073" lon="2.29792">
        <ele>320.9</ele>
        <time>2011-08-09T07:37:57Z</time>
      </trkpt>
      <trkpt lat="44.5107" lon="2.29793">
        <ele>321.1</ele>
        <time>2011-08-09T07:37:58Z</time>
      </trkpt>
      <trkpt lat="44.51067" lon="2.29793">
        <ele>320.8</ele>
        <time>2011-08-09T07:37:59Z</time>
      </trkpt>
      <trkpt lat="44.51064" lon="2.29793">
        <ele>320.6</ele>
        <time>2011-08-09T07:38:00Z</time>
      </trkpt>
      <trkpt lat="44.51061" lon="2.29793">
        <ele>320.4</ele>
        <time>2011-08-09T07:38:01Z</time>
      </trkpt>
      <trkpt lat="44.51058" lon="2.29793">
        <ele>320.7</ele>
        <time>2011-08-09T07:38:02Z</time>
      </trkpt>
      <trkpt lat="44.51056" lon="2.29792">
        <ele>320.9</ele>
        <time>2011-08-09T07:38:03Z</time>
      </trkpt>
      <trkpt lat="44.51054" lon="2.29791">
        <ele>321</ele>
        <time>2011-08-09T07:38:04Z</time>
      </trkpt>
      <trkpt lat="44.51051" lon="2.2979">
        <ele>321.1</ele>
        <time>2011-08-09T07:38:05Z</time>
      </trkpt>
      <trkpt lat="44.51047" lon="2.29789">
        <ele>321.7</ele>
        <time>2011-08-09T07:38:07Z</time>
      </trkpt>
      <trkpt lat="44.51044" lon="2.29793">
        <ele>322.3</ele>
        <time>2011-08-09T07:38:10Z</time>
      </trkpt>
      <trkpt lat="44.51046" lon="2.29797">
        <ele>323</ele>
        <time>2011-08-09T07:38:12Z</time>
      </trkpt>
      <trkpt lat="44.51048" lon="2.29801">
        <ele>323.6</ele>
        <time>2011-08-09T07:38:14Z</time>
      </trkpt>
      <trkpt lat="44.5105" lon="2.29805">
        <ele>323.2</ele>
        <time>2011-08-09T07:38:16Z</time>
      </trkpt>
      <trkpt lat="44.51052" lon="2.2981">
        <ele>323.2</ele>
        <time>2011-08-09T07:38:18Z</time>
      </trkpt>
      <trkpt lat="44.51054" lon="2.29815">
        <ele>323.3</ele>
        <time>2011-08-09T07:38:20Z</time>
      </trkpt>
      <trkpt lat="44.51056" lon="2.29818">
        <ele>323.1</ele>
        <time>2011-08-09T07:38:21Z</time>
      </trkpt>
      <trkpt lat="44.51058" lon="2.29823">
        <ele>322.7</ele>
        <time>2011-08-09T07:38:23Z</time>
      </trkpt>
      <trkpt lat="44.51059" lon="2.29826">
        <ele>322.6</ele>
        <time>2011-08-09T07:38:24Z</time>
      </trkpt>
      <trkpt lat="44.51062" lon="2.29831">
        <ele>322.7</ele>
        <time>2011-08-09T07:38:26Z</time>
      </trkpt>
      <trkpt lat="44.51063" lon="2.29834">
        <ele>322.7</ele>
        <time>2011-08-09T07:38:27Z</time>
      </trkpt>
      <trkpt lat="44.51064" lon="2.29836">
        <ele>322.7</ele>
        <time>2011-08-09T07:38:28Z</time>
      </trkpt>
      <trkpt lat="44.51066" lon="2.29839">
        <ele>322.7</ele>
        <time>2011-08-09T07:38:29Z</time>
      </trkpt>
      <trkpt lat="44.51067" lon="2.29842">
        <ele>322.7</ele>
        <time>2011-08-09T07:38:30Z</time>
      </trkpt>
      <trkpt lat="44.51069" lon="2.29844">
        <ele>323</ele>
        <time>2011-08-09T07:38:31Z</time>
      </trkpt>
      <trkpt lat="44.5107" lon="2.29847">
        <ele>323.2</ele>
        <time>2011-08-09T07:38:32Z</time>
      </trkpt>
      <trkpt lat="44.51071" lon="2.2985">
        <ele>323.4</ele>
        <time>2011-08-09T07:38:33Z</time>
      </trkpt>
      <trkpt lat="44.51073" lon="2.29853">
        <ele>323.5</ele>
        <time>2011-08-09T07:38:34Z</time>
      </trkpt>
      <trkpt lat="44.51074" lon="2.29856">
        <ele>323.6</ele>
        <time>2011-08-09T07:38:35Z</time>
      </trkpt>
      <trkpt lat="44.51076" lon="2.29859">
        <ele>323.7</ele>
        <time>2011-08-09T07:38:36Z</time>
      </trkpt>
      <trkpt lat="44.51077" lon="2.29861">
        <ele>323.7</ele>
        <time>2011-08-09T07:38:37Z</time>
      </trkpt>
      <trkpt lat="44.51078" lon="2.29864">
        <ele>323.7</ele>
        <time>2011-08-09T07:38:38Z</time>
      </trkpt>
      <trkpt lat="44.5108" lon="2.29867">
        <ele>323.7</ele>
        <time>2011-08-09T07:38:39Z</time>
      </trkpt>
      <trkpt lat="44.51081" lon="2.2987">
        <ele>323.7</ele>
        <time>2011-08-09T07:38:40Z</time>
      </trkpt>
      <trkpt lat="44.51082" lon="2.29873">
        <ele>323.8</ele>
        <time>2011-08-09T07:38:41Z</time>
      </trkpt>
      <trkpt lat="44.51084" lon="2.29876">
        <ele>323.9</ele>
        <time>2011-08-09T07:38:42Z</time>
      </trkpt>
      <trkpt lat="44.51085" lon="2.29879">
        <ele>323.9</ele>
        <time>2011-08-09T07:38:43Z</time>
      </trkpt>
      <trkpt lat="44.51087" lon="2.29882">
        <ele>323.9</ele>
        <time>2011-08-09T07:38:44Z</time>
      </trkpt>
      <trkpt lat="44.51088" lon="2.29885">
        <ele>324</ele>
        <time>2011-08-09T07:38:45Z</time>
      </trkpt>
      <trkpt lat="44.5109" lon="2.29888">
        <ele>324</ele>
        <time>2011-08-09T07:38:46Z</time>
      </trkpt>
      <trkpt lat="44.51091" lon="2.29891">
        <ele>324.1</ele>
        <time>2011-08-09T07:38:47Z</time>
      </trkpt>
      <trkpt lat="44.51093" lon="2.29895">
        <ele>324.2</ele>
        <time>2011-08-09T07:38:48Z</time>
      </trkpt>
      <trkpt lat="44.51094" lon="2.29898">
        <ele>324.2</ele>
        <time>2011-08-09T07:38:49Z</time>
      </trkpt>
      <trkpt lat="44.51095" lon="2.29901">
        <ele>324.1</ele>
        <time>2011-08-09T07:38:50Z</time>
      </trkpt>
      <trkpt lat="44.51097" lon="2.29904">
        <ele>324.1</ele>
        <time>2011-08-09T07:38:51Z</time>
      </trkpt>
      <trkpt lat="44.51098" lon="2.29907">
        <ele>324.1</ele>
        <time>2011-08-09T07:38:52Z</time>
      </trkpt>
      <trkpt lat="44.51099" lon="2.2991">
        <ele>324.3</ele>
        <time>2011-08-09T07:38:53Z</time>
      </trkpt>
      <trkpt lat="44.51101" lon="2.29913">
        <ele>324.5</ele>
        <time>2011-08-09T07:38:54Z</time>
      </trkpt>
      <trkpt lat="44.51102" lon="2.29916">
        <ele>324.6</ele>
        <time>2011-08-09T07:38:55Z</time>
      </trkpt>
      <trkpt lat="44.51103" lon="2.29919">
        <ele>324.7</ele>
        <time>2011-08-09T07:38:56Z</time>
      </trkpt>
      <trkpt lat="44.51104" lon="2.29922">
        <ele>324.7</ele>
        <time>2011-08-09T07:38:57Z</time>
      </trkpt>
      <trkpt lat="44.51105" lon="2.29925">
        <ele>324.7</ele>
        <time>2011-08-09T07:38:58Z</time>
      </trkpt>
      <trkpt lat="44.51106" lon="2.29928">
        <ele>324.6</ele>
        <time>2011-08-09T07:38:59Z</time>
      </trkpt>
      <trkpt lat="44.51108" lon="2.29932">
        <ele>324.6</ele>
        <time>2011-08-09T07:39:00Z</time>
      </trkpt>
      <trkpt lat="44.51109" lon="2.29935">
        <ele>324.5</ele>
        <time>2011-08-09T07:39:01Z</time>
      </trkpt>
      <trkpt lat="44.5111" lon="2.29939">
        <ele>324.5</ele>
        <time>2011-08-09T07:39:02Z</time>
      </trkpt>
      <trkpt lat="44.51112" lon="2.29942">
        <ele>324.7</ele>
        <time>2011-08-09T07:39:03Z</time>
      </trkpt>
      <trkpt lat="44.51113" lon="2.29945">
        <ele>324.8</ele>
        <time>2011-08-09T07:39:04Z</time>
      </trkpt>
      <trkpt lat="44.51114" lon="2.29949">
        <ele>324.9</ele>
        <time>2011-08-09T07:39:05Z</time>
      </trkpt>
      <trkpt lat="44.51115" lon="2.29952">
        <ele>325.3</ele>
        <time>2011-08-09T07:39:06Z</time>
      </trkpt>
      <trkpt lat="44.51117" lon="2.29955">
        <ele>325.6</ele>
        <time>2011-08-09T07:39:07Z</time>
      </trkpt>
      <trkpt lat="44.51118" lon="2.29959">
        <ele>325.9</ele>
        <time>2011-08-09T07:39:08Z</time>
      </trkpt>
      <trkpt lat="44.51119" lon="2.29962">
        <ele>325.5</ele>
        <time>2011-08-09T07:39:09Z</time>
      </trkpt>
      <trkpt lat="44.5112" lon="2.29965">
        <ele>325.2</ele>
        <time>2011-08-09T07:39:10Z</time>
      </trkpt>
      <trkpt lat="44.51121" lon="2.29969">
        <ele>325</ele>
        <time>2011-08-09T07:39:11Z</time>
      </trkpt>
      <trkpt lat="44.51122" lon="2.29972">
        <ele>324.9</ele>
        <time>2011-08-09T07:39:12Z</time>
      </trkpt>
      <trkpt lat="44.51123" lon="2.29975">
        <ele>325.3</ele>
        <time>2011-08-09T07:39:13Z</time>
      </trkpt>
      <trkpt lat="44.51124" lon="2.29979">
        <ele>325.7</ele>
        <time>2011-08-09T07:39:14Z</time>
      </trkpt>
      <trkpt lat="44.51126" lon="2.29982">
        <ele>325.9</ele>
        <time>2011-08-09T07:39:15Z</time>
      </trkpt>
      <trkpt lat="44.51127" lon="2.29986">
        <ele>326.1</ele>
        <time>2011-08-09T07:39:16Z</time>
      </trkpt>
      <trkpt lat="44.51128" lon="2.29989">
        <ele>326.3</ele>
        <time>2011-08-09T07:39:17Z</time>
      </trkpt>
      <trkpt lat="44.51129" lon="2.29993">
        <ele>326.4</ele>
        <time>2011-08-09T07:39:18Z</time>
      </trkpt>
      <trkpt lat="44.51131" lon="2.29996">
        <ele>326.5</ele>
        <time>2011-08-09T07:39:19Z</time>
      </trkpt>
      <trkpt lat="44.51132" lon="2.3">
        <ele>326.5</ele>
        <time>2011-08-09T07:39:20Z</time>
      </trkpt>
      <trkpt lat="44.51133" lon="2.30003">
        <ele>326.6</ele>
        <time>2011-08-09T07:39:21Z</time>
      </trkpt>
      <trkpt lat="44.51135" lon="2.30007">
        <ele>326.6</ele>
        <time>2011-08-09T07:39:22Z</time>
      </trkpt>
      <trkpt lat="44.51136" lon="2.30011">
        <ele>326.6</ele>
        <time>2011-08-09T07:39:23Z</time>
      </trkpt>
      <trkpt lat="44.51137" lon="2.30015">
        <ele>326.6</ele>
        <time>2011-08-09T07:39:24Z</time>
      </trkpt>
      <trkpt lat="44.51138" lon="2.30018">
        <ele>326.5</ele>
        <time>2011-08-09T07:39:25Z</time>
      </trkpt>
      <trkpt lat="44.5114" lon="2.30022">
        <ele>326.3</ele>
        <time>2011-08-09T07:39:26Z</time>
      </trkpt>
      <trkpt lat="44.5114" lon="2.30026">
        <ele>326.2</ele>
        <time>2011-08-09T07:39:27Z</time>
      </trkpt>
      <trkpt lat="44.51141" lon="2.3003">
        <ele>326.2</ele>
        <time>2011-08-09T07:39:28Z</time>
      </trkpt>
      <trkpt lat="44.51142" lon="2.30034">
        <ele>326.3</ele>
        <time>2011-08-09T07:39:29Z</time>
      </trkpt>
      <trkpt lat="44.51143" lon="2.30038">
        <ele>326.5</ele>
        <time>2011-08-09T07:39:30Z</time>
      </trkpt>
      <trkpt lat="44.51143" lon="2.30042">
        <ele>326.6</ele>
        <time>2011-08-09T07:39:31Z</time>
      </trkpt>
      <trkpt lat="44.51144" lon="2.30047">
        <ele>326.8</ele>
        <time>2011-08-09T07:39:32Z</time>
      </trkpt>
      <trkpt lat="44.51144" lon="2.30051">
        <ele>327</ele>
        <time>2011-08-09T07:39:33Z</time>
      </trkpt>
      <trkpt lat="44.51145" lon="2.30055">
        <ele>327.2</ele>
        <time>2011-08-09T07:39:34Z</time>
      </trkpt>
      <trkpt lat="44.51145" lon="2.30059">
        <ele>327.1</ele>
        <time>2011-08-09T07:39:35Z</time>
      </trkpt>
      <trkpt lat="44.51145" lon="2.30064">
        <ele>327.1</ele>
        <time>2011-08-09T07:39:36Z</time>
      </trkpt>
      <trkpt lat="44.51146" lon="2.30068">
        <ele>327</ele>
        <time>2011-08-09T07:39:37Z</time>
      </trkpt>
      <trkpt lat="44.51146" lon="2.30072">
        <ele>327.3</ele>
        <time>2011-08-09T07:39:38Z</time>
      </trkpt>
      <trkpt lat="44.51147" lon="2.30076">
        <ele>327.4</ele>
        <time>2011-08-09T07:39:39Z</time>
      </trkpt>
      <trkpt lat="44.51147" lon="2.3008">
        <ele>327.6</ele>
        <time>2011-08-09T07:39:40Z</time>
      </trkpt>
      <trkpt lat="44.51148" lon="2.30084">
        <ele>328.1</ele>
        <time>2011-08-09T07:39:41Z</time>
      </trkpt>
      <trkpt lat="44.51148" lon="2.30088">
        <ele>328.4</ele>
        <time>2011-08-09T07:39:42Z</time>
      </trkpt>
      <trkpt lat="44.51148" lon="2.30092">
        <ele>328.7</ele>
        <time>2011-08-09T07:39:43Z</time>
      </trkpt>
      <trkpt lat="44.51148" lon="2.30097">
        <ele>328.5</ele>
        <time>2011-08-09T07:39:44Z</time>
      </trkpt>
      <trkpt lat="44.51149" lon="2.30101">
        <ele>328.3</ele>
        <time>2011-08-09T07:39:45Z</time>
      </trkpt>
      <trkpt lat="44.51149" lon="2.30105">
        <ele>328.1</ele>
        <time>2011-08-09T07:39:46Z</time>
      </trkpt>
      <trkpt lat="44.51149" lon="2.30109">
        <ele>328</ele>
        <time>2011-08-09T07:39:47Z</time>
      </trkpt>
      <trkpt lat="44.51149" lon="2.30113">
        <ele>328.2</ele>
        <time>2011-08-09T07:39:48Z</time>
      </trkpt>
      <trkpt lat="44.51149" lon="2.30117">
        <ele>328.4</ele>
        <time>2011-08-09T07:39:49Z</time>
      </trkpt>
      <trkpt lat="44.51149" lon="2.30121">
        <ele>328.5</ele>
        <time>2011-08-09T07:39:50Z</time>
      </trkpt>
      <trkpt lat="44.51149" lon="2.30126">
        <ele>328.6</ele>
        <time>2011-08-09T07:39:51Z</time>
      </trkpt>
      <trkpt lat="44.5115" lon="2.3013">
        <ele>328.8</ele>
        <time>2011-08-09T07:39:52Z</time>
      </trkpt>
      <trkpt lat="44.5115" lon="2.30135">
        <ele>328.9</ele>
        <time>2011-08-09T07:39:53Z</time>
      </trkpt>
      <trkpt lat="44.5115" lon="2.30139">
        <ele>329.2</ele>
        <time>2011-08-09T07:39:54Z</time>
      </trkpt>
      <trkpt lat="44.5115" lon="2.30143">
        <ele>329.5</ele>
        <time>2011-08-09T07:39:55Z</time>
      </trkpt>
      <trkpt lat="44.51151" lon="2.30148">
        <ele>329.8</ele>
        <time>2011-08-09T07:39:56Z</time>
      </trkpt>
      <trkpt lat="44.51151" lon="2.30152">
        <ele>329.4</ele>
        <time>2011-08-09T07:39:57Z</time>
      </trkpt>
      <trkpt lat="44.51151" lon="2.30156">
        <ele>329.1</ele>
        <time>2011-08-09T07:39:58Z</time>
      </trkpt>
      <trkpt lat="44.51151" lon="2.3016">
        <ele>328.9</ele>
        <time>2011-08-09T07:39:59Z</time>
      </trkpt>
      <trkpt lat="44.51151" lon="2.30164">
        <ele>329</ele>
        <time>2011-08-09T07:40:00Z</time>
      </trkpt>
      <trkpt lat="44.51151" lon="2.30168">
        <ele>329</ele>
        <time>2011-08-09T07:40:01Z</time>
      </trkpt>
      <trkpt lat="44.51151" lon="2.30172">
        <ele>329.1</ele>
        <time>2011-08-09T07:40:02Z</time>
      </trkpt>
      <trkpt lat="44.51152" lon="2.30176">
        <ele>329.1</ele>
        <time>2011-08-09T07:40:03Z</time>
      </trkpt>
      <trkpt lat="44.51151" lon="2.3018">
        <ele>329.6</ele>
        <time>2011-08-09T07:40:04Z</time>
      </trkpt>
      <trkpt lat="44.51151" lon="2.30184">
        <ele>330</ele>
        <time>2011-08-09T07:40:05Z</time>
      </trkpt>
      <trkpt lat="44.51151" lon="2.30189">
        <ele>330.3</ele>
        <time>2011-08-09T07:40:06Z</time>
      </trkpt>
      <trkpt lat="44.51151" lon="2.30193">
        <ele>330.4</ele>
        <time>2011-08-09T07:40:07Z</time>
      </trkpt>
      <trkpt lat="44.51151" lon="2.30197">
        <ele>330.4</ele>
        <time>2011-08-09T07:40:08Z</time>
      </trkpt>
      <trkpt lat="44.51151" lon="2.30201">
        <ele>330.5</ele>
        <time>2011-08-09T07:40:09Z</time>
      </trkpt>
      <trkpt lat="44.5115" lon="2.30205">
        <ele>330.7</ele>
        <time>2011-08-09T07:40:10Z</time>
      </trkpt>
      <trkpt lat="44.5115" lon="2.30209">
        <ele>330.8</ele>
        <time>2011-08-09T07:40:11Z</time>
      </trkpt>
      <trkpt lat="44.5115" lon="2.30213">
        <ele>330.9</ele>
        <time>2011-08-09T07:40:12Z</time>
      </trkpt>
      <trkpt lat="44.5115" lon="2.30217">
        <ele>331</ele>
        <time>2011-08-09T07:40:13Z</time>
      </trkpt>
      <trkpt lat="44.5115" lon="2.30221">
        <ele>331.1</ele>
        <time>2011-08-09T07:40:14Z</time>
      </trkpt>
      <trkpt lat="44.5115" lon="2.30225">
        <ele>331.2</ele>
        <time>2011-08-09T07:40:15Z</time>
      </trkpt>
      <trkpt lat="44.5115" lon="2.3023">
        <ele>331</ele>
        <time>2011-08-09T07:40:16Z</time>
      </trkpt>
      <trkpt lat="44.51149" lon="2.30234">
        <ele>331</ele>
        <time>2011-08-09T07:40:17Z</time>
      </trkpt>
      <trkpt lat="44.51149" lon="2.30238">
        <ele>330.9</ele>
        <time>2011-08-09T07:40:18Z</time>
      </trkpt>
      <trkpt lat="44.51149" lon="2.30242">
        <ele>330.8</ele>
        <time>2011-08-09T07:40:19Z</time>
      </trkpt>
      <trkpt lat="44.51149" lon="2.30246">
        <ele>331.2</ele>
        <time>2011-08-09T07:40:20Z</time>
      </trkpt>
      <trkpt lat="44.5115" lon="2.3025">
        <ele>331.4</ele>
        <time>2011-08-09T07:40:21Z</time>
      </trkpt>
      <trkpt lat="44.51149" lon="2.30254">
        <ele>331.6</ele>
        <time>2011-08-09T07:40:22Z</time>
      </trkpt>
      <trkpt lat="44.51149" lon="2.30258">
        <ele>331.7</ele>
        <time>2011-08-09T07:40:23Z</time>
      </trkpt>
      <trkpt lat="44.51149" lon="2.30262">
        <ele>331.7</ele>
        <time>2011-08-09T07:40:24Z</time>
      </trkpt>
      <trkpt lat="44.51149" lon="2.30266">
        <ele>331.8</ele>
        <time>2011-08-09T07:40:25Z</time>
      </trkpt>
      <trkpt lat="44.51149" lon="2.3027">
        <ele>331.7</ele>
        <time>2011-08-09T07:40:26Z</time>
      </trkpt>
      <trkpt lat="44.51149" lon="2.30274">
        <ele>331.6</ele>
        <time>2011-08-09T07:40:27Z</time>
      </trkpt>
      <trkpt lat="44.51149" lon="2.30278">
        <ele>331.5</ele>
        <time>2011-08-09T07:40:28Z</time>
      </trkpt>
      <trkpt lat="44.51149" lon="2.30282">
        <ele>332</ele>
        <time>2011-08-09T07:40:29Z</time>
      </trkpt>
      <trkpt lat="44.51149" lon="2.30286">
        <ele>332.3</ele>
        <time>2011-08-09T07:40:30Z</time>
      </trkpt>
      <trkpt lat="44.51149" lon="2.30289">
        <ele>332.6</ele>
        <time>2011-08-09T07:40:31Z</time>
      </trkpt>
      <trkpt lat="44.51149" lon="2.30293">
        <ele>332.7</ele>
        <time>2011-08-09T07:40:32Z</time>
      </trkpt>
      <trkpt lat="44.51148" lon="2.30297">
        <ele>332.9</ele>
        <time>2011-08-09T07:40:33Z</time>
      </trkpt>
      <trkpt lat="44.51148" lon="2.30301">
        <ele>333</ele>
        <time>2011-08-09T07:40:34Z</time>
      </trkpt>
      <trkpt lat="44.51148" lon="2.30305">
        <ele>333.2</ele>
        <time>2011-08-09T07:40:35Z</time>
      </trkpt>
      <trkpt lat="44.51148" lon="2.30309">
        <ele>333.4</ele>
        <time>2011-08-09T07:40:36Z</time>
      </trkpt>
      <trkpt lat="44.51147" lon="2.30313">
        <ele>333.5</ele>
        <time>2011-08-09T07:40:37Z</time>
      </trkpt>
      <trkpt lat="44.51147" lon="2.30317">
        <ele>333.6</ele>
        <time>2011-08-09T07:40:38Z</time>
      </trkpt>
      <trkpt lat="44.51147" lon="2.30321">
        <ele>333.7</ele>
        <time>2011-08-09T07:40:39Z</time>
      </trkpt>
      <trkpt lat="44.51147" lon="2.30324">
        <ele>333.9</ele>
        <time>2011-08-09T07:40:40Z</time>
      </trkpt>
      <trkpt lat="44.51146" lon="2.30328">
        <ele>334</ele>
        <time>2011-08-09T07:40:41Z</time>
      </trkpt>
      <trkpt lat="44.51145" lon="2.30332">
        <ele>334</ele>
        <time>2011-08-09T07:40:42Z</time>
      </trkpt>
      <trkpt lat="44.51145" lon="2.30336">
        <ele>334</ele>
        <time>2011-08-09T07:40:43Z</time>
      </trkpt>
      <trkpt lat="44.51144" lon="2.3034">
        <ele>334</ele>
        <time>2011-08-09T07:40:44Z</time>
      </trkpt>
      <trkpt lat="44.51143" lon="2.30344">
        <ele>334.1</ele>
        <time>2011-08-09T07:40:45Z</time>
      </trkpt>
      <trkpt lat="44.51142" lon="2.30348">
        <ele>334.2</ele>
        <time>2011-08-09T07:40:46Z</time>
      </trkpt>
      <trkpt lat="44.51141" lon="2.30352">
        <ele>334.2</ele>
        <time>2011-08-09T07:40:47Z</time>
      </trkpt>
      <trkpt lat="44.5114" lon="2.30356">
        <ele>334.3</ele>
        <time>2011-08-09T07:40:48Z</time>
      </trkpt>
      <trkpt lat="44.51139" lon="2.3036">
        <ele>334.3</ele>
        <time>2011-08-09T07:40:49Z</time>
      </trkpt>
      <trkpt lat="44.51138" lon="2.30364">
        <ele>334.3</ele>
        <time>2011-08-09T07:40:50Z</time>
      </trkpt>
      <trkpt lat="44.51137" lon="2.30368">
        <ele>334.4</ele>
        <time>2011-08-09T07:40:51Z</time>
      </trkpt>
      <trkpt lat="44.51136" lon="2.30371">
        <ele>334.4</ele>
        <time>2011-08-09T07:40:52Z</time>
      </trkpt>
      <trkpt lat="44.51135" lon="2.30375">
        <ele>334.5</ele>
        <time>2011-08-09T07:40:53Z</time>
      </trkpt>
      <trkpt lat="44.51134" lon="2.30379">
        <ele>334.5</ele>
        <time>2011-08-09T07:40:54Z</time>
      </trkpt>
      <trkpt lat="44.51133" lon="2.30383">
        <ele>334.4</ele>
        <time>2011-08-09T07:40:55Z</time>
      </trkpt>
      <trkpt lat="44.51132" lon="2.30387">
        <ele>334.3</ele>
        <time>2011-08-09T07:40:56Z</time>
      </trkpt>
      <trkpt lat="44.5113" lon="2.3039">
        <ele>334.3</ele>
        <time>2011-08-09T07:40:57Z</time>
      </trkpt>
      <trkpt lat="44.51129" lon="2.30394">
        <ele>334.5</ele>
        <time>2011-08-09T07:40:58Z</time>
      </trkpt>
      <trkpt lat="44.51128" lon="2.30398">
        <ele>334.7</ele>
        <time>2011-08-09T07:40:59Z</time>
      </trkpt>
      <trkpt lat="44.51127" lon="2.30402">
        <ele>334.8</ele>
        <time>2011-08-09T07:41:00Z</time>
      </trkpt>
      <trkpt lat="44.51126" lon="2.30406">
        <ele>335.1</ele>
        <time>2011-08-09T07:41:01Z</time>
      </trkpt>
      <trkpt lat="44.51125" lon="2.3041">
        <ele>335.4</ele>
        <time>2011-08-09T07:41:02Z</time>
      </trkpt>
      <trkpt lat="44.51123" lon="2.30413">
        <ele>335.5</ele>
        <time>2011-08-09T07:41:03Z</time>
      </trkpt>
      <trkpt lat="44.51122" lon="2.30417">
        <ele>335.7</ele>
        <time>2011-08-09T07:41:04Z</time>
      </trkpt>
      <trkpt lat="44.51121" lon="2.30421">
        <ele>335.8</ele>
        <time>2011-08-09T07:41:05Z</time>
      </trkpt>
      <trkpt lat="44.5112" lon="2.30425">
        <ele>335.8</ele>
        <time>2011-08-09T07:41:06Z</time>
      </trkpt>
      <trkpt lat="44.51119" lon="2.30429">
        <ele>336</ele>
        <time>2011-08-09T07:41:07Z</time>
      </trkpt>
      <trkpt lat="44.51118" lon="2.30433">
        <ele>336.1</ele>
        <time>2011-08-09T07:41:08Z</time>
      </trkpt>
      <trkpt lat="44.51117" lon="2.30437">
        <ele>336.2</ele>
        <time>2011-08-09T07:41:09Z</time>
      </trkpt>
      <trkpt lat="44.51116" lon="2.30441">
        <ele>336.3</ele>
        <time>2011-08-09T07:41:10Z</time>
      </trkpt>
      <trkpt lat="44.51116" lon="2.30445">
        <ele>336.8</ele>
        <time>2011-08-09T07:41:11Z</time>
      </trkpt>
      <trkpt lat="44.51116" lon="2.3045">
        <ele>337.3</ele>
        <time>2011-08-09T07:41:12Z</time>
      </trkpt>
      <trkpt lat="44.51116" lon="2.30454">
        <ele>337.6</ele>
        <time>2011-08-09T07:41:13Z</time>
      </trkpt>
      <trkpt lat="44.51116" lon="2.30458">
        <ele>337.7</ele>
        <time>2011-08-09T07:41:14Z</time>
      </trkpt>
      <trkpt lat="44.51116" lon="2.30462">
        <ele>337.7</ele>
        <time>2011-08-09T07:41:15Z</time>
      </trkpt>
      <trkpt lat="44.51116" lon="2.30466">
        <ele>337.7</ele>
        <time>2011-08-09T07:41:16Z</time>
      </trkpt>
      <trkpt lat="44.51116" lon="2.3047">
        <ele>337.5</ele>
        <time>2011-08-09T07:41:17Z</time>
      </trkpt>
      <trkpt lat="44.51116" lon="2.30474">
        <ele>337.3</ele>
        <time>2011-08-09T07:41:18Z</time>
      </trkpt>
      <trkpt lat="44.51116" lon="2.30477">
        <ele>337.2</ele>
        <time>2011-08-09T07:41:19Z</time>
      </trkpt>
      <trkpt lat="44.51116" lon="2.30481">
        <ele>337.5</ele>
        <time>2011-08-09T07:41:20Z</time>
      </trkpt>
      <trkpt lat="44.51116" lon="2.30485">
        <ele>337.7</ele>
        <time>2011-08-09T07:41:21Z</time>
      </trkpt>
      <trkpt lat="44.51116" lon="2.30489">
        <ele>337.9</ele>
        <time>2011-08-09T07:41:22Z</time>
      </trkpt>
      <trkpt lat="44.51116" lon="2.30493">
        <ele>338</ele>
        <time>2011-08-09T07:41:23Z</time>
      </trkpt>
      <trkpt lat="44.51116" lon="2.30498">
        <ele>338.1</ele>
        <time>2011-08-09T07:41:24Z</time>
      </trkpt>
      <trkpt lat="44.51116" lon="2.30502">
        <ele>338.1</ele>
        <time>2011-08-09T07:41:25Z</time>
      </trkpt>
      <trkpt lat="44.51116" lon="2.30506">
        <ele>338.2</ele>
        <time>2011-08-09T07:41:26Z</time>
      </trkpt>
      <trkpt lat="44.51116" lon="2.3051">
        <ele>338.1</ele>
        <time>2011-08-09T07:41:27Z</time>
      </trkpt>
      <trkpt lat="44.51116" lon="2.30514">
        <ele>338.1</ele>
        <time>2011-08-09T07:41:28Z</time>
      </trkpt>
      <trkpt lat="44.51116" lon="2.30518">
        <ele>338.1</ele>
        <time>2011-08-09T07:41:29Z</time>
      </trkpt>
      <trkpt lat="44.51116" lon="2.30522">
        <ele>338.3</ele>
        <time>2011-08-09T07:41:30Z</time>
      </trkpt>
      <trkpt lat="44.51116" lon="2.30526">
        <ele>338.5</ele>
        <time>2011-08-09T07:41:31Z</time>
      </trkpt>
      <trkpt lat="44.51116" lon="2.30531">
        <ele>338.6</ele>
        <time>2011-08-09T07:41:32Z</time>
      </trkpt>
      <trkpt lat="44.51115" lon="2.30535">
        <ele>338.6</ele>
        <time>2011-08-09T07:41:33Z</time>
      </trkpt>
      <trkpt lat="44.51115" lon="2.30539">
        <ele>338.7</ele>
        <time>2011-08-09T07:41:34Z</time>
      </trkpt>
      <trkpt lat="44.51115" lon="2.30543">
        <ele>338.7</ele>
        <time>2011-08-09T07:41:35Z</time>
      </trkpt>
      <trkpt lat="44.51114" lon="2.30547">
        <ele>338.4</ele>
        <time>2011-08-09T07:41:36Z</time>
      </trkpt>
      <trkpt lat="44.51114" lon="2.30552">
        <ele>338.3</ele>
        <time>2011-08-09T07:41:37Z</time>
      </trkpt>
      <trkpt lat="44.51114" lon="2.30556">
        <ele>338.1</ele>
        <time>2011-08-09T07:41:38Z</time>
      </trkpt>
      <trkpt lat="44.51114" lon="2.3056">
        <ele>338.6</ele>
        <time>2011-08-09T07:41:39Z</time>
      </trkpt>
      <trkpt lat="44.51114" lon="2.30564">
        <ele>339</ele>
        <time>2011-08-09T07:41:40Z</time>
      </trkpt>
      <trkpt lat="44.51114" lon="2.30569">
        <ele>339.2</ele>
        <time>2011-08-09T07:41:41Z</time>
      </trkpt>
      <trkpt lat="44.51114" lon="2.30573">
        <ele>339.4</ele>
        <time>2011-08-09T07:41:42Z</time>
      </trkpt>
      <trkpt lat="44.51113" lon="2.30577">
        <ele>339.5</ele>
        <time>2011-08-09T07:41:43Z</time>
      </trkpt>
      <trkpt lat="44.51113" lon="2.30581">
        <ele>339.5</ele>
        <time>2011-08-09T07:41:44Z</time>
      </trkpt>
      <trkpt lat="44.51112" lon="2.30585">
        <ele>339.6</ele>
        <time>2011-08-09T07:41:45Z</time>
      </trkpt>
      <trkpt lat="44.51112" lon="2.3059">
        <ele>339.6</ele>
        <time>2011-08-09T07:41:46Z</time>
      </trkpt>
      <trkpt lat="44.51112" lon="2.30594">
        <ele>339.7</ele>
        <time>2011-08-09T07:41:47Z</time>
      </trkpt>
      <trkpt lat="44.51111" lon="2.30598">
        <ele>339.7</ele>
        <time>2011-08-09T07:41:48Z</time>
      </trkpt>
      <trkpt lat="44.51111" lon="2.30602">
        <ele>339.7</ele>
        <time>2011-08-09T07:41:49Z</time>
      </trkpt>
      <trkpt lat="44.5111" lon="2.30607">
        <ele>339.7</ele>
        <time>2011-08-09T07:41:50Z</time>
      </trkpt>
      <trkpt lat="44.5111" lon="2.30611">
        <ele>339.7</ele>
        <time>2011-08-09T07:41:51Z</time>
      </trkpt>
      <trkpt lat="44.5111" lon="2.30615">
        <ele>339.8</ele>
        <time>2011-08-09T07:41:52Z</time>
      </trkpt>
      <trkpt lat="44.51109" lon="2.30619">
        <ele>339.9</ele>
        <time>2011-08-09T07:41:53Z</time>
      </trkpt>
      <trkpt lat="44.51109" lon="2.30623">
        <ele>339.9</ele>
        <time>2011-08-09T07:41:54Z</time>
      </trkpt>
      <trkpt lat="44.51108" lon="2.30627">
        <ele>340.2</ele>
        <time>2011-08-09T07:41:55Z</time>
      </trkpt>
      <trkpt lat="44.51107" lon="2.30631">
        <ele>340.5</ele>
        <time>2011-08-09T07:41:56Z</time>
      </trkpt>
      <trkpt lat="44.51107" lon="2.30635">
        <ele>340.6</ele>
        <time>2011-08-09T07:41:57Z</time>
      </trkpt>
      <trkpt lat="44.51106" lon="2.30639">
        <ele>340.8</ele>
        <time>2011-08-09T07:41:58Z</time>
      </trkpt>
      <trkpt lat="44.51106" lon="2.30643">
        <ele>340.8</ele>
        <time>2011-08-09T07:41:59Z</time>
      </trkpt>
      <trkpt lat="44.51106" lon="2.30648">
        <ele>340.8</ele>
        <time>2011-08-09T07:42:00Z</time>
      </trkpt>
      <trkpt lat="44.51106" lon="2.30652">
        <ele>340.7</ele>
        <time>2011-08-09T07:42:01Z</time>
      </trkpt>
      <trkpt lat="44.51105" lon="2.30656">
        <ele>341.4</ele>
        <time>2011-08-09T07:42:02Z</time>
      </trkpt>
      <trkpt lat="44.51105" lon="2.30661">
        <ele>341.9</ele>
        <time>2011-08-09T07:42:03Z</time>
      </trkpt>
      <trkpt lat="44.51105" lon="2.30665">
        <ele>342.3</ele>
        <time>2011-08-09T07:42:04Z</time>
      </trkpt>
      <trkpt lat="44.51105" lon="2.30669">
        <ele>342.3</ele>
        <time>2011-08-09T07:42:05Z</time>
      </trkpt>
      <trkpt lat="44.51105" lon="2.30674">
        <ele>342.2</ele>
        <time>2011-08-09T07:42:06Z</time>
      </trkpt>
      <trkpt lat="44.51105" lon="2.30678">
        <ele>342.2</ele>
        <time>2011-08-09T07:42:07Z</time>
      </trkpt>
      <trkpt lat="44.51105" lon="2.30683">
        <ele>342.2</ele>
        <time>2011-08-09T07:42:08Z</time>
      </trkpt>
      <trkpt lat="44.51105" lon="2.30687">
        <ele>342.2</ele>
        <time>2011-08-09T07:42:09Z</time>
      </trkpt>
      <trkpt lat="44.51105" lon="2.30692">
        <ele>342.2</ele>
        <time>2011-08-09T07:42:10Z</time>
      </trkpt>
      <trkpt lat="44.51105" lon="2.30697">
        <ele>342.3</ele>
        <time>2011-08-09T07:42:11Z</time>
      </trkpt>
      <trkpt lat="44.51106" lon="2.30701">
        <ele>342.3</ele>
        <time>2011-08-09T07:42:12Z</time>
      </trkpt>
      <trkpt lat="44.51106" lon="2.30705">
        <ele>342.3</ele>
        <time>2011-08-09T07:42:13Z</time>
      </trkpt>
      <trkpt lat="44.51106" lon="2.30709">
        <ele>342.3</ele>
        <time>2011-08-09T07:42:14Z</time>
      </trkpt>
      <trkpt lat="44.51106" lon="2.30713">
        <ele>342.4</ele>
        <time>2011-08-09T07:42:15Z</time>
      </trkpt>
      <trkpt lat="44.51107" lon="2.30717">
        <ele>342.5</ele>
        <time>2011-08-09T07:42:16Z</time>
      </trkpt>
      <trkpt lat="44.51107" lon="2.30721">
        <ele>342.5</ele>
        <time>2011-08-09T07:42:17Z</time>
      </trkpt>
      <trkpt lat="44.51108" lon="2.30725">
        <ele>342.6</ele>
        <time>2011-08-09T07:42:18Z</time>
      </trkpt>
      <trkpt lat="44.51108" lon="2.30729">
        <ele>342.6</ele>
        <time>2011-08-09T07:42:19Z</time>
      </trkpt>
      <trkpt lat="44.51109" lon="2.30732">
        <ele>342.7</ele>
        <time>2011-08-09T07:42:20Z</time>
      </trkpt>
      <trkpt lat="44.51109" lon="2.30736">
        <ele>343.1</ele>
        <time>2011-08-09T07:42:21Z</time>
      </trkpt>
      <trkpt lat="44.51109" lon="2.30741">
        <ele>343.5</ele>
        <time>2011-08-09T07:42:22Z</time>
      </trkpt>
      <trkpt lat="44.5111" lon="2.30745">
        <ele>343.7</ele>
        <time>2011-08-09T07:42:23Z</time>
      </trkpt>
      <trkpt lat="44.5111" lon="2.30749">
        <ele>343.7</ele>
        <time>2011-08-09T07:42:24Z</time>
      </trkpt>
      <trkpt lat="44.5111" lon="2.30753">
        <ele>343.7</ele>
        <time>2011-08-09T07:42:25Z</time>
      </trkpt>
      <trkpt lat="44.5111" lon="2.30757">
        <ele>343.7</ele>
        <time>2011-08-09T07:42:26Z</time>
      </trkpt>
      <trkpt lat="44.5111" lon="2.30761">
        <ele>343.5</ele>
        <time>2011-08-09T07:42:27Z</time>
      </trkpt>
      <trkpt lat="44.5111" lon="2.30765">
        <ele>343.4</ele>
        <time>2011-08-09T07:42:28Z</time>
      </trkpt>
      <trkpt lat="44.5111" lon="2.30769">
        <ele>343.3</ele>
        <time>2011-08-09T07:42:29Z</time>
      </trkpt>
      <trkpt lat="44.5111" lon="2.30774">
        <ele>343.2</ele>
        <time>2011-08-09T07:42:30Z</time>
      </trkpt>
      <trkpt lat="44.51109" lon="2.30778">
        <ele>343.4</ele>
        <time>2011-08-09T07:42:31Z</time>
      </trkpt>
      <trkpt lat="44.5111" lon="2.30782">
        <ele>343.5</ele>
        <time>2011-08-09T07:42:32Z</time>
      </trkpt>
      <trkpt lat="44.51109" lon="2.30786">
        <ele>343.6</ele>
        <time>2011-08-09T07:42:33Z</time>
      </trkpt>
      <trkpt lat="44.51109" lon="2.3079">
        <ele>343.6</ele>
        <time>2011-08-09T07:42:34Z</time>
      </trkpt>
      <trkpt lat="44.51108" lon="2.30795">
        <ele>343.6</ele>
        <time>2011-08-09T07:42:35Z</time>
      </trkpt>
      <trkpt lat="44.51108" lon="2.30799">
        <ele>343.6</ele>
        <time>2011-08-09T07:42:36Z</time>
      </trkpt>
      <trkpt lat="44.51107" lon="2.30803">
        <ele>343.2</ele>
        <time>2011-08-09T07:42:37Z</time>
      </trkpt>
      <trkpt lat="44.51107" lon="2.30807">
        <ele>343</ele>
        <time>2011-08-09T07:42:38Z</time>
      </trkpt>
      <trkpt lat="44.51106" lon="2.30811">
        <ele>342.8</ele>
        <time>2011-08-09T07:42:39Z</time>
      </trkpt>
      <trkpt lat="44.51106" lon="2.30816">
        <ele>343.3</ele>
        <time>2011-08-09T07:42:40Z</time>
      </trkpt>
      <trkpt lat="44.51105" lon="2.3082">
        <ele>343.6</ele>
        <time>2011-08-09T07:42:41Z</time>
      </trkpt>
      <trkpt lat="44.51105" lon="2.30824">
        <ele>343.8</ele>
        <time>2011-08-09T07:42:42Z</time>
      </trkpt>
      <trkpt lat="44.51104" lon="2.30829">
        <ele>343.9</ele>
        <time>2011-08-09T07:42:43Z</time>
      </trkpt>
      <trkpt lat="44.51103" lon="2.30833">
        <ele>343.9</ele>
        <time>2011-08-09T07:42:44Z</time>
      </trkpt>
      <trkpt lat="44.51102" lon="2.30837">
        <ele>343.9</ele>
        <time>2011-08-09T07:42:45Z</time>
      </trkpt>
      <trkpt lat="44.51101" lon="2.30841">
        <ele>344.2</ele>
        <time>2011-08-09T07:42:46Z</time>
      </trkpt>
      <trkpt lat="44.511" lon="2.30844">
        <ele>344.4</ele>
        <time>2011-08-09T07:42:47Z</time>
      </trkpt>
      <trkpt lat="44.511" lon="2.30849">
        <ele>344.6</ele>
        <time>2011-08-09T07:42:48Z</time>
      </trkpt>
      <trkpt lat="44.51099" lon="2.30853">
        <ele>344.7</ele>
        <time>2011-08-09T07:42:49Z</time>
      </trkpt>
      <trkpt lat="44.51099" lon="2.30857">
        <ele>344.5</ele>
        <time>2011-08-09T07:42:50Z</time>
      </trkpt>
      <trkpt lat="44.51098" lon="2.30861">
        <ele>344.3</ele>
        <time>2011-08-09T07:42:51Z</time>
      </trkpt>
      <trkpt lat="44.51098" lon="2.30866">
        <ele>344.2</ele>
        <time>2011-08-09T07:42:52Z</time>
      </trkpt>
      <trkpt lat="44.51097" lon="2.3087">
        <ele>344</ele>
        <time>2011-08-09T07:42:53Z</time>
      </trkpt>
      <trkpt lat="44.51096" lon="2.30874">
        <ele>343.8</ele>
        <time>2011-08-09T07:42:54Z</time>
      </trkpt>
      <trkpt lat="44.51095" lon="2.30878">
        <ele>343.7</ele>
        <time>2011-08-09T07:42:55Z</time>
      </trkpt>
      <trkpt lat="44.51094" lon="2.30883">
        <ele>344.3</ele>
        <time>2011-08-09T07:42:56Z</time>
      </trkpt>
      <trkpt lat="44.51093" lon="2.30887">
        <ele>344.7</ele>
        <time>2011-08-09T07:42:57Z</time>
      </trkpt>
      <trkpt lat="44.51093" lon="2.30891">
        <ele>345.1</ele>
        <time>2011-08-09T07:42:58Z</time>
      </trkpt>
      <trkpt lat="44.51092" lon="2.30896">
        <ele>345</ele>
        <time>2011-08-09T07:42:59Z</time>
      </trkpt>
      <trkpt lat="44.51092" lon="2.309">
        <ele>345</ele>
        <time>2011-08-09T07:43:00Z</time>
      </trkpt>
      <trkpt lat="44.51092" lon="2.30905">
        <ele>344.9</ele>
        <time>2011-08-09T07:43:01Z</time>
      </trkpt>
      <trkpt lat="44.51091" lon="2.30909">
        <ele>344.9</ele>
        <time>2011-08-09T07:43:02Z</time>
      </trkpt>
      <trkpt lat="44.51091" lon="2.30914">
        <ele>345</ele>
        <time>2011-08-09T07:43:03Z</time>
      </trkpt>
      <trkpt lat="44.51091" lon="2.30918">
        <ele>345</ele>
        <time>2011-08-09T07:43:04Z</time>
      </trkpt>
      <trkpt lat="44.51091" lon="2.30923">
        <ele>345.1</ele>
        <time>2011-08-09T07:43:05Z</time>
      </trkpt>
      <trkpt lat="44.51091" lon="2.30927">
        <ele>345.6</ele>
        <time>2011-08-09T07:43:06Z</time>
      </trkpt>
      <trkpt lat="44.51091" lon="2.30932">
        <ele>345.9</ele>
        <time>2011-08-09T07:43:07Z</time>
      </trkpt>
      <trkpt lat="44.51091" lon="2.30936">
        <ele>346.2</ele>
        <time>2011-08-09T07:43:08Z</time>
      </trkpt>
      <trkpt lat="44.51092" lon="2.30941">
        <ele>345.9</ele>
        <time>2011-08-09T07:43:09Z</time>
      </trkpt>
      <trkpt lat="44.51092" lon="2.30945">
        <ele>345.7</ele>
        <time>2011-08-09T07:43:10Z</time>
      </trkpt>
      <trkpt lat="44.51093" lon="2.30949">
        <ele>345.5</ele>
        <time>2011-08-09T07:43:11Z</time>
      </trkpt>
      <trkpt lat="44.51093" lon="2.30954">
        <ele>345.5</ele>
        <time>2011-08-09T07:43:12Z</time>
      </trkpt>
      <trkpt lat="44.51094" lon="2.30958">
        <ele>345.5</ele>
        <time>2011-08-09T07:43:13Z</time>
      </trkpt>
      <trkpt lat="44.51094" lon="2.30963">
        <ele>345.5</ele>
        <time>2011-08-09T07:43:14Z</time>
      </trkpt>
      <trkpt lat="44.51094" lon="2.30967">
        <ele>345.8</ele>
        <time>2011-08-09T07:43:15Z</time>
      </trkpt>
      <trkpt lat="44.51094" lon="2.30971">
        <ele>346.1</ele>
        <time>2011-08-09T07:43:16Z</time>
      </trkpt>
      <trkpt lat="44.51095" lon="2.30976">
        <ele>346.2</ele>
        <time>2011-08-09T07:43:17Z</time>
      </trkpt>
      <trkpt lat="44.51095" lon="2.3098">
        <ele>346.4</ele>
        <time>2011-08-09T07:43:18Z</time>
      </trkpt>
      <trkpt lat="44.51095" lon="2.30984">
        <ele>346.4</ele>
        <time>2011-08-09T07:43:19Z</time>
      </trkpt>
      <trkpt lat="44.51096" lon="2.30988">
        <ele>346.5</ele>
        <time>2011-08-09T07:43:20Z</time>
      </trkpt>
      <trkpt lat="44.51096" lon="2.30992">
        <ele>346.5</ele>
        <time>2011-08-09T07:43:21Z</time>
      </trkpt>
      <trkpt lat="44.51097" lon="2.30996">
        <ele>346.7</ele>
        <time>2011-08-09T07:43:22Z</time>
      </trkpt>
      <trkpt lat="44.51097" lon="2.31">
        <ele>346.8</ele>
        <time>2011-08-09T07:43:23Z</time>
      </trkpt>
      <trkpt lat="44.51097" lon="2.31005">
        <ele>346.9</ele>
        <time>2011-08-09T07:43:24Z</time>
      </trkpt>
      <trkpt lat="44.51097" lon="2.31009">
        <ele>346.9</ele>
        <time>2011-08-09T07:43:25Z</time>
      </trkpt>
      <trkpt lat="44.51097" lon="2.31013">
        <ele>346.8</ele>
        <time>2011-08-09T07:43:26Z</time>
      </trkpt>
      <trkpt lat="44.51098" lon="2.31018">
        <ele>346.8</ele>
        <time>2011-08-09T07:43:27Z</time>
      </trkpt>
      <trkpt lat="44.51098" lon="2.31022">
        <ele>346.8</ele>
        <time>2011-08-09T07:43:28Z</time>
      </trkpt>
      <trkpt lat="44.51099" lon="2.31027">
        <ele>346.9</ele>
        <time>2011-08-09T07:43:29Z</time>
      </trkpt>
      <trkpt lat="44.51099" lon="2.31031">
        <ele>346.9</ele>
        <time>2011-08-09T07:43:30Z</time>
      </trkpt>
      <trkpt lat="44.511" lon="2.31036">
        <ele>346.9</ele>
        <time>2011-08-09T07:43:31Z</time>
      </trkpt>
      <trkpt lat="44.511" lon="2.3104">
        <ele>346.9</ele>
        <time>2011-08-09T07:43:32Z</time>
      </trkpt>
      <trkpt lat="44.51101" lon="2.31044">
        <ele>346.9</ele>
        <time>2011-08-09T07:43:33Z</time>
      </trkpt>
      <trkpt lat="44.51101" lon="2.31049">
        <ele>347.2</ele>
        <time>2011-08-09T07:43:34Z</time>
      </trkpt>
      <trkpt lat="44.51101" lon="2.31053">
        <ele>347.3</ele>
        <time>2011-08-09T07:43:35Z</time>
      </trkpt>
      <trkpt lat="44.51102" lon="2.31058">
        <ele>347.4</ele>
        <time>2011-08-09T07:43:36Z</time>
      </trkpt>
      <trkpt lat="44.51102" lon="2.31062">
        <ele>347.3</ele>
        <time>2011-08-09T07:43:37Z</time>
      </trkpt>
      <trkpt lat="44.51102" lon="2.31066">
        <ele>347.3</ele>
        <time>2011-08-09T07:43:38Z</time>
      </trkpt>
      <trkpt lat="44.51102" lon="2.31071">
        <ele>347.2</ele>
        <time>2011-08-09T07:43:39Z</time>
      </trkpt>
      <trkpt lat="44.51102" lon="2.31075">
        <ele>347.1</ele>
        <time>2011-08-09T07:43:40Z</time>
      </trkpt>
      <trkpt lat="44.51102" lon="2.31079">
        <ele>347.3</ele>
        <time>2011-08-09T07:43:41Z</time>
      </trkpt>
      <trkpt lat="44.51102" lon="2.31083">
        <ele>347.4</ele>
        <time>2011-08-09T07:43:42Z</time>
      </trkpt>
      <trkpt lat="44.51103" lon="2.31088">
        <ele>347.5</ele>
        <time>2011-08-09T07:43:43Z</time>
      </trkpt>
      <trkpt lat="44.51103" lon="2.31092">
        <ele>347.6</ele>
        <time>2011-08-09T07:43:44Z</time>
      </trkpt>
      <trkpt lat="44.51103" lon="2.31096">
        <ele>347.7</ele>
        <time>2011-08-09T07:43:45Z</time>
      </trkpt>
      <trkpt lat="44.51103" lon="2.311">
        <ele>347.7</ele>
        <time>2011-08-09T07:43:46Z</time>
      </trkpt>
      <trkpt lat="44.51103" lon="2.31105">
        <ele>348.1</ele>
        <time>2011-08-09T07:43:47Z</time>
      </trkpt>
      <trkpt lat="44.51103" lon="2.31109">
        <ele>348.3</ele>
        <time>2011-08-09T07:43:48Z</time>
      </trkpt>
      <trkpt lat="44.51103" lon="2.31113">
        <ele>348.5</ele>
        <time>2011-08-09T07:43:49Z</time>
      </trkpt>
      <trkpt lat="44.51103" lon="2.31117">
        <ele>348.5</ele>
        <time>2011-08-09T07:43:50Z</time>
      </trkpt>
      <trkpt lat="44.51103" lon="2.31121">
        <ele>348.4</ele>
        <time>2011-08-09T07:43:51Z</time>
      </trkpt>
      <trkpt lat="44.51103" lon="2.31125">
        <ele>348.4</ele>
        <time>2011-08-09T07:43:52Z</time>
      </trkpt>
      <trkpt lat="44.51103" lon="2.31129">
        <ele>348.4</ele>
        <time>2011-08-09T07:43:53Z</time>
      </trkpt>
      <trkpt lat="44.51102" lon="2.31133">
        <ele>348.8</ele>
        <time>2011-08-09T07:43:54Z</time>
      </trkpt>
      <trkpt lat="44.51102" lon="2.31137">
        <ele>349</ele>
        <time>2011-08-09T07:43:55Z</time>
      </trkpt>
      <trkpt lat="44.51102" lon="2.31142">
        <ele>349.3</ele>
        <time>2011-08-09T07:43:56Z</time>
      </trkpt>
      <trkpt lat="44.51101" lon="2.31146">
        <ele>349.6</ele>
        <time>2011-08-09T07:43:57Z</time>
      </trkpt>
      <trkpt lat="44.51101" lon="2.3115">
        <ele>349.9</ele>
        <time>2011-08-09T07:43:58Z</time>
      </trkpt>
      <trkpt lat="44.51101" lon="2.31154">
        <ele>350.1</ele>
        <time>2011-08-09T07:43:59Z</time>
      </trkpt>
      <trkpt lat="44.511" lon="2.31158">
        <ele>350.1</ele>
        <time>2011-08-09T07:44:00Z</time>
      </trkpt>
      <trkpt lat="44.511" lon="2.31163">
        <ele>350.2</ele>
        <time>2011-08-09T07:44:01Z</time>
      </trkpt>
      <trkpt lat="44.51099" lon="2.31167">
        <ele>350.2</ele>
        <time>2011-08-09T07:44:02Z</time>
      </trkpt>
      <trkpt lat="44.51099" lon="2.31171">
        <ele>350.1</ele>
        <time>2011-08-09T07:44:03Z</time>
      </trkpt>
      <trkpt lat="44.51098" lon="2.31176">
        <ele>350</ele>
        <time>2011-08-09T07:44:04Z</time>
      </trkpt>
      <trkpt lat="44.51097" lon="2.3118">
        <ele>349.9</ele>
        <time>2011-08-09T07:44:05Z</time>
      </trkpt>
      <trkpt lat="44.51097" lon="2.31184">
        <ele>350</ele>
        <time>2011-08-09T07:44:06Z</time>
      </trkpt>
      <trkpt lat="44.51096" lon="2.31189">
        <ele>350.1</ele>
        <time>2011-08-09T07:44:07Z</time>
      </trkpt>
      <trkpt lat="44.51095" lon="2.31193">
        <ele>350.1</ele>
        <time>2011-08-09T07:44:08Z</time>
      </trkpt>
      <trkpt lat="44.51094" lon="2.31197">
        <ele>350</ele>
        <time>2011-08-09T07:44:09Z</time>
      </trkpt>
      <trkpt lat="44.51093" lon="2.31202">
        <ele>349.9</ele>
        <time>2011-08-09T07:44:10Z</time>
      </trkpt>
      <trkpt lat="44.51092" lon="2.31206">
        <ele>349.9</ele>
        <time>2011-08-09T07:44:11Z</time>
      </trkpt>
      <trkpt lat="44.51091" lon="2.31211">
        <ele>349.8</ele>
        <time>2011-08-09T07:44:12Z</time>
      </trkpt>
      <trkpt lat="44.5109" lon="2.31215">
        <ele>350.1</ele>
        <time>2011-08-09T07:44:13Z</time>
      </trkpt>
      <trkpt lat="44.51089" lon="2.3122">
        <ele>350.2</ele>
        <time>2011-08-09T07:44:14Z</time>
      </trkpt>
      <trkpt lat="44.51089" lon="2.31224">
        <ele>350.4</ele>
        <time>2011-08-09T07:44:15Z</time>
      </trkpt>
      <trkpt lat="44.51088" lon="2.31229">
        <ele>350.7</ele>
        <time>2011-08-09T07:44:16Z</time>
      </trkpt>
      <trkpt lat="44.51087" lon="2.31233">
        <ele>351</ele>
        <time>2011-08-09T07:44:17Z</time>
      </trkpt>
      <trkpt lat="44.51086" lon="2.31237">
        <ele>351.2</ele>
        <time>2011-08-09T07:44:18Z</time>
      </trkpt>
      <trkpt lat="44.51086" lon="2.31242">
        <ele>351.5</ele>
        <time>2011-08-09T07:44:19Z</time>
      </trkpt>
      <trkpt lat="44.51085" lon="2.31247">
        <ele>351.7</ele>
        <time>2011-08-09T07:44:20Z</time>
      </trkpt>
      <trkpt lat="44.51085" lon="2.31251">
        <ele>351.9</ele>
        <time>2011-08-09T07:44:21Z</time>
      </trkpt>
      <trkpt lat="44.51084" lon="2.31256">
        <ele>351.8</ele>
        <time>2011-08-09T07:44:22Z</time>
      </trkpt>
      <trkpt lat="44.51083" lon="2.3126">
        <ele>351.8</ele>
        <time>2011-08-09T07:44:23Z</time>
      </trkpt>
      <trkpt lat="44.51083" lon="2.31265">
        <ele>351.8</ele>
        <time>2011-08-09T07:44:24Z</time>
      </trkpt>
      <trkpt lat="44.51082" lon="2.3127">
        <ele>351.8</ele>
        <time>2011-08-09T07:44:25Z</time>
      </trkpt>
      <trkpt lat="44.51081" lon="2.31274">
        <ele>351.9</ele>
        <time>2011-08-09T07:44:26Z</time>
      </trkpt>
      <trkpt lat="44.51081" lon="2.31279">
        <ele>352</ele>
        <time>2011-08-09T07:44:27Z</time>
      </trkpt>
      <trkpt lat="44.5108" lon="2.31284">
        <ele>352.1</ele>
        <time>2011-08-09T07:44:28Z</time>
      </trkpt>
      <trkpt lat="44.51079" lon="2.31289">
        <ele>351.8</ele>
        <time>2011-08-09T07:44:29Z</time>
      </trkpt>
      <trkpt lat="44.51078" lon="2.31294">
        <ele>351.5</ele>
        <time>2011-08-09T07:44:30Z</time>
      </trkpt>
      <trkpt lat="44.51077" lon="2.31299">
        <ele>351.3</ele>
        <time>2011-08-09T07:44:31Z</time>
      </trkpt>
      <trkpt lat="44.51076" lon="2.31303">
        <ele>351.5</ele>
        <time>2011-08-09T07:44:32Z</time>
      </trkpt>
      <trkpt lat="44.51075" lon="2.31308">
        <ele>351.6</ele>
        <time>2011-08-09T07:44:33Z</time>
      </trkpt>
      <trkpt lat="44.51074" lon="2.31313">
        <ele>351.7</ele>
        <time>2011-08-09T07:44:34Z</time>
      </trkpt>
      <trkpt lat="44.51072" lon="2.31317">
        <ele>351.7</ele>
        <time>2011-08-09T07:44:35Z</time>
      </trkpt>
      <trkpt lat="44.51071" lon="2.31322">
        <ele>351.7</ele>
        <time>2011-08-09T07:44:36Z</time>
      </trkpt>
      <trkpt lat="44.51069" lon="2.31326">
        <ele>351.7</ele>
        <time>2011-08-09T07:44:37Z</time>
      </trkpt>
      <trkpt lat="44.51068" lon="2.31329">
        <ele>351.9</ele>
        <time>2011-08-09T07:44:38Z</time>
      </trkpt>
      <trkpt lat="44.51066" lon="2.31333">
        <ele>352.1</ele>
        <time>2011-08-09T07:44:39Z</time>
      </trkpt>
      <trkpt lat="44.51064" lon="2.31337">
        <ele>352.2</ele>
        <time>2011-08-09T07:44:40Z</time>
      </trkpt>
      <trkpt lat="44.51062" lon="2.31341">
        <ele>352.1</ele>
        <time>2011-08-09T07:44:41Z</time>
      </trkpt>
      <trkpt lat="44.5106" lon="2.31344">
        <ele>352.1</ele>
        <time>2011-08-09T07:44:42Z</time>
      </trkpt>
      <trkpt lat="44.51059" lon="2.31348">
        <ele>352.1</ele>
        <time>2011-08-09T07:44:43Z</time>
      </trkpt>
      <trkpt lat="44.51057" lon="2.31352">
        <ele>352</ele>
        <time>2011-08-09T07:44:44Z</time>
      </trkpt>
      <trkpt lat="44.51055" lon="2.31355">
        <ele>352.1</ele>
        <time>2011-08-09T07:44:45Z</time>
      </trkpt>
      <trkpt lat="44.51053" lon="2.31359">
        <ele>352.2</ele>
        <time>2011-08-09T07:44:46Z</time>
      </trkpt>
      <trkpt lat="44.51051" lon="2.31362">
        <ele>352.3</ele>
        <time>2011-08-09T07:44:47Z</time>
      </trkpt>
      <trkpt lat="44.5105" lon="2.31366">
        <ele>352.6</ele>
        <time>2011-08-09T07:44:48Z</time>
      </trkpt>
      <trkpt lat="44.51048" lon="2.31369">
        <ele>352.8</ele>
        <time>2011-08-09T07:44:49Z</time>
      </trkpt>
      <trkpt lat="44.51046" lon="2.31373">
        <ele>353</ele>
        <time>2011-08-09T07:44:50Z</time>
      </trkpt>
      <trkpt lat="44.51045" lon="2.31377">
        <ele>353.4</ele>
        <time>2011-08-09T07:44:51Z</time>
      </trkpt>
      <trkpt lat="44.51043" lon="2.31381">
        <ele>353.8</ele>
        <time>2011-08-09T07:44:52Z</time>
      </trkpt>
      <trkpt lat="44.51041" lon="2.31385">
        <ele>354</ele>
        <time>2011-08-09T07:44:53Z</time>
      </trkpt>
      <trkpt lat="44.51039" lon="2.31389">
        <ele>353.9</ele>
        <time>2011-08-09T07:44:54Z</time>
      </trkpt>
      <trkpt lat="44.51037" lon="2.31394">
        <ele>353.8</ele>
        <time>2011-08-09T07:44:55Z</time>
      </trkpt>
      <trkpt lat="44.51035" lon="2.31399">
        <ele>353.7</ele>
        <time>2011-08-09T07:44:56Z</time>
      </trkpt>
      <trkpt lat="44.51033" lon="2.31404">
        <ele>353.6</ele>
        <time>2011-08-09T07:44:57Z</time>
      </trkpt>
      <trkpt lat="44.51031" lon="2.3141">
        <ele>353.5</ele>
        <time>2011-08-09T07:44:58Z</time>
      </trkpt>
      <trkpt lat="44.51029" lon="2.31415">
        <ele>353.4</ele>
        <time>2011-08-09T07:44:59Z</time>
      </trkpt>
      <trkpt lat="44.51027" lon="2.31421">
        <ele>353.3</ele>
        <time>2011-08-09T07:45:00Z</time>
      </trkpt>
      <trkpt lat="44.51026" lon="2.31426">
        <ele>353.7</ele>
        <time>2011-08-09T07:45:01Z</time>
      </trkpt>
      <trkpt lat="44.51024" lon="2.31432">
        <ele>353.9</ele>
        <time>2011-08-09T07:45:02Z</time>
      </trkpt>
      <trkpt lat="44.51022" lon="2.31437">
        <ele>354.1</ele>
        <time>2011-08-09T07:45:03Z</time>
      </trkpt>
      <trkpt lat="44.51021" lon="2.31443">
        <ele>353.9</ele>
        <time>2011-08-09T07:45:04Z</time>
      </trkpt>
      <trkpt lat="44.51019" lon="2.31449">
        <ele>353.8</ele>
        <time>2011-08-09T07:45:05Z</time>
      </trkpt>
      <trkpt lat="44.51018" lon="2.31455">
        <ele>353.7</ele>
        <time>2011-08-09T07:45:06Z</time>
      </trkpt>
      <trkpt lat="44.51017" lon="2.31461">
        <ele>353.4</ele>
        <time>2011-08-09T07:45:07Z</time>
      </trkpt>
      <trkpt lat="44.51015" lon="2.31467">
        <ele>353.3</ele>
        <time>2011-08-09T07:45:08Z</time>
      </trkpt>
      <trkpt lat="44.51014" lon="2.31474">
        <ele>353.1</ele>
        <time>2011-08-09T07:45:09Z</time>
      </trkpt>
      <trkpt lat="44.51012" lon="2.3148">
        <ele>352.8</ele>
        <time>2011-08-09T07:45:10Z</time>
      </trkpt>
      <trkpt lat="44.51011" lon="2.31485">
        <ele>352.6</ele>
        <time>2011-08-09T07:45:11Z</time>
      </trkpt>
      <trkpt lat="44.51009" lon="2.31491">
        <ele>352.4</ele>
        <time>2011-08-09T07:45:12Z</time>
      </trkpt>
      <trkpt lat="44.51008" lon="2.31497">
        <ele>352.7</ele>
        <time>2011-08-09T07:45:13Z</time>
      </trkpt>
      <trkpt lat="44.51006" lon="2.31503">
        <ele>353</ele>
        <time>2011-08-09T07:45:14Z</time>
      </trkpt>
      <trkpt lat="44.51005" lon="2.31509">
        <ele>353.2</ele>
        <time>2011-08-09T07:45:15Z</time>
      </trkpt>
      <trkpt lat="44.51003" lon="2.31515">
        <ele>353.3</ele>
        <time>2011-08-09T07:45:16Z</time>
      </trkpt>
      <trkpt lat="44.51002" lon="2.31521">
        <ele>353</ele>
        <time>2011-08-09T07:45:17Z</time>
      </trkpt>
      <trkpt lat="44.51" lon="2.31526">
        <ele>352.8</ele>
        <time>2011-08-09T07:45:18Z</time>
      </trkpt>
      <trkpt lat="44.50999" lon="2.31532">
        <ele>352.6</ele>
        <time>2011-08-09T07:45:19Z</time>
      </trkpt>
      <trkpt lat="44.50997" lon="2.31538">
        <ele>352.5</ele>
        <time>2011-08-09T07:45:20Z</time>
      </trkpt>
      <trkpt lat="44.50995" lon="2.31543">
        <ele>352.5</ele>
        <time>2011-08-09T07:45:21Z</time>
      </trkpt>
      <trkpt lat="44.50993" lon="2.31549">
        <ele>352.5</ele>
        <time>2011-08-09T07:45:22Z</time>
      </trkpt>
      <trkpt lat="44.50992" lon="2.31555">
        <ele>352.4</ele>
        <time>2011-08-09T07:45:23Z</time>
      </trkpt>
      <trkpt lat="44.5099" lon="2.3156">
        <ele>352.4</ele>
        <time>2011-08-09T07:45:24Z</time>
      </trkpt>
      <trkpt lat="44.50988" lon="2.31565">
        <ele>352.3</ele>
        <time>2011-08-09T07:45:25Z</time>
      </trkpt>
      <trkpt lat="44.50986" lon="2.3157">
        <ele>352.5</ele>
        <time>2011-08-09T07:45:26Z</time>
      </trkpt>
      <trkpt lat="44.50984" lon="2.31574">
        <ele>352.6</ele>
        <time>2011-08-09T07:45:27Z</time>
      </trkpt>
      <trkpt lat="44.50982" lon="2.31579">
        <ele>352.7</ele>
        <time>2011-08-09T07:45:28Z</time>
      </trkpt>
      <trkpt lat="44.5098" lon="2.31584">
        <ele>352.8</ele>
        <time>2011-08-09T07:45:29Z</time>
      </trkpt>
      <trkpt lat="44.50978" lon="2.31588">
        <ele>352.8</ele>
        <time>2011-08-09T07:45:30Z</time>
      </trkpt>
      <trkpt lat="44.50975" lon="2.31593">
        <ele>352.9</ele>
        <time>2011-08-09T07:45:31Z</time>
      </trkpt>
      <trkpt lat="44.50973" lon="2.31598">
        <ele>352.9</ele>
        <time>2011-08-09T07:45:32Z</time>
      </trkpt>
      <trkpt lat="44.50971" lon="2.31603">
        <ele>352.5</ele>
        <time>2011-08-09T07:45:33Z</time>
      </trkpt>
      <trkpt lat="44.50969" lon="2.31608">
        <ele>352.2</ele>
        <time>2011-08-09T07:45:34Z</time>
      </trkpt>
      <trkpt lat="44.50966" lon="2.31613">
        <ele>352</ele>
        <time>2011-08-09T07:45:35Z</time>
      </trkpt>
      <trkpt lat="44.50964" lon="2.31617">
        <ele>352.1</ele>
        <time>2011-08-09T07:45:36Z</time>
      </trkpt>
      <trkpt lat="44.50961" lon="2.31622">
        <ele>352.2</ele>
        <time>2011-08-09T07:45:37Z</time>
      </trkpt>
      <trkpt lat="44.50959" lon="2.31627">
        <ele>352.3</ele>
        <time>2011-08-09T07:45:38Z</time>
      </trkpt>
      <trkpt lat="44.50957" lon="2.31632">
        <ele>352.1</ele>
        <time>2011-08-09T07:45:39Z</time>
      </trkpt>
      <trkpt lat="44.50954" lon="2.31637">
        <ele>352</ele>
        <time>2011-08-09T07:45:40Z</time>
      </trkpt>
      <trkpt lat="44.50952" lon="2.31642">
        <ele>351.9</ele>
        <time>2011-08-09T07:45:41Z</time>
      </trkpt>
      <trkpt lat="44.5095" lon="2.31647">
        <ele>351.8</ele>
        <time>2011-08-09T07:45:42Z</time>
      </trkpt>
      <trkpt lat="44.50947" lon="2.31651">
        <ele>351.6</ele>
        <time>2011-08-09T07:45:43Z</time>
      </trkpt>
      <trkpt lat="44.50945" lon="2.31656">
        <ele>351.5</ele>
        <time>2011-08-09T07:45:44Z</time>
      </trkpt>
      <trkpt lat="44.50943" lon="2.31661">
        <ele>351.1</ele>
        <time>2011-08-09T07:45:45Z</time>
      </trkpt>
      <trkpt lat="44.50941" lon="2.31666">
        <ele>350.8</ele>
        <time>2011-08-09T07:45:46Z</time>
      </trkpt>
      <trkpt lat="44.50938" lon="2.31671">
        <ele>350.6</ele>
        <time>2011-08-09T07:45:47Z</time>
      </trkpt>
      <trkpt lat="44.50936" lon="2.31675">
        <ele>350.7</ele>
        <time>2011-08-09T07:45:48Z</time>
      </trkpt>
      <trkpt lat="44.50934" lon="2.3168">
        <ele>350.8</ele>
        <time>2011-08-09T07:45:49Z</time>
      </trkpt>
      <trkpt lat="44.50931" lon="2.31685">
        <ele>350.8</ele>
        <time>2011-08-09T07:45:50Z</time>
      </trkpt>
      <trkpt lat="44.50929" lon="2.31689">
        <ele>350.8</ele>
        <time>2011-08-09T07:45:51Z</time>
      </trkpt>
      <trkpt lat="44.50926" lon="2.31694">
        <ele>350.8</ele>
        <time>2011-08-09T07:45:52Z</time>
      </trkpt>
      <trkpt lat="44.50924" lon="2.31699">
        <ele>350.8</ele>
        <time>2011-08-09T07:45:53Z</time>
      </trkpt>
      <trkpt lat="44.50921" lon="2.31704">
        <ele>350.8</ele>
        <time>2011-08-09T07:45:54Z</time>
      </trkpt>
      <trkpt lat="44.50918" lon="2.31709">
        <ele>351</ele>
        <time>2011-08-09T07:45:55Z</time>
      </trkpt>
      <trkpt lat="44.50915" lon="2.31713">
        <ele>351.3</ele>
        <time>2011-08-09T07:45:56Z</time>
      </trkpt>
      <trkpt lat="44.50912" lon="2.31718">
        <ele>351.4</ele>
        <time>2011-08-09T07:45:57Z</time>
      </trkpt>
      <trkpt lat="44.50909" lon="2.31722">
        <ele>351</ele>
        <time>2011-08-09T07:45:58Z</time>
      </trkpt>
      <trkpt lat="44.50906" lon="2.31727">
        <ele>350.6</ele>
        <time>2011-08-09T07:45:59Z</time>
      </trkpt>
      <trkpt lat="44.50903" lon="2.31731">
        <ele>350.4</ele>
        <time>2011-08-09T07:46:00Z</time>
      </trkpt>
      <trkpt lat="44.509" lon="2.31736">
        <ele>350.4</ele>
        <time>2011-08-09T07:46:01Z</time>
      </trkpt>
      <trkpt lat="44.50897" lon="2.3174">
        <ele>350.5</ele>
        <time>2011-08-09T07:46:02Z</time>
      </trkpt>
      <trkpt lat="44.50894" lon="2.31745">
        <ele>350.5</ele>
        <time>2011-08-09T07:46:03Z</time>
      </trkpt>
      <trkpt lat="44.50891" lon="2.3175">
        <ele>350</ele>
        <time>2011-08-09T07:46:04Z</time>
      </trkpt>
      <trkpt lat="44.50887" lon="2.31754">
        <ele>349.7</ele>
        <time>2011-08-09T07:46:05Z</time>
      </trkpt>
      <trkpt lat="44.50884" lon="2.31759">
        <ele>349.4</ele>
        <time>2011-08-09T07:46:06Z</time>
      </trkpt>
      <trkpt lat="44.50881" lon="2.31764">
        <ele>349.3</ele>
        <time>2011-08-09T07:46:07Z</time>
      </trkpt>
      <trkpt lat="44.50878" lon="2.31769">
        <ele>349.3</ele>
        <time>2011-08-09T07:46:08Z</time>
      </trkpt>
      <trkpt lat="44.50875" lon="2.31774">
        <ele>349.3</ele>
        <time>2011-08-09T07:46:09Z</time>
      </trkpt>
      <trkpt lat="44.50872" lon="2.31779">
        <ele>349.3</ele>
        <time>2011-08-09T07:46:10Z</time>
      </trkpt>
      <trkpt lat="44.50869" lon="2.31784">
        <ele>349</ele>
        <time>2011-08-09T07:46:11Z</time>
      </trkpt>
      <trkpt lat="44.50866" lon="2.3179">
        <ele>348.8</ele>
        <time>2011-08-09T07:46:12Z</time>
      </trkpt>
      <trkpt lat="44.50864" lon="2.31795">
        <ele>348.7</ele>
        <time>2011-08-09T07:46:13Z</time>
      </trkpt>
      <trkpt lat="44.50861" lon="2.31801">
        <ele>348.7</ele>
        <time>2011-08-09T07:46:14Z</time>
      </trkpt>
      <trkpt lat="44.50859" lon="2.31807">
        <ele>348.7</ele>
        <time>2011-08-09T07:46:15Z</time>
      </trkpt>
      <trkpt lat="44.50856" lon="2.31814">
        <ele>348.7</ele>
        <time>2011-08-09T07:46:16Z</time>
      </trkpt>
      <trkpt lat="44.50854" lon="2.3182">
        <ele>348.7</ele>
        <time>2011-08-09T07:46:17Z</time>
      </trkpt>
      <trkpt lat="44.50852" lon="2.31826">
        <ele>348.8</ele>
        <time>2011-08-09T07:46:18Z</time>
      </trkpt>
      <trkpt lat="44.5085" lon="2.31831">
        <ele>348.8</ele>
        <time>2011-08-09T07:46:19Z</time>
      </trkpt>
      <trkpt lat="44.50848" lon="2.31837">
        <ele>348.8</ele>
        <time>2011-08-09T07:46:20Z</time>
      </trkpt>
      <trkpt lat="44.50846" lon="2.31843">
        <ele>348.8</ele>
        <time>2011-08-09T07:46:21Z</time>
      </trkpt>
      <trkpt lat="44.50844" lon="2.31849">
        <ele>348.8</ele>
        <time>2011-08-09T07:46:22Z</time>
      </trkpt>
      <trkpt lat="44.50842" lon="2.31855">
        <ele>348.6</ele>
        <time>2011-08-09T07:46:23Z</time>
      </trkpt>
      <trkpt lat="44.5084" lon="2.31861">
        <ele>348.4</ele>
        <time>2011-08-09T07:46:24Z</time>
      </trkpt>
      <trkpt lat="44.50838" lon="2.31868">
        <ele>348.3</ele>
        <time>2011-08-09T07:46:25Z</time>
      </trkpt>
      <trkpt lat="44.50836" lon="2.31874">
        <ele>348.3</ele>
        <time>2011-08-09T07:46:26Z</time>
      </trkpt>
      <trkpt lat="44.50834" lon="2.3188">
        <ele>348.4</ele>
        <time>2011-08-09T07:46:27Z</time>
      </trkpt>
      <trkpt lat="44.50833" lon="2.31886">
        <ele>348.4</ele>
        <time>2011-08-09T07:46:28Z</time>
      </trkpt>
      <trkpt lat="44.50831" lon="2.31893">
        <ele>348.5</ele>
        <time>2011-08-09T07:46:29Z</time>
      </trkpt>
      <trkpt lat="44.50829" lon="2.31899">
        <ele>348.7</ele>
        <time>2011-08-09T07:46:30Z</time>
      </trkpt>
      <trkpt lat="44.50827" lon="2.31905">
        <ele>348.9</ele>
        <time>2011-08-09T07:46:31Z</time>
      </trkpt>
      <trkpt lat="44.50826" lon="2.31911">
        <ele>349.1</ele>
        <time>2011-08-09T07:46:32Z</time>
      </trkpt>
      <trkpt lat="44.50824" lon="2.31917">
        <ele>349.5</ele>
        <time>2011-08-09T07:46:33Z</time>
      </trkpt>
      <trkpt lat="44.50822" lon="2.31924">
        <ele>349.8</ele>
        <time>2011-08-09T07:46:34Z</time>
      </trkpt>
      <trkpt lat="44.50821" lon="2.3193">
        <ele>350</ele>
        <time>2011-08-09T07:46:35Z</time>
      </trkpt>
      <trkpt lat="44.50819" lon="2.31936">
        <ele>350.4</ele>
        <time>2011-08-09T07:46:36Z</time>
      </trkpt>
      <trkpt lat="44.50817" lon="2.31942">
        <ele>350.7</ele>
        <time>2011-08-09T07:46:37Z</time>
      </trkpt>
      <trkpt lat="44.50815" lon="2.31949">
        <ele>350.9</ele>
        <time>2011-08-09T07:46:38Z</time>
      </trkpt>
      <trkpt lat="44.50814" lon="2.31955">
        <ele>351.1</ele>
        <time>2011-08-09T07:46:39Z</time>
      </trkpt>
      <trkpt lat="44.50812" lon="2.31961">
        <ele>350.9</ele>
        <time>2011-08-09T07:46:40Z</time>
      </trkpt>
      <trkpt lat="44.5081" lon="2.31967">
        <ele>350.8</ele>
        <time>2011-08-09T07:46:41Z</time>
      </trkpt>
      <trkpt lat="44.50808" lon="2.31973">
        <ele>350.7</ele>
        <time>2011-08-09T07:46:42Z</time>
      </trkpt>
      <trkpt lat="44.50807" lon="2.31979">
        <ele>350.5</ele>
        <time>2011-08-09T07:46:43Z</time>
      </trkpt>
      <trkpt lat="44.50805" lon="2.31985">
        <ele>350.4</ele>
        <time>2011-08-09T07:46:44Z</time>
      </trkpt>
      <trkpt lat="44.50803" lon="2.31991">
        <ele>350.2</ele>
        <time>2011-08-09T07:46:45Z</time>
      </trkpt>
      <trkpt lat="44.50801" lon="2.31997">
        <ele>350.5</ele>
        <time>2011-08-09T07:46:46Z</time>
      </trkpt>
      <trkpt lat="44.508" lon="2.32003">
        <ele>350.7</ele>
        <time>2011-08-09T07:46:47Z</time>
      </trkpt>
      <trkpt lat="44.50798" lon="2.32009">
        <ele>350.8</ele>
        <time>2011-08-09T07:46:48Z</time>
      </trkpt>
      <trkpt lat="44.50796" lon="2.32015">
        <ele>351</ele>
        <time>2011-08-09T07:46:49Z</time>
      </trkpt>
      <trkpt lat="44.50794" lon="2.32021">
        <ele>351.1</ele>
        <time>2011-08-09T07:46:50Z</time>
      </trkpt>
      <trkpt lat="44.50792" lon="2.32028">
        <ele>351.2</ele>
        <time>2011-08-09T07:46:51Z</time>
      </trkpt>
      <trkpt lat="44.5079" lon="2.32034">
        <ele>351.3</ele>
        <time>2011-08-09T07:46:52Z</time>
      </trkpt>
      <trkpt lat="44.50789" lon="2.3204">
        <ele>351.5</ele>
        <time>2011-08-09T07:46:53Z</time>
      </trkpt>
      <trkpt lat="44.50787" lon="2.32046">
        <ele>351.6</ele>
        <time>2011-08-09T07:46:54Z</time>
      </trkpt>
      <trkpt lat="44.50785" lon="2.32052">
        <ele>351.6</ele>
        <time>2011-08-09T07:46:55Z</time>
      </trkpt>
      <trkpt lat="44.50783" lon="2.32059">
        <ele>351.7</ele>
        <time>2011-08-09T07:46:56Z</time>
      </trkpt>
      <trkpt lat="44.50781" lon="2.32065">
        <ele>351.8</ele>
        <time>2011-08-09T07:46:57Z</time>
      </trkpt>
      <trkpt lat="44.5078" lon="2.32071">
        <ele>351.8</ele>
        <time>2011-08-09T07:46:58Z</time>
      </trkpt>
      <trkpt lat="44.50778" lon="2.32078">
        <ele>351.7</ele>
        <time>2011-08-09T07:46:59Z</time>
      </trkpt>
      <trkpt lat="44.50776" lon="2.32084">
        <ele>351.6</ele>
        <time>2011-08-09T07:47:00Z</time>
      </trkpt>
      <trkpt lat="44.50774" lon="2.3209">
        <ele>351.6</ele>
        <time>2011-08-09T07:47:01Z</time>
      </trkpt>
      <trkpt lat="44.50773" lon="2.32097">
        <ele>351.3</ele>
        <time>2011-08-09T07:47:02Z</time>
      </trkpt>
      <trkpt lat="44.50772" lon="2.32104">
        <ele>351.1</ele>
        <time>2011-08-09T07:47:03Z</time>
      </trkpt>
      <trkpt lat="44.5077" lon="2.3211">
        <ele>350.9</ele>
        <time>2011-08-09T07:47:04Z</time>
      </trkpt>
      <trkpt lat="44.50769" lon="2.32117">
        <ele>351</ele>
        <time>2011-08-09T07:47:05Z</time>
      </trkpt>
      <trkpt lat="44.50767" lon="2.32123">
        <ele>351</ele>
        <time>2011-08-09T07:47:06Z</time>
      </trkpt>
      <trkpt lat="44.50766" lon="2.3213">
        <ele>351</ele>
        <time>2011-08-09T07:47:07Z</time>
      </trkpt>
      <trkpt lat="44.50765" lon="2.32136">
        <ele>351.2</ele>
        <time>2011-08-09T07:47:08Z</time>
      </trkpt>
      <trkpt lat="44.50764" lon="2.32143">
        <ele>351.3</ele>
        <time>2011-08-09T07:47:09Z</time>
      </trkpt>
      <trkpt lat="44.50762" lon="2.32149">
        <ele>351.3</ele>
        <time>2011-08-09T07:47:10Z</time>
      </trkpt>
      <trkpt lat="44.50761" lon="2.32156">
        <ele>351.7</ele>
        <time>2011-08-09T07:47:11Z</time>
      </trkpt>
      <trkpt lat="44.5076" lon="2.32162">
        <ele>351.9</ele>
        <time>2011-08-09T07:47:12Z</time>
      </trkpt>
      <trkpt lat="44.50759" lon="2.32168">
        <ele>352.1</ele>
        <time>2011-08-09T07:47:13Z</time>
      </trkpt>
      <trkpt lat="44.50758" lon="2.32175">
        <ele>352.3</ele>
        <time>2011-08-09T07:47:14Z</time>
      </trkpt>
      <trkpt lat="44.50757" lon="2.32181">
        <ele>352.3</ele>
        <time>2011-08-09T07:47:15Z</time>
      </trkpt>
      <trkpt lat="44.50756" lon="2.32188">
        <ele>352.3</ele>
        <time>2011-08-09T07:47:16Z</time>
      </trkpt>
      <trkpt lat="44.50755" lon="2.32194">
        <ele>352.3</ele>
        <time>2011-08-09T07:47:17Z</time>
      </trkpt>
      <trkpt lat="44.50754" lon="2.32201">
        <ele>352.5</ele>
        <time>2011-08-09T07:47:18Z</time>
      </trkpt>
      <trkpt lat="44.50753" lon="2.32207">
        <ele>352.6</ele>
        <time>2011-08-09T07:47:19Z</time>
      </trkpt>
      <trkpt lat="44.50752" lon="2.32213">
        <ele>352.7</ele>
        <time>2011-08-09T07:47:20Z</time>
      </trkpt>
      <trkpt lat="44.5075" lon="2.3222">
        <ele>352.8</ele>
        <time>2011-08-09T07:47:21Z</time>
      </trkpt>
      <trkpt lat="44.50749" lon="2.32226">
        <ele>352.9</ele>
        <time>2011-08-09T07:47:22Z</time>
      </trkpt>
      <trkpt lat="44.50748" lon="2.32233">
        <ele>353</ele>
        <time>2011-08-09T07:47:23Z</time>
      </trkpt>
      <trkpt lat="44.50747" lon="2.32239">
        <ele>352.8</ele>
        <time>2011-08-09T07:47:24Z</time>
      </trkpt>
      <trkpt lat="44.50746" lon="2.32246">
        <ele>352.7</ele>
        <time>2011-08-09T07:47:25Z</time>
      </trkpt>
      <trkpt lat="44.50745" lon="2.32252">
        <ele>352.6</ele>
        <time>2011-08-09T07:47:26Z</time>
      </trkpt>
      <trkpt lat="44.50744" lon="2.32258">
        <ele>353.1</ele>
        <time>2011-08-09T07:47:27Z</time>
      </trkpt>
      <trkpt lat="44.50743" lon="2.32265">
        <ele>353.5</ele>
        <time>2011-08-09T07:47:28Z</time>
      </trkpt>
      <trkpt lat="44.50742" lon="2.32271">
        <ele>353.8</ele>
        <time>2011-08-09T07:47:29Z</time>
      </trkpt>
      <trkpt lat="44.50741" lon="2.32277">
        <ele>354.1</ele>
        <time>2011-08-09T07:47:30Z</time>
      </trkpt>
      <trkpt lat="44.5074" lon="2.32284">
        <ele>353.7</ele>
        <time>2011-08-09T07:47:31Z</time>
      </trkpt>
      <trkpt lat="44.50738" lon="2.3229">
        <ele>353.4</ele>
        <time>2011-08-09T07:47:32Z</time>
      </trkpt>
      <trkpt lat="44.50737" lon="2.32297">
        <ele>353.2</ele>
        <time>2011-08-09T07:47:33Z</time>
      </trkpt>
      <trkpt lat="44.50736" lon="2.32303">
        <ele>353.4</ele>
        <time>2011-08-09T07:47:34Z</time>
      </trkpt>
      <trkpt lat="44.50734" lon="2.32309">
        <ele>353.6</ele>
        <time>2011-08-09T07:47:35Z</time>
      </trkpt>
      <trkpt lat="44.50733" lon="2.32316">
        <ele>353.7</ele>
        <time>2011-08-09T07:47:36Z</time>
      </trkpt>
      <trkpt lat="44.50732" lon="2.32322">
        <ele>353.8</ele>
        <time>2011-08-09T07:47:37Z</time>
      </trkpt>
      <trkpt lat="44.5073" lon="2.32328">
        <ele>353.9</ele>
        <time>2011-08-09T07:47:38Z</time>
      </trkpt>
      <trkpt lat="44.50729" lon="2.32334">
        <ele>354</ele>
        <time>2011-08-09T07:47:39Z</time>
      </trkpt>
      <trkpt lat="44.50727" lon="2.32341">
        <ele>354</ele>
        <time>2011-08-09T07:47:40Z</time>
      </trkpt>
      <trkpt lat="44.50726" lon="2.32347">
        <ele>354.1</ele>
        <time>2011-08-09T07:47:41Z</time>
      </trkpt>
      <trkpt lat="44.50724" lon="2.32353">
        <ele>354.1</ele>
        <time>2011-08-09T07:47:42Z</time>
      </trkpt>
      <trkpt lat="44.50722" lon="2.32359">
        <ele>354.3</ele>
        <time>2011-08-09T07:47:43Z</time>
      </trkpt>
      <trkpt lat="44.5072" lon="2.32364">
        <ele>354.5</ele>
        <time>2011-08-09T07:47:44Z</time>
      </trkpt>
      <trkpt lat="44.50718" lon="2.3237">
        <ele>354.6</ele>
        <time>2011-08-09T07:47:45Z</time>
      </trkpt>
      <trkpt lat="44.50717" lon="2.32376">
        <ele>354.7</ele>
        <time>2011-08-09T07:47:46Z</time>
      </trkpt>
      <trkpt lat="44.50715" lon="2.32382">
        <ele>354.9</ele>
        <time>2011-08-09T07:47:47Z</time>
      </trkpt>
      <trkpt lat="44.50713" lon="2.32387">
        <ele>355</ele>
        <time>2011-08-09T07:47:48Z</time>
      </trkpt>
      <trkpt lat="44.50711" lon="2.32393">
        <ele>355.1</ele>
        <time>2011-08-09T07:47:49Z</time>
      </trkpt>
      <trkpt lat="44.50708" lon="2.32399">
        <ele>355.2</ele>
        <time>2011-08-09T07:47:50Z</time>
      </trkpt>
      <trkpt lat="44.50706" lon="2.32404">
        <ele>355.3</ele>
        <time>2011-08-09T07:47:51Z</time>
      </trkpt>
      <trkpt lat="44.50704" lon="2.3241">
        <ele>355.4</ele>
        <time>2011-08-09T07:47:52Z</time>
      </trkpt>
      <trkpt lat="44.50701" lon="2.32415">
        <ele>355.7</ele>
        <time>2011-08-09T07:47:53Z</time>
      </trkpt>
      <trkpt lat="44.50699" lon="2.32421">
        <ele>356</ele>
        <time>2011-08-09T07:47:54Z</time>
      </trkpt>
      <trkpt lat="44.50697" lon="2.32426">
        <ele>356.1</ele>
        <time>2011-08-09T07:47:55Z</time>
      </trkpt>
      <trkpt lat="44.50694" lon="2.32432">
        <ele>356.5</ele>
        <time>2011-08-09T07:47:56Z</time>
      </trkpt>
      <trkpt lat="44.50692" lon="2.32437">
        <ele>356.8</ele>
        <time>2011-08-09T07:47:57Z</time>
      </trkpt>
      <trkpt lat="44.5069" lon="2.32442">
        <ele>357</ele>
        <time>2011-08-09T07:47:58Z</time>
      </trkpt>
      <trkpt lat="44.50687" lon="2.32447">
        <ele>356.9</ele>
        <time>2011-08-09T07:47:59Z</time>
      </trkpt>
      <trkpt lat="44.50684" lon="2.32452">
        <ele>356.8</ele>
        <time>2011-08-09T07:48:00Z</time>
      </trkpt>
      <trkpt lat="44.50682" lon="2.32457">
        <ele>356.8</ele>
        <time>2011-08-09T07:48:01Z</time>
      </trkpt>
      <trkpt lat="44.50679" lon="2.32462">
        <ele>356.7</ele>
        <time>2011-08-09T07:48:02Z</time>
      </trkpt>
      <trkpt lat="44.50676" lon="2.32467">
        <ele>357.3</ele>
        <time>2011-08-09T07:48:03Z</time>
      </trkpt>
      <trkpt lat="44.50673" lon="2.32471">
        <ele>357.7</ele>
        <time>2011-08-09T07:48:04Z</time>
      </trkpt>
      <trkpt lat="44.5067" lon="2.32475">
        <ele>358</ele>
        <time>2011-08-09T07:48:05Z</time>
      </trkpt>
      <trkpt lat="44.50667" lon="2.3248">
        <ele>358.1</ele>
        <time>2011-08-09T07:48:06Z</time>
      </trkpt>
      <trkpt lat="44.50665" lon="2.32484">
        <ele>358.2</ele>
        <time>2011-08-09T07:48:07Z</time>
      </trkpt>
      <trkpt lat="44.50662" lon="2.32489">
        <ele>358.3</ele>
        <time>2011-08-09T07:48:08Z</time>
      </trkpt>
      <trkpt lat="44.50659" lon="2.32493">
        <ele>358.6</ele>
        <time>2011-08-09T07:48:09Z</time>
      </trkpt>
      <trkpt lat="44.50656" lon="2.32497">
        <ele>358.9</ele>
        <time>2011-08-09T07:48:10Z</time>
      </trkpt>
      <trkpt lat="44.50653" lon="2.32502">
        <ele>359.1</ele>
        <time>2011-08-09T07:48:11Z</time>
      </trkpt>
      <trkpt lat="44.5065" lon="2.32505">
        <ele>359.4</ele>
        <time>2011-08-09T07:48:12Z</time>
      </trkpt>
      <trkpt lat="44.50647" lon="2.32509">
        <ele>359.5</ele>
        <time>2011-08-09T07:48:13Z</time>
      </trkpt>
      <trkpt lat="44.50644" lon="2.32514">
        <ele>359.7</ele>
        <time>2011-08-09T07:48:14Z</time>
      </trkpt>
      <trkpt lat="44.50641" lon="2.32518">
        <ele>360.1</ele>
        <time>2011-08-09T07:48:15Z</time>
      </trkpt>
      <trkpt lat="44.50638" lon="2.32521">
        <ele>360.4</ele>
        <time>2011-08-09T07:48:16Z</time>
      </trkpt>
      <trkpt lat="44.50634" lon="2.32525">
        <ele>360.6</ele>
        <time>2011-08-09T07:48:17Z</time>
      </trkpt>
      <trkpt lat="44.50631" lon="2.32529">
        <ele>360.3</ele>
        <time>2011-08-09T07:48:18Z</time>
      </trkpt>
      <trkpt lat="44.50628" lon="2.32533">
        <ele>360.2</ele>
        <time>2011-08-09T07:48:19Z</time>
      </trkpt>
      <trkpt lat="44.50624" lon="2.32536">
        <ele>360</ele>
        <time>2011-08-09T07:48:20Z</time>
      </trkpt>
      <trkpt lat="44.50621" lon="2.3254">
        <ele>359.9</ele>
        <time>2011-08-09T07:48:21Z</time>
      </trkpt>
      <trkpt lat="44.50618" lon="2.32543">
        <ele>360</ele>
        <time>2011-08-09T07:48:22Z</time>
      </trkpt>
      <trkpt lat="44.50614" lon="2.32547">
        <ele>360.1</ele>
        <time>2011-08-09T07:48:23Z</time>
      </trkpt>
      <trkpt lat="44.50611" lon="2.3255">
        <ele>360.1</ele>
        <time>2011-08-09T07:48:24Z</time>
      </trkpt>
      <trkpt lat="44.50607" lon="2.32554">
        <ele>360.4</ele>
        <time>2011-08-09T07:48:25Z</time>
      </trkpt>
      <trkpt lat="44.50604" lon="2.32557">
        <ele>360.6</ele>
        <time>2011-08-09T07:48:26Z</time>
      </trkpt>
      <trkpt lat="44.506" lon="2.3256">
        <ele>360.7</ele>
        <time>2011-08-09T07:48:27Z</time>
      </trkpt>
      <trkpt lat="44.50596" lon="2.32564">
        <ele>360.7</ele>
        <time>2011-08-09T07:48:28Z</time>
      </trkpt>
      <trkpt lat="44.50592" lon="2.32567">
        <ele>360.7</ele>
        <time>2011-08-09T07:48:29Z</time>
      </trkpt>
      <trkpt lat="44.50587" lon="2.32571">
        <ele>360.7</ele>
        <time>2011-08-09T07:48:30Z</time>
      </trkpt>
      <trkpt lat="44.50583" lon="2.32574">
        <ele>360.4</ele>
        <time>2011-08-09T07:48:31Z</time>
      </trkpt>
      <trkpt lat="44.50579" lon="2.32578">
        <ele>360.2</ele>
        <time>2011-08-09T07:48:32Z</time>
      </trkpt>
      <trkpt lat="44.50574" lon="2.32582">
        <ele>360</ele>
        <time>2011-08-09T07:48:33Z</time>
      </trkpt>
      <trkpt lat="44.50569" lon="2.32586">
        <ele>360.2</ele>
        <time>2011-08-09T07:48:34Z</time>
      </trkpt>
      <trkpt lat="44.50564" lon="2.3259">
        <ele>360.3</ele>
        <time>2011-08-09T07:48:35Z</time>
      </trkpt>
      <trkpt lat="44.5056" lon="2.32594">
        <ele>360.3</ele>
        <time>2011-08-09T07:48:36Z</time>
      </trkpt>
      <trkpt lat="44.50554" lon="2.32598">
        <ele>360.4</ele>
        <time>2011-08-09T07:48:37Z</time>
      </trkpt>
      <trkpt lat="44.50549" lon="2.32602">
        <ele>360.1</ele>
        <time>2011-08-09T07:48:38Z</time>
      </trkpt>
      <trkpt lat="44.50545" lon="2.32606">
        <ele>359.8</ele>
        <time>2011-08-09T07:48:39Z</time>
      </trkpt>
      <trkpt lat="44.5054" lon="2.32609">
        <ele>359.7</ele>
        <time>2011-08-09T07:48:40Z</time>
      </trkpt>
      <trkpt lat="44.50535" lon="2.32613">
        <ele>359.5</ele>
        <time>2011-08-09T07:48:41Z</time>
      </trkpt>
      <trkpt lat="44.5053" lon="2.32616">
        <ele>359.3</ele>
        <time>2011-08-09T07:48:42Z</time>
      </trkpt>
      <trkpt lat="44.50524" lon="2.32619">
        <ele>359.2</ele>
        <time>2011-08-09T07:48:43Z</time>
      </trkpt>
      <trkpt lat="44.50519" lon="2.32621">
        <ele>359.3</ele>
        <time>2011-08-09T07:48:44Z</time>
      </trkpt>
      <trkpt lat="44.50514" lon="2.32623">
        <ele>359.4</ele>
        <time>2011-08-09T07:48:45Z</time>
      </trkpt>
      <trkpt lat="44.50509" lon="2.32626">
        <ele>359.5</ele>
        <time>2011-08-09T07:48:46Z</time>
      </trkpt>
      <trkpt lat="44.50504" lon="2.32628">
        <ele>359.3</ele>
        <time>2011-08-09T07:48:47Z</time>
      </trkpt>
      <trkpt lat="44.505" lon="2.32629">
        <ele>359.1</ele>
        <time>2011-08-09T07:48:48Z</time>
      </trkpt>
      <trkpt lat="44.50495" lon="2.32631">
        <ele>359</ele>
        <time>2011-08-09T07:48:49Z</time>
      </trkpt>
      <trkpt lat="44.5049" lon="2.32632">
        <ele>358.9</ele>
        <time>2011-08-09T07:48:50Z</time>
      </trkpt>
      <trkpt lat="44.50486" lon="2.32633">
        <ele>358.7</ele>
        <time>2011-08-09T07:48:51Z</time>
      </trkpt>
      <trkpt lat="44.50482" lon="2.32634">
        <ele>358.6</ele>
        <time>2011-08-09T07:48:52Z</time>
      </trkpt>
      <trkpt lat="44.50477" lon="2.32635">
        <ele>358.6</ele>
        <time>2011-08-09T07:48:53Z</time>
      </trkpt>
      <trkpt lat="44.50473" lon="2.32636">
        <ele>358.8</ele>
        <time>2011-08-09T07:48:54Z</time>
      </trkpt>
      <trkpt lat="44.50469" lon="2.32637">
        <ele>359</ele>
        <time>2011-08-09T07:48:55Z</time>
      </trkpt>
      <trkpt lat="44.50465" lon="2.32638">
        <ele>359.2</ele>
        <time>2011-08-09T07:48:56Z</time>
      </trkpt>
      <trkpt lat="44.5046" lon="2.32639">
        <ele>359.1</ele>
        <time>2011-08-09T07:48:57Z</time>
      </trkpt>
      <trkpt lat="44.50456" lon="2.3264">
        <ele>359.1</ele>
        <time>2011-08-09T07:48:58Z</time>
      </trkpt>
      <trkpt lat="44.50452" lon="2.32642">
        <ele>359.1</ele>
        <time>2011-08-09T07:48:59Z</time>
      </trkpt>
      <trkpt lat="44.50448" lon="2.32644">
        <ele>359.1</ele>
        <time>2011-08-09T07:49:00Z</time>
      </trkpt>
      <trkpt lat="44.50444" lon="2.32646">
        <ele>359.1</ele>
        <time>2011-08-09T07:49:01Z</time>
      </trkpt>
      <trkpt lat="44.5044" lon="2.32648">
        <ele>359.1</ele>
        <time>2011-08-09T07:49:02Z</time>
      </trkpt>
      <trkpt lat="44.50436" lon="2.3265">
        <ele>358.9</ele>
        <time>2011-08-09T07:49:03Z</time>
      </trkpt>
      <trkpt lat="44.50433" lon="2.32653">
        <ele>358.7</ele>
        <time>2011-08-09T07:49:04Z</time>
      </trkpt>
      <trkpt lat="44.50429" lon="2.32655">
        <ele>358.6</ele>
        <time>2011-08-09T07:49:05Z</time>
      </trkpt>
      <trkpt lat="44.50425" lon="2.32657">
        <ele>358.5</ele>
        <time>2011-08-09T07:49:06Z</time>
      </trkpt>
      <trkpt lat="44.50422" lon="2.3266">
        <ele>358.5</ele>
        <time>2011-08-09T07:49:07Z</time>
      </trkpt>
      <trkpt lat="44.50418" lon="2.32662">
        <ele>358.5</ele>
        <time>2011-08-09T07:49:08Z</time>
      </trkpt>
      <trkpt lat="44.50415" lon="2.32664">
        <ele>358.5</ele>
        <time>2011-08-09T07:49:09Z</time>
      </trkpt>
      <trkpt lat="44.50411" lon="2.32666">
        <ele>358.6</ele>
        <time>2011-08-09T07:49:10Z</time>
      </trkpt>
      <trkpt lat="44.50408" lon="2.32668">
        <ele>358.6</ele>
        <time>2011-08-09T07:49:11Z</time>
      </trkpt>
      <trkpt lat="44.50404" lon="2.3267">
        <ele>358.6</ele>
        <time>2011-08-09T07:49:12Z</time>
      </trkpt>
      <trkpt lat="44.50401" lon="2.32671">
        <ele>358.7</ele>
        <time>2011-08-09T07:49:13Z</time>
      </trkpt>
      <trkpt lat="44.50398" lon="2.32673">
        <ele>358.8</ele>
        <time>2011-08-09T07:49:14Z</time>
      </trkpt>
      <trkpt lat="44.50394" lon="2.32675">
        <ele>358.9</ele>
        <time>2011-08-09T07:49:15Z</time>
      </trkpt>
      <trkpt lat="44.50392" lon="2.32676">
        <ele>358.9</ele>
        <time>2011-08-09T07:49:16Z</time>
      </trkpt>
      <trkpt lat="44.50389" lon="2.32678">
        <ele>359</ele>
        <time>2011-08-09T07:49:17Z</time>
      </trkpt>
      <trkpt lat="44.50386" lon="2.32679">
        <ele>359</ele>
        <time>2011-08-09T07:49:18Z</time>
      </trkpt>
      <trkpt lat="44.50383" lon="2.32681">
        <ele>359</ele>
        <time>2011-08-09T07:49:19Z</time>
      </trkpt>
      <trkpt lat="44.50381" lon="2.32682">
        <ele>359</ele>
        <time>2011-08-09T07:49:20Z</time>
      </trkpt>
      <trkpt lat="44.50377" lon="2.32683">
        <ele>359.3</ele>
        <time>2011-08-09T07:49:22Z</time>
      </trkpt>
      <trkpt lat="44.50375" lon="2.32684">
        <ele>359.5</ele>
        <time>2011-08-09T07:49:23Z</time>
      </trkpt>
      <trkpt lat="44.50372" lon="2.32684">
        <ele>359.6</ele>
        <time>2011-08-09T07:49:24Z</time>
      </trkpt>
      <trkpt lat="44.5037" lon="2.32685">
        <ele>359.7</ele>
        <time>2011-08-09T07:49:25Z</time>
      </trkpt>
      <trkpt lat="44.50367" lon="2.32684">
        <ele>359.7</ele>
        <time>2011-08-09T07:49:26Z</time>
      </trkpt>
      <trkpt lat="44.50364" lon="2.32684">
        <ele>359.7</ele>
        <time>2011-08-09T07:49:27Z</time>
      </trkpt>
      <trkpt lat="44.50361" lon="2.32683">
        <ele>359.7</ele>
        <time>2011-08-09T07:49:28Z</time>
      </trkpt>
      <trkpt lat="44.50359" lon="2.32682">
        <ele>359.9</ele>
        <time>2011-08-09T07:49:29Z</time>
      </trkpt>
      <trkpt lat="44.50355" lon="2.3268">
        <ele>360.1</ele>
        <time>2011-08-09T07:49:31Z</time>
      </trkpt>
      <trkpt lat="44.50351" lon="2.32677">
        <ele>360.7</ele>
        <time>2011-08-09T07:49:33Z</time>
      </trkpt>
      <trkpt lat="44.50348" lon="2.32675">
        <ele>361.2</ele>
        <time>2011-08-09T07:49:35Z</time>
      </trkpt>
      <trkpt lat="44.50345" lon="2.32674">
        <ele>361.6</ele>
        <time>2011-08-09T07:49:37Z</time>
      </trkpt>
      <trkpt lat="44.50342" lon="2.32672">
        <ele>362.3</ele>
        <time>2011-08-09T07:49:39Z</time>
      </trkpt>
      <trkpt lat="44.50339" lon="2.32668">
        <ele>362.5</ele>
        <time>2011-08-09T07:49:42Z</time>
      </trkpt>
      <trkpt lat="44.50336" lon="2.32666">
        <ele>362.9</ele>
        <time>2011-08-09T07:49:45Z</time>
      </trkpt>
      <trkpt lat="44.50333" lon="2.32662">
        <ele>364</ele>
        <time>2011-08-09T07:49:48Z</time>
      </trkpt>
      <trkpt lat="44.5033" lon="2.32659">
        <ele>365</ele>
        <time>2011-08-09T07:49:51Z</time>
      </trkpt>
      <trkpt lat="44.50326" lon="2.32655">
        <ele>365.7</ele>
        <time>2011-08-09T07:49:54Z</time>
      </trkpt>
      <trkpt lat="44.50323" lon="2.32651">
        <ele>366</ele>
        <time>2011-08-09T07:49:57Z</time>
      </trkpt>
      <trkpt lat="44.5032" lon="2.32649">
        <ele>365.8</ele>
        <time>2011-08-09T07:49:59Z</time>
      </trkpt>
      <trkpt lat="44.50316" lon="2.32646">
        <ele>366.6</ele>
        <time>2011-08-09T07:50:02Z</time>
      </trkpt>
      <trkpt lat="44.50313" lon="2.32644">
        <ele>366.7</ele>
        <time>2011-08-09T07:50:05Z</time>
      </trkpt>
      <trkpt lat="44.5031" lon="2.32641">
        <ele>368.1</ele>
        <time>2011-08-09T07:50:09Z</time>
      </trkpt>
      <trkpt lat="44.5031" lon="2.3264">
        <ele>368</ele>
        <time>2011-08-09T07:50:10Z</time>
      </trkpt>
      <trkpt lat="44.50306" lon="2.32631">
        <ele>367.8</ele>
        <time>2011-08-09T07:50:17Z</time>
      </trkpt>
      <trkpt lat="44.50304" lon="2.32626">
        <ele>369.1</ele>
        <time>2011-08-09T07:50:20Z</time>
      </trkpt>
      <trkpt lat="44.50302" lon="2.32622">
        <ele>370.3</ele>
        <time>2011-08-09T07:50:23Z</time>
      </trkpt>
      <trkpt lat="44.503" lon="2.32619">
        <ele>370.4</ele>
        <time>2011-08-09T07:50:25Z</time>
      </trkpt>
      <trkpt lat="44.50297" lon="2.32617">
        <ele>371.1</ele>
        <time>2011-08-09T07:50:27Z</time>
      </trkpt>
      <trkpt lat="44.50294" lon="2.32613">
        <ele>371.8</ele>
        <time>2011-08-09T07:50:30Z</time>
      </trkpt>
      <trkpt lat="44.5029" lon="2.32609">
        <ele>372</ele>
        <time>2011-08-09T07:50:33Z</time>
      </trkpt>
      <trkpt lat="44.50288" lon="2.32605">
        <ele>372.1</ele>
        <time>2011-08-09T07:50:36Z</time>
      </trkpt>
      <trkpt lat="44.50285" lon="2.32601">
        <ele>373</ele>
        <time>2011-08-09T07:50:39Z</time>
      </trkpt>
      <trkpt lat="44.50283" lon="2.32597">
        <ele>373.6</ele>
        <time>2011-08-09T07:50:41Z</time>
      </trkpt>
      <trkpt lat="44.5028" lon="2.32593">
        <ele>374</ele>
        <time>2011-08-09T07:50:44Z</time>
      </trkpt>
      <trkpt lat="44.50277" lon="2.32589">
        <ele>374.4</ele>
        <time>2011-08-09T07:50:47Z</time>
      </trkpt>
      <trkpt lat="44.50275" lon="2.32585">
        <ele>374.8</ele>
        <time>2011-08-09T07:50:49Z</time>
      </trkpt>
      <trkpt lat="44.50272" lon="2.32581">
        <ele>375.5</ele>
        <time>2011-08-09T07:50:52Z</time>
      </trkpt>
      <trkpt lat="44.50269" lon="2.32577">
        <ele>375.9</ele>
        <time>2011-08-09T07:50:54Z</time>
      </trkpt>
      <trkpt lat="44.50268" lon="2.32575">
        <ele>376.2</ele>
        <time>2011-08-09T07:50:55Z</time>
      </trkpt>
      <trkpt lat="44.50266" lon="2.32573">
        <ele>376.4</ele>
        <time>2011-08-09T07:50:56Z</time>
      </trkpt>
      <trkpt lat="44.50264" lon="2.3257">
        <ele>376.6</ele>
        <time>2011-08-09T07:50:57Z</time>
      </trkpt>
      <trkpt lat="44.50263" lon="2.32568">
        <ele>376.5</ele>
        <time>2011-08-09T07:50:58Z</time>
      </trkpt>
      <trkpt lat="44.50261" lon="2.32563">
        <ele>376.4</ele>
        <time>2011-08-09T07:51:00Z</time>
      </trkpt>
      <trkpt lat="44.50259" lon="2.32559">
        <ele>376.1</ele>
        <time>2011-08-09T07:51:02Z</time>
      </trkpt>
      <trkpt lat="44.50257" lon="2.32553">
        <ele>376.3</ele>
        <time>2011-08-09T07:51:05Z</time>
      </trkpt>
      <trkpt lat="44.50255" lon="2.32549">
        <ele>376.5</ele>
        <time>2011-08-09T07:51:07Z</time>
      </trkpt>
      <trkpt lat="44.50254" lon="2.32546">
        <ele>376.7</ele>
        <time>2011-08-09T07:51:09Z</time>
      </trkpt>
      <trkpt lat="44.50252" lon="2.32542">
        <ele>377.2</ele>
        <time>2011-08-09T07:51:11Z</time>
      </trkpt>
      <trkpt lat="44.50251" lon="2.32541">
        <ele>377.5</ele>
        <time>2011-08-09T07:51:12Z</time>
      </trkpt>
      <trkpt lat="44.50247" lon="2.32533">
        <ele>378.6</ele>
        <time>2011-08-09T07:51:17Z</time>
      </trkpt>
      <trkpt lat="44.50246" lon="2.32529">
        <ele>379</ele>
        <time>2011-08-09T07:51:19Z</time>
      </trkpt>
      <trkpt lat="44.50244" lon="2.32525">
        <ele>378.9</ele>
        <time>2011-08-09T07:51:21Z</time>
      </trkpt>
      <trkpt lat="44.50242" lon="2.32521">
        <ele>378.9</ele>
        <time>2011-08-09T07:51:23Z</time>
      </trkpt>
      <trkpt lat="44.5024" lon="2.32517">
        <ele>379</ele>
        <time>2011-08-09T07:51:25Z</time>
      </trkpt>
      <trkpt lat="44.50238" lon="2.32513">
        <ele>379.1</ele>
        <time>2011-08-09T07:51:27Z</time>
      </trkpt>
      <trkpt lat="44.50236" lon="2.32508">
        <ele>379.1</ele>
        <time>2011-08-09T07:51:29Z</time>
      </trkpt>
      <trkpt lat="44.50234" lon="2.32504">
        <ele>379.6</ele>
        <time>2011-08-09T07:51:31Z</time>
      </trkpt>
      <trkpt lat="44.50232" lon="2.32499">
        <ele>379.9</ele>
        <time>2011-08-09T07:51:33Z</time>
      </trkpt>
      <trkpt lat="44.5023" lon="2.32497">
        <ele>380</ele>
        <time>2011-08-09T07:51:34Z</time>
      </trkpt>
      <trkpt lat="44.50227" lon="2.32492">
        <ele>380.3</ele>
        <time>2011-08-09T07:51:36Z</time>
      </trkpt>
      <trkpt lat="44.50225" lon="2.32488">
        <ele>380.7</ele>
        <time>2011-08-09T07:51:38Z</time>
      </trkpt>
      <trkpt lat="44.50223" lon="2.32484">
        <ele>381</ele>
        <time>2011-08-09T07:51:40Z</time>
      </trkpt>
      <trkpt lat="44.50221" lon="2.3248">
        <ele>381.2</ele>
        <time>2011-08-09T07:51:42Z</time>
      </trkpt>
      <trkpt lat="44.50219" lon="2.32475">
        <ele>382.3</ele>
        <time>2011-08-09T07:51:44Z</time>
      </trkpt>
      <trkpt lat="44.50216" lon="2.32471">
        <ele>382.8</ele>
        <time>2011-08-09T07:51:46Z</time>
      </trkpt>
      <trkpt lat="44.50214" lon="2.32467">
        <ele>383</ele>
        <time>2011-08-09T07:51:48Z</time>
      </trkpt>
      <trkpt lat="44.50211" lon="2.32463">
        <ele>383.1</ele>
        <time>2011-08-09T07:51:50Z</time>
      </trkpt>
      <trkpt lat="44.5021" lon="2.32459">
        <ele>383.5</ele>
        <time>2011-08-09T07:51:52Z</time>
      </trkpt>
      <trkpt lat="44.50207" lon="2.32455">
        <ele>384.1</ele>
        <time>2011-08-09T07:51:54Z</time>
      </trkpt>
      <trkpt lat="44.50205" lon="2.32451">
        <ele>384.5</ele>
        <time>2011-08-09T07:51:56Z</time>
      </trkpt>
      <trkpt lat="44.50203" lon="2.32448">
        <ele>384.6</ele>
        <time>2011-08-09T07:51:58Z</time>
      </trkpt>
      <trkpt lat="44.50201" lon="2.32444">
        <ele>385.4</ele>
        <time>2011-08-09T07:52:00Z</time>
      </trkpt>
      <trkpt lat="44.50198" lon="2.3244">
        <ele>385.5</ele>
        <time>2011-08-09T07:52:02Z</time>
      </trkpt>
      <trkpt lat="44.50196" lon="2.32437">
        <ele>385.2</ele>
        <time>2011-08-09T07:52:04Z</time>
      </trkpt>
      <trkpt lat="44.50193" lon="2.32433">
        <ele>386.3</ele>
        <time>2011-08-09T07:52:06Z</time>
      </trkpt>
      <trkpt lat="44.50191" lon="2.3243">
        <ele>386.9</ele>
        <time>2011-08-09T07:52:08Z</time>
      </trkpt>
      <trkpt lat="44.50188" lon="2.32427">
        <ele>387</ele>
        <time>2011-08-09T07:52:10Z</time>
      </trkpt>
      <trkpt lat="44.50185" lon="2.32424">
        <ele>387.7</ele>
        <time>2011-08-09T07:52:12Z</time>
      </trkpt>
      <trkpt lat="44.50182" lon="2.32421">
        <ele>388</ele>
        <time>2011-08-09T07:52:14Z</time>
      </trkpt>
      <trkpt lat="44.5018" lon="2.3242">
        <ele>388.4</ele>
        <time>2011-08-09T07:52:15Z</time>
      </trkpt>
      <trkpt lat="44.50174" lon="2.32416">
        <ele>389.2</ele>
        <time>2011-08-09T07:52:18Z</time>
      </trkpt>
      <trkpt lat="44.50171" lon="2.32413">
        <ele>389.5</ele>
        <time>2011-08-09T07:52:21Z</time>
      </trkpt>
      <trkpt lat="44.50168" lon="2.3241">
        <ele>389.5</ele>
        <time>2011-08-09T07:52:23Z</time>
      </trkpt>
      <trkpt lat="44.50165" lon="2.32406">
        <ele>390.6</ele>
        <time>2011-08-09T07:52:26Z</time>
      </trkpt>
      <trkpt lat="44.50163" lon="2.32403">
        <ele>391.4</ele>
        <time>2011-08-09T07:52:28Z</time>
      </trkpt>
      <trkpt lat="44.50162" lon="2.32399">
        <ele>392.2</ele>
        <time>2011-08-09T07:52:30Z</time>
      </trkpt>
      <trkpt lat="44.50159" lon="2.32395">
        <ele>393.5</ele>
        <time>2011-08-09T07:52:33Z</time>
      </trkpt>
      <trkpt lat="44.50157" lon="2.32392">
        <ele>394.2</ele>
        <time>2011-08-09T07:52:35Z</time>
      </trkpt>
      <trkpt lat="44.50155" lon="2.32389">
        <ele>394.6</ele>
        <time>2011-08-09T07:52:37Z</time>
      </trkpt>
      <trkpt lat="44.50152" lon="2.32384">
        <ele>395.3</ele>
        <time>2011-08-09T07:52:40Z</time>
      </trkpt>
      <trkpt lat="44.50149" lon="2.32381">
        <ele>395.9</ele>
        <time>2011-08-09T07:52:42Z</time>
      </trkpt>
      <trkpt lat="44.50146" lon="2.32378">
        <ele>396.2</ele>
        <time>2011-08-09T07:52:44Z</time>
      </trkpt>
      <trkpt lat="44.50143" lon="2.32375">
        <ele>396.3</ele>
        <time>2011-08-09T07:52:46Z</time>
      </trkpt>
      <trkpt lat="44.50141" lon="2.32372">
        <ele>396.6</ele>
        <time>2011-08-09T07:52:48Z</time>
      </trkpt>
      <trkpt lat="44.50139" lon="2.32369">
        <ele>397.2</ele>
        <time>2011-08-09T07:52:50Z</time>
      </trkpt>
      <trkpt lat="44.50135" lon="2.32366">
        <ele>397.9</ele>
        <time>2011-08-09T07:52:52Z</time>
      </trkpt>
      <trkpt lat="44.50133" lon="2.32362">
        <ele>398.6</ele>
        <time>2011-08-09T07:52:54Z</time>
      </trkpt>
      <trkpt lat="44.50131" lon="2.32358">
        <ele>398.9</ele>
        <time>2011-08-09T07:52:56Z</time>
      </trkpt>
      <trkpt lat="44.50129" lon="2.32353">
        <ele>399.2</ele>
        <time>2011-08-09T07:52:58Z</time>
      </trkpt>
      <trkpt lat="44.50128" lon="2.32349">
        <ele>399.4</ele>
        <time>2011-08-09T07:53:00Z</time>
      </trkpt>
      <trkpt lat="44.50126" lon="2.32345">
        <ele>399.6</ele>
        <time>2011-08-09T07:53:02Z</time>
      </trkpt>
      <trkpt lat="44.50125" lon="2.32341">
        <ele>400.5</ele>
        <time>2011-08-09T07:53:04Z</time>
      </trkpt>
      <trkpt lat="44.50123" lon="2.32337">
        <ele>400.9</ele>
        <time>2011-08-09T07:53:06Z</time>
      </trkpt>
      <trkpt lat="44.50122" lon="2.32333">
        <ele>401.1</ele>
        <time>2011-08-09T07:53:08Z</time>
      </trkpt>
      <trkpt lat="44.5012" lon="2.32328">
        <ele>402</ele>
        <time>2011-08-09T07:53:11Z</time>
      </trkpt>
      <trkpt lat="44.50119" lon="2.32324">
        <ele>402.1</ele>
        <time>2011-08-09T07:53:13Z</time>
      </trkpt>
      <trkpt lat="44.50116" lon="2.3232">
        <ele>402.4</ele>
        <time>2011-08-09T07:53:15Z</time>
      </trkpt>
      <trkpt lat="44.50114" lon="2.32319">
        <ele>402.6</ele>
        <time>2011-08-09T07:53:16Z</time>
      </trkpt>
      <trkpt lat="44.50111" lon="2.32313">
        <ele>402.8</ele>
        <time>2011-08-09T07:53:19Z</time>
      </trkpt>
      <trkpt lat="44.5011" lon="2.32309">
        <ele>402.9</ele>
        <time>2011-08-09T07:53:21Z</time>
      </trkpt>
      <trkpt lat="44.50108" lon="2.32305">
        <ele>403.8</ele>
        <time>2011-08-09T07:53:23Z</time>
      </trkpt>
      <trkpt lat="44.50107" lon="2.323">
        <ele>403.9</ele>
        <time>2011-08-09T07:53:26Z</time>
      </trkpt>
      <trkpt lat="44.50106" lon="2.32294">
        <ele>404.4</ele>
        <time>2011-08-09T07:53:29Z</time>
      </trkpt>
      <trkpt lat="44.50104" lon="2.3229">
        <ele>404.4</ele>
        <time>2011-08-09T07:53:31Z</time>
      </trkpt>
      <trkpt lat="44.50102" lon="2.32285">
        <ele>404.1</ele>
        <time>2011-08-09T07:53:33Z</time>
      </trkpt>
      <trkpt lat="44.50101" lon="2.32282">
        <ele>405.3</ele>
        <time>2011-08-09T07:53:35Z</time>
      </trkpt>
      <trkpt lat="44.50099" lon="2.32278">
        <ele>405.9</ele>
        <time>2011-08-09T07:53:37Z</time>
      </trkpt>
      <trkpt lat="44.50097" lon="2.32274">
        <ele>406.1</ele>
        <time>2011-08-09T07:53:39Z</time>
      </trkpt>
      <trkpt lat="44.50096" lon="2.32269">
        <ele>406.6</ele>
        <time>2011-08-09T07:53:41Z</time>
      </trkpt>
      <trkpt lat="44.50095" lon="2.32265">
        <ele>407.1</ele>
        <time>2011-08-09T07:53:43Z</time>
      </trkpt>
      <trkpt lat="44.50094" lon="2.3226">
        <ele>407</ele>
        <time>2011-08-09T07:53:45Z</time>
      </trkpt>
      <trkpt lat="44.50094" lon="2.32256">
        <ele>407.3</ele>
        <time>2011-08-09T07:53:47Z</time>
      </trkpt>
      <trkpt lat="44.50092" lon="2.32252">
        <ele>407.9</ele>
        <time>2011-08-09T07:53:49Z</time>
      </trkpt>
      <trkpt lat="44.50091" lon="2.32248">
        <ele>408.4</ele>
        <time>2011-08-09T07:53:51Z</time>
      </trkpt>
      <trkpt lat="44.5009" lon="2.32243">
        <ele>408.7</ele>
        <time>2011-08-09T07:53:53Z</time>
      </trkpt>
      <trkpt lat="44.5009" lon="2.32239">
        <ele>408.7</ele>
        <time>2011-08-09T07:53:55Z</time>
      </trkpt>
      <trkpt lat="44.50088" lon="2.32235">
        <ele>408.7</ele>
        <time>2011-08-09T07:53:57Z</time>
      </trkpt>
      <trkpt lat="44.50086" lon="2.32232">
        <ele>408.7</ele>
        <time>2011-08-09T07:53:59Z</time>
      </trkpt>
      <trkpt lat="44.50083" lon="2.32227">
        <ele>410.2</ele>
        <time>2011-08-09T07:54:02Z</time>
      </trkpt>
      <trkpt lat="44.50079" lon="2.32224">
        <ele>410.1</ele>
        <time>2011-08-09T07:54:05Z</time>
      </trkpt>
      <trkpt lat="44.50076" lon="2.32221">
        <ele>411.4</ele>
        <time>2011-08-09T07:54:07Z</time>
      </trkpt>
      <trkpt lat="44.50073" lon="2.32219">
        <ele>412.1</ele>
        <time>2011-08-09T07:54:09Z</time>
      </trkpt>
      <trkpt lat="44.5007" lon="2.32218">
        <ele>412.6</ele>
        <time>2011-08-09T07:54:11Z</time>
      </trkpt>
      <trkpt lat="44.50066" lon="2.32216">
        <ele>413.2</ele>
        <time>2011-08-09T07:54:13Z</time>
      </trkpt>
      <trkpt lat="44.50063" lon="2.32214">
        <ele>413.8</ele>
        <time>2011-08-09T07:54:15Z</time>
      </trkpt>
      <trkpt lat="44.5006" lon="2.32213">
        <ele>414.1</ele>
        <time>2011-08-09T07:54:17Z</time>
      </trkpt>
      <trkpt lat="44.50059" lon="2.32212">
        <ele>414.1</ele>
        <time>2011-08-09T07:54:18Z</time>
      </trkpt>
      <trkpt lat="44.50052" lon="2.32211">
        <ele>415.3</ele>
        <time>2011-08-09T07:54:22Z</time>
      </trkpt>
      <trkpt lat="44.50049" lon="2.32211">
        <ele>415.4</ele>
        <time>2011-08-09T07:54:24Z</time>
      </trkpt>
      <trkpt lat="44.50046" lon="2.32211">
        <ele>416.1</ele>
        <time>2011-08-09T07:54:26Z</time>
      </trkpt>
      <trkpt lat="44.50043" lon="2.3221">
        <ele>416.8</ele>
        <time>2011-08-09T07:54:28Z</time>
      </trkpt>
      <trkpt lat="44.50039" lon="2.3221">
        <ele>417.1</ele>
        <time>2011-08-09T07:54:30Z</time>
      </trkpt>
      <trkpt lat="44.50035" lon="2.32209">
        <ele>416.9</ele>
        <time>2011-08-09T07:54:32Z</time>
      </trkpt>
      <trkpt lat="44.50031" lon="2.32207">
        <ele>417</ele>
        <time>2011-08-09T07:54:36Z</time>
      </trkpt>
      <trkpt lat="44.50027" lon="2.32206">
        <ele>417.3</ele>
        <time>2011-08-09T07:54:39Z</time>
      </trkpt>
      <trkpt lat="44.50024" lon="2.32205">
        <ele>417.4</ele>
        <time>2011-08-09T07:54:42Z</time>
      </trkpt>
      <trkpt lat="44.5002" lon="2.32204">
        <ele>418.4</ele>
        <time>2011-08-09T07:54:46Z</time>
      </trkpt>
      <trkpt lat="44.50016" lon="2.32203">
        <ele>418.7</ele>
        <time>2011-08-09T07:54:49Z</time>
      </trkpt>
      <trkpt lat="44.50013" lon="2.32201">
        <ele>419.5</ele>
        <time>2011-08-09T07:54:52Z</time>
      </trkpt>
      <trkpt lat="44.5001" lon="2.32198">
        <ele>419.5</ele>
        <time>2011-08-09T07:54:54Z</time>
      </trkpt>
      <trkpt lat="44.50007" lon="2.32197">
        <ele>419.3</ele>
        <time>2011-08-09T07:54:56Z</time>
      </trkpt>
      <trkpt lat="44.50005" lon="2.32195">
        <ele>419.4</ele>
        <time>2011-08-09T07:54:58Z</time>
      </trkpt>
      <trkpt lat="44.50001" lon="2.32192">
        <ele>419.7</ele>
        <time>2011-08-09T07:55:00Z</time>
      </trkpt>
      <trkpt lat="44.49998" lon="2.3219">
        <ele>419.6</ele>
        <time>2011-08-09T07:55:02Z</time>
      </trkpt>
      <trkpt lat="44.49995" lon="2.32187">
        <ele>420.3</ele>
        <time>2011-08-09T07:55:05Z</time>
      </trkpt>
      <trkpt lat="44.49991" lon="2.32184">
        <ele>420.4</ele>
        <time>2011-08-09T07:55:07Z</time>
      </trkpt>
      <trkpt lat="44.49988" lon="2.32182">
        <ele>420.4</ele>
        <time>2011-08-09T07:55:09Z</time>
      </trkpt>
      <trkpt lat="44.49985" lon="2.32179">
        <ele>421.4</ele>
        <time>2011-08-09T07:55:12Z</time>
      </trkpt>
      <trkpt lat="44.49981" lon="2.32177">
        <ele>423.1</ele>
        <time>2011-08-09T07:55:15Z</time>
      </trkpt>
      <trkpt lat="44.49977" lon="2.32174">
        <ele>423.7</ele>
        <time>2011-08-09T07:55:18Z</time>
      </trkpt>
      <trkpt lat="44.49976" lon="2.32173">
        <ele>423.8</ele>
        <time>2011-08-09T07:55:19Z</time>
      </trkpt>
      <trkpt lat="44.4997" lon="2.32171">
        <ele>425.6</ele>
        <time>2011-08-09T07:55:23Z</time>
      </trkpt>
      <trkpt lat="44.49967" lon="2.32169">
        <ele>425.9</ele>
        <time>2011-08-09T07:55:25Z</time>
      </trkpt>
      <trkpt lat="44.49964" lon="2.32168">
        <ele>426.7</ele>
        <time>2011-08-09T07:55:27Z</time>
      </trkpt>
      <trkpt lat="44.4996" lon="2.32164">
        <ele>427.3</ele>
        <time>2011-08-09T07:55:30Z</time>
      </trkpt>
      <trkpt lat="44.49957" lon="2.32162">
        <ele>427.9</ele>
        <time>2011-08-09T07:55:33Z</time>
      </trkpt>
      <trkpt lat="44.49953" lon="2.3216">
        <ele>429</ele>
        <time>2011-08-09T07:55:36Z</time>
      </trkpt>
      <trkpt lat="44.4995" lon="2.32159">
        <ele>429.6</ele>
        <time>2011-08-09T07:55:38Z</time>
      </trkpt>
      <trkpt lat="44.49946" lon="2.32157">
        <ele>429.2</ele>
        <time>2011-08-09T07:55:40Z</time>
      </trkpt>
      <trkpt lat="44.49943" lon="2.32157">
        <ele>429.6</ele>
        <time>2011-08-09T07:55:42Z</time>
      </trkpt>
      <trkpt lat="44.4994" lon="2.32156">
        <ele>430.3</ele>
        <time>2011-08-09T07:55:44Z</time>
      </trkpt>
      <trkpt lat="44.49936" lon="2.32155">
        <ele>430.6</ele>
        <time>2011-08-09T07:55:46Z</time>
      </trkpt>
      <trkpt lat="44.49933" lon="2.32154">
        <ele>430.9</ele>
        <time>2011-08-09T07:55:48Z</time>
      </trkpt>
      <trkpt lat="44.49929" lon="2.32153">
        <ele>431.1</ele>
        <time>2011-08-09T07:55:50Z</time>
      </trkpt>
      <trkpt lat="44.49925" lon="2.32152">
        <ele>431.2</ele>
        <time>2011-08-09T07:55:52Z</time>
      </trkpt>
      <trkpt lat="44.49922" lon="2.32151">
        <ele>431.3</ele>
        <time>2011-08-09T07:55:54Z</time>
      </trkpt>
      <trkpt lat="44.49919" lon="2.32149">
        <ele>431.4</ele>
        <time>2011-08-09T07:55:56Z</time>
      </trkpt>
      <trkpt lat="44.49916" lon="2.32147">
        <ele>431.3</ele>
        <time>2011-08-09T07:55:58Z</time>
      </trkpt>
      <trkpt lat="44.49914" lon="2.32141">
        <ele>431.4</ele>
        <time>2011-08-09T07:56:01Z</time>
      </trkpt>
      <trkpt lat="44.49915" lon="2.32136">
        <ele>432</ele>
        <time>2011-08-09T07:56:03Z</time>
      </trkpt>
      <trkpt lat="44.49915" lon="2.32132">
        <ele>432.4</ele>
        <time>2011-08-09T07:56:05Z</time>
      </trkpt>
      <trkpt lat="44.49915" lon="2.32128">
        <ele>432.6</ele>
        <time>2011-08-09T07:56:07Z</time>
      </trkpt>
      <trkpt lat="44.49914" lon="2.32123">
        <ele>431.8</ele>
        <time>2011-08-09T07:56:09Z</time>
      </trkpt>
      <trkpt lat="44.49913" lon="2.3212">
        <ele>431.6</ele>
        <time>2011-08-09T07:56:10Z</time>
      </trkpt>
      <trkpt lat="44.49911" lon="2.32118">
        <ele>431</ele>
        <time>2011-08-09T07:56:11Z</time>
      </trkpt>
      <trkpt lat="44.49909" lon="2.32115">
        <ele>430.5</ele>
        <time>2011-08-09T07:56:12Z</time>
      </trkpt>
      <trkpt lat="44.49906" lon="2.32111">
        <ele>430.2</ele>
        <time>2011-08-09T07:56:13Z</time>
      </trkpt>
      <trkpt lat="44.49904" lon="2.32108">
        <ele>428.9</ele>
        <time>2011-08-09T07:56:14Z</time>
      </trkpt>
      <trkpt lat="44.49902" lon="2.32104">
        <ele>427.2</ele>
        <time>2011-08-09T07:56:16Z</time>
      </trkpt>
      <trkpt lat="44.49902" lon="2.32099">
        <ele>427.1</ele>
        <time>2011-08-09T07:56:20Z</time>
      </trkpt>
      <trkpt lat="44.49902" lon="2.32098">
        <ele>427</ele>
        <time>2011-08-09T07:56:21Z</time>
      </trkpt>
      <trkpt lat="44.49909" lon="2.32094">
        <ele>426.7</ele>
        <time>2011-08-09T07:56:28Z</time>
      </trkpt>
      <trkpt lat="44.49913" lon="2.32092">
        <ele>427.9</ele>
        <time>2011-08-09T07:56:32Z</time>
      </trkpt>
      <trkpt lat="44.49917" lon="2.32089">
        <ele>427.4</ele>
        <time>2011-08-09T07:56:35Z</time>
      </trkpt>
      <trkpt lat="44.4992" lon="2.32088">
        <ele>428.3</ele>
        <time>2011-08-09T07:56:39Z</time>
      </trkpt>
      <trkpt lat="44.49924" lon="2.32086">
        <ele>427.2</ele>
        <time>2011-08-09T07:56:42Z</time>
      </trkpt>
      <trkpt lat="44.49926" lon="2.32085">
        <ele>426.8</ele>
        <time>2011-08-09T07:56:43Z</time>
      </trkpt>
      <trkpt lat="44.49929" lon="2.32084">
        <ele>426.4</ele>
        <time>2011-08-09T07:56:44Z</time>
      </trkpt>
      <trkpt lat="44.49932" lon="2.32083">
        <ele>426.2</ele>
        <time>2011-08-09T07:56:45Z</time>
      </trkpt>
      <trkpt lat="44.49935" lon="2.32083">
        <ele>425.9</ele>
        <time>2011-08-09T07:56:46Z</time>
      </trkpt>
      <trkpt lat="44.49939" lon="2.32083">
        <ele>425.7</ele>
        <time>2011-08-09T07:56:47Z</time>
      </trkpt>
      <trkpt lat="44.49943" lon="2.32083">
        <ele>425.5</ele>
        <time>2011-08-09T07:56:48Z</time>
      </trkpt>
      <trkpt lat="44.49947" lon="2.32083">
        <ele>424.7</ele>
        <time>2011-08-09T07:56:49Z</time>
      </trkpt>
      <trkpt lat="44.49951" lon="2.32083">
        <ele>424.1</ele>
        <time>2011-08-09T07:56:50Z</time>
      </trkpt>
      <trkpt lat="44.49955" lon="2.32082">
        <ele>423.6</ele>
        <time>2011-08-09T07:56:51Z</time>
      </trkpt>
      <trkpt lat="44.49959" lon="2.32081">
        <ele>423.5</ele>
        <time>2011-08-09T07:56:52Z</time>
      </trkpt>
      <trkpt lat="44.49962" lon="2.32079">
        <ele>423.5</ele>
        <time>2011-08-09T07:56:53Z</time>
      </trkpt>
      <trkpt lat="44.49966" lon="2.32077">
        <ele>423.5</ele>
        <time>2011-08-09T07:56:54Z</time>
      </trkpt>
      <trkpt lat="44.49969" lon="2.32075">
        <ele>423.5</ele>
        <time>2011-08-09T07:56:55Z</time>
      </trkpt>
      <trkpt lat="44.49972" lon="2.32073">
        <ele>423</ele>
        <time>2011-08-09T07:56:56Z</time>
      </trkpt>
      <trkpt lat="44.49976" lon="2.32071">
        <ele>422.6</ele>
        <time>2011-08-09T07:56:57Z</time>
      </trkpt>
      <trkpt lat="44.4998" lon="2.32071">
        <ele>422.3</ele>
        <time>2011-08-09T07:56:58Z</time>
      </trkpt>
      <trkpt lat="44.49983" lon="2.32071">
        <ele>422.1</ele>
        <time>2011-08-09T07:56:59Z</time>
      </trkpt>
      <trkpt lat="44.49986" lon="2.3207">
        <ele>422</ele>
        <time>2011-08-09T07:57:00Z</time>
      </trkpt>
      <trkpt lat="44.49989" lon="2.32069">
        <ele>421.9</ele>
        <time>2011-08-09T07:57:01Z</time>
      </trkpt>
      <trkpt lat="44.49991" lon="2.32069">
        <ele>421.9</ele>
        <time>2011-08-09T07:57:02Z</time>
      </trkpt>
      <trkpt lat="44.49994" lon="2.32068">
        <ele>421.9</ele>
        <time>2011-08-09T07:57:03Z</time>
      </trkpt>
      <trkpt lat="44.49996" lon="2.32067">
        <ele>421.9</ele>
        <time>2011-08-09T07:57:04Z</time>
      </trkpt>
      <trkpt lat="44.49999" lon="2.32066">
        <ele>421.9</ele>
        <time>2011-08-09T07:57:05Z</time>
      </trkpt>
      <trkpt lat="44.50002" lon="2.32066">
        <ele>421.9</ele>
        <time>2011-08-09T07:57:06Z</time>
      </trkpt>
      <trkpt lat="44.50006" lon="2.32068">
        <ele>421.8</ele>
        <time>2011-08-09T07:57:08Z</time>
      </trkpt>
      <trkpt lat="44.50008" lon="2.32069">
        <ele>421.8</ele>
        <time>2011-08-09T07:57:09Z</time>
      </trkpt>
      <trkpt lat="44.5001" lon="2.32071">
        <ele>421.7</ele>
        <time>2011-08-09T07:57:10Z</time>
      </trkpt>
      <trkpt lat="44.50013" lon="2.32072">
        <ele>421.7</ele>
        <time>2011-08-09T07:57:11Z</time>
      </trkpt>
      <trkpt lat="44.50015" lon="2.32074">
        <ele>422.1</ele>
        <time>2011-08-09T07:57:12Z</time>
      </trkpt>
      <trkpt lat="44.50017" lon="2.32075">
        <ele>422.4</ele>
        <time>2011-08-09T07:57:13Z</time>
      </trkpt>
      <trkpt lat="44.5002" lon="2.32076">
        <ele>422.6</ele>
        <time>2011-08-09T07:57:14Z</time>
      </trkpt>
      <trkpt lat="44.50022" lon="2.32077">
        <ele>422.8</ele>
        <time>2011-08-09T07:57:15Z</time>
      </trkpt>
      <trkpt lat="44.50024" lon="2.32078">
        <ele>422.9</ele>
        <time>2011-08-09T07:57:16Z</time>
      </trkpt>
      <trkpt lat="44.50026" lon="2.3208">
        <ele>423</ele>
        <time>2011-08-09T07:57:17Z</time>
      </trkpt>
      <trkpt lat="44.5003" lon="2.32082">
        <ele>423.1</ele>
        <time>2011-08-09T07:57:19Z</time>
      </trkpt>
      <trkpt lat="44.50033" lon="2.32084">
        <ele>423.4</ele>
        <time>2011-08-09T07:57:21Z</time>
      </trkpt>
      <trkpt lat="44.50035" lon="2.32085">
        <ele>423.5</ele>
        <time>2011-08-09T07:57:22Z</time>
      </trkpt>
      <trkpt lat="44.5004" lon="2.32088">
        <ele>423.5</ele>
        <time>2011-08-09T07:57:25Z</time>
      </trkpt>
      <trkpt lat="44.50043" lon="2.32091">
        <ele>423.8</ele>
        <time>2011-08-09T07:57:27Z</time>
      </trkpt>
      <trkpt lat="44.50047" lon="2.32093">
        <ele>424.1</ele>
        <time>2011-08-09T07:57:29Z</time>
      </trkpt>
      <trkpt lat="44.50051" lon="2.32096">
        <ele>424.3</ele>
        <time>2011-08-09T07:57:31Z</time>
      </trkpt>
      <trkpt lat="44.50055" lon="2.32098">
        <ele>424.5</ele>
        <time>2011-08-09T07:57:33Z</time>
      </trkpt>
      <trkpt lat="44.50058" lon="2.32099">
        <ele>424.8</ele>
        <time>2011-08-09T07:57:35Z</time>
      </trkpt>
      <trkpt lat="44.50062" lon="2.32101">
        <ele>424.8</ele>
        <time>2011-08-09T07:57:37Z</time>
      </trkpt>
      <trkpt lat="44.50066" lon="2.32102">
        <ele>424.8</ele>
        <time>2011-08-09T07:57:39Z</time>
      </trkpt>
      <trkpt lat="44.50069" lon="2.32103">
        <ele>425.5</ele>
        <time>2011-08-09T07:57:41Z</time>
      </trkpt>
      <trkpt lat="44.50071" lon="2.32104">
        <ele>425.7</ele>
        <time>2011-08-09T07:57:42Z</time>
      </trkpt>
      <trkpt lat="44.50074" lon="2.32104">
        <ele>425.6</ele>
        <time>2011-08-09T07:57:43Z</time>
      </trkpt>
      <trkpt lat="44.50078" lon="2.32106">
        <ele>425.5</ele>
        <time>2011-08-09T07:57:45Z</time>
      </trkpt>
      <trkpt lat="44.50082" lon="2.32107">
        <ele>425.9</ele>
        <time>2011-08-09T07:57:47Z</time>
      </trkpt>
      <trkpt lat="44.50085" lon="2.32108">
        <ele>426.4</ele>
        <time>2011-08-09T07:57:49Z</time>
      </trkpt>
      <trkpt lat="44.50088" lon="2.32109">
        <ele>426.9</ele>
        <time>2011-08-09T07:57:51Z</time>
      </trkpt>
      <trkpt lat="44.50092" lon="2.3211">
        <ele>427.2</ele>
        <time>2011-08-09T07:57:53Z</time>
      </trkpt>
      <trkpt lat="44.50095" lon="2.32112">
        <ele>427.4</ele>
        <time>2011-08-09T07:57:55Z</time>
      </trkpt>
      <trkpt lat="44.50099" lon="2.32113">
        <ele>427.6</ele>
        <time>2011-08-09T07:57:57Z</time>
      </trkpt>
      <trkpt lat="44.50103" lon="2.32115">
        <ele>427.8</ele>
        <time>2011-08-09T07:57:59Z</time>
      </trkpt>
      <trkpt lat="44.50106" lon="2.32117">
        <ele>427.9</ele>
        <time>2011-08-09T07:58:01Z</time>
      </trkpt>
      <trkpt lat="44.5011" lon="2.3212">
        <ele>428.3</ele>
        <time>2011-08-09T07:58:03Z</time>
      </trkpt>
      <trkpt lat="44.50114" lon="2.32123">
        <ele>428.8</ele>
        <time>2011-08-09T07:58:05Z</time>
      </trkpt>
      <trkpt lat="44.50118" lon="2.32126">
        <ele>429.7</ele>
        <time>2011-08-09T07:58:07Z</time>
      </trkpt>
      <trkpt lat="44.5012" lon="2.32128">
        <ele>430</ele>
        <time>2011-08-09T07:58:08Z</time>
      </trkpt>
      <trkpt lat="44.50122" lon="2.32129">
        <ele>430</ele>
        <time>2011-08-09T07:58:09Z</time>
      </trkpt>
      <trkpt lat="44.50124" lon="2.32131">
        <ele>429.9</ele>
        <time>2011-08-09T07:58:10Z</time>
      </trkpt>
      <trkpt lat="44.50128" lon="2.32133">
        <ele>430.6</ele>
        <time>2011-08-09T07:58:12Z</time>
      </trkpt>
      <trkpt lat="44.50132" lon="2.32135">
        <ele>431.6</ele>
        <time>2011-08-09T07:58:14Z</time>
      </trkpt>
      <trkpt lat="44.50136" lon="2.32137">
        <ele>431.6</ele>
        <time>2011-08-09T07:58:16Z</time>
      </trkpt>
      <trkpt lat="44.5014" lon="2.32139">
        <ele>431.7</ele>
        <time>2011-08-09T07:58:18Z</time>
      </trkpt>
      <trkpt lat="44.50144" lon="2.32141">
        <ele>432</ele>
        <time>2011-08-09T07:58:20Z</time>
      </trkpt>
      <trkpt lat="44.50146" lon="2.32142">
        <ele>432.1</ele>
        <time>2011-08-09T07:58:21Z</time>
      </trkpt>
      <trkpt lat="44.50149" lon="2.32143">
        <ele>432</ele>
        <time>2011-08-09T07:58:22Z</time>
      </trkpt>
      <trkpt lat="44.50151" lon="2.32144">
        <ele>432</ele>
        <time>2011-08-09T07:58:23Z</time>
      </trkpt>
      <trkpt lat="44.50155" lon="2.32146">
        <ele>432</ele>
        <time>2011-08-09T07:58:24Z</time>
      </trkpt>
      <trkpt lat="44.50158" lon="2.32147">
        <ele>431.6</ele>
        <time>2011-08-09T07:58:25Z</time>
      </trkpt>
      <trkpt lat="44.50161" lon="2.32148">
        <ele>431.3</ele>
        <time>2011-08-09T07:58:26Z</time>
      </trkpt>
      <trkpt lat="44.50164" lon="2.32149">
        <ele>431.1</ele>
        <time>2011-08-09T07:58:27Z</time>
      </trkpt>
      <trkpt lat="44.50167" lon="2.3215">
        <ele>431.1</ele>
        <time>2011-08-09T07:58:28Z</time>
      </trkpt>
      <trkpt lat="44.50171" lon="2.32151">
        <ele>431.1</ele>
        <time>2011-08-09T07:58:29Z</time>
      </trkpt>
      <trkpt lat="44.50174" lon="2.32152">
        <ele>431.1</ele>
        <time>2011-08-09T07:58:30Z</time>
      </trkpt>
      <trkpt lat="44.50177" lon="2.32152">
        <ele>430.8</ele>
        <time>2011-08-09T07:58:31Z</time>
      </trkpt>
      <trkpt lat="44.50181" lon="2.32153">
        <ele>430.6</ele>
        <time>2011-08-09T07:58:32Z</time>
      </trkpt>
      <trkpt lat="44.50184" lon="2.32153">
        <ele>430.4</ele>
        <time>2011-08-09T07:58:33Z</time>
      </trkpt>
      <trkpt lat="44.50188" lon="2.32154">
        <ele>429.9</ele>
        <time>2011-08-09T07:58:34Z</time>
      </trkpt>
      <trkpt lat="44.50191" lon="2.32154">
        <ele>429.5</ele>
        <time>2011-08-09T07:58:35Z</time>
      </trkpt>
      <trkpt lat="44.50195" lon="2.32154">
        <ele>429.2</ele>
        <time>2011-08-09T07:58:36Z</time>
      </trkpt>
      <trkpt lat="44.50199" lon="2.32154">
        <ele>429</ele>
        <time>2011-08-09T07:58:37Z</time>
      </trkpt>
      <trkpt lat="44.50203" lon="2.32154">
        <ele>428.8</ele>
        <time>2011-08-09T07:58:38Z</time>
      </trkpt>
      <trkpt lat="44.50207" lon="2.32153">
        <ele>428.7</ele>
        <time>2011-08-09T07:58:39Z</time>
      </trkpt>
      <trkpt lat="44.50211" lon="2.32153">
        <ele>428.6</ele>
        <time>2011-08-09T07:58:40Z</time>
      </trkpt>
      <trkpt lat="44.50215" lon="2.32153">
        <ele>428.5</ele>
        <time>2011-08-09T07:58:41Z</time>
      </trkpt>
      <trkpt lat="44.50219" lon="2.32153">
        <ele>428.4</ele>
        <time>2011-08-09T07:58:42Z</time>
      </trkpt>
      <trkpt lat="44.50223" lon="2.32153">
        <ele>428.3</ele>
        <time>2011-08-09T07:58:43Z</time>
      </trkpt>
      <trkpt lat="44.50227" lon="2.32154">
        <ele>427.6</ele>
        <time>2011-08-09T07:58:44Z</time>
      </trkpt>
      <trkpt lat="44.50231" lon="2.32154">
        <ele>427</ele>
        <time>2011-08-09T07:58:45Z</time>
      </trkpt>
      <trkpt lat="44.50235" lon="2.32154">
        <ele>426.6</ele>
        <time>2011-08-09T07:58:46Z</time>
      </trkpt>
      <trkpt lat="44.50239" lon="2.32153">
        <ele>426.1</ele>
        <time>2011-08-09T07:58:47Z</time>
      </trkpt>
      <trkpt lat="44.50242" lon="2.3215">
        <ele>425.7</ele>
        <time>2011-08-09T07:58:48Z</time>
      </trkpt>
      <trkpt lat="44.50243" lon="2.32146">
        <ele>425.4</ele>
        <time>2011-08-09T07:58:49Z</time>
      </trkpt>
      <trkpt lat="44.50243" lon="2.32142">
        <ele>425.6</ele>
        <time>2011-08-09T07:58:50Z</time>
      </trkpt>
      <trkpt lat="44.50242" lon="2.32138">
        <ele>425.8</ele>
        <time>2011-08-09T07:58:51Z</time>
      </trkpt>
      <trkpt lat="44.50242" lon="2.32135">
        <ele>425.9</ele>
        <time>2011-08-09T07:58:52Z</time>
      </trkpt>
      <trkpt lat="44.50241" lon="2.32132">
        <ele>426</ele>
        <time>2011-08-09T07:58:53Z</time>
      </trkpt>
      <trkpt lat="44.50241" lon="2.32128">
        <ele>425.9</ele>
        <time>2011-08-09T07:58:54Z</time>
      </trkpt>
      <trkpt lat="44.5024" lon="2.32125">
        <ele>425.9</ele>
        <time>2011-08-09T07:58:55Z</time>
      </trkpt>
      <trkpt lat="44.5024" lon="2.32122">
        <ele>425.9</ele>
        <time>2011-08-09T07:58:56Z</time>
      </trkpt>
      <trkpt lat="44.5024" lon="2.32119">
        <ele>425.9</ele>
        <time>2011-08-09T07:58:57Z</time>
      </trkpt>
      <trkpt lat="44.50239" lon="2.32115">
        <ele>425.9</ele>
        <time>2011-08-09T07:58:58Z</time>
      </trkpt>
      <trkpt lat="44.50239" lon="2.32112">
        <ele>425.9</ele>
        <time>2011-08-09T07:58:59Z</time>
      </trkpt>
      <trkpt lat="44.5024" lon="2.32109">
        <ele>425.8</ele>
        <time>2011-08-09T07:59:00Z</time>
      </trkpt>
      <trkpt lat="44.5024" lon="2.32106">
        <ele>425.7</ele>
        <time>2011-08-09T07:59:01Z</time>
      </trkpt>
      <trkpt lat="44.5024" lon="2.32103">
        <ele>425.6</ele>
        <time>2011-08-09T07:59:02Z</time>
      </trkpt>
      <trkpt lat="44.50241" lon="2.32099">
        <ele>425.9</ele>
        <time>2011-08-09T07:59:03Z</time>
      </trkpt>
      <trkpt lat="44.50241" lon="2.32096">
        <ele>426.2</ele>
        <time>2011-08-09T07:59:04Z</time>
      </trkpt>
      <trkpt lat="44.50242" lon="2.32093">
        <ele>426.4</ele>
        <time>2011-08-09T07:59:05Z</time>
      </trkpt>
      <trkpt lat="44.50242" lon="2.32089">
        <ele>426.7</ele>
        <time>2011-08-09T07:59:06Z</time>
      </trkpt>
      <trkpt lat="44.50242" lon="2.32086">
        <ele>426.9</ele>
        <time>2011-08-09T07:59:07Z</time>
      </trkpt>
      <trkpt lat="44.50243" lon="2.32082">
        <ele>427.1</ele>
        <time>2011-08-09T07:59:08Z</time>
      </trkpt>
      <trkpt lat="44.50243" lon="2.32079">
        <ele>427.2</ele>
        <time>2011-08-09T07:59:09Z</time>
      </trkpt>
      <trkpt lat="44.50243" lon="2.32076">
        <ele>427.2</ele>
        <time>2011-08-09T07:59:10Z</time>
      </trkpt>
      <trkpt lat="44.50244" lon="2.32073">
        <ele>427.3</ele>
        <time>2011-08-09T07:59:11Z</time>
      </trkpt>
      <trkpt lat="44.50244" lon="2.32069">
        <ele>427.3</ele>
        <time>2011-08-09T07:59:12Z</time>
      </trkpt>
      <trkpt lat="44.50245" lon="2.32063">
        <ele>427.3</ele>
        <time>2011-08-09T07:59:14Z</time>
      </trkpt>
      <trkpt lat="44.50245" lon="2.32057">
        <ele>427.8</ele>
        <time>2011-08-09T07:59:16Z</time>
      </trkpt>
      <trkpt lat="44.50245" lon="2.32052">
        <ele>428.5</ele>
        <time>2011-08-09T07:59:18Z</time>
      </trkpt>
      <trkpt lat="44.50245" lon="2.32048">
        <ele>428.7</ele>
        <time>2011-08-09T07:59:19Z</time>
      </trkpt>
      <trkpt lat="44.50245" lon="2.32045">
        <ele>428.8</ele>
        <time>2011-08-09T07:59:20Z</time>
      </trkpt>
      <trkpt lat="44.50244" lon="2.32039">
        <ele>429.2</ele>
        <time>2011-08-09T07:59:22Z</time>
      </trkpt>
      <trkpt lat="44.50244" lon="2.32036">
        <ele>429.4</ele>
        <time>2011-08-09T07:59:23Z</time>
      </trkpt>
      <trkpt lat="44.50243" lon="2.3203">
        <ele>429.7</ele>
        <time>2011-08-09T07:59:25Z</time>
      </trkpt>
      <trkpt lat="44.50242" lon="2.32027">
        <ele>429.6</ele>
        <time>2011-08-09T07:59:26Z</time>
      </trkpt>
      <trkpt lat="44.50241" lon="2.32024">
        <ele>429.6</ele>
        <time>2011-08-09T07:59:27Z</time>
      </trkpt>
      <trkpt lat="44.50241" lon="2.3202">
        <ele>429.6</ele>
        <time>2011-08-09T07:59:28Z</time>
      </trkpt>
      <trkpt lat="44.5024" lon="2.32016">
        <ele>429.5</ele>
        <time>2011-08-09T07:59:29Z</time>
      </trkpt>
      <trkpt lat="44.50239" lon="2.32013">
        <ele>429.5</ele>
        <time>2011-08-09T07:59:30Z</time>
      </trkpt>
      <trkpt lat="44.50238" lon="2.32009">
        <ele>429.5</ele>
        <time>2011-08-09T07:59:31Z</time>
      </trkpt>
      <trkpt lat="44.50237" lon="2.32004">
        <ele>429.4</ele>
        <time>2011-08-09T07:59:32Z</time>
      </trkpt>
      <trkpt lat="44.50236" lon="2.32">
        <ele>429.3</ele>
        <time>2011-08-09T07:59:33Z</time>
      </trkpt>
      <trkpt lat="44.50235" lon="2.31996">
        <ele>429.2</ele>
        <time>2011-08-09T07:59:34Z</time>
      </trkpt>
      <trkpt lat="44.50234" lon="2.31991">
        <ele>429</ele>
        <time>2011-08-09T07:59:35Z</time>
      </trkpt>
      <trkpt lat="44.50233" lon="2.31987">
        <ele>428.9</ele>
        <time>2011-08-09T07:59:36Z</time>
      </trkpt>
      <trkpt lat="44.50232" lon="2.31982">
        <ele>428.8</ele>
        <time>2011-08-09T07:59:37Z</time>
      </trkpt>
      <trkpt lat="44.50231" lon="2.31978">
        <ele>428.7</ele>
        <time>2011-08-09T07:59:38Z</time>
      </trkpt>
      <trkpt lat="44.5023" lon="2.31973">
        <ele>428.7</ele>
        <time>2011-08-09T07:59:39Z</time>
      </trkpt>
      <trkpt lat="44.50229" lon="2.31969">
        <ele>428.7</ele>
        <time>2011-08-09T07:59:40Z</time>
      </trkpt>
      <trkpt lat="44.50227" lon="2.31964">
        <ele>428.7</ele>
        <time>2011-08-09T07:59:41Z</time>
      </trkpt>
      <trkpt lat="44.50226" lon="2.31959">
        <ele>428.4</ele>
        <time>2011-08-09T07:59:42Z</time>
      </trkpt>
      <trkpt lat="44.50225" lon="2.31953">
        <ele>428.2</ele>
        <time>2011-08-09T07:59:43Z</time>
      </trkpt>
      <trkpt lat="44.50223" lon="2.31948">
        <ele>428.1</ele>
        <time>2011-08-09T07:59:44Z</time>
      </trkpt>
      <trkpt lat="44.50221" lon="2.31943">
        <ele>428</ele>
        <time>2011-08-09T07:59:45Z</time>
      </trkpt>
      <trkpt lat="44.50219" lon="2.31938">
        <ele>428</ele>
        <time>2011-08-09T07:59:46Z</time>
      </trkpt>
      <trkpt lat="44.50217" lon="2.31933">
        <ele>428</ele>
        <time>2011-08-09T07:59:47Z</time>
      </trkpt>
      <trkpt lat="44.50215" lon="2.31929">
        <ele>427.4</ele>
        <time>2011-08-09T07:59:48Z</time>
      </trkpt>
      <trkpt lat="44.50213" lon="2.31923">
        <ele>426.9</ele>
        <time>2011-08-09T07:59:49Z</time>
      </trkpt>
      <trkpt lat="44.5021" lon="2.31918">
        <ele>426.6</ele>
        <time>2011-08-09T07:59:50Z</time>
      </trkpt>
      <trkpt lat="44.50207" lon="2.31912">
        <ele>426.4</ele>
        <time>2011-08-09T07:59:51Z</time>
      </trkpt>
      <trkpt lat="44.50204" lon="2.31907">
        <ele>426.3</ele>
        <time>2011-08-09T07:59:52Z</time>
      </trkpt>
      <trkpt lat="44.50201" lon="2.31902">
        <ele>426.2</ele>
        <time>2011-08-09T07:59:53Z</time>
      </trkpt>
      <trkpt lat="44.50198" lon="2.31897">
        <ele>425.7</ele>
        <time>2011-08-09T07:59:54Z</time>
      </trkpt>
      <trkpt lat="44.50194" lon="2.31893">
        <ele>425.3</ele>
        <time>2011-08-09T07:59:55Z</time>
      </trkpt>
      <trkpt lat="44.50191" lon="2.31888">
        <ele>425.1</ele>
        <time>2011-08-09T07:59:56Z</time>
      </trkpt>
      <trkpt lat="44.50187" lon="2.31883">
        <ele>424.9</ele>
        <time>2011-08-09T07:59:57Z</time>
      </trkpt>
      <trkpt lat="44.50184" lon="2.31878">
        <ele>424.5</ele>
        <time>2011-08-09T07:59:58Z</time>
      </trkpt>
      <trkpt lat="44.50181" lon="2.31872">
        <ele>424.2</ele>
        <time>2011-08-09T07:59:59Z</time>
      </trkpt>
      <trkpt lat="44.50179" lon="2.31866">
        <ele>424</ele>
        <time>2011-08-09T08:00:00Z</time>
      </trkpt>
      <trkpt lat="44.50177" lon="2.31859">
        <ele>423.6</ele>
        <time>2011-08-09T08:00:01Z</time>
      </trkpt>
      <trkpt lat="44.50175" lon="2.31852">
        <ele>423.3</ele>
        <time>2011-08-09T08:00:02Z</time>
      </trkpt>
      <trkpt lat="44.50173" lon="2.31844">
        <ele>423.1</ele>
        <time>2011-08-09T08:00:03Z</time>
      </trkpt>
      <trkpt lat="44.50172" lon="2.31837">
        <ele>422.9</ele>
        <time>2011-08-09T08:00:04Z</time>
      </trkpt>
      <trkpt lat="44.50171" lon="2.31829">
        <ele>422.8</ele>
        <time>2011-08-09T08:00:05Z</time>
      </trkpt>
      <trkpt lat="44.50171" lon="2.31822">
        <ele>422.7</ele>
        <time>2011-08-09T08:00:06Z</time>
      </trkpt>
      <trkpt lat="44.50171" lon="2.31816">
        <ele>422.5</ele>
        <time>2011-08-09T08:00:07Z</time>
      </trkpt>
      <trkpt lat="44.50171" lon="2.31809">
        <ele>422.4</ele>
        <time>2011-08-09T08:00:08Z</time>
      </trkpt>
      <trkpt lat="44.50172" lon="2.31803">
        <ele>422.3</ele>
        <time>2011-08-09T08:00:09Z</time>
      </trkpt>
      <trkpt lat="44.50172" lon="2.31796">
        <ele>422.2</ele>
        <time>2011-08-09T08:00:10Z</time>
      </trkpt>
      <trkpt lat="44.50172" lon="2.3179">
        <ele>422.1</ele>
        <time>2011-08-09T08:00:11Z</time>
      </trkpt>
      <trkpt lat="44.50172" lon="2.31784">
        <ele>422.1</ele>
        <time>2011-08-09T08:00:12Z</time>
      </trkpt>
      <trkpt lat="44.50172" lon="2.31779">
        <ele>422.1</ele>
        <time>2011-08-09T08:00:13Z</time>
      </trkpt>
      <trkpt lat="44.50172" lon="2.31773">
        <ele>422.2</ele>
        <time>2011-08-09T08:00:14Z</time>
      </trkpt>
      <trkpt lat="44.50171" lon="2.31768">
        <ele>422.3</ele>
        <time>2011-08-09T08:00:15Z</time>
      </trkpt>
      <trkpt lat="44.5017" lon="2.31764">
        <ele>422.4</ele>
        <time>2011-08-09T08:00:16Z</time>
      </trkpt>
      <trkpt lat="44.50168" lon="2.31761">
        <ele>422.2</ele>
        <time>2011-08-09T08:00:17Z</time>
      </trkpt>
      <trkpt lat="44.50167" lon="2.31757">
        <ele>422.1</ele>
        <time>2011-08-09T08:00:18Z</time>
      </trkpt>
      <trkpt lat="44.50165" lon="2.31754">
        <ele>422.1</ele>
        <time>2011-08-09T08:00:19Z</time>
      </trkpt>
      <trkpt lat="44.50163" lon="2.31751">
        <ele>422.2</ele>
        <time>2011-08-09T08:00:20Z</time>
      </trkpt>
      <trkpt lat="44.50162" lon="2.31747">
        <ele>422.3</ele>
        <time>2011-08-09T08:00:21Z</time>
      </trkpt>
      <trkpt lat="44.50159" lon="2.31744">
        <ele>422.3</ele>
        <time>2011-08-09T08:00:22Z</time>
      </trkpt>
      <trkpt lat="44.50156" lon="2.31741">
        <ele>422.3</ele>
        <time>2011-08-09T08:00:23Z</time>
      </trkpt>
      <trkpt lat="44.50152" lon="2.31739">
        <ele>422.3</ele>
        <time>2011-08-09T08:00:24Z</time>
      </trkpt>
      <trkpt lat="44.50148" lon="2.31737">
        <ele>422.4</ele>
        <time>2011-08-09T08:00:25Z</time>
      </trkpt>
      <trkpt lat="44.50145" lon="2.31735">
        <ele>421.8</ele>
        <time>2011-08-09T08:00:26Z</time>
      </trkpt>
      <trkpt lat="44.50141" lon="2.31733">
        <ele>421.4</ele>
        <time>2011-08-09T08:00:27Z</time>
      </trkpt>
      <trkpt lat="44.50137" lon="2.3173">
        <ele>421.2</ele>
        <time>2011-08-09T08:00:28Z</time>
      </trkpt>
      <trkpt lat="44.50134" lon="2.31727">
        <ele>420.9</ele>
        <time>2011-08-09T08:00:29Z</time>
      </trkpt>
      <trkpt lat="44.50132" lon="2.31723">
        <ele>420.6</ele>
        <time>2011-08-09T08:00:30Z</time>
      </trkpt>
      <trkpt lat="44.5013" lon="2.31717">
        <ele>420.4</ele>
        <time>2011-08-09T08:00:31Z</time>
      </trkpt>
      <trkpt lat="44.50129" lon="2.31711">
        <ele>420.2</ele>
        <time>2011-08-09T08:00:32Z</time>
      </trkpt>
      <trkpt lat="44.50129" lon="2.31705">
        <ele>419.9</ele>
        <time>2011-08-09T08:00:33Z</time>
      </trkpt>
      <trkpt lat="44.5013" lon="2.317">
        <ele>419.7</ele>
        <time>2011-08-09T08:00:34Z</time>
      </trkpt>
      <trkpt lat="44.50131" lon="2.31694">
        <ele>419.6</ele>
        <time>2011-08-09T08:00:35Z</time>
      </trkpt>
      <trkpt lat="44.50133" lon="2.31689">
        <ele>419.9</ele>
        <time>2011-08-09T08:00:36Z</time>
      </trkpt>
      <trkpt lat="44.50135" lon="2.31684">
        <ele>420.1</ele>
        <time>2011-08-09T08:00:37Z</time>
      </trkpt>
      <trkpt lat="44.50137" lon="2.31679">
        <ele>420.3</ele>
        <time>2011-08-09T08:00:38Z</time>
      </trkpt>
      <trkpt lat="44.50138" lon="2.31674">
        <ele>419.9</ele>
        <time>2011-08-09T08:00:39Z</time>
      </trkpt>
      <trkpt lat="44.5014" lon="2.31669">
        <ele>419.6</ele>
        <time>2011-08-09T08:00:40Z</time>
      </trkpt>
      <trkpt lat="44.5014" lon="2.31665">
        <ele>419.4</ele>
        <time>2011-08-09T08:00:41Z</time>
      </trkpt>
      <trkpt lat="44.5014" lon="2.3166">
        <ele>419.7</ele>
        <time>2011-08-09T08:00:42Z</time>
      </trkpt>
      <trkpt lat="44.5014" lon="2.31656">
        <ele>420</ele>
        <time>2011-08-09T08:00:43Z</time>
      </trkpt>
      <trkpt lat="44.5014" lon="2.31653">
        <ele>420.1</ele>
        <time>2011-08-09T08:00:44Z</time>
      </trkpt>
      <trkpt lat="44.5014" lon="2.31649">
        <ele>420.1</ele>
        <time>2011-08-09T08:00:45Z</time>
      </trkpt>
      <trkpt lat="44.50139" lon="2.31645">
        <ele>420.1</ele>
        <time>2011-08-09T08:00:46Z</time>
      </trkpt>
      <trkpt lat="44.50138" lon="2.31642">
        <ele>420.1</ele>
        <time>2011-08-09T08:00:47Z</time>
      </trkpt>
      <trkpt lat="44.50137" lon="2.31639">
        <ele>420.1</ele>
        <time>2011-08-09T08:00:48Z</time>
      </trkpt>
      <trkpt lat="44.50135" lon="2.31636">
        <ele>420.7</ele>
        <time>2011-08-09T08:00:49Z</time>
      </trkpt>
      <trkpt lat="44.50133" lon="2.31633">
        <ele>421.2</ele>
        <time>2011-08-09T08:00:50Z</time>
      </trkpt>
      <trkpt lat="44.50132" lon="2.3163">
        <ele>421.5</ele>
        <time>2011-08-09T08:00:51Z</time>
      </trkpt>
      <trkpt lat="44.5013" lon="2.31625">
        <ele>421.4</ele>
        <time>2011-08-09T08:00:53Z</time>
      </trkpt>
      <trkpt lat="44.50127" lon="2.3162">
        <ele>421.7</ele>
        <time>2011-08-09T08:00:55Z</time>
      </trkpt>
      <trkpt lat="44.50124" lon="2.31616">
        <ele>422.2</ele>
        <time>2011-08-09T08:00:57Z</time>
      </trkpt>
      <trkpt lat="44.50122" lon="2.31614">
        <ele>422.6</ele>
        <time>2011-08-09T08:00:58Z</time>
      </trkpt>
      <trkpt lat="44.50119" lon="2.31612">
        <ele>423</ele>
        <time>2011-08-09T08:00:59Z</time>
      </trkpt>
      <trkpt lat="44.50117" lon="2.3161">
        <ele>423.2</ele>
        <time>2011-08-09T08:01:00Z</time>
      </trkpt>
      <trkpt lat="44.50115" lon="2.31608">
        <ele>423.4</ele>
        <time>2011-08-09T08:01:01Z</time>
      </trkpt>
      <trkpt lat="44.50113" lon="2.31607">
        <ele>423.5</ele>
        <time>2011-08-09T08:01:02Z</time>
      </trkpt>
      <trkpt lat="44.50111" lon="2.31605">
        <ele>423.6</ele>
        <time>2011-08-09T08:01:03Z</time>
      </trkpt>
      <trkpt lat="44.50108" lon="2.31604">
        <ele>423.7</ele>
        <time>2011-08-09T08:01:04Z</time>
      </trkpt>
      <trkpt lat="44.50106" lon="2.31602">
        <ele>423.9</ele>
        <time>2011-08-09T08:01:05Z</time>
      </trkpt>
      <trkpt lat="44.50102" lon="2.31599">
        <ele>424.1</ele>
        <time>2011-08-09T08:01:07Z</time>
      </trkpt>
      <trkpt lat="44.50099" lon="2.31596">
        <ele>424.3</ele>
        <time>2011-08-09T08:01:09Z</time>
      </trkpt>
      <trkpt lat="44.50097" lon="2.31595">
        <ele>424.4</ele>
        <time>2011-08-09T08:01:10Z</time>
      </trkpt>
      <trkpt lat="44.50094" lon="2.31593">
        <ele>424.7</ele>
        <time>2011-08-09T08:01:11Z</time>
      </trkpt>
      <trkpt lat="44.50091" lon="2.3159">
        <ele>425</ele>
        <time>2011-08-09T08:01:13Z</time>
      </trkpt>
      <trkpt lat="44.50088" lon="2.31586">
        <ele>425.4</ele>
        <time>2011-08-09T08:01:15Z</time>
      </trkpt>
      <trkpt lat="44.50085" lon="2.31581">
        <ele>425.4</ele>
        <time>2011-08-09T08:01:17Z</time>
      </trkpt>
      <trkpt lat="44.50085" lon="2.31578">
        <ele>425.3</ele>
        <time>2011-08-09T08:01:18Z</time>
      </trkpt>
      <trkpt lat="44.50085" lon="2.31572">
        <ele>425.2</ele>
        <time>2011-08-09T08:01:20Z</time>
      </trkpt>
      <trkpt lat="44.50089" lon="2.3157">
        <ele>426.3</ele>
        <time>2011-08-09T08:01:23Z</time>
      </trkpt>
      <trkpt lat="44.50093" lon="2.31569">
        <ele>426.3</ele>
        <time>2011-08-09T08:01:26Z</time>
      </trkpt>
      <trkpt lat="44.50094" lon="2.31568">
        <ele>426.5</ele>
        <time>2011-08-09T08:01:27Z</time>
      </trkpt>
      <trkpt lat="44.501" lon="2.31564">
        <ele>428</ele>
        <time>2011-08-09T08:01:32Z</time>
      </trkpt>
      <trkpt lat="44.50102" lon="2.31561">
        <ele>428.8</ele>
        <time>2011-08-09T08:01:35Z</time>
      </trkpt>
      <trkpt lat="44.50106" lon="2.31556">
        <ele>428.9</ele>
        <time>2011-08-09T08:01:39Z</time>
      </trkpt>
      <trkpt lat="44.5011" lon="2.31554">
        <ele>429.2</ele>
        <time>2011-08-09T08:01:43Z</time>
      </trkpt>
      <trkpt lat="44.50113" lon="2.31552">
        <ele>430.4</ele>
        <time>2011-08-09T08:01:46Z</time>
      </trkpt>
      <trkpt lat="44.50117" lon="2.31549">
        <ele>430.8</ele>
        <time>2011-08-09T08:01:50Z</time>
      </trkpt>
      <trkpt lat="44.50121" lon="2.31547">
        <ele>432.9</ele>
        <time>2011-08-09T08:01:55Z</time>
      </trkpt>
      <trkpt lat="44.50122" lon="2.31542">
        <ele>434</ele>
        <time>2011-08-09T08:01:59Z</time>
      </trkpt>
      <trkpt lat="44.50124" lon="2.31538">
        <ele>435.1</ele>
        <time>2011-08-09T08:02:02Z</time>
      </trkpt>
      <trkpt lat="44.50124" lon="2.31533">
        <ele>435.5</ele>
        <time>2011-08-09T08:02:05Z</time>
      </trkpt>
      <trkpt lat="44.50125" lon="2.31527">
        <ele>436.3</ele>
        <time>2011-08-09T08:02:08Z</time>
      </trkpt>
      <trkpt lat="44.50126" lon="2.31523">
        <ele>437.4</ele>
        <time>2011-08-09T08:02:11Z</time>
      </trkpt>
      <trkpt lat="44.50127" lon="2.31518">
        <ele>437.8</ele>
        <time>2011-08-09T08:02:14Z</time>
      </trkpt>
      <trkpt lat="44.50129" lon="2.31513">
        <ele>438.6</ele>
        <time>2011-08-09T08:02:17Z</time>
      </trkpt>
      <trkpt lat="44.50131" lon="2.31507">
        <ele>438.9</ele>
        <time>2011-08-09T08:02:20Z</time>
      </trkpt>
      <trkpt lat="44.50133" lon="2.31502">
        <ele>438.9</ele>
        <time>2011-08-09T08:02:23Z</time>
      </trkpt>
      <trkpt lat="44.50134" lon="2.31498">
        <ele>439.1</ele>
        <time>2011-08-09T08:02:25Z</time>
      </trkpt>
      <trkpt lat="44.50136" lon="2.31492">
        <ele>439.7</ele>
        <time>2011-08-09T08:02:28Z</time>
      </trkpt>
      <trkpt lat="44.50137" lon="2.31491">
        <ele>440</ele>
        <time>2011-08-09T08:02:29Z</time>
      </trkpt>
      <trkpt lat="44.50138" lon="2.31482">
        <ele>441.7</ele>
        <time>2011-08-09T08:02:33Z</time>
      </trkpt>
      <trkpt lat="44.50139" lon="2.31478">
        <ele>442.2</ele>
        <time>2011-08-09T08:02:35Z</time>
      </trkpt>
      <trkpt lat="44.50139" lon="2.31472">
        <ele>444</ele>
        <time>2011-08-09T08:02:38Z</time>
      </trkpt>
      <trkpt lat="44.5014" lon="2.31467">
        <ele>445.2</ele>
        <time>2011-08-09T08:02:40Z</time>
      </trkpt>
      <trkpt lat="44.50141" lon="2.31462">
        <ele>446.4</ele>
        <time>2011-08-09T08:02:43Z</time>
      </trkpt>
      <trkpt lat="44.50142" lon="2.31456">
        <ele>446.6</ele>
        <time>2011-08-09T08:02:46Z</time>
      </trkpt>
      <trkpt lat="44.50144" lon="2.31451">
        <ele>446.2</ele>
        <time>2011-08-09T08:02:49Z</time>
      </trkpt>
      <trkpt lat="44.50146" lon="2.31447">
        <ele>447.4</ele>
        <time>2011-08-09T08:02:51Z</time>
      </trkpt>
      <trkpt lat="44.50147" lon="2.31441">
        <ele>448.5</ele>
        <time>2011-08-09T08:02:54Z</time>
      </trkpt>
      <trkpt lat="44.50148" lon="2.31436">
        <ele>449.6</ele>
        <time>2011-08-09T08:02:57Z</time>
      </trkpt>
      <trkpt lat="44.5015" lon="2.31432">
        <ele>450.5</ele>
        <time>2011-08-09T08:03:00Z</time>
      </trkpt>
      <trkpt lat="44.50151" lon="2.31427">
        <ele>451.1</ele>
        <time>2011-08-09T08:03:03Z</time>
      </trkpt>
      <trkpt lat="44.50152" lon="2.31422">
        <ele>452.4</ele>
        <time>2011-08-09T08:03:07Z</time>
      </trkpt>
      <trkpt lat="44.50153" lon="2.31416">
        <ele>452.5</ele>
        <time>2011-08-09T08:03:11Z</time>
      </trkpt>
      <trkpt lat="44.50154" lon="2.31411">
        <ele>453.7</ele>
        <time>2011-08-09T08:03:14Z</time>
      </trkpt>
      <trkpt lat="44.50155" lon="2.31406">
        <ele>454.3</ele>
        <time>2011-08-09T08:03:17Z</time>
      </trkpt>
      <trkpt lat="44.50157" lon="2.31401">
        <ele>455.2</ele>
        <time>2011-08-09T08:03:20Z</time>
      </trkpt>
      <trkpt lat="44.50158" lon="2.31396">
        <ele>455.9</ele>
        <time>2011-08-09T08:03:22Z</time>
      </trkpt>
      <trkpt lat="44.50159" lon="2.31392">
        <ele>456.4</ele>
        <time>2011-08-09T08:03:24Z</time>
      </trkpt>
      <trkpt lat="44.50161" lon="2.31389">
        <ele>457.3</ele>
        <time>2011-08-09T08:03:26Z</time>
      </trkpt>
      <trkpt lat="44.50162" lon="2.31383">
        <ele>458</ele>
        <time>2011-08-09T08:03:29Z</time>
      </trkpt>
      <trkpt lat="44.50163" lon="2.31382">
        <ele>458.2</ele>
        <time>2011-08-09T08:03:30Z</time>
      </trkpt>
      <trkpt lat="44.50163" lon="2.31373">
        <ele>460.7</ele>
        <time>2011-08-09T08:03:35Z</time>
      </trkpt>
      <trkpt lat="44.50159" lon="2.31368">
        <ele>462.8</ele>
        <time>2011-08-09T08:03:52Z</time>
      </trkpt>
      <trkpt lat="44.50155" lon="2.31368">
        <ele>462.4</ele>
        <time>2011-08-09T08:03:57Z</time>
      </trkpt>
      <trkpt lat="44.50152" lon="2.3137">
        <ele>462.6</ele>
        <time>2011-08-09T08:04:01Z</time>
      </trkpt>
      <trkpt lat="44.50148" lon="2.31372">
        <ele>463.7</ele>
        <time>2011-08-09T08:04:05Z</time>
      </trkpt>
      <trkpt lat="44.50145" lon="2.31374">
        <ele>463.9</ele>
        <time>2011-08-09T08:04:08Z</time>
      </trkpt>
      <trkpt lat="44.50141" lon="2.31375">
        <ele>464.3</ele>
        <time>2011-08-09T08:04:11Z</time>
      </trkpt>
      <trkpt lat="44.50137" lon="2.31377">
        <ele>465.1</ele>
        <time>2011-08-09T08:04:14Z</time>
      </trkpt>
      <trkpt lat="44.50135" lon="2.31379">
        <ele>465.5</ele>
        <time>2011-08-09T08:04:16Z</time>
      </trkpt>
      <trkpt lat="44.50131" lon="2.31381">
        <ele>465.5</ele>
        <time>2011-08-09T08:04:19Z</time>
      </trkpt>
      <trkpt lat="44.50127" lon="2.31383">
        <ele>465.4</ele>
        <time>2011-08-09T08:04:22Z</time>
      </trkpt>
      <trkpt lat="44.50123" lon="2.31386">
        <ele>467</ele>
        <time>2011-08-09T08:04:25Z</time>
      </trkpt>
      <trkpt lat="44.50119" lon="2.31383">
        <ele>467.6</ele>
        <time>2011-08-09T08:04:30Z</time>
      </trkpt>
      <trkpt lat="44.50118" lon="2.31383">
        <ele>467.7</ele>
        <time>2011-08-09T08:04:31Z</time>
      </trkpt>
      <trkpt lat="44.50119" lon="2.31373">
        <ele>467.5</ele>
        <time>2011-08-09T08:04:38Z</time>
      </trkpt>
      <trkpt lat="44.50121" lon="2.31369">
        <ele>468</ele>
        <time>2011-08-09T08:04:41Z</time>
      </trkpt>
      <trkpt lat="44.50123" lon="2.31365">
        <ele>468.6</ele>
        <time>2011-08-09T08:04:44Z</time>
      </trkpt>
      <trkpt lat="44.50126" lon="2.31361">
        <ele>468.8</ele>
        <time>2011-08-09T08:04:47Z</time>
      </trkpt>
      <trkpt lat="44.50128" lon="2.31356">
        <ele>469.8</ele>
        <time>2011-08-09T08:04:50Z</time>
      </trkpt>
      <trkpt lat="44.5013" lon="2.31352">
        <ele>469.4</ele>
        <time>2011-08-09T08:04:53Z</time>
      </trkpt>
      <trkpt lat="44.50132" lon="2.31347">
        <ele>470</ele>
        <time>2011-08-09T08:04:56Z</time>
      </trkpt>
      <trkpt lat="44.50134" lon="2.31343">
        <ele>470.2</ele>
        <time>2011-08-09T08:04:58Z</time>
      </trkpt>
      <trkpt lat="44.50136" lon="2.31337">
        <ele>470.9</ele>
        <time>2011-08-09T08:05:01Z</time>
      </trkpt>
      <trkpt lat="44.50138" lon="2.31332">
        <ele>471.7</ele>
        <time>2011-08-09T08:05:04Z</time>
      </trkpt>
      <trkpt lat="44.5014" lon="2.31327">
        <ele>472.1</ele>
        <time>2011-08-09T08:05:07Z</time>
      </trkpt>
      <trkpt lat="44.50142" lon="2.31323">
        <ele>472.5</ele>
        <time>2011-08-09T08:05:09Z</time>
      </trkpt>
      <trkpt lat="44.50143" lon="2.31318">
        <ele>473.5</ele>
        <time>2011-08-09T08:05:12Z</time>
      </trkpt>
      <trkpt lat="44.50145" lon="2.31313">
        <ele>473.9</ele>
        <time>2011-08-09T08:05:15Z</time>
      </trkpt>
      <trkpt lat="44.50147" lon="2.31308">
        <ele>474.2</ele>
        <time>2011-08-09T08:05:18Z</time>
      </trkpt>
      <trkpt lat="44.50149" lon="2.31303">
        <ele>474.7</ele>
        <time>2011-08-09T08:05:21Z</time>
      </trkpt>
      <trkpt lat="44.50152" lon="2.31298">
        <ele>475.2</ele>
        <time>2011-08-09T08:05:24Z</time>
      </trkpt>
      <trkpt lat="44.50153" lon="2.31293">
        <ele>475.8</ele>
        <time>2011-08-09T08:05:27Z</time>
      </trkpt>
      <trkpt lat="44.50155" lon="2.31289">
        <ele>476.2</ele>
        <time>2011-08-09T08:05:30Z</time>
      </trkpt>
      <trkpt lat="44.50158" lon="2.31285">
        <ele>476.6</ele>
        <time>2011-08-09T08:05:33Z</time>
      </trkpt>
      <trkpt lat="44.50159" lon="2.31283">
        <ele>476.8</ele>
        <time>2011-08-09T08:05:34Z</time>
      </trkpt>
      <trkpt lat="44.50162" lon="2.31276">
        <ele>477.5</ele>
        <time>2011-08-09T08:05:39Z</time>
      </trkpt>
      <trkpt lat="44.50164" lon="2.31272">
        <ele>478.2</ele>
        <time>2011-08-09T08:05:42Z</time>
      </trkpt>
      <trkpt lat="44.50166" lon="2.31267">
        <ele>478.9</ele>
        <time>2011-08-09T08:05:45Z</time>
      </trkpt>
      <trkpt lat="44.50168" lon="2.31262">
        <ele>479.4</ele>
        <time>2011-08-09T08:05:48Z</time>
      </trkpt>
      <trkpt lat="44.5017" lon="2.31258">
        <ele>479.6</ele>
        <time>2011-08-09T08:05:51Z</time>
      </trkpt>
      <trkpt lat="44.50172" lon="2.31253">
        <ele>480.4</ele>
        <time>2011-08-09T08:05:54Z</time>
      </trkpt>
      <trkpt lat="44.50175" lon="2.31248">
        <ele>481.2</ele>
        <time>2011-08-09T08:05:57Z</time>
      </trkpt>
      <trkpt lat="44.50177" lon="2.31243">
        <ele>482.5</ele>
        <time>2011-08-09T08:06:00Z</time>
      </trkpt>
      <trkpt lat="44.50179" lon="2.31238">
        <ele>482.6</ele>
        <time>2011-08-09T08:06:03Z</time>
      </trkpt>
      <trkpt lat="44.50181" lon="2.31234">
        <ele>483.7</ele>
        <time>2011-08-09T08:06:06Z</time>
      </trkpt>
      <trkpt lat="44.50183" lon="2.31229">
        <ele>484.5</ele>
        <time>2011-08-09T08:06:09Z</time>
      </trkpt>
      <trkpt lat="44.50185" lon="2.31223">
        <ele>485.2</ele>
        <time>2011-08-09T08:06:12Z</time>
      </trkpt>
      <trkpt lat="44.50186" lon="2.31217">
        <ele>485.5</ele>
        <time>2011-08-09T08:06:15Z</time>
      </trkpt>
      <trkpt lat="44.50187" lon="2.31213">
        <ele>485.9</ele>
        <time>2011-08-09T08:06:17Z</time>
      </trkpt>
      <trkpt lat="44.50189" lon="2.31209">
        <ele>486.3</ele>
        <time>2011-08-09T08:06:19Z</time>
      </trkpt>
      <trkpt lat="44.5019" lon="2.31205">
        <ele>486.5</ele>
        <time>2011-08-09T08:06:21Z</time>
      </trkpt>
      <trkpt lat="44.50191" lon="2.312">
        <ele>486.4</ele>
        <time>2011-08-09T08:06:23Z</time>
      </trkpt>
      <trkpt lat="44.50192" lon="2.31196">
        <ele>486.4</ele>
        <time>2011-08-09T08:06:25Z</time>
      </trkpt>
      <trkpt lat="44.50192" lon="2.3119">
        <ele>486.4</ele>
        <time>2011-08-09T08:06:27Z</time>
      </trkpt>
      <trkpt lat="44.50193" lon="2.31185">
        <ele>486.3</ele>
        <time>2011-08-09T08:06:29Z</time>
      </trkpt>
      <trkpt lat="44.50194" lon="2.31179">
        <ele>485.9</ele>
        <time>2011-08-09T08:06:31Z</time>
      </trkpt>
      <trkpt lat="44.50195" lon="2.31176">
        <ele>485.7</ele>
        <time>2011-08-09T08:06:32Z</time>
      </trkpt>
      <trkpt lat="44.50195" lon="2.31172">
        <ele>485.8</ele>
        <time>2011-08-09T08:06:33Z</time>
      </trkpt>
      <trkpt lat="44.50195" lon="2.31169">
        <ele>485.9</ele>
        <time>2011-08-09T08:06:34Z</time>
      </trkpt>
      <trkpt lat="44.50195" lon="2.31165">
        <ele>485.9</ele>
        <time>2011-08-09T08:06:35Z</time>
      </trkpt>
      <trkpt lat="44.50195" lon="2.31162">
        <ele>486</ele>
        <time>2011-08-09T08:06:36Z</time>
      </trkpt>
      <trkpt lat="44.50196" lon="2.31158">
        <ele>486.1</ele>
        <time>2011-08-09T08:06:37Z</time>
      </trkpt>
      <trkpt lat="44.50196" lon="2.31154">
        <ele>486.2</ele>
        <time>2011-08-09T08:06:38Z</time>
      </trkpt>
      <trkpt lat="44.50195" lon="2.3115">
        <ele>486.3</ele>
        <time>2011-08-09T08:06:39Z</time>
      </trkpt>
      <trkpt lat="44.50195" lon="2.31146">
        <ele>485.9</ele>
        <time>2011-08-09T08:06:40Z</time>
      </trkpt>
      <trkpt lat="44.50194" lon="2.31142">
        <ele>485.6</ele>
        <time>2011-08-09T08:06:41Z</time>
      </trkpt>
      <trkpt lat="44.50193" lon="2.31139">
        <ele>485.4</ele>
        <time>2011-08-09T08:06:42Z</time>
      </trkpt>
      <trkpt lat="44.50191" lon="2.31136">
        <ele>485.1</ele>
        <time>2011-08-09T08:06:43Z</time>
      </trkpt>
      <trkpt lat="44.5019" lon="2.31132">
        <ele>484.8</ele>
        <time>2011-08-09T08:06:44Z</time>
      </trkpt>
      <trkpt lat="44.50188" lon="2.31129">
        <ele>484.6</ele>
        <time>2011-08-09T08:06:45Z</time>
      </trkpt>
      <trkpt lat="44.50187" lon="2.31126">
        <ele>483.9</ele>
        <time>2011-08-09T08:06:46Z</time>
      </trkpt>
      <trkpt lat="44.50186" lon="2.31124">
        <ele>483.3</ele>
        <time>2011-08-09T08:06:47Z</time>
      </trkpt>
      <trkpt lat="44.50185" lon="2.31121">
        <ele>482.9</ele>
        <time>2011-08-09T08:06:48Z</time>
      </trkpt>
      <trkpt lat="44.50184" lon="2.31118">
        <ele>482.7</ele>
        <time>2011-08-09T08:06:49Z</time>
      </trkpt>
      <trkpt lat="44.50183" lon="2.31115">
        <ele>482.6</ele>
        <time>2011-08-09T08:06:50Z</time>
      </trkpt>
      <trkpt lat="44.50181" lon="2.3111">
        <ele>482.4</ele>
        <time>2011-08-09T08:06:52Z</time>
      </trkpt>
      <trkpt lat="44.5018" lon="2.31104">
        <ele>482.8</ele>
        <time>2011-08-09T08:06:54Z</time>
      </trkpt>
      <trkpt lat="44.5018" lon="2.31099">
        <ele>482.7</ele>
        <time>2011-08-09T08:06:56Z</time>
      </trkpt>
      <trkpt lat="44.50179" lon="2.31096">
        <ele>482.5</ele>
        <time>2011-08-09T08:06:57Z</time>
      </trkpt>
      <trkpt lat="44.50179" lon="2.31092">
        <ele>482.4</ele>
        <time>2011-08-09T08:06:58Z</time>
      </trkpt>
      <trkpt lat="44.50178" lon="2.31088">
        <ele>481.8</ele>
        <time>2011-08-09T08:06:59Z</time>
      </trkpt>
      <trkpt lat="44.50175" lon="2.31083">
        <ele>481.5</ele>
        <time>2011-08-09T08:07:00Z</time>
      </trkpt>
      <trkpt lat="44.50173" lon="2.31076">
        <ele>481.2</ele>
        <time>2011-08-09T08:07:01Z</time>
      </trkpt>
      <trkpt lat="44.5017" lon="2.31069">
        <ele>480.6</ele>
        <time>2011-08-09T08:07:02Z</time>
      </trkpt>
      <trkpt lat="44.50167" lon="2.31063">
        <ele>480.2</ele>
        <time>2011-08-09T08:07:03Z</time>
      </trkpt>
      <trkpt lat="44.50165" lon="2.31057">
        <ele>479.9</ele>
        <time>2011-08-09T08:07:04Z</time>
      </trkpt>
      <trkpt lat="44.50162" lon="2.31052">
        <ele>478.9</ele>
        <time>2011-08-09T08:07:05Z</time>
      </trkpt>
      <trkpt lat="44.5016" lon="2.31047">
        <ele>478.1</ele>
        <time>2011-08-09T08:07:06Z</time>
      </trkpt>
      <trkpt lat="44.50157" lon="2.31041">
        <ele>477.6</ele>
        <time>2011-08-09T08:07:07Z</time>
      </trkpt>
      <trkpt lat="44.50153" lon="2.31036">
        <ele>477.1</ele>
        <time>2011-08-09T08:07:08Z</time>
      </trkpt>
      <trkpt lat="44.50148" lon="2.3103">
        <ele>476.4</ele>
        <time>2011-08-09T08:07:09Z</time>
      </trkpt>
      <trkpt lat="44.50142" lon="2.31025">
        <ele>475.8</ele>
        <time>2011-08-09T08:07:10Z</time>
      </trkpt>
      <trkpt lat="44.50136" lon="2.31019">
        <ele>475.4</ele>
        <time>2011-08-09T08:07:11Z</time>
      </trkpt>
      <trkpt lat="44.5013" lon="2.31014">
        <ele>473.9</ele>
        <time>2011-08-09T08:07:12Z</time>
      </trkpt>
      <trkpt lat="44.50123" lon="2.31007">
        <ele>472.8</ele>
        <time>2011-08-09T08:07:13Z</time>
      </trkpt>
      <trkpt lat="44.50117" lon="2.31">
        <ele>472</ele>
        <time>2011-08-09T08:07:14Z</time>
      </trkpt>
      <trkpt lat="44.50112" lon="2.30992">
        <ele>470.7</ele>
        <time>2011-08-09T08:07:15Z</time>
      </trkpt>
      <trkpt lat="44.50106" lon="2.30983">
        <ele>469.7</ele>
        <time>2011-08-09T08:07:16Z</time>
      </trkpt>
      <trkpt lat="44.50102" lon="2.30974">
        <ele>469</ele>
        <time>2011-08-09T08:07:17Z</time>
      </trkpt>
      <trkpt lat="44.50101" lon="2.30964">
        <ele>468.3</ele>
        <time>2011-08-09T08:07:18Z</time>
      </trkpt>
      <trkpt lat="44.50101" lon="2.30955">
        <ele>467.8</ele>
        <time>2011-08-09T08:07:19Z</time>
      </trkpt>
      <trkpt lat="44.50102" lon="2.30946">
        <ele>467.4</ele>
        <time>2011-08-09T08:07:20Z</time>
      </trkpt>
      <trkpt lat="44.50104" lon="2.30936">
        <ele>466.8</ele>
        <time>2011-08-09T08:07:21Z</time>
      </trkpt>
      <trkpt lat="44.50106" lon="2.30926">
        <ele>466.4</ele>
        <time>2011-08-09T08:07:22Z</time>
      </trkpt>
      <trkpt lat="44.50109" lon="2.30916">
        <ele>466.1</ele>
        <time>2011-08-09T08:07:23Z</time>
      </trkpt>
      <trkpt lat="44.50111" lon="2.30905">
        <ele>465.8</ele>
        <time>2011-08-09T08:07:24Z</time>
      </trkpt>
      <trkpt lat="44.50114" lon="2.30895">
        <ele>465.6</ele>
        <time>2011-08-09T08:07:25Z</time>
      </trkpt>
      <trkpt lat="44.50117" lon="2.30885">
        <ele>465.4</ele>
        <time>2011-08-09T08:07:26Z</time>
      </trkpt>
      <trkpt lat="44.50119" lon="2.30875">
        <ele>465.3</ele>
        <time>2011-08-09T08:07:27Z</time>
      </trkpt>
      <trkpt lat="44.5012" lon="2.30864">
        <ele>463.8</ele>
        <time>2011-08-09T08:07:28Z</time>
      </trkpt>
      <trkpt lat="44.50121" lon="2.30853">
        <ele>462.8</ele>
        <time>2011-08-09T08:07:29Z</time>
      </trkpt>
      <trkpt lat="44.5012" lon="2.30842">
        <ele>462</ele>
        <time>2011-08-09T08:07:30Z</time>
      </trkpt>
      <trkpt lat="44.50119" lon="2.30831">
        <ele>461.3</ele>
        <time>2011-08-09T08:07:31Z</time>
      </trkpt>
      <trkpt lat="44.50116" lon="2.30821">
        <ele>460.7</ele>
        <time>2011-08-09T08:07:32Z</time>
      </trkpt>
      <trkpt lat="44.50114" lon="2.30809">
        <ele>460.3</ele>
        <time>2011-08-09T08:07:33Z</time>
      </trkpt>
      <trkpt lat="44.50113" lon="2.30798">
        <ele>459</ele>
        <time>2011-08-09T08:07:34Z</time>
      </trkpt>
      <trkpt lat="44.50113" lon="2.30788">
        <ele>458.1</ele>
        <time>2011-08-09T08:07:35Z</time>
      </trkpt>
      <trkpt lat="44.50112" lon="2.30777">
        <ele>457.4</ele>
        <time>2011-08-09T08:07:36Z</time>
      </trkpt>
      <trkpt lat="44.5011" lon="2.30767">
        <ele>456.4</ele>
        <time>2011-08-09T08:07:37Z</time>
      </trkpt>
      <trkpt lat="44.50107" lon="2.30758">
        <ele>455.7</ele>
        <time>2011-08-09T08:07:38Z</time>
      </trkpt>
      <trkpt lat="44.50103" lon="2.30749">
        <ele>455.1</ele>
        <time>2011-08-09T08:07:39Z</time>
      </trkpt>
      <trkpt lat="44.50098" lon="2.30741">
        <ele>454.2</ele>
        <time>2011-08-09T08:07:40Z</time>
      </trkpt>
      <trkpt lat="44.50092" lon="2.30731">
        <ele>453.5</ele>
        <time>2011-08-09T08:07:41Z</time>
      </trkpt>
      <trkpt lat="44.50086" lon="2.30722">
        <ele>453</ele>
        <time>2011-08-09T08:07:42Z</time>
      </trkpt>
      <trkpt lat="44.50081" lon="2.30712">
        <ele>452.6</ele>
        <time>2011-08-09T08:07:43Z</time>
      </trkpt>
      <trkpt lat="44.50077" lon="2.30702">
        <ele>451.1</ele>
        <time>2011-08-09T08:07:44Z</time>
      </trkpt>
      <trkpt lat="44.50072" lon="2.30692">
        <ele>450.1</ele>
        <time>2011-08-09T08:07:45Z</time>
      </trkpt>
      <trkpt lat="44.50068" lon="2.30684">
        <ele>449.3</ele>
        <time>2011-08-09T08:07:46Z</time>
      </trkpt>
      <trkpt lat="44.50064" lon="2.30677">
        <ele>449</ele>
        <time>2011-08-09T08:07:47Z</time>
      </trkpt>
      <trkpt lat="44.5006" lon="2.30669">
        <ele>448.7</ele>
        <time>2011-08-09T08:07:48Z</time>
      </trkpt>
      <trkpt lat="44.50058" lon="2.30661">
        <ele>448.6</ele>
        <time>2011-08-09T08:07:49Z</time>
      </trkpt>
      <trkpt lat="44.50055" lon="2.30653">
        <ele>448.1</ele>
        <time>2011-08-09T08:07:50Z</time>
      </trkpt>
      <trkpt lat="44.50053" lon="2.30645">
        <ele>447.8</ele>
        <time>2011-08-09T08:07:51Z</time>
      </trkpt>
      <trkpt lat="44.5005" lon="2.30638">
        <ele>447.5</ele>
        <time>2011-08-09T08:07:52Z</time>
      </trkpt>
      <trkpt lat="44.50048" lon="2.30632">
        <ele>447</ele>
        <time>2011-08-09T08:07:53Z</time>
      </trkpt>
      <trkpt lat="44.50046" lon="2.30625">
        <ele>446.6</ele>
        <time>2011-08-09T08:07:54Z</time>
      </trkpt>
      <trkpt lat="44.50043" lon="2.3062">
        <ele>446.4</ele>
        <time>2011-08-09T08:07:55Z</time>
      </trkpt>
      <trkpt lat="44.50042" lon="2.30614">
        <ele>446.3</ele>
        <time>2011-08-09T08:07:56Z</time>
      </trkpt>
      <trkpt lat="44.5004" lon="2.30607">
        <ele>446.3</ele>
        <time>2011-08-09T08:07:57Z</time>
      </trkpt>
      <trkpt lat="44.50037" lon="2.306">
        <ele>446.3</ele>
        <time>2011-08-09T08:07:58Z</time>
      </trkpt>
      <trkpt lat="44.50036" lon="2.30594">
        <ele>446.3</ele>
        <time>2011-08-09T08:07:59Z</time>
      </trkpt>
      <trkpt lat="44.50034" lon="2.30586">
        <ele>445.5</ele>
        <time>2011-08-09T08:08:00Z</time>
      </trkpt>
      <trkpt lat="44.50032" lon="2.30578">
        <ele>444.9</ele>
        <time>2011-08-09T08:08:01Z</time>
      </trkpt>
      <trkpt lat="44.5003" lon="2.30569">
        <ele>444.5</ele>
        <time>2011-08-09T08:08:02Z</time>
      </trkpt>
      <trkpt lat="44.50029" lon="2.3056">
        <ele>443.7</ele>
        <time>2011-08-09T08:08:03Z</time>
      </trkpt>
      <trkpt lat="44.50027" lon="2.3055">
        <ele>443.1</ele>
        <time>2011-08-09T08:08:04Z</time>
      </trkpt>
      <trkpt lat="44.50025" lon="2.30541">
        <ele>442.6</ele>
        <time>2011-08-09T08:08:05Z</time>
      </trkpt>
      <trkpt lat="44.50024" lon="2.30531">
        <ele>441.8</ele>
        <time>2011-08-09T08:08:06Z</time>
      </trkpt>
      <trkpt lat="44.50023" lon="2.30521">
        <ele>441.2</ele>
        <time>2011-08-09T08:08:07Z</time>
      </trkpt>
      <trkpt lat="44.50022" lon="2.30511">
        <ele>440.7</ele>
        <time>2011-08-09T08:08:08Z</time>
      </trkpt>
      <trkpt lat="44.5002" lon="2.305">
        <ele>439.9</ele>
        <time>2011-08-09T08:08:09Z</time>
      </trkpt>
      <trkpt lat="44.50017" lon="2.30491">
        <ele>439.2</ele>
        <time>2011-08-09T08:08:10Z</time>
      </trkpt>
      <trkpt lat="44.50013" lon="2.30481">
        <ele>438.7</ele>
        <time>2011-08-09T08:08:11Z</time>
      </trkpt>
      <trkpt lat="44.5001" lon="2.30471">
        <ele>437.9</ele>
        <time>2011-08-09T08:08:12Z</time>
      </trkpt>
      <trkpt lat="44.50008" lon="2.30459">
        <ele>437.3</ele>
        <time>2011-08-09T08:08:13Z</time>
      </trkpt>
      <trkpt lat="44.50008" lon="2.30448">
        <ele>436.9</ele>
        <time>2011-08-09T08:08:14Z</time>
      </trkpt>
      <trkpt lat="44.50009" lon="2.30436">
        <ele>436.5</ele>
        <time>2011-08-09T08:08:15Z</time>
      </trkpt>
      <trkpt lat="44.50011" lon="2.30425">
        <ele>435.7</ele>
        <time>2011-08-09T08:08:16Z</time>
      </trkpt>
      <trkpt lat="44.50012" lon="2.30416">
        <ele>435.1</ele>
        <time>2011-08-09T08:08:17Z</time>
      </trkpt>
      <trkpt lat="44.50012" lon="2.30408">
        <ele>434.6</ele>
        <time>2011-08-09T08:08:18Z</time>
      </trkpt>
      <trkpt lat="44.50011" lon="2.30401">
        <ele>434</ele>
        <time>2011-08-09T08:08:19Z</time>
      </trkpt>
      <trkpt lat="44.50008" lon="2.30396">
        <ele>433.6</ele>
        <time>2011-08-09T08:08:20Z</time>
      </trkpt>
      <trkpt lat="44.50004" lon="2.30392">
        <ele>433.3</ele>
        <time>2011-08-09T08:08:21Z</time>
      </trkpt>
      <trkpt lat="44.5" lon="2.30389">
        <ele>432.7</ele>
        <time>2011-08-09T08:08:22Z</time>
      </trkpt>
      <trkpt lat="44.49997" lon="2.30386">
        <ele>432.3</ele>
        <time>2011-08-09T08:08:23Z</time>
      </trkpt>
      <trkpt lat="44.49994" lon="2.30383">
        <ele>432</ele>
        <time>2011-08-09T08:08:24Z</time>
      </trkpt>
      <trkpt lat="44.49991" lon="2.3038">
        <ele>432.1</ele>
        <time>2011-08-09T08:08:25Z</time>
      </trkpt>
      <trkpt lat="44.49989" lon="2.30376">
        <ele>432.1</ele>
        <time>2011-08-09T08:08:26Z</time>
      </trkpt>
      <trkpt lat="44.49988" lon="2.30371">
        <ele>432.2</ele>
        <time>2011-08-09T08:08:27Z</time>
      </trkpt>
      <trkpt lat="44.49987" lon="2.30366">
        <ele>432</ele>
        <time>2011-08-09T08:08:28Z</time>
      </trkpt>
      <trkpt lat="44.49987" lon="2.30361">
        <ele>431.9</ele>
        <time>2011-08-09T08:08:29Z</time>
      </trkpt>
      <trkpt lat="44.49988" lon="2.30357">
        <ele>431.8</ele>
        <time>2011-08-09T08:08:30Z</time>
      </trkpt>
      <trkpt lat="44.49988" lon="2.30353">
        <ele>431.7</ele>
        <time>2011-08-09T08:08:31Z</time>
      </trkpt>
      <trkpt lat="44.49989" lon="2.30349">
        <ele>432.1</ele>
        <time>2011-08-09T08:08:32Z</time>
      </trkpt>
      <trkpt lat="44.4999" lon="2.30345">
        <ele>432.4</ele>
        <time>2011-08-09T08:08:33Z</time>
      </trkpt>
      <trkpt lat="44.4999" lon="2.30342">
        <ele>432.6</ele>
        <time>2011-08-09T08:08:34Z</time>
      </trkpt>
      <trkpt lat="44.49991" lon="2.30338">
        <ele>432.5</ele>
        <time>2011-08-09T08:08:35Z</time>
      </trkpt>
      <trkpt lat="44.49991" lon="2.30333">
        <ele>432.5</ele>
        <time>2011-08-09T08:08:36Z</time>
      </trkpt>
      <trkpt lat="44.4999" lon="2.30327">
        <ele>432.5</ele>
        <time>2011-08-09T08:08:37Z</time>
      </trkpt>
      <trkpt lat="44.49989" lon="2.30322">
        <ele>432.4</ele>
        <time>2011-08-09T08:08:38Z</time>
      </trkpt>
      <trkpt lat="44.49988" lon="2.30317">
        <ele>432.3</ele>
        <time>2011-08-09T08:08:39Z</time>
      </trkpt>
      <trkpt lat="44.49987" lon="2.30313">
        <ele>432.2</ele>
        <time>2011-08-09T08:08:40Z</time>
      </trkpt>
      <trkpt lat="44.49986" lon="2.30309">
        <ele>432</ele>
        <time>2011-08-09T08:08:41Z</time>
      </trkpt>
      <trkpt lat="44.49984" lon="2.30306">
        <ele>431.8</ele>
        <time>2011-08-09T08:08:42Z</time>
      </trkpt>
      <trkpt lat="44.49982" lon="2.30303">
        <ele>431.7</ele>
        <time>2011-08-09T08:08:43Z</time>
      </trkpt>
      <trkpt lat="44.4998" lon="2.30299">
        <ele>431.4</ele>
        <time>2011-08-09T08:08:44Z</time>
      </trkpt>
      <trkpt lat="44.49979" lon="2.30296">
        <ele>431.2</ele>
        <time>2011-08-09T08:08:45Z</time>
      </trkpt>
      <trkpt lat="44.49977" lon="2.30293">
        <ele>431</ele>
        <time>2011-08-09T08:08:46Z</time>
      </trkpt>
      <trkpt lat="44.49975" lon="2.3029">
        <ele>430.8</ele>
        <time>2011-08-09T08:08:47Z</time>
      </trkpt>
      <trkpt lat="44.49973" lon="2.30286">
        <ele>430.6</ele>
        <time>2011-08-09T08:08:48Z</time>
      </trkpt>
      <trkpt lat="44.49972" lon="2.30283">
        <ele>430.4</ele>
        <time>2011-08-09T08:08:49Z</time>
      </trkpt>
      <trkpt lat="44.4997" lon="2.30279">
        <ele>430.3</ele>
        <time>2011-08-09T08:08:50Z</time>
      </trkpt>
      <trkpt lat="44.49969" lon="2.30275">
        <ele>430.5</ele>
        <time>2011-08-09T08:08:51Z</time>
      </trkpt>
      <trkpt lat="44.49967" lon="2.30271">
        <ele>430.5</ele>
        <time>2011-08-09T08:08:52Z</time>
      </trkpt>
      <trkpt lat="44.49966" lon="2.30266">
        <ele>430.6</ele>
        <time>2011-08-09T08:08:53Z</time>
      </trkpt>
      <trkpt lat="44.49965" lon="2.30261">
        <ele>431</ele>
        <time>2011-08-09T08:08:54Z</time>
      </trkpt>
      <trkpt lat="44.49964" lon="2.30256">
        <ele>431.4</ele>
        <time>2011-08-09T08:08:55Z</time>
      </trkpt>
      <trkpt lat="44.49964" lon="2.30251">
        <ele>431.6</ele>
        <time>2011-08-09T08:08:56Z</time>
      </trkpt>
      <trkpt lat="44.49963" lon="2.30245">
        <ele>432.2</ele>
        <time>2011-08-09T08:08:57Z</time>
      </trkpt>
      <trkpt lat="44.49962" lon="2.30239">
        <ele>432.7</ele>
        <time>2011-08-09T08:08:58Z</time>
      </trkpt>
      <trkpt lat="44.49961" lon="2.30233">
        <ele>433</ele>
        <time>2011-08-09T08:08:59Z</time>
      </trkpt>
      <trkpt lat="44.49961" lon="2.30228">
        <ele>432</ele>
        <time>2011-08-09T08:09:00Z</time>
      </trkpt>
      <trkpt lat="44.4996" lon="2.30222">
        <ele>431.2</ele>
        <time>2011-08-09T08:09:01Z</time>
      </trkpt>
      <trkpt lat="44.4996" lon="2.30215">
        <ele>430.6</ele>
        <time>2011-08-09T08:09:02Z</time>
      </trkpt>
      <trkpt lat="44.4996" lon="2.3021">
        <ele>429.7</ele>
        <time>2011-08-09T08:09:03Z</time>
      </trkpt>
      <trkpt lat="44.4996" lon="2.30204">
        <ele>429.1</ele>
        <time>2011-08-09T08:09:04Z</time>
      </trkpt>
      <trkpt lat="44.49961" lon="2.30198">
        <ele>428.5</ele>
        <time>2011-08-09T08:09:05Z</time>
      </trkpt>
      <trkpt lat="44.49961" lon="2.30193">
        <ele>428.2</ele>
        <time>2011-08-09T08:09:06Z</time>
      </trkpt>
      <trkpt lat="44.49962" lon="2.30188">
        <ele>428</ele>
        <time>2011-08-09T08:09:07Z</time>
      </trkpt>
      <trkpt lat="44.49962" lon="2.30183">
        <ele>427.9</ele>
        <time>2011-08-09T08:09:08Z</time>
      </trkpt>
      <trkpt lat="44.49963" lon="2.30178">
        <ele>427.8</ele>
        <time>2011-08-09T08:09:09Z</time>
      </trkpt>
      <trkpt lat="44.49963" lon="2.30173">
        <ele>427.7</ele>
        <time>2011-08-09T08:09:10Z</time>
      </trkpt>
      <trkpt lat="44.49963" lon="2.30169">
        <ele>427.7</ele>
        <time>2011-08-09T08:09:11Z</time>
      </trkpt>
      <trkpt lat="44.49963" lon="2.30166">
        <ele>427.6</ele>
        <time>2011-08-09T08:09:12Z</time>
      </trkpt>
      <trkpt lat="44.49961" lon="2.30163">
        <ele>427.5</ele>
        <time>2011-08-09T08:09:13Z</time>
      </trkpt>
      <trkpt lat="44.49959" lon="2.3016">
        <ele>427.4</ele>
        <time>2011-08-09T08:09:14Z</time>
      </trkpt>
      <trkpt lat="44.49956" lon="2.30157">
        <ele>427.3</ele>
        <time>2011-08-09T08:09:15Z</time>
      </trkpt>
      <trkpt lat="44.49953" lon="2.30155">
        <ele>427.2</ele>
        <time>2011-08-09T08:09:16Z</time>
      </trkpt>
      <trkpt lat="44.4995" lon="2.30153">
        <ele>427.2</ele>
        <time>2011-08-09T08:09:17Z</time>
      </trkpt>
      <trkpt lat="44.49946" lon="2.3015">
        <ele>427.1</ele>
        <time>2011-08-09T08:09:18Z</time>
      </trkpt>
      <trkpt lat="44.49941" lon="2.30148">
        <ele>426.6</ele>
        <time>2011-08-09T08:09:19Z</time>
      </trkpt>
      <trkpt lat="44.49938" lon="2.30146">
        <ele>426.2</ele>
        <time>2011-08-09T08:09:20Z</time>
      </trkpt>
      <trkpt lat="44.49935" lon="2.30144">
        <ele>426</ele>
        <time>2011-08-09T08:09:21Z</time>
      </trkpt>
      <trkpt lat="44.49932" lon="2.30141">
        <ele>425.7</ele>
        <time>2011-08-09T08:09:22Z</time>
      </trkpt>
      <trkpt lat="44.49929" lon="2.30137">
        <ele>425.6</ele>
        <time>2011-08-09T08:09:23Z</time>
      </trkpt>
      <trkpt lat="44.49925" lon="2.30134">
        <ele>425.4</ele>
        <time>2011-08-09T08:09:24Z</time>
      </trkpt>
      <trkpt lat="44.49921" lon="2.30132">
        <ele>425.3</ele>
        <time>2011-08-09T08:09:25Z</time>
      </trkpt>
      <trkpt lat="44.49917" lon="2.30131">
        <ele>425.2</ele>
        <time>2011-08-09T08:09:26Z</time>
      </trkpt>
      <trkpt lat="44.49912" lon="2.3013">
        <ele>425</ele>
        <time>2011-08-09T08:09:27Z</time>
      </trkpt>
      <trkpt lat="44.49907" lon="2.30127">
        <ele>425</ele>
        <time>2011-08-09T08:09:28Z</time>
      </trkpt>
      <trkpt lat="44.49902" lon="2.30122">
        <ele>424.4</ele>
        <time>2011-08-09T08:09:29Z</time>
      </trkpt>
      <trkpt lat="44.49898" lon="2.30115">
        <ele>423.9</ele>
        <time>2011-08-09T08:09:30Z</time>
      </trkpt>
      <trkpt lat="44.49895" lon="2.30107">
        <ele>423.6</ele>
        <time>2011-08-09T08:09:31Z</time>
      </trkpt>
      <trkpt lat="44.49892" lon="2.30098">
        <ele>422.8</ele>
        <time>2011-08-09T08:09:32Z</time>
      </trkpt>
      <trkpt lat="44.4989" lon="2.30089">
        <ele>422.2</ele>
        <time>2011-08-09T08:09:33Z</time>
      </trkpt>
      <trkpt lat="44.49887" lon="2.3008">
        <ele>421.7</ele>
        <time>2011-08-09T08:09:34Z</time>
      </trkpt>
      <trkpt lat="44.49885" lon="2.3007">
        <ele>421</ele>
        <time>2011-08-09T08:09:35Z</time>
      </trkpt>
      <trkpt lat="44.49883" lon="2.3006">
        <ele>420.5</ele>
        <time>2011-08-09T08:09:36Z</time>
      </trkpt>
      <trkpt lat="44.49881" lon="2.30049">
        <ele>420.2</ele>
        <time>2011-08-09T08:09:37Z</time>
      </trkpt>
      <trkpt lat="44.49879" lon="2.30038">
        <ele>419.9</ele>
        <time>2011-08-09T08:09:38Z</time>
      </trkpt>
      <trkpt lat="44.49876" lon="2.30027">
        <ele>418.5</ele>
        <time>2011-08-09T08:09:39Z</time>
      </trkpt>
      <trkpt lat="44.49873" lon="2.30018">
        <ele>417.5</ele>
        <time>2011-08-09T08:09:40Z</time>
      </trkpt>
      <trkpt lat="44.49869" lon="2.30008">
        <ele>416.8</ele>
        <time>2011-08-09T08:09:41Z</time>
      </trkpt>
      <trkpt lat="44.49864" lon="2.30001">
        <ele>416.1</ele>
        <time>2011-08-09T08:09:42Z</time>
      </trkpt>
      <trkpt lat="44.49859" lon="2.29994">
        <ele>415.6</ele>
        <time>2011-08-09T08:09:43Z</time>
      </trkpt>
      <trkpt lat="44.49853" lon="2.29988">
        <ele>415.2</ele>
        <time>2011-08-09T08:09:44Z</time>
      </trkpt>
      <trkpt lat="44.49848" lon="2.29981">
        <ele>414.6</ele>
        <time>2011-08-09T08:09:45Z</time>
      </trkpt>
      <trkpt lat="44.49844" lon="2.29976">
        <ele>414.2</ele>
        <time>2011-08-09T08:09:46Z</time>
      </trkpt>
      <trkpt lat="44.49841" lon="2.29972">
        <ele>413.8</ele>
        <time>2011-08-09T08:09:47Z</time>
      </trkpt>
      <trkpt lat="44.49839" lon="2.2997">
        <ele>413.3</ele>
        <time>2011-08-09T08:09:48Z</time>
      </trkpt>
      <trkpt lat="44.49836" lon="2.29966">
        <ele>412.6</ele>
        <time>2011-08-09T08:09:52Z</time>
      </trkpt>
      <trkpt lat="44.49833" lon="2.29962">
        <ele>412.3</ele>
        <time>2011-08-09T08:09:59Z</time>
      </trkpt>
      <trkpt lat="44.49829" lon="2.29959">
        <ele>410.3</ele>
        <time>2011-08-09T08:10:13Z</time>
      </trkpt>
      <trkpt lat="44.49826" lon="2.29954">
        <ele>412.4</ele>
        <time>2011-08-09T08:11:31Z</time>
      </trkpt>
      <trkpt lat="44.49826" lon="2.29954">
        <ele>412</ele>
        <time>2011-08-09T08:11:32Z</time>
      </trkpt>
      <trkpt lat="44.49822" lon="2.29945">
        <ele>411.3</ele>
        <time>2011-08-09T08:11:58Z</time>
      </trkpt>
      <trkpt lat="44.49821" lon="2.2994">
        <ele>411.7</ele>
        <time>2011-08-09T08:12:00Z</time>
      </trkpt>
      <trkpt lat="44.4982" lon="2.29937">
        <ele>411.8</ele>
        <time>2011-08-09T08:12:01Z</time>
      </trkpt>
      <trkpt lat="44.49819" lon="2.29933">
        <ele>411.9</ele>
        <time>2011-08-09T08:12:02Z</time>
      </trkpt>
      <trkpt lat="44.49819" lon="2.2993">
        <ele>412</ele>
        <time>2011-08-09T08:12:03Z</time>
      </trkpt>
      <trkpt lat="44.49818" lon="2.29924">
        <ele>412.1</ele>
        <time>2011-08-09T08:12:05Z</time>
      </trkpt>
      <trkpt lat="44.49818" lon="2.29921">
        <ele>412</ele>
        <time>2011-08-09T08:12:06Z</time>
      </trkpt>
      <trkpt lat="44.49817" lon="2.29917">
        <ele>412</ele>
        <time>2011-08-09T08:12:07Z</time>
      </trkpt>
      <trkpt lat="44.49817" lon="2.29914">
        <ele>412</ele>
        <time>2011-08-09T08:12:08Z</time>
      </trkpt>
      <trkpt lat="44.49818" lon="2.29908">
        <ele>411.9</ele>
        <time>2011-08-09T08:12:10Z</time>
      </trkpt>
      <trkpt lat="44.49819" lon="2.29904">
        <ele>411.9</ele>
        <time>2011-08-09T08:12:11Z</time>
      </trkpt>
      <trkpt lat="44.49819" lon="2.29901">
        <ele>412.1</ele>
        <time>2011-08-09T08:12:12Z</time>
      </trkpt>
      <trkpt lat="44.4982" lon="2.29897">
        <ele>412.2</ele>
        <time>2011-08-09T08:12:13Z</time>
      </trkpt>
      <trkpt lat="44.49822" lon="2.29894">
        <ele>412.3</ele>
        <time>2011-08-09T08:12:14Z</time>
      </trkpt>
      <trkpt lat="44.49823" lon="2.29891">
        <ele>412.3</ele>
        <time>2011-08-09T08:12:15Z</time>
      </trkpt>
      <trkpt lat="44.49824" lon="2.29887">
        <ele>412.3</ele>
        <time>2011-08-09T08:12:16Z</time>
      </trkpt>
      <trkpt lat="44.49825" lon="2.29884">
        <ele>412.3</ele>
        <time>2011-08-09T08:12:17Z</time>
      </trkpt>
      <trkpt lat="44.49826" lon="2.2988">
        <ele>412.1</ele>
        <time>2011-08-09T08:12:18Z</time>
      </trkpt>
      <trkpt lat="44.49828" lon="2.29877">
        <ele>412</ele>
        <time>2011-08-09T08:12:19Z</time>
      </trkpt>
      <trkpt lat="44.49829" lon="2.29874">
        <ele>411.9</ele>
        <time>2011-08-09T08:12:20Z</time>
      </trkpt>
      <trkpt lat="44.4983" lon="2.2987">
        <ele>411.5</ele>
        <time>2011-08-09T08:12:21Z</time>
      </trkpt>
      <trkpt lat="44.49831" lon="2.29867">
        <ele>411.3</ele>
        <time>2011-08-09T08:12:22Z</time>
      </trkpt>
      <trkpt lat="44.49832" lon="2.29864">
        <ele>411.1</ele>
        <time>2011-08-09T08:12:23Z</time>
      </trkpt>
      <trkpt lat="44.49834" lon="2.2986">
        <ele>410.9</ele>
        <time>2011-08-09T08:12:24Z</time>
      </trkpt>
      <trkpt lat="44.49835" lon="2.29856">
        <ele>411.2</ele>
        <time>2011-08-09T08:12:25Z</time>
      </trkpt>
      <trkpt lat="44.49836" lon="2.29853">
        <ele>411.4</ele>
        <time>2011-08-09T08:12:26Z</time>
      </trkpt>
      <trkpt lat="44.49838" lon="2.29849">
        <ele>411.6</ele>
        <time>2011-08-09T08:12:27Z</time>
      </trkpt>
      <trkpt lat="44.49839" lon="2.29846">
        <ele>411.9</ele>
        <time>2011-08-09T08:12:28Z</time>
      </trkpt>
      <trkpt lat="44.4984" lon="2.29842">
        <ele>412.1</ele>
        <time>2011-08-09T08:12:29Z</time>
      </trkpt>
      <trkpt lat="44.49842" lon="2.29839">
        <ele>412.2</ele>
        <time>2011-08-09T08:12:30Z</time>
      </trkpt>
      <trkpt lat="44.49844" lon="2.29835">
        <ele>412.3</ele>
        <time>2011-08-09T08:12:31Z</time>
      </trkpt>
      <trkpt lat="44.49846" lon="2.29831">
        <ele>412.3</ele>
        <time>2011-08-09T08:12:32Z</time>
      </trkpt>
      <trkpt lat="44.49849" lon="2.29828">
        <ele>412.4</ele>
        <time>2011-08-09T08:12:33Z</time>
      </trkpt>
      <trkpt lat="44.49853" lon="2.29824">
        <ele>412</ele>
        <time>2011-08-09T08:12:34Z</time>
      </trkpt>
      <trkpt lat="44.49856" lon="2.2982">
        <ele>411.8</ele>
        <time>2011-08-09T08:12:35Z</time>
      </trkpt>
      <trkpt lat="44.4986" lon="2.29816">
        <ele>411.6</ele>
        <time>2011-08-09T08:12:36Z</time>
      </trkpt>
      <trkpt lat="44.49864" lon="2.29811">
        <ele>410.9</ele>
        <time>2011-08-09T08:12:37Z</time>
      </trkpt>
      <trkpt lat="44.49868" lon="2.29805">
        <ele>410.3</ele>
        <time>2011-08-09T08:12:38Z</time>
      </trkpt>
      <trkpt lat="44.49871" lon="2.29799">
        <ele>409.9</ele>
        <time>2011-08-09T08:12:39Z</time>
      </trkpt>
      <trkpt lat="44.49873" lon="2.29791">
        <ele>409.5</ele>
        <time>2011-08-09T08:12:40Z</time>
      </trkpt>
      <trkpt lat="44.49875" lon="2.29784">
        <ele>409.3</ele>
        <time>2011-08-09T08:12:41Z</time>
      </trkpt>
      <trkpt lat="44.49876" lon="2.29777">
        <ele>409.1</ele>
        <time>2011-08-09T08:12:42Z</time>
      </trkpt>
      <trkpt lat="44.49877" lon="2.2977">
        <ele>408.9</ele>
        <time>2011-08-09T08:12:43Z</time>
      </trkpt>
      <trkpt lat="44.49877" lon="2.29763">
        <ele>408.6</ele>
        <time>2011-08-09T08:12:44Z</time>
      </trkpt>
      <trkpt lat="44.49878" lon="2.29756">
        <ele>408.4</ele>
        <time>2011-08-09T08:12:45Z</time>
      </trkpt>
      <trkpt lat="44.49878" lon="2.29749">
        <ele>408.2</ele>
        <time>2011-08-09T08:12:46Z</time>
      </trkpt>
      <trkpt lat="44.49879" lon="2.29742">
        <ele>407.7</ele>
        <time>2011-08-09T08:12:47Z</time>
      </trkpt>
      <trkpt lat="44.49879" lon="2.29735">
        <ele>407.3</ele>
        <time>2011-08-09T08:12:48Z</time>
      </trkpt>
      <trkpt lat="44.4988" lon="2.29728">
        <ele>407</ele>
        <time>2011-08-09T08:12:49Z</time>
      </trkpt>
      <trkpt lat="44.4988" lon="2.29722">
        <ele>407</ele>
        <time>2011-08-09T08:12:50Z</time>
      </trkpt>
      <trkpt lat="44.49881" lon="2.29716">
        <ele>407</ele>
        <time>2011-08-09T08:12:51Z</time>
      </trkpt>
      <trkpt lat="44.49881" lon="2.2971">
        <ele>407</ele>
        <time>2011-08-09T08:12:52Z</time>
      </trkpt>
      <trkpt lat="44.49882" lon="2.29705">
        <ele>407.1</ele>
        <time>2011-08-09T08:12:53Z</time>
      </trkpt>
      <trkpt lat="44.49882" lon="2.297">
        <ele>407.2</ele>
        <time>2011-08-09T08:12:54Z</time>
      </trkpt>
      <trkpt lat="44.49882" lon="2.29694">
        <ele>407.2</ele>
        <time>2011-08-09T08:12:55Z</time>
      </trkpt>
      <trkpt lat="44.49882" lon="2.29689">
        <ele>407.4</ele>
        <time>2011-08-09T08:12:56Z</time>
      </trkpt>
      <trkpt lat="44.49882" lon="2.29682">
        <ele>407.6</ele>
        <time>2011-08-09T08:12:57Z</time>
      </trkpt>
      <trkpt lat="44.49882" lon="2.29676">
        <ele>407.7</ele>
        <time>2011-08-09T08:12:58Z</time>
      </trkpt>
      <trkpt lat="44.49883" lon="2.29671">
        <ele>407.8</ele>
        <time>2011-08-09T08:12:59Z</time>
      </trkpt>
      <trkpt lat="44.49883" lon="2.29664">
        <ele>407.5</ele>
        <time>2011-08-09T08:13:00Z</time>
      </trkpt>
      <trkpt lat="44.49883" lon="2.29659">
        <ele>407.3</ele>
        <time>2011-08-09T08:13:01Z</time>
      </trkpt>
      <trkpt lat="44.49883" lon="2.29653">
        <ele>407.1</ele>
        <time>2011-08-09T08:13:02Z</time>
      </trkpt>
      <trkpt lat="44.49883" lon="2.29647">
        <ele>407.1</ele>
        <time>2011-08-09T08:13:03Z</time>
      </trkpt>
      <trkpt lat="44.49883" lon="2.29642">
        <ele>407</ele>
        <time>2011-08-09T08:13:04Z</time>
      </trkpt>
      <trkpt lat="44.49883" lon="2.29636">
        <ele>407</ele>
        <time>2011-08-09T08:13:05Z</time>
      </trkpt>
      <trkpt lat="44.49883" lon="2.29631">
        <ele>406.8</ele>
        <time>2011-08-09T08:13:06Z</time>
      </trkpt>
      <trkpt lat="44.49883" lon="2.29625">
        <ele>406.6</ele>
        <time>2011-08-09T08:13:07Z</time>
      </trkpt>
      <trkpt lat="44.49883" lon="2.2962">
        <ele>406.5</ele>
        <time>2011-08-09T08:13:08Z</time>
      </trkpt>
      <trkpt lat="44.49883" lon="2.29614">
        <ele>406.3</ele>
        <time>2011-08-09T08:13:09Z</time>
      </trkpt>
      <trkpt lat="44.49883" lon="2.29608">
        <ele>406.1</ele>
        <time>2011-08-09T08:13:10Z</time>
      </trkpt>
      <trkpt lat="44.49883" lon="2.29602">
        <ele>405.9</ele>
        <time>2011-08-09T08:13:11Z</time>
      </trkpt>
      <trkpt lat="44.49882" lon="2.29596">
        <ele>405.8</ele>
        <time>2011-08-09T08:13:12Z</time>
      </trkpt>
      <trkpt lat="44.49881" lon="2.2959">
        <ele>405.7</ele>
        <time>2011-08-09T08:13:13Z</time>
      </trkpt>
      <trkpt lat="44.4988" lon="2.29583">
        <ele>405.6</ele>
        <time>2011-08-09T08:13:14Z</time>
      </trkpt>
      <trkpt lat="44.49878" lon="2.29576">
        <ele>405.6</ele>
        <time>2011-08-09T08:13:15Z</time>
      </trkpt>
      <trkpt lat="44.49876" lon="2.2957">
        <ele>404.8</ele>
        <time>2011-08-09T08:13:16Z</time>
      </trkpt>
      <trkpt lat="44.49874" lon="2.29563">
        <ele>404.3</ele>
        <time>2011-08-09T08:13:17Z</time>
      </trkpt>
      <trkpt lat="44.49871" lon="2.29555">
        <ele>403.9</ele>
        <time>2011-08-09T08:13:18Z</time>
      </trkpt>
      <trkpt lat="44.49869" lon="2.29548">
        <ele>403.5</ele>
        <time>2011-08-09T08:13:19Z</time>
      </trkpt>
      <trkpt lat="44.49867" lon="2.2954">
        <ele>403.3</ele>
        <time>2011-08-09T08:13:20Z</time>
      </trkpt>
      <trkpt lat="44.49864" lon="2.29534">
        <ele>403.1</ele>
        <time>2011-08-09T08:13:21Z</time>
      </trkpt>
      <trkpt lat="44.49862" lon="2.29527">
        <ele>402.3</ele>
        <time>2011-08-09T08:13:22Z</time>
      </trkpt>
      <trkpt lat="44.4986" lon="2.29522">
        <ele>401.7</ele>
        <time>2011-08-09T08:13:23Z</time>
      </trkpt>
      <trkpt lat="44.49859" lon="2.29517">
        <ele>401.2</ele>
        <time>2011-08-09T08:13:24Z</time>
      </trkpt>
      <trkpt lat="44.49857" lon="2.29512">
        <ele>400.9</ele>
        <time>2011-08-09T08:13:25Z</time>
      </trkpt>
      <trkpt lat="44.49856" lon="2.29508">
        <ele>400.7</ele>
        <time>2011-08-09T08:13:26Z</time>
      </trkpt>
      <trkpt lat="44.49852" lon="2.29506">
        <ele>400.1</ele>
        <time>2011-08-09T08:13:28Z</time>
      </trkpt>
      <trkpt lat="44.4985" lon="2.29507">
        <ele>399.7</ele>
        <time>2011-08-09T08:13:29Z</time>
      </trkpt>
      <trkpt lat="44.49849" lon="2.2951">
        <ele>399.4</ele>
        <time>2011-08-09T08:13:30Z</time>
      </trkpt>
      <trkpt lat="44.49848" lon="2.29514">
        <ele>399.3</ele>
        <time>2011-08-09T08:13:31Z</time>
      </trkpt>
      <trkpt lat="44.49847" lon="2.29519">
        <ele>398.8</ele>
        <time>2011-08-09T08:13:32Z</time>
      </trkpt>
      <trkpt lat="44.49847" lon="2.29524">
        <ele>398.4</ele>
        <time>2011-08-09T08:13:33Z</time>
      </trkpt>
      <trkpt lat="44.49846" lon="2.2953">
        <ele>398.2</ele>
        <time>2011-08-09T08:13:34Z</time>
      </trkpt>
      <trkpt lat="44.49846" lon="2.29536">
        <ele>397.4</ele>
        <time>2011-08-09T08:13:35Z</time>
      </trkpt>
      <trkpt lat="44.49846" lon="2.29542">
        <ele>396.9</ele>
        <time>2011-08-09T08:13:36Z</time>
      </trkpt>
      <trkpt lat="44.49846" lon="2.29549">
        <ele>396.5</ele>
        <time>2011-08-09T08:13:37Z</time>
      </trkpt>
      <trkpt lat="44.49845" lon="2.29556">
        <ele>395</ele>
        <time>2011-08-09T08:13:38Z</time>
      </trkpt>
      <trkpt lat="44.49845" lon="2.29565">
        <ele>393.9</ele>
        <time>2011-08-09T08:13:39Z</time>
      </trkpt>
      <trkpt lat="44.49844" lon="2.29574">
        <ele>393.1</ele>
        <time>2011-08-09T08:13:40Z</time>
      </trkpt>
      <trkpt lat="44.49841" lon="2.29584">
        <ele>391.2</ele>
        <time>2011-08-09T08:13:41Z</time>
      </trkpt>
      <trkpt lat="44.49838" lon="2.29593">
        <ele>389.7</ele>
        <time>2011-08-09T08:13:42Z</time>
      </trkpt>
      <trkpt lat="44.49835" lon="2.29603">
        <ele>388.7</ele>
        <time>2011-08-09T08:13:43Z</time>
      </trkpt>
      <trkpt lat="44.49831" lon="2.29613">
        <ele>387.6</ele>
        <time>2011-08-09T08:13:44Z</time>
      </trkpt>
      <trkpt lat="44.49827" lon="2.29624">
        <ele>386.7</ele>
        <time>2011-08-09T08:13:45Z</time>
      </trkpt>
      <trkpt lat="44.49823" lon="2.29633">
        <ele>386.1</ele>
        <time>2011-08-09T08:13:46Z</time>
      </trkpt>
      <trkpt lat="44.49819" lon="2.29641">
        <ele>385.6</ele>
        <time>2011-08-09T08:13:47Z</time>
      </trkpt>
      <trkpt lat="44.49815" lon="2.2965">
        <ele>384.8</ele>
        <time>2011-08-09T08:13:48Z</time>
      </trkpt>
      <trkpt lat="44.49811" lon="2.29658">
        <ele>384.3</ele>
        <time>2011-08-09T08:13:49Z</time>
      </trkpt>
      <trkpt lat="44.49807" lon="2.29665">
        <ele>383.8</ele>
        <time>2011-08-09T08:13:50Z</time>
      </trkpt>
      <trkpt lat="44.49803" lon="2.29674">
        <ele>383.1</ele>
        <time>2011-08-09T08:13:51Z</time>
      </trkpt>
      <trkpt lat="44.498" lon="2.29682">
        <ele>382.6</ele>
        <time>2011-08-09T08:13:52Z</time>
      </trkpt>
      <trkpt lat="44.49797" lon="2.29689">
        <ele>382.2</ele>
        <time>2011-08-09T08:13:53Z</time>
      </trkpt>
      <trkpt lat="44.49794" lon="2.29693">
        <ele>381.6</ele>
        <time>2011-08-09T08:13:54Z</time>
      </trkpt>
      <trkpt lat="44.49791" lon="2.29692">
        <ele>380.9</ele>
        <time>2011-08-09T08:13:56Z</time>
      </trkpt>
      <trkpt lat="44.4979" lon="2.2969">
        <ele>380</ele>
        <time>2011-08-09T08:13:57Z</time>
      </trkpt>
      <trkpt lat="44.49787" lon="2.29686">
        <ele>379.3</ele>
        <time>2011-08-09T08:13:58Z</time>
      </trkpt>
      <trkpt lat="44.49784" lon="2.29683">
        <ele>378.8</ele>
        <time>2011-08-09T08:13:59Z</time>
      </trkpt>
      <trkpt lat="44.49781" lon="2.2968">
        <ele>378.1</ele>
        <time>2011-08-09T08:14:00Z</time>
      </trkpt>
      <trkpt lat="44.49777" lon="2.29679">
        <ele>377.6</ele>
        <time>2011-08-09T08:14:01Z</time>
      </trkpt>
      <trkpt lat="44.49772" lon="2.29677">
        <ele>377.1</ele>
        <time>2011-08-09T08:14:02Z</time>
      </trkpt>
      <trkpt lat="44.49768" lon="2.29675">
        <ele>376.8</ele>
        <time>2011-08-09T08:14:03Z</time>
      </trkpt>
      <trkpt lat="44.49763" lon="2.29674">
        <ele>376.2</ele>
        <time>2011-08-09T08:14:04Z</time>
      </trkpt>
      <trkpt lat="44.49758" lon="2.29672">
        <ele>375.7</ele>
        <time>2011-08-09T08:14:05Z</time>
      </trkpt>
      <trkpt lat="44.49753" lon="2.29671">
        <ele>375.4</ele>
        <time>2011-08-09T08:14:06Z</time>
      </trkpt>
      <trkpt lat="44.49748" lon="2.2967">
        <ele>375.3</ele>
        <time>2011-08-09T08:14:07Z</time>
      </trkpt>
      <trkpt lat="44.49743" lon="2.29668">
        <ele>375.2</ele>
        <time>2011-08-09T08:14:08Z</time>
      </trkpt>
      <trkpt lat="44.49739" lon="2.29665">
        <ele>375.2</ele>
        <time>2011-08-09T08:14:09Z</time>
      </trkpt>
      <trkpt lat="44.49735" lon="2.29662">
        <ele>374.6</ele>
        <time>2011-08-09T08:14:10Z</time>
      </trkpt>
      <trkpt lat="44.49732" lon="2.29659">
        <ele>374.1</ele>
        <time>2011-08-09T08:14:11Z</time>
      </trkpt>
      <trkpt lat="44.49728" lon="2.29657">
        <ele>373.8</ele>
        <time>2011-08-09T08:14:12Z</time>
      </trkpt>
      <trkpt lat="44.49724" lon="2.29654">
        <ele>373.3</ele>
        <time>2011-08-09T08:14:13Z</time>
      </trkpt>
      <trkpt lat="44.49719" lon="2.29652">
        <ele>372.9</ele>
        <time>2011-08-09T08:14:14Z</time>
      </trkpt>
      <trkpt lat="44.49715" lon="2.29649">
        <ele>372.6</ele>
        <time>2011-08-09T08:14:15Z</time>
      </trkpt>
      <trkpt lat="44.4971" lon="2.29647">
        <ele>372.4</ele>
        <time>2011-08-09T08:14:16Z</time>
      </trkpt>
      <trkpt lat="44.49706" lon="2.29645">
        <ele>372.3</ele>
        <time>2011-08-09T08:14:17Z</time>
      </trkpt>
      <trkpt lat="44.49701" lon="2.29643">
        <ele>372.2</ele>
        <time>2011-08-09T08:14:18Z</time>
      </trkpt>
      <trkpt lat="44.49695" lon="2.29641">
        <ele>371.7</ele>
        <time>2011-08-09T08:14:19Z</time>
      </trkpt>
      <trkpt lat="44.49688" lon="2.29639">
        <ele>371.3</ele>
        <time>2011-08-09T08:14:20Z</time>
      </trkpt>
      <trkpt lat="44.49681" lon="2.29636">
        <ele>371</ele>
        <time>2011-08-09T08:14:21Z</time>
      </trkpt>
      <trkpt lat="44.49674" lon="2.29632">
        <ele>370.8</ele>
        <time>2011-08-09T08:14:22Z</time>
      </trkpt>
      <trkpt lat="44.49667" lon="2.29629">
        <ele>369.4</ele>
        <time>2011-08-09T08:14:23Z</time>
      </trkpt>
      <trkpt lat="44.49659" lon="2.29625">
        <ele>368.4</ele>
        <time>2011-08-09T08:14:24Z</time>
      </trkpt>
      <trkpt lat="44.49651" lon="2.29621">
        <ele>367.6</ele>
        <time>2011-08-09T08:14:25Z</time>
      </trkpt>
      <trkpt lat="44.49643" lon="2.29617">
        <ele>366.4</ele>
        <time>2011-08-09T08:14:26Z</time>
      </trkpt>
      <trkpt lat="44.49634" lon="2.29613">
        <ele>365.5</ele>
        <time>2011-08-09T08:14:27Z</time>
      </trkpt>
      <trkpt lat="44.49626" lon="2.29609">
        <ele>364.9</ele>
        <time>2011-08-09T08:14:28Z</time>
      </trkpt>
      <trkpt lat="44.49618" lon="2.29604">
        <ele>363</ele>
        <time>2011-08-09T08:14:29Z</time>
      </trkpt>
      <trkpt lat="44.49611" lon="2.29599">
        <ele>361.5</ele>
        <time>2011-08-09T08:14:30Z</time>
      </trkpt>
      <trkpt lat="44.49604" lon="2.29594">
        <ele>360.4</ele>
        <time>2011-08-09T08:14:31Z</time>
      </trkpt>
      <trkpt lat="44.49598" lon="2.29589">
        <ele>358.5</ele>
        <time>2011-08-09T08:14:32Z</time>
      </trkpt>
      <trkpt lat="44.49591" lon="2.29584">
        <ele>357</ele>
        <time>2011-08-09T08:14:33Z</time>
      </trkpt>
      <trkpt lat="44.49585" lon="2.29579">
        <ele>355.9</ele>
        <time>2011-08-09T08:14:34Z</time>
      </trkpt>
      <trkpt lat="44.49578" lon="2.29574">
        <ele>353.5</ele>
        <time>2011-08-09T08:14:35Z</time>
      </trkpt>
      <trkpt lat="44.49571" lon="2.29569">
        <ele>351.7</ele>
        <time>2011-08-09T08:14:36Z</time>
      </trkpt>
      <trkpt lat="44.49564" lon="2.29564">
        <ele>350.3</ele>
        <time>2011-08-09T08:14:37Z</time>
      </trkpt>
      <trkpt lat="44.49559" lon="2.2956">
        <ele>349.3</ele>
        <time>2011-08-09T08:14:38Z</time>
      </trkpt>
      <trkpt lat="44.49554" lon="2.29557">
        <ele>347.8</ele>
        <time>2011-08-09T08:14:39Z</time>
      </trkpt>
      <trkpt lat="44.49551" lon="2.29555">
        <ele>346.6</ele>
        <time>2011-08-09T08:14:40Z</time>
      </trkpt>
      <trkpt lat="44.49549" lon="2.29552">
        <ele>345.7</ele>
        <time>2011-08-09T08:14:41Z</time>
      </trkpt>
      <trkpt lat="44.49549" lon="2.29549">
        <ele>344.5</ele>
        <time>2011-08-09T08:14:42Z</time>
      </trkpt>
      <trkpt lat="44.49549" lon="2.29544">
        <ele>343.6</ele>
        <time>2011-08-09T08:14:43Z</time>
      </trkpt>
      <trkpt lat="44.49549" lon="2.29539">
        <ele>343</ele>
        <time>2011-08-09T08:14:44Z</time>
      </trkpt>
      <trkpt lat="44.49549" lon="2.29535">
        <ele>341.9</ele>
        <time>2011-08-09T08:14:45Z</time>
      </trkpt>
      <trkpt lat="44.49549" lon="2.2953">
        <ele>341.1</ele>
        <time>2011-08-09T08:14:46Z</time>
      </trkpt>
      <trkpt lat="44.49549" lon="2.29525">
        <ele>340.5</ele>
        <time>2011-08-09T08:14:47Z</time>
      </trkpt>
      <trkpt lat="44.49549" lon="2.2952">
        <ele>339.7</ele>
        <time>2011-08-09T08:14:48Z</time>
      </trkpt>
      <trkpt lat="44.49548" lon="2.29515">
        <ele>339.2</ele>
        <time>2011-08-09T08:14:49Z</time>
      </trkpt>
      <trkpt lat="44.49549" lon="2.29511">
        <ele>338.7</ele>
        <time>2011-08-09T08:14:50Z</time>
      </trkpt>
      <trkpt lat="44.49549" lon="2.29506">
        <ele>337.7</ele>
        <time>2011-08-09T08:14:51Z</time>
      </trkpt>
      <trkpt lat="44.4955" lon="2.295">
        <ele>337</ele>
        <time>2011-08-09T08:14:52Z</time>
      </trkpt>
      <trkpt lat="44.49552" lon="2.29494">
        <ele>336.4</ele>
        <time>2011-08-09T08:14:53Z</time>
      </trkpt>
      <trkpt lat="44.49554" lon="2.29489">
        <ele>336</ele>
        <time>2011-08-09T08:14:54Z</time>
      </trkpt>
      <trkpt lat="44.49556" lon="2.29483">
        <ele>335.5</ele>
        <time>2011-08-09T08:14:55Z</time>
      </trkpt>
      <trkpt lat="44.49558" lon="2.29477">
        <ele>335.1</ele>
        <time>2011-08-09T08:14:56Z</time>
      </trkpt>
      <trkpt lat="44.4956" lon="2.29472">
        <ele>334.8</ele>
        <time>2011-08-09T08:14:57Z</time>
      </trkpt>
      <trkpt lat="44.49562" lon="2.29466">
        <ele>334.8</ele>
        <time>2011-08-09T08:14:58Z</time>
      </trkpt>
      <trkpt lat="44.49564" lon="2.2946">
        <ele>334.8</ele>
        <time>2011-08-09T08:14:59Z</time>
      </trkpt>
      <trkpt lat="44.49565" lon="2.29454">
        <ele>334.9</ele>
        <time>2011-08-09T08:15:00Z</time>
      </trkpt>
      <trkpt lat="44.49566" lon="2.29448">
        <ele>334.5</ele>
        <time>2011-08-09T08:15:01Z</time>
      </trkpt>
      <trkpt lat="44.49567" lon="2.29442">
        <ele>334.2</ele>
        <time>2011-08-09T08:15:02Z</time>
      </trkpt>
      <trkpt lat="44.49567" lon="2.29437">
        <ele>334</ele>
        <time>2011-08-09T08:15:03Z</time>
      </trkpt>
      <trkpt lat="44.49568" lon="2.29432">
        <ele>334.2</ele>
        <time>2011-08-09T08:15:04Z</time>
      </trkpt>
      <trkpt lat="44.49568" lon="2.29427">
        <ele>334.3</ele>
        <time>2011-08-09T08:15:05Z</time>
      </trkpt>
      <trkpt lat="44.49568" lon="2.29423">
        <ele>334.4</ele>
        <time>2011-08-09T08:15:06Z</time>
      </trkpt>
      <trkpt lat="44.49569" lon="2.29418">
        <ele>334.2</ele>
        <time>2011-08-09T08:15:07Z</time>
      </trkpt>
      <trkpt lat="44.49569" lon="2.29414">
        <ele>334.1</ele>
        <time>2011-08-09T08:15:08Z</time>
      </trkpt>
      <trkpt lat="44.49569" lon="2.29409">
        <ele>334</ele>
        <time>2011-08-09T08:15:09Z</time>
      </trkpt>
      <trkpt lat="44.49569" lon="2.29405">
        <ele>334.2</ele>
        <time>2011-08-09T08:15:10Z</time>
      </trkpt>
      <trkpt lat="44.4957" lon="2.294">
        <ele>334.4</ele>
        <time>2011-08-09T08:15:11Z</time>
      </trkpt>
      <trkpt lat="44.4957" lon="2.29396">
        <ele>334.5</ele>
        <time>2011-08-09T08:15:12Z</time>
      </trkpt>
      <trkpt lat="44.4957" lon="2.29391">
        <ele>334.6</ele>
        <time>2011-08-09T08:15:13Z</time>
      </trkpt>
      <trkpt lat="44.4957" lon="2.29387">
        <ele>334.7</ele>
        <time>2011-08-09T08:15:14Z</time>
      </trkpt>
      <trkpt lat="44.4957" lon="2.29383">
        <ele>334.8</ele>
        <time>2011-08-09T08:15:15Z</time>
      </trkpt>
      <trkpt lat="44.4957" lon="2.2938">
        <ele>334.9</ele>
        <time>2011-08-09T08:15:16Z</time>
      </trkpt>
      <trkpt lat="44.49571" lon="2.29376">
        <ele>335.3</ele>
        <time>2011-08-09T08:15:17Z</time>
      </trkpt>
      <trkpt lat="44.49571" lon="2.29372">
        <ele>335.5</ele>
        <time>2011-08-09T08:15:18Z</time>
      </trkpt>
      <trkpt lat="44.49571" lon="2.29366">
        <ele>336.2</ele>
        <time>2011-08-09T08:15:20Z</time>
      </trkpt>
      <trkpt lat="44.49571" lon="2.29363">
        <ele>336.5</ele>
        <time>2011-08-09T08:15:21Z</time>
      </trkpt>
      <trkpt lat="44.49571" lon="2.29359">
        <ele>336.8</ele>
        <time>2011-08-09T08:15:22Z</time>
      </trkpt>
      <trkpt lat="44.49571" lon="2.29356">
        <ele>337.3</ele>
        <time>2011-08-09T08:15:23Z</time>
      </trkpt>
      <trkpt lat="44.4957" lon="2.29353">
        <ele>337.7</ele>
        <time>2011-08-09T08:15:24Z</time>
      </trkpt>
      <trkpt lat="44.4957" lon="2.29349">
        <ele>338</ele>
        <time>2011-08-09T08:15:25Z</time>
      </trkpt>
      <trkpt lat="44.4957" lon="2.29346">
        <ele>338.3</ele>
        <time>2011-08-09T08:15:26Z</time>
      </trkpt>
      <trkpt lat="44.49569" lon="2.29343">
        <ele>338.6</ele>
        <time>2011-08-09T08:15:27Z</time>
      </trkpt>
      <trkpt lat="44.49569" lon="2.29339">
        <ele>338.8</ele>
        <time>2011-08-09T08:15:28Z</time>
      </trkpt>
      <trkpt lat="44.49569" lon="2.29336">
        <ele>339</ele>
        <time>2011-08-09T08:15:29Z</time>
      </trkpt>
      <trkpt lat="44.49569" lon="2.2933">
        <ele>339.1</ele>
        <time>2011-08-09T08:15:31Z</time>
      </trkpt>
      <trkpt lat="44.49569" lon="2.29326">
        <ele>339.1</ele>
        <time>2011-08-09T08:15:32Z</time>
      </trkpt>
      <trkpt lat="44.49568" lon="2.2932">
        <ele>339.1</ele>
        <time>2011-08-09T08:15:34Z</time>
      </trkpt>
      <trkpt lat="44.49567" lon="2.29317">
        <ele>339</ele>
        <time>2011-08-09T08:15:35Z</time>
      </trkpt>
      <trkpt lat="44.49566" lon="2.29311">
        <ele>339.1</ele>
        <time>2011-08-09T08:15:37Z</time>
      </trkpt>
      <trkpt lat="44.49565" lon="2.29308">
        <ele>339.1</ele>
        <time>2011-08-09T08:15:38Z</time>
      </trkpt>
      <trkpt lat="44.49563" lon="2.29302">
        <ele>340</ele>
        <time>2011-08-09T08:15:40Z</time>
      </trkpt>
      <trkpt lat="44.49562" lon="2.29297">
        <ele>340.6</ele>
        <time>2011-08-09T08:15:42Z</time>
      </trkpt>
      <trkpt lat="44.4956" lon="2.29291">
        <ele>341.1</ele>
        <time>2011-08-09T08:15:44Z</time>
      </trkpt>
      <trkpt lat="44.49558" lon="2.29286">
        <ele>341.2</ele>
        <time>2011-08-09T08:15:46Z</time>
      </trkpt>
      <trkpt lat="44.49556" lon="2.29283">
        <ele>341.3</ele>
        <time>2011-08-09T08:15:47Z</time>
      </trkpt>
      <trkpt lat="44.49555" lon="2.2928">
        <ele>341.3</ele>
        <time>2011-08-09T08:15:48Z</time>
      </trkpt>
      <trkpt lat="44.49554" lon="2.29278">
        <ele>341.7</ele>
        <time>2011-08-09T08:15:49Z</time>
      </trkpt>
      <trkpt lat="44.49552" lon="2.29275">
        <ele>341.9</ele>
        <time>2011-08-09T08:15:50Z</time>
      </trkpt>
      <trkpt lat="44.49551" lon="2.29273">
        <ele>342.1</ele>
        <time>2011-08-09T08:15:51Z</time>
      </trkpt>
      <trkpt lat="44.49549" lon="2.2927">
        <ele>341.9</ele>
        <time>2011-08-09T08:15:52Z</time>
      </trkpt>
      <trkpt lat="44.49547" lon="2.29267">
        <ele>341.8</ele>
        <time>2011-08-09T08:15:53Z</time>
      </trkpt>
      <trkpt lat="44.49546" lon="2.29265">
        <ele>341.7</ele>
        <time>2011-08-09T08:15:54Z</time>
      </trkpt>
      <trkpt lat="44.49544" lon="2.29263">
        <ele>342.4</ele>
        <time>2011-08-09T08:15:55Z</time>
      </trkpt>
      <trkpt lat="44.49543" lon="2.2926">
        <ele>342.9</ele>
        <time>2011-08-09T08:15:56Z</time>
      </trkpt>
      <trkpt lat="44.49541" lon="2.29258">
        <ele>343.3</ele>
        <time>2011-08-09T08:15:57Z</time>
      </trkpt>
      <trkpt lat="44.4954" lon="2.29255">
        <ele>343.1</ele>
        <time>2011-08-09T08:15:58Z</time>
      </trkpt>
      <trkpt lat="44.49538" lon="2.29253">
        <ele>342.9</ele>
        <time>2011-08-09T08:15:59Z</time>
      </trkpt>
      <trkpt lat="44.49536" lon="2.2925">
        <ele>342.8</ele>
        <time>2011-08-09T08:16:00Z</time>
      </trkpt>
      <trkpt lat="44.49534" lon="2.29248">
        <ele>342.7</ele>
        <time>2011-08-09T08:16:01Z</time>
      </trkpt>
      <trkpt lat="44.49533" lon="2.29246">
        <ele>342.9</ele>
        <time>2011-08-09T08:16:02Z</time>
      </trkpt>
      <trkpt lat="44.49531" lon="2.29244">
        <ele>343.1</ele>
        <time>2011-08-09T08:16:03Z</time>
      </trkpt>
      <trkpt lat="44.49529" lon="2.29241">
        <ele>343.2</ele>
        <time>2011-08-09T08:16:04Z</time>
      </trkpt>
      <trkpt lat="44.49527" lon="2.29239">
        <ele>343.8</ele>
        <time>2011-08-09T08:16:05Z</time>
      </trkpt>
      <trkpt lat="44.49526" lon="2.29237">
        <ele>344.2</ele>
        <time>2011-08-09T08:16:06Z</time>
      </trkpt>
      <trkpt lat="44.49524" lon="2.29235">
        <ele>344.6</ele>
        <time>2011-08-09T08:16:07Z</time>
      </trkpt>
      <trkpt lat="44.49522" lon="2.29232">
        <ele>344.4</ele>
        <time>2011-08-09T08:16:08Z</time>
      </trkpt>
      <trkpt lat="44.4952" lon="2.2923">
        <ele>344.3</ele>
        <time>2011-08-09T08:16:09Z</time>
      </trkpt>
      <trkpt lat="44.49518" lon="2.29228">
        <ele>344.3</ele>
        <time>2011-08-09T08:16:10Z</time>
      </trkpt>
      <trkpt lat="44.49516" lon="2.29226">
        <ele>344.3</ele>
        <time>2011-08-09T08:16:11Z</time>
      </trkpt>
      <trkpt lat="44.49514" lon="2.29224">
        <ele>344.4</ele>
        <time>2011-08-09T08:16:12Z</time>
      </trkpt>
      <trkpt lat="44.49511" lon="2.2922">
        <ele>345.1</ele>
        <time>2011-08-09T08:16:14Z</time>
      </trkpt>
      <trkpt lat="44.49507" lon="2.29216">
        <ele>345.9</ele>
        <time>2011-08-09T08:16:16Z</time>
      </trkpt>
      <trkpt lat="44.49506" lon="2.29215">
        <ele>346.2</ele>
        <time>2011-08-09T08:16:17Z</time>
      </trkpt>
      <trkpt lat="44.49502" lon="2.29211">
        <ele>347</ele>
        <time>2011-08-09T08:16:19Z</time>
      </trkpt>
      <trkpt lat="44.49499" lon="2.29208">
        <ele>347.5</ele>
        <time>2011-08-09T08:16:21Z</time>
      </trkpt>
      <trkpt lat="44.49497" lon="2.29206">
        <ele>347.7</ele>
        <time>2011-08-09T08:16:22Z</time>
      </trkpt>
      <trkpt lat="44.49495" lon="2.29204">
        <ele>347.8</ele>
        <time>2011-08-09T08:16:23Z</time>
      </trkpt>
      <trkpt lat="44.49493" lon="2.29202">
        <ele>347.4</ele>
        <time>2011-08-09T08:16:24Z</time>
      </trkpt>
      <trkpt lat="44.49492" lon="2.292">
        <ele>347</ele>
        <time>2011-08-09T08:16:25Z</time>
      </trkpt>
      <trkpt lat="44.4949" lon="2.29197">
        <ele>346.8</ele>
        <time>2011-08-09T08:16:26Z</time>
      </trkpt>
      <trkpt lat="44.49488" lon="2.29194">
        <ele>346.9</ele>
        <time>2011-08-09T08:16:27Z</time>
      </trkpt>
      <trkpt lat="44.49487" lon="2.29192">
        <ele>346.9</ele>
        <time>2011-08-09T08:16:28Z</time>
      </trkpt>
      <trkpt lat="44.49483" lon="2.29189">
        <ele>347</ele>
        <time>2011-08-09T08:16:30Z</time>
      </trkpt>
      <trkpt lat="44.49481" lon="2.29185">
        <ele>347</ele>
        <time>2011-08-09T08:16:32Z</time>
      </trkpt>
      <trkpt lat="44.4948" lon="2.29183">
        <ele>347</ele>
        <time>2011-08-09T08:16:33Z</time>
      </trkpt>
      <trkpt lat="44.49479" lon="2.29179">
        <ele>347.4</ele>
        <time>2011-08-09T08:16:34Z</time>
      </trkpt>
      <trkpt lat="44.49478" lon="2.29175">
        <ele>347.7</ele>
        <time>2011-08-09T08:16:35Z</time>
      </trkpt>
      <trkpt lat="44.49477" lon="2.29171">
        <ele>348</ele>
        <time>2011-08-09T08:16:36Z</time>
      </trkpt>
      <trkpt lat="44.49476" lon="2.29167">
        <ele>347.7</ele>
        <time>2011-08-09T08:16:37Z</time>
      </trkpt>
      <trkpt lat="44.49475" lon="2.29163">
        <ele>347.6</ele>
        <time>2011-08-09T08:16:38Z</time>
      </trkpt>
      <trkpt lat="44.49473" lon="2.29159">
        <ele>347.4</ele>
        <time>2011-08-09T08:16:39Z</time>
      </trkpt>
      <trkpt lat="44.49472" lon="2.29155">
        <ele>346.7</ele>
        <time>2011-08-09T08:16:40Z</time>
      </trkpt>
      <trkpt lat="44.49472" lon="2.2915">
        <ele>346.2</ele>
        <time>2011-08-09T08:16:41Z</time>
      </trkpt>
      <trkpt lat="44.49471" lon="2.29145">
        <ele>345.8</ele>
        <time>2011-08-09T08:16:42Z</time>
      </trkpt>
      <trkpt lat="44.4947" lon="2.29141">
        <ele>345</ele>
        <time>2011-08-09T08:16:43Z</time>
      </trkpt>
      <trkpt lat="44.49469" lon="2.29137">
        <ele>344.3</ele>
        <time>2011-08-09T08:16:44Z</time>
      </trkpt>
      <trkpt lat="44.49468" lon="2.29133">
        <ele>343.9</ele>
        <time>2011-08-09T08:16:45Z</time>
      </trkpt>
      <trkpt lat="44.49467" lon="2.29129">
        <ele>343</ele>
        <time>2011-08-09T08:16:46Z</time>
      </trkpt>
      <trkpt lat="44.49467" lon="2.29125">
        <ele>342.4</ele>
        <time>2011-08-09T08:16:47Z</time>
      </trkpt>
      <trkpt lat="44.49467" lon="2.29121">
        <ele>341.9</ele>
        <time>2011-08-09T08:16:48Z</time>
      </trkpt>
      <trkpt lat="44.49468" lon="2.29118">
        <ele>341.1</ele>
        <time>2011-08-09T08:16:49Z</time>
      </trkpt>
      <trkpt lat="44.49468" lon="2.29114">
        <ele>340.6</ele>
        <time>2011-08-09T08:16:50Z</time>
      </trkpt>
      <trkpt lat="44.4947" lon="2.2911">
        <ele>340.2</ele>
        <time>2011-08-09T08:16:51Z</time>
      </trkpt>
      <trkpt lat="44.49473" lon="2.29107">
        <ele>339.8</ele>
        <time>2011-08-09T08:16:53Z</time>
      </trkpt>
      <trkpt lat="44.49475" lon="2.29103">
        <ele>339.4</ele>
        <time>2011-08-09T08:16:56Z</time>
      </trkpt>
      <trkpt lat="44.49478" lon="2.291">
        <ele>339</ele>
        <time>2011-08-09T08:16:58Z</time>
      </trkpt>
      <trkpt lat="44.49479" lon="2.29098">
        <ele>338.9</ele>
        <time>2011-08-09T08:16:59Z</time>
      </trkpt>
      <trkpt lat="44.49481" lon="2.29095">
        <ele>338.9</ele>
        <time>2011-08-09T08:17:00Z</time>
      </trkpt>
      <trkpt lat="44.49482" lon="2.29092">
        <ele>338.8</ele>
        <time>2011-08-09T08:17:01Z</time>
      </trkpt>
      <trkpt lat="44.49484" lon="2.29088">
        <ele>338.3</ele>
        <time>2011-08-09T08:17:02Z</time>
      </trkpt>
      <trkpt lat="44.49485" lon="2.29084">
        <ele>338</ele>
        <time>2011-08-09T08:17:03Z</time>
      </trkpt>
      <trkpt lat="44.49487" lon="2.29079">
        <ele>337.7</ele>
        <time>2011-08-09T08:17:04Z</time>
      </trkpt>
      <trkpt lat="44.49487" lon="2.29074">
        <ele>337.3</ele>
        <time>2011-08-09T08:17:05Z</time>
      </trkpt>
      <trkpt lat="44.49488" lon="2.29069">
        <ele>337</ele>
        <time>2011-08-09T08:17:06Z</time>
      </trkpt>
      <trkpt lat="44.49488" lon="2.29064">
        <ele>336.8</ele>
        <time>2011-08-09T08:17:07Z</time>
      </trkpt>
      <trkpt lat="44.49488" lon="2.2906">
        <ele>336.6</ele>
        <time>2011-08-09T08:17:08Z</time>
      </trkpt>
      <trkpt lat="44.49488" lon="2.29054">
        <ele>336.1</ele>
        <time>2011-08-09T08:17:09Z</time>
      </trkpt>
      <trkpt lat="44.49488" lon="2.29048">
        <ele>335.7</ele>
        <time>2011-08-09T08:17:10Z</time>
      </trkpt>
      <trkpt lat="44.49488" lon="2.29041">
        <ele>335.4</ele>
        <time>2011-08-09T08:17:11Z</time>
      </trkpt>
      <trkpt lat="44.49488" lon="2.29034">
        <ele>334.7</ele>
        <time>2011-08-09T08:17:12Z</time>
      </trkpt>
      <trkpt lat="44.49488" lon="2.29026">
        <ele>334.1</ele>
        <time>2011-08-09T08:17:13Z</time>
      </trkpt>
      <trkpt lat="44.49489" lon="2.29017">
        <ele>333.7</ele>
        <time>2011-08-09T08:17:14Z</time>
      </trkpt>
      <trkpt lat="44.49493" lon="2.29008">
        <ele>332.9</ele>
        <time>2011-08-09T08:17:15Z</time>
      </trkpt>
      <trkpt lat="44.49496" lon="2.28998">
        <ele>332.3</ele>
        <time>2011-08-09T08:17:16Z</time>
      </trkpt>
      <trkpt lat="44.49501" lon="2.28988">
        <ele>331.8</ele>
        <time>2011-08-09T08:17:17Z</time>
      </trkpt>
      <trkpt lat="44.49506" lon="2.28978">
        <ele>330.4</ele>
        <time>2011-08-09T08:17:18Z</time>
      </trkpt>
      <trkpt lat="44.49511" lon="2.28966">
        <ele>329.3</ele>
        <time>2011-08-09T08:17:19Z</time>
      </trkpt>
      <trkpt lat="44.49516" lon="2.28955">
        <ele>328.5</ele>
        <time>2011-08-09T08:17:20Z</time>
      </trkpt>
      <trkpt lat="44.49521" lon="2.28942">
        <ele>326.9</ele>
        <time>2011-08-09T08:17:21Z</time>
      </trkpt>
      <trkpt lat="44.49525" lon="2.28928">
        <ele>325.6</ele>
        <time>2011-08-09T08:17:22Z</time>
      </trkpt>
      <trkpt lat="44.49527" lon="2.28915">
        <ele>324.7</ele>
        <time>2011-08-09T08:17:23Z</time>
      </trkpt>
      <trkpt lat="44.49526" lon="2.28901">
        <ele>324</ele>
        <time>2011-08-09T08:17:24Z</time>
      </trkpt>
      <trkpt lat="44.49522" lon="2.28888">
        <ele>322.7</ele>
        <time>2011-08-09T08:17:25Z</time>
      </trkpt>
      <trkpt lat="44.49519" lon="2.28875">
        <ele>321.7</ele>
        <time>2011-08-09T08:17:26Z</time>
      </trkpt>
      <trkpt lat="44.49519" lon="2.28861">
        <ele>321</ele>
        <time>2011-08-09T08:17:27Z</time>
      </trkpt>
      <trkpt lat="44.49519" lon="2.28847">
        <ele>319.8</ele>
        <time>2011-08-09T08:17:28Z</time>
      </trkpt>
      <trkpt lat="44.49518" lon="2.28834">
        <ele>318.8</ele>
        <time>2011-08-09T08:17:29Z</time>
      </trkpt>
      <trkpt lat="44.49516" lon="2.2882">
        <ele>318.1</ele>
        <time>2011-08-09T08:17:30Z</time>
      </trkpt>
      <trkpt lat="44.49513" lon="2.28807">
        <ele>317.3</ele>
        <time>2011-08-09T08:17:31Z</time>
      </trkpt>
      <trkpt lat="44.4951" lon="2.28795">
        <ele>316.6</ele>
        <time>2011-08-09T08:17:32Z</time>
      </trkpt>
      <trkpt lat="44.49507" lon="2.28783">
        <ele>316.1</ele>
        <time>2011-08-09T08:17:33Z</time>
      </trkpt>
      <trkpt lat="44.49503" lon="2.28771">
        <ele>315.7</ele>
        <time>2011-08-09T08:17:34Z</time>
      </trkpt>
      <trkpt lat="44.49501" lon="2.28759">
        <ele>315.5</ele>
        <time>2011-08-09T08:17:35Z</time>
      </trkpt>
      <trkpt lat="44.49498" lon="2.28747">
        <ele>315.2</ele>
        <time>2011-08-09T08:17:36Z</time>
      </trkpt>
      <trkpt lat="44.49498" lon="2.28736">
        <ele>315</ele>
        <time>2011-08-09T08:17:37Z</time>
      </trkpt>
      <trkpt lat="44.49497" lon="2.28724">
        <ele>314.8</ele>
        <time>2011-08-09T08:17:38Z</time>
      </trkpt>
      <trkpt lat="44.49498" lon="2.28713">
        <ele>314.6</ele>
        <time>2011-08-09T08:17:39Z</time>
      </trkpt>
      <trkpt lat="44.49498" lon="2.28701">
        <ele>314.5</ele>
        <time>2011-08-09T08:17:40Z</time>
      </trkpt>
      <trkpt lat="44.49498" lon="2.2869">
        <ele>314.1</ele>
        <time>2011-08-09T08:17:41Z</time>
      </trkpt>
      <trkpt lat="44.49497" lon="2.28678">
        <ele>313.7</ele>
        <time>2011-08-09T08:17:42Z</time>
      </trkpt>
      <trkpt lat="44.49495" lon="2.28666">
        <ele>313.5</ele>
        <time>2011-08-09T08:17:43Z</time>
      </trkpt>
      <trkpt lat="44.49494" lon="2.28655">
        <ele>313.2</ele>
        <time>2011-08-09T08:17:44Z</time>
      </trkpt>
      <trkpt lat="44.49492" lon="2.28644">
        <ele>313</ele>
        <time>2011-08-09T08:17:45Z</time>
      </trkpt>
      <trkpt lat="44.49491" lon="2.28634">
        <ele>312.8</ele>
        <time>2011-08-09T08:17:46Z</time>
      </trkpt>
      <trkpt lat="44.49489" lon="2.28623">
        <ele>312.7</ele>
        <time>2011-08-09T08:17:47Z</time>
      </trkpt>
      <trkpt lat="44.49488" lon="2.28613">
        <ele>312.6</ele>
        <time>2011-08-09T08:17:48Z</time>
      </trkpt>
      <trkpt lat="44.49487" lon="2.28602">
        <ele>312.5</ele>
        <time>2011-08-09T08:17:49Z</time>
      </trkpt>
      <trkpt lat="44.49485" lon="2.28592">
        <ele>312.4</ele>
        <time>2011-08-09T08:17:50Z</time>
      </trkpt>
      <trkpt lat="44.49484" lon="2.28582">
        <ele>312.2</ele>
        <time>2011-08-09T08:17:51Z</time>
      </trkpt>
      <trkpt lat="44.49483" lon="2.28572">
        <ele>312.1</ele>
        <time>2011-08-09T08:17:52Z</time>
      </trkpt>
      <trkpt lat="44.49482" lon="2.28562">
        <ele>311.7</ele>
        <time>2011-08-09T08:17:53Z</time>
      </trkpt>
      <trkpt lat="44.49481" lon="2.28553">
        <ele>311.4</ele>
        <time>2011-08-09T08:17:54Z</time>
      </trkpt>
      <trkpt lat="44.49479" lon="2.28543">
        <ele>311.2</ele>
        <time>2011-08-09T08:17:55Z</time>
      </trkpt>
      <trkpt lat="44.49478" lon="2.28534">
        <ele>311</ele>
        <time>2011-08-09T08:17:56Z</time>
      </trkpt>
      <trkpt lat="44.49476" lon="2.28524">
        <ele>310.8</ele>
        <time>2011-08-09T08:17:57Z</time>
      </trkpt>
      <trkpt lat="44.49474" lon="2.28515">
        <ele>310.7</ele>
        <time>2011-08-09T08:17:58Z</time>
      </trkpt>
      <trkpt lat="44.49472" lon="2.28506">
        <ele>310.6</ele>
        <time>2011-08-09T08:17:59Z</time>
      </trkpt>
      <trkpt lat="44.49469" lon="2.28498">
        <ele>310.5</ele>
        <time>2011-08-09T08:18:00Z</time>
      </trkpt>
      <trkpt lat="44.49467" lon="2.2849">
        <ele>310.4</ele>
        <time>2011-08-09T08:18:01Z</time>
      </trkpt>
      <trkpt lat="44.49464" lon="2.28483">
        <ele>310.3</ele>
        <time>2011-08-09T08:18:02Z</time>
      </trkpt>
      <trkpt lat="44.49462" lon="2.28477">
        <ele>310.5</ele>
        <time>2011-08-09T08:18:03Z</time>
      </trkpt>
      <trkpt lat="44.49461" lon="2.28471">
        <ele>310.6</ele>
        <time>2011-08-09T08:18:04Z</time>
      </trkpt>
      <trkpt lat="44.49459" lon="2.28467">
        <ele>310.8</ele>
        <time>2011-08-09T08:18:05Z</time>
      </trkpt>
      <trkpt lat="44.49458" lon="2.28463">
        <ele>311</ele>
        <time>2011-08-09T08:18:06Z</time>
      </trkpt>
      <trkpt lat="44.49458" lon="2.2846">
        <ele>311.1</ele>
        <time>2011-08-09T08:18:07Z</time>
      </trkpt>
      <trkpt lat="44.49457" lon="2.28456">
        <ele>311.2</ele>
        <time>2011-08-09T08:18:08Z</time>
      </trkpt>
      <trkpt lat="44.49457" lon="2.28453">
        <ele>311.1</ele>
        <time>2011-08-09T08:18:09Z</time>
      </trkpt>
      <trkpt lat="44.49458" lon="2.28448">
        <ele>311</ele>
        <time>2011-08-09T08:18:10Z</time>
      </trkpt>
      <trkpt lat="44.49458" lon="2.28443">
        <ele>310.9</ele>
        <time>2011-08-09T08:18:11Z</time>
      </trkpt>
      <trkpt lat="44.49458" lon="2.28438">
        <ele>310.9</ele>
        <time>2011-08-09T08:18:12Z</time>
      </trkpt>
      <trkpt lat="44.49458" lon="2.28432">
        <ele>310.8</ele>
        <time>2011-08-09T08:18:13Z</time>
      </trkpt>
      <trkpt lat="44.49458" lon="2.28427">
        <ele>310.8</ele>
        <time>2011-08-09T08:18:14Z</time>
      </trkpt>
      <trkpt lat="44.49458" lon="2.28421">
        <ele>310.7</ele>
        <time>2011-08-09T08:18:15Z</time>
      </trkpt>
      <trkpt lat="44.49458" lon="2.28415">
        <ele>310.7</ele>
        <time>2011-08-09T08:18:16Z</time>
      </trkpt>
      <trkpt lat="44.49458" lon="2.28409">
        <ele>310.7</ele>
        <time>2011-08-09T08:18:17Z</time>
      </trkpt>
      <trkpt lat="44.49458" lon="2.28403">
        <ele>310.6</ele>
        <time>2011-08-09T08:18:18Z</time>
      </trkpt>
      <trkpt lat="44.49457" lon="2.28397">
        <ele>310.8</ele>
        <time>2011-08-09T08:18:19Z</time>
      </trkpt>
      <trkpt lat="44.49457" lon="2.28391">
        <ele>311</ele>
        <time>2011-08-09T08:18:20Z</time>
      </trkpt>
      <trkpt lat="44.49457" lon="2.28385">
        <ele>311.1</ele>
        <time>2011-08-09T08:18:21Z</time>
      </trkpt>
      <trkpt lat="44.49457" lon="2.28379">
        <ele>310.9</ele>
        <time>2011-08-09T08:18:22Z</time>
      </trkpt>
      <trkpt lat="44.49456" lon="2.28373">
        <ele>310.8</ele>
        <time>2011-08-09T08:18:23Z</time>
      </trkpt>
      <trkpt lat="44.49456" lon="2.28368">
        <ele>310.8</ele>
        <time>2011-08-09T08:18:24Z</time>
      </trkpt>
      <trkpt lat="44.49455" lon="2.28362">
        <ele>310.7</ele>
        <time>2011-08-09T08:18:25Z</time>
      </trkpt>
      <trkpt lat="44.49455" lon="2.28356">
        <ele>310.6</ele>
        <time>2011-08-09T08:18:26Z</time>
      </trkpt>
      <trkpt lat="44.49455" lon="2.28351">
        <ele>310.5</ele>
        <time>2011-08-09T08:18:27Z</time>
      </trkpt>
      <trkpt lat="44.49454" lon="2.28346">
        <ele>310.2</ele>
        <time>2011-08-09T08:18:28Z</time>
      </trkpt>
      <trkpt lat="44.49454" lon="2.2834">
        <ele>309.9</ele>
        <time>2011-08-09T08:18:29Z</time>
      </trkpt>
      <trkpt lat="44.49453" lon="2.28335">
        <ele>309.7</ele>
        <time>2011-08-09T08:18:30Z</time>
      </trkpt>
      <trkpt lat="44.49453" lon="2.2833">
        <ele>309.6</ele>
        <time>2011-08-09T08:18:31Z</time>
      </trkpt>
      <trkpt lat="44.49453" lon="2.28325">
        <ele>309.7</ele>
        <time>2011-08-09T08:18:32Z</time>
      </trkpt>
      <trkpt lat="44.49452" lon="2.28319">
        <ele>309.8</ele>
        <time>2011-08-09T08:18:33Z</time>
      </trkpt>
      <trkpt lat="44.49452" lon="2.28314">
        <ele>309.9</ele>
        <time>2011-08-09T08:18:34Z</time>
      </trkpt>
      <trkpt lat="44.49451" lon="2.28308">
        <ele>309.7</ele>
        <time>2011-08-09T08:18:35Z</time>
      </trkpt>
      <trkpt lat="44.49451" lon="2.28302">
        <ele>309.6</ele>
        <time>2011-08-09T08:18:36Z</time>
      </trkpt>
      <trkpt lat="44.49452" lon="2.28296">
        <ele>309.5</ele>
        <time>2011-08-09T08:18:37Z</time>
      </trkpt>
      <trkpt lat="44.49453" lon="2.2829">
        <ele>309.3</ele>
        <time>2011-08-09T08:18:38Z</time>
      </trkpt>
      <trkpt lat="44.49454" lon="2.28285">
        <ele>309.2</ele>
        <time>2011-08-09T08:18:39Z</time>
      </trkpt>
      <trkpt lat="44.49456" lon="2.28279">
        <ele>309.2</ele>
        <time>2011-08-09T08:18:40Z</time>
      </trkpt>
      <trkpt lat="44.49459" lon="2.28274">
        <ele>309</ele>
        <time>2011-08-09T08:18:41Z</time>
      </trkpt>
      <trkpt lat="44.49461" lon="2.28269">
        <ele>308.8</ele>
        <time>2011-08-09T08:18:42Z</time>
      </trkpt>
      <trkpt lat="44.49465" lon="2.28265">
        <ele>308.7</ele>
        <time>2011-08-09T08:18:43Z</time>
      </trkpt>
      <trkpt lat="44.49468" lon="2.28261">
        <ele>308.5</ele>
        <time>2011-08-09T08:18:44Z</time>
      </trkpt>
      <trkpt lat="44.49472" lon="2.28257">
        <ele>308.3</ele>
        <time>2011-08-09T08:18:45Z</time>
      </trkpt>
      <trkpt lat="44.49476" lon="2.28254">
        <ele>308.2</ele>
        <time>2011-08-09T08:18:46Z</time>
      </trkpt>
      <trkpt lat="44.4948" lon="2.28251">
        <ele>308.1</ele>
        <time>2011-08-09T08:18:47Z</time>
      </trkpt>
      <trkpt lat="44.49484" lon="2.28249">
        <ele>308.1</ele>
        <time>2011-08-09T08:18:48Z</time>
      </trkpt>
      <trkpt lat="44.49488" lon="2.28246">
        <ele>308.1</ele>
        <time>2011-08-09T08:18:49Z</time>
      </trkpt>
      <trkpt lat="44.49491" lon="2.28244">
        <ele>308.1</ele>
        <time>2011-08-09T08:18:50Z</time>
      </trkpt>
      <trkpt lat="44.49495" lon="2.28242">
        <ele>308.3</ele>
        <time>2011-08-09T08:18:51Z</time>
      </trkpt>
      <trkpt lat="44.49499" lon="2.2824">
        <ele>308.4</ele>
        <time>2011-08-09T08:18:52Z</time>
      </trkpt>
      <trkpt lat="44.49503" lon="2.28238">
        <ele>308.5</ele>
        <time>2011-08-09T08:18:53Z</time>
      </trkpt>
      <trkpt lat="44.49507" lon="2.28236">
        <ele>308.9</ele>
        <time>2011-08-09T08:18:54Z</time>
      </trkpt>
      <trkpt lat="44.49511" lon="2.28234">
        <ele>309.3</ele>
        <time>2011-08-09T08:18:55Z</time>
      </trkpt>
      <trkpt lat="44.49514" lon="2.28232">
        <ele>309.5</ele>
        <time>2011-08-09T08:18:56Z</time>
      </trkpt>
      <trkpt lat="44.49518" lon="2.28229">
        <ele>309.9</ele>
        <time>2011-08-09T08:18:57Z</time>
      </trkpt>
      <trkpt lat="44.49522" lon="2.28227">
        <ele>310.1</ele>
        <time>2011-08-09T08:18:58Z</time>
      </trkpt>
      <trkpt lat="44.49525" lon="2.28224">
        <ele>310.3</ele>
        <time>2011-08-09T08:18:59Z</time>
      </trkpt>
      <trkpt lat="44.49529" lon="2.28222">
        <ele>310.3</ele>
        <time>2011-08-09T08:19:00Z</time>
      </trkpt>
      <trkpt lat="44.49532" lon="2.2822">
        <ele>310.3</ele>
        <time>2011-08-09T08:19:01Z</time>
      </trkpt>
      <trkpt lat="44.49536" lon="2.28218">
        <ele>310.3</ele>
        <time>2011-08-09T08:19:02Z</time>
      </trkpt>
      <trkpt lat="44.4954" lon="2.28217">
        <ele>310.1</ele>
        <time>2011-08-09T08:19:03Z</time>
      </trkpt>
      <trkpt lat="44.49543" lon="2.28216">
        <ele>310</ele>
        <time>2011-08-09T08:19:04Z</time>
      </trkpt>
      <trkpt lat="44.49545" lon="2.28214">
        <ele>309.9</ele>
        <time>2011-08-09T08:19:05Z</time>
      </trkpt>
      <trkpt lat="44.49548" lon="2.28213">
        <ele>309.8</ele>
        <time>2011-08-09T08:19:06Z</time>
      </trkpt>
      <trkpt lat="44.49552" lon="2.28212">
        <ele>309.9</ele>
        <time>2011-08-09T08:19:07Z</time>
      </trkpt>
      <trkpt lat="44.49555" lon="2.28211">
        <ele>309.9</ele>
        <time>2011-08-09T08:19:08Z</time>
      </trkpt>
      <trkpt lat="44.49558" lon="2.2821">
        <ele>309.9</ele>
        <time>2011-08-09T08:19:09Z</time>
      </trkpt>
      <trkpt lat="44.49561" lon="2.2821">
        <ele>310</ele>
        <time>2011-08-09T08:19:10Z</time>
      </trkpt>
      <trkpt lat="44.49565" lon="2.28209">
        <ele>310.1</ele>
        <time>2011-08-09T08:19:11Z</time>
      </trkpt>
      <trkpt lat="44.49567" lon="2.28208">
        <ele>310.2</ele>
        <time>2011-08-09T08:19:12Z</time>
      </trkpt>
      <trkpt lat="44.49571" lon="2.28208">
        <ele>310.4</ele>
        <time>2011-08-09T08:19:13Z</time>
      </trkpt>
      <trkpt lat="44.49574" lon="2.28206">
        <ele>310.5</ele>
        <time>2011-08-09T08:19:14Z</time>
      </trkpt>
      <trkpt lat="44.49577" lon="2.28206">
        <ele>310.6</ele>
        <time>2011-08-09T08:19:15Z</time>
      </trkpt>
      <trkpt lat="44.49581" lon="2.28205">
        <ele>310.8</ele>
        <time>2011-08-09T08:19:16Z</time>
      </trkpt>
      <trkpt lat="44.49584" lon="2.28204">
        <ele>311</ele>
        <time>2011-08-09T08:19:17Z</time>
      </trkpt>
      <trkpt lat="44.49587" lon="2.28205">
        <ele>311.1</ele>
        <time>2011-08-09T08:19:18Z</time>
      </trkpt>
      <trkpt lat="44.49591" lon="2.28205">
        <ele>311.2</ele>
        <time>2011-08-09T08:19:19Z</time>
      </trkpt>
      <trkpt lat="44.49595" lon="2.28205">
        <ele>311.3</ele>
        <time>2011-08-09T08:19:20Z</time>
      </trkpt>
      <trkpt lat="44.49598" lon="2.28205">
        <ele>311.3</ele>
        <time>2011-08-09T08:19:21Z</time>
      </trkpt>
      <trkpt lat="44.49602" lon="2.28205">
        <ele>311.4</ele>
        <time>2011-08-09T08:19:22Z</time>
      </trkpt>
      <trkpt lat="44.49606" lon="2.28205">
        <ele>311.2</ele>
        <time>2011-08-09T08:19:23Z</time>
      </trkpt>
      <trkpt lat="44.49609" lon="2.28205">
        <ele>311.1</ele>
        <time>2011-08-09T08:19:24Z</time>
      </trkpt>
      <trkpt lat="44.49612" lon="2.28204">
        <ele>311</ele>
        <time>2011-08-09T08:19:25Z</time>
      </trkpt>
      <trkpt lat="44.49616" lon="2.28204">
        <ele>311.4</ele>
        <time>2011-08-09T08:19:26Z</time>
      </trkpt>
      <trkpt lat="44.49619" lon="2.28204">
        <ele>311.6</ele>
        <time>2011-08-09T08:19:27Z</time>
      </trkpt>
      <trkpt lat="44.49623" lon="2.28203">
        <ele>311.9</ele>
        <time>2011-08-09T08:19:28Z</time>
      </trkpt>
      <trkpt lat="44.49626" lon="2.28203">
        <ele>312</ele>
        <time>2011-08-09T08:19:29Z</time>
      </trkpt>
      <trkpt lat="44.4963" lon="2.28204">
        <ele>312.1</ele>
        <time>2011-08-09T08:19:30Z</time>
      </trkpt>
      <trkpt lat="44.49633" lon="2.28203">
        <ele>312.2</ele>
        <time>2011-08-09T08:19:31Z</time>
      </trkpt>
      <trkpt lat="44.49637" lon="2.28203">
        <ele>312</ele>
        <time>2011-08-09T08:19:32Z</time>
      </trkpt>
      <trkpt lat="44.49641" lon="2.28203">
        <ele>312</ele>
        <time>2011-08-09T08:19:33Z</time>
      </trkpt>
      <trkpt lat="44.49644" lon="2.28203">
        <ele>311.9</ele>
        <time>2011-08-09T08:19:34Z</time>
      </trkpt>
      <trkpt lat="44.49648" lon="2.28202">
        <ele>312.2</ele>
        <time>2011-08-09T08:19:35Z</time>
      </trkpt>
      <trkpt lat="44.49651" lon="2.28202">
        <ele>312.4</ele>
        <time>2011-08-09T08:19:36Z</time>
      </trkpt>
      <trkpt lat="44.49655" lon="2.28202">
        <ele>312.6</ele>
        <time>2011-08-09T08:19:37Z</time>
      </trkpt>
      <trkpt lat="44.49658" lon="2.28201">
        <ele>312.8</ele>
        <time>2011-08-09T08:19:38Z</time>
      </trkpt>
      <trkpt lat="44.49662" lon="2.28201">
        <ele>313.1</ele>
        <time>2011-08-09T08:19:39Z</time>
      </trkpt>
      <trkpt lat="44.49666" lon="2.282">
        <ele>313.3</ele>
        <time>2011-08-09T08:19:40Z</time>
      </trkpt>
      <trkpt lat="44.4967" lon="2.282">
        <ele>313.5</ele>
        <time>2011-08-09T08:19:41Z</time>
      </trkpt>
      <trkpt lat="44.49673" lon="2.28199">
        <ele>313.4</ele>
        <time>2011-08-09T08:19:42Z</time>
      </trkpt>
      <trkpt lat="44.49677" lon="2.28198">
        <ele>313.3</ele>
        <time>2011-08-09T08:19:43Z</time>
      </trkpt>
      <trkpt lat="44.49681" lon="2.28198">
        <ele>313.2</ele>
        <time>2011-08-09T08:19:44Z</time>
      </trkpt>
      <trkpt lat="44.49684" lon="2.28197">
        <ele>313.2</ele>
        <time>2011-08-09T08:19:45Z</time>
      </trkpt>
      <trkpt lat="44.49687" lon="2.28197">
        <ele>313.1</ele>
        <time>2011-08-09T08:19:46Z</time>
      </trkpt>
      <trkpt lat="44.49691" lon="2.28196">
        <ele>313</ele>
        <time>2011-08-09T08:19:47Z</time>
      </trkpt>
      <trkpt lat="44.49694" lon="2.28195">
        <ele>313.3</ele>
        <time>2011-08-09T08:19:48Z</time>
      </trkpt>
      <trkpt lat="44.49698" lon="2.28195">
        <ele>313.5</ele>
        <time>2011-08-09T08:19:49Z</time>
      </trkpt>
      <trkpt lat="44.49701" lon="2.28194">
        <ele>313.7</ele>
        <time>2011-08-09T08:19:50Z</time>
      </trkpt>
      <trkpt lat="44.49705" lon="2.28193">
        <ele>313.9</ele>
        <time>2011-08-09T08:19:51Z</time>
      </trkpt>
      <trkpt lat="44.49709" lon="2.28192">
        <ele>314.1</ele>
        <time>2011-08-09T08:19:52Z</time>
      </trkpt>
      <trkpt lat="44.49712" lon="2.28192">
        <ele>314.2</ele>
        <time>2011-08-09T08:19:53Z</time>
      </trkpt>
      <trkpt lat="44.49716" lon="2.28191">
        <ele>314.3</ele>
        <time>2011-08-09T08:19:54Z</time>
      </trkpt>
      <trkpt lat="44.4972" lon="2.28191">
        <ele>314.3</ele>
        <time>2011-08-09T08:19:55Z</time>
      </trkpt>
      <trkpt lat="44.49724" lon="2.2819">
        <ele>314.4</ele>
        <time>2011-08-09T08:19:56Z</time>
      </trkpt>
      <trkpt lat="44.49728" lon="2.28189">
        <ele>314.4</ele>
        <time>2011-08-09T08:19:57Z</time>
      </trkpt>
      <trkpt lat="44.49731" lon="2.28188">
        <ele>314.2</ele>
        <time>2011-08-09T08:19:58Z</time>
      </trkpt>
      <trkpt lat="44.49735" lon="2.28187">
        <ele>314</ele>
        <time>2011-08-09T08:19:59Z</time>
      </trkpt>
      <trkpt lat="44.49739" lon="2.28186">
        <ele>313.9</ele>
        <time>2011-08-09T08:20:00Z</time>
      </trkpt>
      <trkpt lat="44.49743" lon="2.28185">
        <ele>314.1</ele>
        <time>2011-08-09T08:20:01Z</time>
      </trkpt>
      <trkpt lat="44.49747" lon="2.28184">
        <ele>314.3</ele>
        <time>2011-08-09T08:20:02Z</time>
      </trkpt>
      <trkpt lat="44.49751" lon="2.28183">
        <ele>314.4</ele>
        <time>2011-08-09T08:20:03Z</time>
      </trkpt>
      <trkpt lat="44.49755" lon="2.28182">
        <ele>315</ele>
        <time>2011-08-09T08:20:04Z</time>
      </trkpt>
      <trkpt lat="44.49759" lon="2.28181">
        <ele>315.4</ele>
        <time>2011-08-09T08:20:05Z</time>
      </trkpt>
      <trkpt lat="44.49763" lon="2.2818">
        <ele>315.7</ele>
        <time>2011-08-09T08:20:06Z</time>
      </trkpt>
      <trkpt lat="44.49766" lon="2.28179">
        <ele>315.5</ele>
        <time>2011-08-09T08:20:07Z</time>
      </trkpt>
      <trkpt lat="44.4977" lon="2.28179">
        <ele>315.4</ele>
        <time>2011-08-09T08:20:08Z</time>
      </trkpt>
      <trkpt lat="44.49774" lon="2.28178">
        <ele>315.3</ele>
        <time>2011-08-09T08:20:09Z</time>
      </trkpt>
      <trkpt lat="44.49778" lon="2.28177">
        <ele>315.2</ele>
        <time>2011-08-09T08:20:10Z</time>
      </trkpt>
      <trkpt lat="44.49781" lon="2.28176">
        <ele>315.9</ele>
        <time>2011-08-09T08:20:11Z</time>
      </trkpt>
      <trkpt lat="44.49785" lon="2.28175">
        <ele>316.5</ele>
        <time>2011-08-09T08:20:12Z</time>
      </trkpt>
      <trkpt lat="44.49789" lon="2.28175">
        <ele>316.9</ele>
        <time>2011-08-09T08:20:13Z</time>
      </trkpt>
      <trkpt lat="44.49793" lon="2.28175">
        <ele>316.7</ele>
        <time>2011-08-09T08:20:14Z</time>
      </trkpt>
      <trkpt lat="44.49796" lon="2.28175">
        <ele>316.5</ele>
        <time>2011-08-09T08:20:15Z</time>
      </trkpt>
      <trkpt lat="44.498" lon="2.28175">
        <ele>316.4</ele>
        <time>2011-08-09T08:20:16Z</time>
      </trkpt>
      <trkpt lat="44.49803" lon="2.28174">
        <ele>316.5</ele>
        <time>2011-08-09T08:20:17Z</time>
      </trkpt>
      <trkpt lat="44.49806" lon="2.28174">
        <ele>316.6</ele>
        <time>2011-08-09T08:20:18Z</time>
      </trkpt>
      <trkpt lat="44.49808" lon="2.28172">
        <ele>316.7</ele>
        <time>2011-08-09T08:20:19Z</time>
      </trkpt>
      <trkpt lat="44.49811" lon="2.28171">
        <ele>316.7</ele>
        <time>2011-08-09T08:20:20Z</time>
      </trkpt>
      <trkpt lat="44.49814" lon="2.28169">
        <ele>316.6</ele>
        <time>2011-08-09T08:20:21Z</time>
      </trkpt>
      <trkpt lat="44.49817" lon="2.28166">
        <ele>316.6</ele>
        <time>2011-08-09T08:20:22Z</time>
      </trkpt>
      <trkpt lat="44.49819" lon="2.28162">
        <ele>316.5</ele>
        <time>2011-08-09T08:20:23Z</time>
      </trkpt>
      <trkpt lat="44.49821" lon="2.28158">
        <ele>316.4</ele>
        <time>2011-08-09T08:20:24Z</time>
      </trkpt>
      <trkpt lat="44.49822" lon="2.28154">
        <ele>316.3</ele>
        <time>2011-08-09T08:20:25Z</time>
      </trkpt>
      <trkpt lat="44.49823" lon="2.2815">
        <ele>316.2</ele>
        <time>2011-08-09T08:20:26Z</time>
      </trkpt>
      <trkpt lat="44.49824" lon="2.28146">
        <ele>316.4</ele>
        <time>2011-08-09T08:20:27Z</time>
      </trkpt>
      <trkpt lat="44.49825" lon="2.28142">
        <ele>316.6</ele>
        <time>2011-08-09T08:20:28Z</time>
      </trkpt>
      <trkpt lat="44.49825" lon="2.28138">
        <ele>316.7</ele>
        <time>2011-08-09T08:20:29Z</time>
      </trkpt>
      <trkpt lat="44.49826" lon="2.28134">
        <ele>316.8</ele>
        <time>2011-08-09T08:20:30Z</time>
      </trkpt>
      <trkpt lat="44.49827" lon="2.28129">
        <ele>316.9</ele>
        <time>2011-08-09T08:20:31Z</time>
      </trkpt>
      <trkpt lat="44.49828" lon="2.28125">
        <ele>317</ele>
        <time>2011-08-09T08:20:32Z</time>
      </trkpt>
      <trkpt lat="44.49828" lon="2.28121">
        <ele>317.3</ele>
        <time>2011-08-09T08:20:33Z</time>
      </trkpt>
      <trkpt lat="44.49829" lon="2.28116">
        <ele>317.5</ele>
        <time>2011-08-09T08:20:34Z</time>
      </trkpt>
      <trkpt lat="44.49829" lon="2.28112">
        <ele>317.7</ele>
        <time>2011-08-09T08:20:35Z</time>
      </trkpt>
      <trkpt lat="44.49829" lon="2.28108">
        <ele>317.6</ele>
        <time>2011-08-09T08:20:36Z</time>
      </trkpt>
      <trkpt lat="44.4983" lon="2.28103">
        <ele>317.6</ele>
        <time>2011-08-09T08:20:37Z</time>
      </trkpt>
      <trkpt lat="44.4983" lon="2.28099">
        <ele>317.5</ele>
        <time>2011-08-09T08:20:38Z</time>
      </trkpt>
      <trkpt lat="44.49831" lon="2.28094">
        <ele>317.3</ele>
        <time>2011-08-09T08:20:39Z</time>
      </trkpt>
      <trkpt lat="44.4983" lon="2.28089">
        <ele>317</ele>
        <time>2011-08-09T08:20:40Z</time>
      </trkpt>
      <trkpt lat="44.49829" lon="2.28084">
        <ele>316.9</ele>
        <time>2011-08-09T08:20:41Z</time>
      </trkpt>
      <trkpt lat="44.49828" lon="2.28079">
        <ele>316.9</ele>
        <time>2011-08-09T08:20:42Z</time>
      </trkpt>
      <trkpt lat="44.49827" lon="2.28075">
        <ele>316.9</ele>
        <time>2011-08-09T08:20:43Z</time>
      </trkpt>
      <trkpt lat="44.49825" lon="2.28071">
        <ele>316.8</ele>
        <time>2011-08-09T08:20:44Z</time>
      </trkpt>
      <trkpt lat="44.49824" lon="2.28068">
        <ele>316.8</ele>
        <time>2011-08-09T08:20:45Z</time>
      </trkpt>
      <trkpt lat="44.49822" lon="2.28065">
        <ele>316.2</ele>
        <time>2011-08-09T08:20:46Z</time>
      </trkpt>
      <trkpt lat="44.4982" lon="2.28059">
        <ele>315.3</ele>
        <time>2011-08-09T08:20:48Z</time>
      </trkpt>
      <trkpt lat="44.4982" lon="2.28055">
        <ele>314.8</ele>
        <time>2011-08-09T08:20:50Z</time>
      </trkpt>
      <trkpt lat="44.49822" lon="2.2805">
        <ele>314.3</ele>
        <time>2011-08-09T08:20:52Z</time>
      </trkpt>
      <trkpt lat="44.49823" lon="2.28044">
        <ele>313.9</ele>
        <time>2011-08-09T08:20:54Z</time>
      </trkpt>
      <trkpt lat="44.49825" lon="2.28041">
        <ele>313.5</ele>
        <time>2011-08-09T08:20:55Z</time>
      </trkpt>
      <trkpt lat="44.49826" lon="2.28038">
        <ele>313.2</ele>
        <time>2011-08-09T08:20:56Z</time>
      </trkpt>
      <trkpt lat="44.49828" lon="2.28036">
        <ele>312.9</ele>
        <time>2011-08-09T08:20:57Z</time>
      </trkpt>
      <trkpt lat="44.4983" lon="2.28032">
        <ele>312.3</ele>
        <time>2011-08-09T08:20:58Z</time>
      </trkpt>
      <trkpt lat="44.49833" lon="2.28028">
        <ele>311.9</ele>
        <time>2011-08-09T08:20:59Z</time>
      </trkpt>
      <trkpt lat="44.49836" lon="2.28022">
        <ele>311.6</ele>
        <time>2011-08-09T08:21:00Z</time>
      </trkpt>
      <trkpt lat="44.49839" lon="2.28017">
        <ele>311.3</ele>
        <time>2011-08-09T08:21:01Z</time>
      </trkpt>
      <trkpt lat="44.49843" lon="2.28011">
        <ele>310.2</ele>
        <time>2011-08-09T08:21:02Z</time>
      </trkpt>
      <trkpt lat="44.49847" lon="2.28005">
        <ele>309.4</ele>
        <time>2011-08-09T08:21:03Z</time>
      </trkpt>
      <trkpt lat="44.4985" lon="2.28">
        <ele>308.8</ele>
        <time>2011-08-09T08:21:04Z</time>
      </trkpt>
      <trkpt lat="44.49853" lon="2.27996">
        <ele>308</ele>
        <time>2011-08-09T08:21:05Z</time>
      </trkpt>
      <trkpt lat="44.49855" lon="2.2799">
        <ele>307.4</ele>
        <time>2011-08-09T08:21:06Z</time>
      </trkpt>
      <trkpt lat="44.49858" lon="2.27985">
        <ele>306.9</ele>
        <time>2011-08-09T08:21:07Z</time>
      </trkpt>
      <trkpt lat="44.49861" lon="2.27979">
        <ele>305.9</ele>
        <time>2011-08-09T08:21:08Z</time>
      </trkpt>
      <trkpt lat="44.49864" lon="2.27974">
        <ele>305.1</ele>
        <time>2011-08-09T08:21:09Z</time>
      </trkpt>
      <trkpt lat="44.49869" lon="2.27971">
        <ele>304.6</ele>
        <time>2011-08-09T08:21:10Z</time>
      </trkpt>
      <trkpt lat="44.49873" lon="2.27969">
        <ele>303.5</ele>
        <time>2011-08-09T08:21:11Z</time>
      </trkpt>
      <trkpt lat="44.49877" lon="2.27967">
        <ele>302.8</ele>
        <time>2011-08-09T08:21:12Z</time>
      </trkpt>
      <trkpt lat="44.4988" lon="2.27965">
        <ele>302.2</ele>
        <time>2011-08-09T08:21:13Z</time>
      </trkpt>
      <trkpt lat="44.49881" lon="2.27961">
        <ele>302</ele>
        <time>2011-08-09T08:21:14Z</time>
      </trkpt>
      <trkpt lat="44.49882" lon="2.27957">
        <ele>301.8</ele>
        <time>2011-08-09T08:21:15Z</time>
      </trkpt>
      <trkpt lat="44.49882" lon="2.27953">
        <ele>301.6</ele>
        <time>2011-08-09T08:21:16Z</time>
      </trkpt>
      <trkpt lat="44.49882" lon="2.27948">
        <ele>301.5</ele>
        <time>2011-08-09T08:21:17Z</time>
      </trkpt>
      <trkpt lat="44.49882" lon="2.27944">
        <ele>301.3</ele>
        <time>2011-08-09T08:21:18Z</time>
      </trkpt>
      <trkpt lat="44.49882" lon="2.2794">
        <ele>301.1</ele>
        <time>2011-08-09T08:21:19Z</time>
      </trkpt>
      <trkpt lat="44.49882" lon="2.27935">
        <ele>301</ele>
        <time>2011-08-09T08:21:20Z</time>
      </trkpt>
      <trkpt lat="44.49883" lon="2.27931">
        <ele>300.9</ele>
        <time>2011-08-09T08:21:21Z</time>
      </trkpt>
      <trkpt lat="44.49883" lon="2.27926">
        <ele>300.9</ele>
        <time>2011-08-09T08:21:22Z</time>
      </trkpt>
      <trkpt lat="44.49883" lon="2.27921">
        <ele>300.9</ele>
        <time>2011-08-09T08:21:23Z</time>
      </trkpt>
      <trkpt lat="44.49882" lon="2.27916">
        <ele>300.6</ele>
        <time>2011-08-09T08:21:24Z</time>
      </trkpt>
      <trkpt lat="44.49881" lon="2.27911">
        <ele>300.5</ele>
        <time>2011-08-09T08:21:25Z</time>
      </trkpt>
      <trkpt lat="44.4988" lon="2.27906">
        <ele>300.4</ele>
        <time>2011-08-09T08:21:26Z</time>
      </trkpt>
      <trkpt lat="44.49878" lon="2.27901">
        <ele>300.5</ele>
        <time>2011-08-09T08:21:27Z</time>
      </trkpt>
      <trkpt lat="44.49877" lon="2.27896">
        <ele>300.7</ele>
        <time>2011-08-09T08:21:28Z</time>
      </trkpt>
      <trkpt lat="44.49876" lon="2.27891">
        <ele>300.8</ele>
        <time>2011-08-09T08:21:29Z</time>
      </trkpt>
      <trkpt lat="44.49874" lon="2.27887">
        <ele>300.6</ele>
        <time>2011-08-09T08:21:30Z</time>
      </trkpt>
      <trkpt lat="44.49873" lon="2.27882">
        <ele>300.4</ele>
        <time>2011-08-09T08:21:31Z</time>
      </trkpt>
      <trkpt lat="44.49871" lon="2.27876">
        <ele>300.3</ele>
        <time>2011-08-09T08:21:32Z</time>
      </trkpt>
      <trkpt lat="44.4987" lon="2.27871">
        <ele>300.2</ele>
        <time>2011-08-09T08:21:33Z</time>
      </trkpt>
      <trkpt lat="44.49868" lon="2.27866">
        <ele>300.4</ele>
        <time>2011-08-09T08:21:34Z</time>
      </trkpt>
      <trkpt lat="44.49867" lon="2.2786">
        <ele>300.6</ele>
        <time>2011-08-09T08:21:35Z</time>
      </trkpt>
      <trkpt lat="44.49866" lon="2.27853">
        <ele>300.7</ele>
        <time>2011-08-09T08:21:36Z</time>
      </trkpt>
      <trkpt lat="44.49865" lon="2.27847">
        <ele>300.7</ele>
        <time>2011-08-09T08:21:37Z</time>
      </trkpt>
      <trkpt lat="44.49865" lon="2.2784">
        <ele>300.7</ele>
        <time>2011-08-09T08:21:38Z</time>
      </trkpt>
      <trkpt lat="44.49864" lon="2.27833">
        <ele>300.7</ele>
        <time>2011-08-09T08:21:39Z</time>
      </trkpt>
      <trkpt lat="44.49864" lon="2.27826">
        <ele>300.4</ele>
        <time>2011-08-09T08:21:40Z</time>
      </trkpt>
      <trkpt lat="44.49863" lon="2.2782">
        <ele>300.1</ele>
        <time>2011-08-09T08:21:41Z</time>
      </trkpt>
      <trkpt lat="44.49863" lon="2.27813">
        <ele>299.9</ele>
        <time>2011-08-09T08:21:42Z</time>
      </trkpt>
      <trkpt lat="44.49863" lon="2.27806">
        <ele>299.8</ele>
        <time>2011-08-09T08:21:43Z</time>
      </trkpt>
      <trkpt lat="44.49863" lon="2.278">
        <ele>299.7</ele>
        <time>2011-08-09T08:21:44Z</time>
      </trkpt>
      <trkpt lat="44.49863" lon="2.27793">
        <ele>299.6</ele>
        <time>2011-08-09T08:21:45Z</time>
      </trkpt>
      <trkpt lat="44.49862" lon="2.27786">
        <ele>299.5</ele>
        <time>2011-08-09T08:21:46Z</time>
      </trkpt>
      <trkpt lat="44.49862" lon="2.27779">
        <ele>299.4</ele>
        <time>2011-08-09T08:21:47Z</time>
      </trkpt>
      <trkpt lat="44.49862" lon="2.27772">
        <ele>299.3</ele>
        <time>2011-08-09T08:21:48Z</time>
      </trkpt>
      <trkpt lat="44.49861" lon="2.27764">
        <ele>299.3</ele>
        <time>2011-08-09T08:21:49Z</time>
      </trkpt>
      <trkpt lat="44.49861" lon="2.27757">
        <ele>299.1</ele>
        <time>2011-08-09T08:21:50Z</time>
      </trkpt>
      <trkpt lat="44.4986" lon="2.2775">
        <ele>299</ele>
        <time>2011-08-09T08:21:51Z</time>
      </trkpt>
      <trkpt lat="44.49859" lon="2.27743">
        <ele>298.9</ele>
        <time>2011-08-09T08:21:52Z</time>
      </trkpt>
      <trkpt lat="44.49858" lon="2.27737">
        <ele>298.9</ele>
        <time>2011-08-09T08:21:53Z</time>
      </trkpt>
      <trkpt lat="44.49856" lon="2.2773">
        <ele>298.9</ele>
        <time>2011-08-09T08:21:54Z</time>
      </trkpt>
      <trkpt lat="44.49855" lon="2.27724">
        <ele>298.9</ele>
        <time>2011-08-09T08:21:55Z</time>
      </trkpt>
      <trkpt lat="44.49853" lon="2.27718">
        <ele>298.7</ele>
        <time>2011-08-09T08:21:56Z</time>
      </trkpt>
      <trkpt lat="44.49851" lon="2.27712">
        <ele>298.5</ele>
        <time>2011-08-09T08:21:57Z</time>
      </trkpt>
      <trkpt lat="44.49848" lon="2.27705">
        <ele>298.4</ele>
        <time>2011-08-09T08:21:58Z</time>
      </trkpt>
      <trkpt lat="44.49846" lon="2.27699">
        <ele>298.4</ele>
        <time>2011-08-09T08:21:59Z</time>
      </trkpt>
      <trkpt lat="44.49844" lon="2.27693">
        <ele>298.3</ele>
        <time>2011-08-09T08:22:00Z</time>
      </trkpt>
      <trkpt lat="44.49841" lon="2.27687">
        <ele>298.3</ele>
        <time>2011-08-09T08:22:01Z</time>
      </trkpt>
      <trkpt lat="44.49838" lon="2.27681">
        <ele>298.5</ele>
        <time>2011-08-09T08:22:02Z</time>
      </trkpt>
      <trkpt lat="44.49835" lon="2.27675">
        <ele>298.7</ele>
        <time>2011-08-09T08:22:03Z</time>
      </trkpt>
      <trkpt lat="44.49833" lon="2.27669">
        <ele>298.9</ele>
        <time>2011-08-09T08:22:04Z</time>
      </trkpt>
      <trkpt lat="44.4983" lon="2.27663">
        <ele>298.7</ele>
        <time>2011-08-09T08:22:05Z</time>
      </trkpt>
      <trkpt lat="44.49827" lon="2.27657">
        <ele>298.6</ele>
        <time>2011-08-09T08:22:06Z</time>
      </trkpt>
      <trkpt lat="44.49824" lon="2.27651">
        <ele>298.5</ele>
        <time>2011-08-09T08:22:07Z</time>
      </trkpt>
      <trkpt lat="44.49822" lon="2.27645">
        <ele>298.5</ele>
        <time>2011-08-09T08:22:08Z</time>
      </trkpt>
      <trkpt lat="44.49819" lon="2.27639">
        <ele>298.4</ele>
        <time>2011-08-09T08:22:09Z</time>
      </trkpt>
      <trkpt lat="44.49816" lon="2.27633">
        <ele>298.3</ele>
        <time>2011-08-09T08:22:10Z</time>
      </trkpt>
      <trkpt lat="44.49813" lon="2.27627">
        <ele>298.3</ele>
        <time>2011-08-09T08:22:11Z</time>
      </trkpt>
      <trkpt lat="44.4981" lon="2.27621">
        <ele>298.4</ele>
        <time>2011-08-09T08:22:12Z</time>
      </trkpt>
      <trkpt lat="44.49808" lon="2.27615">
        <ele>298.4</ele>
        <time>2011-08-09T08:22:13Z</time>
      </trkpt>
      <trkpt lat="44.49805" lon="2.2761">
        <ele>298.4</ele>
        <time>2011-08-09T08:22:14Z</time>
      </trkpt>
      <trkpt lat="44.49801" lon="2.27604">
        <ele>298.6</ele>
        <time>2011-08-09T08:22:15Z</time>
      </trkpt>
      <trkpt lat="44.49799" lon="2.27598">
        <ele>298.7</ele>
        <time>2011-08-09T08:22:16Z</time>
      </trkpt>
      <trkpt lat="44.49797" lon="2.27592">
        <ele>298.8</ele>
        <time>2011-08-09T08:22:17Z</time>
      </trkpt>
      <trkpt lat="44.49794" lon="2.27587">
        <ele>298.4</ele>
        <time>2011-08-09T08:22:18Z</time>
      </trkpt>
      <trkpt lat="44.49792" lon="2.27582">
        <ele>298.2</ele>
        <time>2011-08-09T08:22:19Z</time>
      </trkpt>
      <trkpt lat="44.4979" lon="2.27576">
        <ele>298</ele>
        <time>2011-08-09T08:22:20Z</time>
      </trkpt>
      <trkpt lat="44.49787" lon="2.27571">
        <ele>298.1</ele>
        <time>2011-08-09T08:22:21Z</time>
      </trkpt>
      <trkpt lat="44.49786" lon="2.27566">
        <ele>298.2</ele>
        <time>2011-08-09T08:22:22Z</time>
      </trkpt>
      <trkpt lat="44.49784" lon="2.27561">
        <ele>298.3</ele>
        <time>2011-08-09T08:22:23Z</time>
      </trkpt>
      <trkpt lat="44.49783" lon="2.27555">
        <ele>298.3</ele>
        <time>2011-08-09T08:22:24Z</time>
      </trkpt>
      <trkpt lat="44.49782" lon="2.27549">
        <ele>298.6</ele>
        <time>2011-08-09T08:22:25Z</time>
      </trkpt>
      <trkpt lat="44.49782" lon="2.27544">
        <ele>298.8</ele>
        <time>2011-08-09T08:22:26Z</time>
      </trkpt>
      <trkpt lat="44.49782" lon="2.27539">
        <ele>298.9</ele>
        <time>2011-08-09T08:22:27Z</time>
      </trkpt>
      <trkpt lat="44.49782" lon="2.27533">
        <ele>298.6</ele>
        <time>2011-08-09T08:22:28Z</time>
      </trkpt>
      <trkpt lat="44.49781" lon="2.27528">
        <ele>298.4</ele>
        <time>2011-08-09T08:22:29Z</time>
      </trkpt>
      <trkpt lat="44.49781" lon="2.27523">
        <ele>298.2</ele>
        <time>2011-08-09T08:22:30Z</time>
      </trkpt>
      <trkpt lat="44.49781" lon="2.27517">
        <ele>298.6</ele>
        <time>2011-08-09T08:22:31Z</time>
      </trkpt>
      <trkpt lat="44.49781" lon="2.27512">
        <ele>298.9</ele>
        <time>2011-08-09T08:22:32Z</time>
      </trkpt>
      <trkpt lat="44.49781" lon="2.27506">
        <ele>299.2</ele>
        <time>2011-08-09T08:22:33Z</time>
      </trkpt>
      <trkpt lat="44.49782" lon="2.275">
        <ele>299.5</ele>
        <time>2011-08-09T08:22:34Z</time>
      </trkpt>
      <trkpt lat="44.49782" lon="2.27495">
        <ele>299.7</ele>
        <time>2011-08-09T08:22:35Z</time>
      </trkpt>
      <trkpt lat="44.49782" lon="2.27489">
        <ele>299.9</ele>
        <time>2011-08-09T08:22:36Z</time>
      </trkpt>
      <trkpt lat="44.49782" lon="2.27484">
        <ele>299.9</ele>
        <time>2011-08-09T08:22:37Z</time>
      </trkpt>
      <trkpt lat="44.49782" lon="2.27478">
        <ele>299.8</ele>
        <time>2011-08-09T08:22:38Z</time>
      </trkpt>
      <trkpt lat="44.49782" lon="2.27472">
        <ele>299.8</ele>
        <time>2011-08-09T08:22:39Z</time>
      </trkpt>
      <trkpt lat="44.49782" lon="2.27467">
        <ele>299.8</ele>
        <time>2011-08-09T08:22:40Z</time>
      </trkpt>
      <trkpt lat="44.49782" lon="2.27461">
        <ele>300.1</ele>
        <time>2011-08-09T08:22:41Z</time>
      </trkpt>
      <trkpt lat="44.49782" lon="2.27455">
        <ele>300.2</ele>
        <time>2011-08-09T08:22:42Z</time>
      </trkpt>
      <trkpt lat="44.49782" lon="2.2745">
        <ele>300.4</ele>
        <time>2011-08-09T08:22:43Z</time>
      </trkpt>
      <trkpt lat="44.49783" lon="2.27444">
        <ele>300.6</ele>
        <time>2011-08-09T08:22:44Z</time>
      </trkpt>
      <trkpt lat="44.49783" lon="2.27439">
        <ele>300.7</ele>
        <time>2011-08-09T08:22:45Z</time>
      </trkpt>
      <trkpt lat="44.49784" lon="2.27433">
        <ele>300.9</ele>
        <time>2011-08-09T08:22:46Z</time>
      </trkpt>
      <trkpt lat="44.49784" lon="2.27428">
        <ele>301</ele>
        <time>2011-08-09T08:22:47Z</time>
      </trkpt>
      <trkpt lat="44.49784" lon="2.27423">
        <ele>301.1</ele>
        <time>2011-08-09T08:22:48Z</time>
      </trkpt>
      <trkpt lat="44.49784" lon="2.27417">
        <ele>301.1</ele>
        <time>2011-08-09T08:22:49Z</time>
      </trkpt>
      <trkpt lat="44.49784" lon="2.27412">
        <ele>301.3</ele>
        <time>2011-08-09T08:22:50Z</time>
      </trkpt>
      <trkpt lat="44.49784" lon="2.27406">
        <ele>301.5</ele>
        <time>2011-08-09T08:22:51Z</time>
      </trkpt>
      <trkpt lat="44.49785" lon="2.27401">
        <ele>301.6</ele>
        <time>2011-08-09T08:22:52Z</time>
      </trkpt>
      <trkpt lat="44.49785" lon="2.27396">
        <ele>301.8</ele>
        <time>2011-08-09T08:22:53Z</time>
      </trkpt>
      <trkpt lat="44.49786" lon="2.2739">
        <ele>301.8</ele>
        <time>2011-08-09T08:22:54Z</time>
      </trkpt>
      <trkpt lat="44.49786" lon="2.27385">
        <ele>301.9</ele>
        <time>2011-08-09T08:22:55Z</time>
      </trkpt>
      <trkpt lat="44.49786" lon="2.27379">
        <ele>302</ele>
        <time>2011-08-09T08:22:56Z</time>
      </trkpt>
      <trkpt lat="44.49787" lon="2.27374">
        <ele>302.1</ele>
        <time>2011-08-09T08:22:57Z</time>
      </trkpt>
      <trkpt lat="44.49787" lon="2.27368">
        <ele>302.2</ele>
        <time>2011-08-09T08:22:58Z</time>
      </trkpt>
      <trkpt lat="44.49788" lon="2.27363">
        <ele>302.2</ele>
        <time>2011-08-09T08:22:59Z</time>
      </trkpt>
      <trkpt lat="44.49789" lon="2.27357">
        <ele>302.3</ele>
        <time>2011-08-09T08:23:00Z</time>
      </trkpt>
      <trkpt lat="44.49789" lon="2.27352">
        <ele>302.3</ele>
        <time>2011-08-09T08:23:01Z</time>
      </trkpt>
      <trkpt lat="44.4979" lon="2.27346">
        <ele>302.3</ele>
        <time>2011-08-09T08:23:02Z</time>
      </trkpt>
      <trkpt lat="44.49791" lon="2.27341">
        <ele>302.3</ele>
        <time>2011-08-09T08:23:03Z</time>
      </trkpt>
      <trkpt lat="44.49792" lon="2.27336">
        <ele>302.3</ele>
        <time>2011-08-09T08:23:04Z</time>
      </trkpt>
      <trkpt lat="44.49793" lon="2.2733">
        <ele>302.3</ele>
        <time>2011-08-09T08:23:05Z</time>
      </trkpt>
      <trkpt lat="44.49795" lon="2.27325">
        <ele>302.5</ele>
        <time>2011-08-09T08:23:06Z</time>
      </trkpt>
      <trkpt lat="44.49796" lon="2.27319">
        <ele>302.6</ele>
        <time>2011-08-09T08:23:07Z</time>
      </trkpt>
      <trkpt lat="44.49797" lon="2.27314">
        <ele>302.7</ele>
        <time>2011-08-09T08:23:08Z</time>
      </trkpt>
      <trkpt lat="44.49798" lon="2.27308">
        <ele>302.5</ele>
        <time>2011-08-09T08:23:09Z</time>
      </trkpt>
      <trkpt lat="44.49799" lon="2.27302">
        <ele>302.3</ele>
        <time>2011-08-09T08:23:10Z</time>
      </trkpt>
      <trkpt lat="44.49801" lon="2.27297">
        <ele>302.2</ele>
        <time>2011-08-09T08:23:11Z</time>
      </trkpt>
      <trkpt lat="44.49802" lon="2.27291">
        <ele>302.4</ele>
        <time>2011-08-09T08:23:12Z</time>
      </trkpt>
      <trkpt lat="44.49803" lon="2.27285">
        <ele>302.5</ele>
        <time>2011-08-09T08:23:13Z</time>
      </trkpt>
      <trkpt lat="44.49804" lon="2.27279">
        <ele>302.7</ele>
        <time>2011-08-09T08:23:14Z</time>
      </trkpt>
      <trkpt lat="44.49806" lon="2.27273">
        <ele>302.7</ele>
        <time>2011-08-09T08:23:15Z</time>
      </trkpt>
      <trkpt lat="44.49808" lon="2.27267">
        <ele>302.9</ele>
        <time>2011-08-09T08:23:16Z</time>
      </trkpt>
      <trkpt lat="44.4981" lon="2.27262">
        <ele>303</ele>
        <time>2011-08-09T08:23:17Z</time>
      </trkpt>
      <trkpt lat="44.49812" lon="2.27256">
        <ele>303.1</ele>
        <time>2011-08-09T08:23:18Z</time>
      </trkpt>
      <trkpt lat="44.49814" lon="2.27251">
        <ele>302.9</ele>
        <time>2011-08-09T08:23:19Z</time>
      </trkpt>
      <trkpt lat="44.49816" lon="2.27246">
        <ele>302.8</ele>
        <time>2011-08-09T08:23:20Z</time>
      </trkpt>
      <trkpt lat="44.49818" lon="2.27241">
        <ele>302.6</ele>
        <time>2011-08-09T08:23:21Z</time>
      </trkpt>
      <trkpt lat="44.4982" lon="2.27236">
        <ele>302.8</ele>
        <time>2011-08-09T08:23:22Z</time>
      </trkpt>
      <trkpt lat="44.49822" lon="2.27231">
        <ele>302.8</ele>
        <time>2011-08-09T08:23:23Z</time>
      </trkpt>
      <trkpt lat="44.49825" lon="2.27226">
        <ele>302.9</ele>
        <time>2011-08-09T08:23:24Z</time>
      </trkpt>
      <trkpt lat="44.49827" lon="2.27221">
        <ele>302.4</ele>
        <time>2011-08-09T08:23:25Z</time>
      </trkpt>
      <trkpt lat="44.49829" lon="2.27216">
        <ele>302.1</ele>
        <time>2011-08-09T08:23:26Z</time>
      </trkpt>
      <trkpt lat="44.49831" lon="2.27211">
        <ele>301.8</ele>
        <time>2011-08-09T08:23:27Z</time>
      </trkpt>
      <trkpt lat="44.49833" lon="2.27206">
        <ele>301.9</ele>
        <time>2011-08-09T08:23:28Z</time>
      </trkpt>
      <trkpt lat="44.49835" lon="2.27202">
        <ele>301.9</ele>
        <time>2011-08-09T08:23:29Z</time>
      </trkpt>
      <trkpt lat="44.49837" lon="2.27197">
        <ele>302</ele>
        <time>2011-08-09T08:23:30Z</time>
      </trkpt>
      <trkpt lat="44.49839" lon="2.27192">
        <ele>302</ele>
        <time>2011-08-09T08:23:31Z</time>
      </trkpt>
      <trkpt lat="44.49841" lon="2.27187">
        <ele>302.2</ele>
        <time>2011-08-09T08:23:32Z</time>
      </trkpt>
      <trkpt lat="44.49843" lon="2.27182">
        <ele>302.3</ele>
        <time>2011-08-09T08:23:33Z</time>
      </trkpt>
      <trkpt lat="44.49846" lon="2.27177">
        <ele>302.4</ele>
        <time>2011-08-09T08:23:34Z</time>
      </trkpt>
      <trkpt lat="44.49848" lon="2.27172">
        <ele>302.2</ele>
        <time>2011-08-09T08:23:35Z</time>
      </trkpt>
      <trkpt lat="44.4985" lon="2.27168">
        <ele>302</ele>
        <time>2011-08-09T08:23:36Z</time>
      </trkpt>
      <trkpt lat="44.49853" lon="2.27163">
        <ele>301.9</ele>
        <time>2011-08-09T08:23:37Z</time>
      </trkpt>
      <trkpt lat="44.49855" lon="2.27157">
        <ele>302.1</ele>
        <time>2011-08-09T08:23:38Z</time>
      </trkpt>
      <trkpt lat="44.49857" lon="2.27152">
        <ele>302.3</ele>
        <time>2011-08-09T08:23:39Z</time>
      </trkpt>
      <trkpt lat="44.49859" lon="2.27147">
        <ele>302.4</ele>
        <time>2011-08-09T08:23:40Z</time>
      </trkpt>
      <trkpt lat="44.49862" lon="2.27141">
        <ele>302.2</ele>
        <time>2011-08-09T08:23:41Z</time>
      </trkpt>
      <trkpt lat="44.49864" lon="2.27136">
        <ele>302</ele>
        <time>2011-08-09T08:23:42Z</time>
      </trkpt>
      <trkpt lat="44.49866" lon="2.27131">
        <ele>301.9</ele>
        <time>2011-08-09T08:23:43Z</time>
      </trkpt>
      <trkpt lat="44.49868" lon="2.27125">
        <ele>301.7</ele>
        <time>2011-08-09T08:23:44Z</time>
      </trkpt>
      <trkpt lat="44.4987" lon="2.2712">
        <ele>301.6</ele>
        <time>2011-08-09T08:23:45Z</time>
      </trkpt>
      <trkpt lat="44.49871" lon="2.27114">
        <ele>301.5</ele>
        <time>2011-08-09T08:23:46Z</time>
      </trkpt>
      <trkpt lat="44.49873" lon="2.27108">
        <ele>301.5</ele>
        <time>2011-08-09T08:23:47Z</time>
      </trkpt>
      <trkpt lat="44.49875" lon="2.27103">
        <ele>301.2</ele>
        <time>2011-08-09T08:23:48Z</time>
      </trkpt>
      <trkpt lat="44.49876" lon="2.27097">
        <ele>301</ele>
        <time>2011-08-09T08:23:49Z</time>
      </trkpt>
      <trkpt lat="44.49878" lon="2.27092">
        <ele>300.8</ele>
        <time>2011-08-09T08:23:50Z</time>
      </trkpt>
      <trkpt lat="44.49879" lon="2.27086">
        <ele>300.8</ele>
        <time>2011-08-09T08:23:51Z</time>
      </trkpt>
      <trkpt lat="44.49881" lon="2.2708">
        <ele>300.7</ele>
        <time>2011-08-09T08:23:52Z</time>
      </trkpt>
      <trkpt lat="44.49882" lon="2.27074">
        <ele>300.7</ele>
        <time>2011-08-09T08:23:53Z</time>
      </trkpt>
      <trkpt lat="44.49883" lon="2.27066">
        <ele>300.6</ele>
        <time>2011-08-09T08:23:54Z</time>
      </trkpt>
      <trkpt lat="44.49885" lon="2.2706">
        <ele>300.5</ele>
        <time>2011-08-09T08:23:55Z</time>
      </trkpt>
      <trkpt lat="44.49887" lon="2.27055">
        <ele>300.5</ele>
        <time>2011-08-09T08:23:56Z</time>
      </trkpt>
      <trkpt lat="44.4989" lon="2.27049">
        <ele>300.6</ele>
        <time>2011-08-09T08:23:57Z</time>
      </trkpt>
      <trkpt lat="44.49892" lon="2.27043">
        <ele>300.6</ele>
        <time>2011-08-09T08:23:58Z</time>
      </trkpt>
      <trkpt lat="44.49895" lon="2.27038">
        <ele>300.7</ele>
        <time>2011-08-09T08:23:59Z</time>
      </trkpt>
      <trkpt lat="44.49898" lon="2.27033">
        <ele>300.4</ele>
        <time>2011-08-09T08:24:00Z</time>
      </trkpt>
      <trkpt lat="44.49902" lon="2.27029">
        <ele>300.2</ele>
        <time>2011-08-09T08:24:01Z</time>
      </trkpt>
      <trkpt lat="44.49906" lon="2.27024">
        <ele>300</ele>
        <time>2011-08-09T08:24:02Z</time>
      </trkpt>
      <trkpt lat="44.4991" lon="2.27021">
        <ele>299.9</ele>
        <time>2011-08-09T08:24:03Z</time>
      </trkpt>
      <trkpt lat="44.49913" lon="2.27017">
        <ele>299.9</ele>
        <time>2011-08-09T08:24:04Z</time>
      </trkpt>
      <trkpt lat="44.49917" lon="2.27013">
        <ele>299.9</ele>
        <time>2011-08-09T08:24:05Z</time>
      </trkpt>
      <trkpt lat="44.4992" lon="2.2701">
        <ele>299.9</ele>
        <time>2011-08-09T08:24:06Z</time>
      </trkpt>
      <trkpt lat="44.49924" lon="2.27007">
        <ele>300.1</ele>
        <time>2011-08-09T08:24:07Z</time>
      </trkpt>
      <trkpt lat="44.49927" lon="2.27004">
        <ele>300.2</ele>
        <time>2011-08-09T08:24:08Z</time>
      </trkpt>
      <trkpt lat="44.4993" lon="2.27">
        <ele>300.3</ele>
        <time>2011-08-09T08:24:09Z</time>
      </trkpt>
      <trkpt lat="44.49934" lon="2.26996">
        <ele>300.1</ele>
        <time>2011-08-09T08:24:10Z</time>
      </trkpt>
      <trkpt lat="44.49937" lon="2.26992">
        <ele>299.9</ele>
        <time>2011-08-09T08:24:11Z</time>
      </trkpt>
      <trkpt lat="44.49941" lon="2.26987">
        <ele>299.7</ele>
        <time>2011-08-09T08:24:12Z</time>
      </trkpt>
      <trkpt lat="44.49944" lon="2.26982">
        <ele>299.9</ele>
        <time>2011-08-09T08:24:13Z</time>
      </trkpt>
      <trkpt lat="44.49948" lon="2.26978">
        <ele>300.1</ele>
        <time>2011-08-09T08:24:14Z</time>
      </trkpt>
      <trkpt lat="44.49951" lon="2.26974">
        <ele>300.2</ele>
        <time>2011-08-09T08:24:15Z</time>
      </trkpt>
      <trkpt lat="44.49955" lon="2.2697">
        <ele>299.9</ele>
        <time>2011-08-09T08:24:16Z</time>
      </trkpt>
      <trkpt lat="44.49958" lon="2.26966">
        <ele>299.7</ele>
        <time>2011-08-09T08:24:17Z</time>
      </trkpt>
      <trkpt lat="44.49962" lon="2.26962">
        <ele>299.5</ele>
        <time>2011-08-09T08:24:18Z</time>
      </trkpt>
      <trkpt lat="44.49965" lon="2.26959">
        <ele>299.4</ele>
        <time>2011-08-09T08:24:19Z</time>
      </trkpt>
      <trkpt lat="44.49968" lon="2.26955">
        <ele>299.3</ele>
        <time>2011-08-09T08:24:20Z</time>
      </trkpt>
      <trkpt lat="44.49971" lon="2.26952">
        <ele>299.2</ele>
        <time>2011-08-09T08:24:21Z</time>
      </trkpt>
      <trkpt lat="44.49974" lon="2.26948">
        <ele>299.2</ele>
        <time>2011-08-09T08:24:22Z</time>
      </trkpt>
      <trkpt lat="44.49977" lon="2.26943">
        <ele>299.1</ele>
        <time>2011-08-09T08:24:23Z</time>
      </trkpt>
      <trkpt lat="44.4998" lon="2.26938">
        <ele>299.1</ele>
        <time>2011-08-09T08:24:24Z</time>
      </trkpt>
      <trkpt lat="44.49982" lon="2.26933">
        <ele>299.1</ele>
        <time>2011-08-09T08:24:25Z</time>
      </trkpt>
      <trkpt lat="44.49983" lon="2.26927">
        <ele>299.1</ele>
        <time>2011-08-09T08:24:26Z</time>
      </trkpt>
      <trkpt lat="44.49985" lon="2.26922">
        <ele>299</ele>
        <time>2011-08-09T08:24:27Z</time>
      </trkpt>
      <trkpt lat="44.49986" lon="2.26916">
        <ele>299</ele>
        <time>2011-08-09T08:24:28Z</time>
      </trkpt>
      <trkpt lat="44.49986" lon="2.26911">
        <ele>299.1</ele>
        <time>2011-08-09T08:24:29Z</time>
      </trkpt>
      <trkpt lat="44.49987" lon="2.26905">
        <ele>299.2</ele>
        <time>2011-08-09T08:24:30Z</time>
      </trkpt>
      <trkpt lat="44.49987" lon="2.269">
        <ele>299.2</ele>
        <time>2011-08-09T08:24:31Z</time>
      </trkpt>
      <trkpt lat="44.49988" lon="2.26894">
        <ele>299.3</ele>
        <time>2011-08-09T08:24:32Z</time>
      </trkpt>
      <trkpt lat="44.49988" lon="2.26889">
        <ele>299.4</ele>
        <time>2011-08-09T08:24:33Z</time>
      </trkpt>
      <trkpt lat="44.49988" lon="2.26883">
        <ele>299.5</ele>
        <time>2011-08-09T08:24:34Z</time>
      </trkpt>
      <trkpt lat="44.49987" lon="2.26877">
        <ele>299.5</ele>
        <time>2011-08-09T08:24:35Z</time>
      </trkpt>
      <trkpt lat="44.49987" lon="2.2687">
        <ele>299.2</ele>
        <time>2011-08-09T08:24:36Z</time>
      </trkpt>
      <trkpt lat="44.49986" lon="2.26864">
        <ele>298.9</ele>
        <time>2011-08-09T08:24:37Z</time>
      </trkpt>
      <trkpt lat="44.49985" lon="2.26857">
        <ele>298.7</ele>
        <time>2011-08-09T08:24:38Z</time>
      </trkpt>
      <trkpt lat="44.49984" lon="2.26851">
        <ele>298.9</ele>
        <time>2011-08-09T08:24:39Z</time>
      </trkpt>
      <trkpt lat="44.49983" lon="2.26844">
        <ele>299.1</ele>
        <time>2011-08-09T08:24:40Z</time>
      </trkpt>
      <trkpt lat="44.49982" lon="2.26838">
        <ele>299.2</ele>
        <time>2011-08-09T08:24:41Z</time>
      </trkpt>
      <trkpt lat="44.4998" lon="2.26832">
        <ele>299</ele>
        <time>2011-08-09T08:24:42Z</time>
      </trkpt>
      <trkpt lat="44.49979" lon="2.26825">
        <ele>298.9</ele>
        <time>2011-08-09T08:24:43Z</time>
      </trkpt>
      <trkpt lat="44.49978" lon="2.26819">
        <ele>298.8</ele>
        <time>2011-08-09T08:24:44Z</time>
      </trkpt>
      <trkpt lat="44.49977" lon="2.26813">
        <ele>299.2</ele>
        <time>2011-08-09T08:24:45Z</time>
      </trkpt>
      <trkpt lat="44.49976" lon="2.26807">
        <ele>299.5</ele>
        <time>2011-08-09T08:24:46Z</time>
      </trkpt>
      <trkpt lat="44.49975" lon="2.26801">
        <ele>299.8</ele>
        <time>2011-08-09T08:24:47Z</time>
      </trkpt>
      <trkpt lat="44.49974" lon="2.26795">
        <ele>299.7</ele>
        <time>2011-08-09T08:24:48Z</time>
      </trkpt>
      <trkpt lat="44.49974" lon="2.26789">
        <ele>299.7</ele>
        <time>2011-08-09T08:24:49Z</time>
      </trkpt>
      <trkpt lat="44.49973" lon="2.26783">
        <ele>299.6</ele>
        <time>2011-08-09T08:24:50Z</time>
      </trkpt>
      <trkpt lat="44.49973" lon="2.26777">
        <ele>299.5</ele>
        <time>2011-08-09T08:24:51Z</time>
      </trkpt>
      <trkpt lat="44.49973" lon="2.2677">
        <ele>299.3</ele>
        <time>2011-08-09T08:24:52Z</time>
      </trkpt>
      <trkpt lat="44.49973" lon="2.26765">
        <ele>299.2</ele>
        <time>2011-08-09T08:24:53Z</time>
      </trkpt>
      <trkpt lat="44.49974" lon="2.26759">
        <ele>299.2</ele>
        <time>2011-08-09T08:24:54Z</time>
      </trkpt>
      <trkpt lat="44.49976" lon="2.26754">
        <ele>298.8</ele>
        <time>2011-08-09T08:24:55Z</time>
      </trkpt>
      <trkpt lat="44.49977" lon="2.26748">
        <ele>298.5</ele>
        <time>2011-08-09T08:24:56Z</time>
      </trkpt>
      <trkpt lat="44.49978" lon="2.26743">
        <ele>298.3</ele>
        <time>2011-08-09T08:24:57Z</time>
      </trkpt>
      <trkpt lat="44.4998" lon="2.26737">
        <ele>298.2</ele>
        <time>2011-08-09T08:24:58Z</time>
      </trkpt>
      <trkpt lat="44.49981" lon="2.26732">
        <ele>298.2</ele>
        <time>2011-08-09T08:24:59Z</time>
      </trkpt>
      <trkpt lat="44.49983" lon="2.26726">
        <ele>298.2</ele>
        <time>2011-08-09T08:25:00Z</time>
      </trkpt>
      <trkpt lat="44.49984" lon="2.26721">
        <ele>298.2</ele>
        <time>2011-08-09T08:25:01Z</time>
      </trkpt>
      <trkpt lat="44.49985" lon="2.26715">
        <ele>298.2</ele>
        <time>2011-08-09T08:25:02Z</time>
      </trkpt>
      <trkpt lat="44.49986" lon="2.26709">
        <ele>298.2</ele>
        <time>2011-08-09T08:25:03Z</time>
      </trkpt>
      <trkpt lat="44.49988" lon="2.26703">
        <ele>298.1</ele>
        <time>2011-08-09T08:25:04Z</time>
      </trkpt>
      <trkpt lat="44.49989" lon="2.26698">
        <ele>298</ele>
        <time>2011-08-09T08:25:05Z</time>
      </trkpt>
      <trkpt lat="44.49991" lon="2.26692">
        <ele>297.9</ele>
        <time>2011-08-09T08:25:06Z</time>
      </trkpt>
      <trkpt lat="44.49993" lon="2.26686">
        <ele>297.9</ele>
        <time>2011-08-09T08:25:07Z</time>
      </trkpt>
      <trkpt lat="44.49994" lon="2.2668">
        <ele>297.9</ele>
        <time>2011-08-09T08:25:08Z</time>
      </trkpt>
      <trkpt lat="44.49996" lon="2.26674">
        <ele>297.9</ele>
        <time>2011-08-09T08:25:09Z</time>
      </trkpt>
      <trkpt lat="44.49998" lon="2.26668">
        <ele>297.9</ele>
        <time>2011-08-09T08:25:10Z</time>
      </trkpt>
      <trkpt lat="44.49999" lon="2.26662">
        <ele>298.3</ele>
        <time>2011-08-09T08:25:11Z</time>
      </trkpt>
      <trkpt lat="44.50001" lon="2.26656">
        <ele>298.6</ele>
        <time>2011-08-09T08:25:12Z</time>
      </trkpt>
      <trkpt lat="44.50002" lon="2.2665">
        <ele>298.8</ele>
        <time>2011-08-09T08:25:13Z</time>
      </trkpt>
      <trkpt lat="44.50003" lon="2.26644">
        <ele>298.6</ele>
        <time>2011-08-09T08:25:14Z</time>
      </trkpt>
      <trkpt lat="44.50003" lon="2.26638">
        <ele>298.4</ele>
        <time>2011-08-09T08:25:15Z</time>
      </trkpt>
      <trkpt lat="44.50004" lon="2.26631">
        <ele>298.3</ele>
        <time>2011-08-09T08:25:16Z</time>
      </trkpt>
      <trkpt lat="44.50004" lon="2.26624">
        <ele>297.9</ele>
        <time>2011-08-09T08:25:17Z</time>
      </trkpt>
      <trkpt lat="44.50004" lon="2.26618">
        <ele>297.6</ele>
        <time>2011-08-09T08:25:18Z</time>
      </trkpt>
      <trkpt lat="44.50003" lon="2.26611">
        <ele>297.4</ele>
        <time>2011-08-09T08:25:19Z</time>
      </trkpt>
      <trkpt lat="44.50003" lon="2.26604">
        <ele>297.1</ele>
        <time>2011-08-09T08:25:20Z</time>
      </trkpt>
      <trkpt lat="44.50002" lon="2.26598">
        <ele>296.9</ele>
        <time>2011-08-09T08:25:21Z</time>
      </trkpt>
      <trkpt lat="44.50002" lon="2.26592">
        <ele>296.8</ele>
        <time>2011-08-09T08:25:22Z</time>
      </trkpt>
      <trkpt lat="44.50002" lon="2.26585">
        <ele>296.8</ele>
        <time>2011-08-09T08:25:23Z</time>
      </trkpt>
      <trkpt lat="44.50002" lon="2.26579">
        <ele>296.8</ele>
        <time>2011-08-09T08:25:24Z</time>
      </trkpt>
      <trkpt lat="44.50002" lon="2.26572">
        <ele>296.9</ele>
        <time>2011-08-09T08:25:25Z</time>
      </trkpt>
      <trkpt lat="44.50002" lon="2.26565">
        <ele>296.9</ele>
        <time>2011-08-09T08:25:26Z</time>
      </trkpt>
      <trkpt lat="44.50001" lon="2.26558">
        <ele>296.8</ele>
        <time>2011-08-09T08:25:27Z</time>
      </trkpt>
      <trkpt lat="44.50001" lon="2.26551">
        <ele>296.7</ele>
        <time>2011-08-09T08:25:28Z</time>
      </trkpt>
      <trkpt lat="44.5" lon="2.26545">
        <ele>296.6</ele>
        <time>2011-08-09T08:25:29Z</time>
      </trkpt>
      <trkpt lat="44.5" lon="2.26538">
        <ele>296.8</ele>
        <time>2011-08-09T08:25:30Z</time>
      </trkpt>
      <trkpt lat="44.49999" lon="2.26532">
        <ele>297</ele>
        <time>2011-08-09T08:25:31Z</time>
      </trkpt>
      <trkpt lat="44.49998" lon="2.26525">
        <ele>297.1</ele>
        <time>2011-08-09T08:25:32Z</time>
      </trkpt>
      <trkpt lat="44.49996" lon="2.26519">
        <ele>296.9</ele>
        <time>2011-08-09T08:25:33Z</time>
      </trkpt>
      <trkpt lat="44.49995" lon="2.26513">
        <ele>296.7</ele>
        <time>2011-08-09T08:25:34Z</time>
      </trkpt>
      <trkpt lat="44.49995" lon="2.26506">
        <ele>296.6</ele>
        <time>2011-08-09T08:25:35Z</time>
      </trkpt>
      <trkpt lat="44.49994" lon="2.265">
        <ele>296.8</ele>
        <time>2011-08-09T08:25:36Z</time>
      </trkpt>
      <trkpt lat="44.49993" lon="2.26494">
        <ele>296.9</ele>
        <time>2011-08-09T08:25:37Z</time>
      </trkpt>
      <trkpt lat="44.49992" lon="2.26488">
        <ele>297</ele>
        <time>2011-08-09T08:25:38Z</time>
      </trkpt>
      <trkpt lat="44.49992" lon="2.26482">
        <ele>296.4</ele>
        <time>2011-08-09T08:25:39Z</time>
      </trkpt>
      <trkpt lat="44.49991" lon="2.26476">
        <ele>295.9</ele>
        <time>2011-08-09T08:25:40Z</time>
      </trkpt>
      <trkpt lat="44.4999" lon="2.2647">
        <ele>295.5</ele>
        <time>2011-08-09T08:25:41Z</time>
      </trkpt>
      <trkpt lat="44.4999" lon="2.26463">
        <ele>296.2</ele>
        <time>2011-08-09T08:25:42Z</time>
      </trkpt>
      <trkpt lat="44.49989" lon="2.26457">
        <ele>296.8</ele>
        <time>2011-08-09T08:25:43Z</time>
      </trkpt>
      <trkpt lat="44.49988" lon="2.2645">
        <ele>297.2</ele>
        <time>2011-08-09T08:25:44Z</time>
      </trkpt>
      <trkpt lat="44.49987" lon="2.26444">
        <ele>297.4</ele>
        <time>2011-08-09T08:25:45Z</time>
      </trkpt>
      <trkpt lat="44.49987" lon="2.26438">
        <ele>297.4</ele>
        <time>2011-08-09T08:25:46Z</time>
      </trkpt>
      <trkpt lat="44.49987" lon="2.26431">
        <ele>297.4</ele>
        <time>2011-08-09T08:25:47Z</time>
      </trkpt>
      <trkpt lat="44.49987" lon="2.26425">
        <ele>297.3</ele>
        <time>2011-08-09T08:25:48Z</time>
      </trkpt>
      <trkpt lat="44.49987" lon="2.26419">
        <ele>296.8</ele>
        <time>2011-08-09T08:25:49Z</time>
      </trkpt>
      <trkpt lat="44.49987" lon="2.26413">
        <ele>296.4</ele>
        <time>2011-08-09T08:25:50Z</time>
      </trkpt>
      <trkpt lat="44.49987" lon="2.26407">
        <ele>296.1</ele>
        <time>2011-08-09T08:25:51Z</time>
      </trkpt>
      <trkpt lat="44.49987" lon="2.26401">
        <ele>295.9</ele>
        <time>2011-08-09T08:25:52Z</time>
      </trkpt>
      <trkpt lat="44.49987" lon="2.26395">
        <ele>295.8</ele>
        <time>2011-08-09T08:25:53Z</time>
      </trkpt>
      <trkpt lat="44.49987" lon="2.26389">
        <ele>295.7</ele>
        <time>2011-08-09T08:25:54Z</time>
      </trkpt>
      <trkpt lat="44.49987" lon="2.26383">
        <ele>295.8</ele>
        <time>2011-08-09T08:25:55Z</time>
      </trkpt>
      <trkpt lat="44.49987" lon="2.26377">
        <ele>295.9</ele>
        <time>2011-08-09T08:25:56Z</time>
      </trkpt>
      <trkpt lat="44.49987" lon="2.26371">
        <ele>296</ele>
        <time>2011-08-09T08:25:57Z</time>
      </trkpt>
      <trkpt lat="44.49987" lon="2.26365">
        <ele>296</ele>
        <time>2011-08-09T08:25:58Z</time>
      </trkpt>
      <trkpt lat="44.49987" lon="2.26359">
        <ele>296</ele>
        <time>2011-08-09T08:25:59Z</time>
      </trkpt>
      <trkpt lat="44.49987" lon="2.26352">
        <ele>296</ele>
        <time>2011-08-09T08:26:00Z</time>
      </trkpt>
      <trkpt lat="44.49987" lon="2.26346">
        <ele>296</ele>
        <time>2011-08-09T08:26:01Z</time>
      </trkpt>
      <trkpt lat="44.49986" lon="2.26341">
        <ele>296.2</ele>
        <time>2011-08-09T08:26:02Z</time>
      </trkpt>
      <trkpt lat="44.49986" lon="2.26335">
        <ele>296.4</ele>
        <time>2011-08-09T08:26:03Z</time>
      </trkpt>
      <trkpt lat="44.49985" lon="2.26329">
        <ele>296.6</ele>
        <time>2011-08-09T08:26:04Z</time>
      </trkpt>
      <trkpt lat="44.49985" lon="2.26323">
        <ele>296.5</ele>
        <time>2011-08-09T08:26:05Z</time>
      </trkpt>
      <trkpt lat="44.49984" lon="2.26318">
        <ele>296.4</ele>
        <time>2011-08-09T08:26:06Z</time>
      </trkpt>
      <trkpt lat="44.49982" lon="2.26312">
        <ele>296.3</ele>
        <time>2011-08-09T08:26:07Z</time>
      </trkpt>
      <trkpt lat="44.49981" lon="2.26306">
        <ele>296.1</ele>
        <time>2011-08-09T08:26:08Z</time>
      </trkpt>
      <trkpt lat="44.49979" lon="2.26301">
        <ele>295.9</ele>
        <time>2011-08-09T08:26:09Z</time>
      </trkpt>
      <trkpt lat="44.49978" lon="2.26296">
        <ele>295.7</ele>
        <time>2011-08-09T08:26:10Z</time>
      </trkpt>
      <trkpt lat="44.49977" lon="2.26292">
        <ele>295.8</ele>
        <time>2011-08-09T08:26:11Z</time>
      </trkpt>
      <trkpt lat="44.49976" lon="2.26287">
        <ele>295.9</ele>
        <time>2011-08-09T08:26:12Z</time>
      </trkpt>
      <trkpt lat="44.49974" lon="2.26282">
        <ele>295.9</ele>
        <time>2011-08-09T08:26:13Z</time>
      </trkpt>
      <trkpt lat="44.49972" lon="2.26277">
        <ele>296.3</ele>
        <time>2011-08-09T08:26:14Z</time>
      </trkpt>
      <trkpt lat="44.4997" lon="2.26271">
        <ele>296.6</ele>
        <time>2011-08-09T08:26:15Z</time>
      </trkpt>
      <trkpt lat="44.49969" lon="2.26266">
        <ele>296.8</ele>
        <time>2011-08-09T08:26:16Z</time>
      </trkpt>
      <trkpt lat="44.49967" lon="2.26259">
        <ele>296.9</ele>
        <time>2011-08-09T08:26:17Z</time>
      </trkpt>
      <trkpt lat="44.49966" lon="2.26253">
        <ele>297</ele>
        <time>2011-08-09T08:26:18Z</time>
      </trkpt>
      <trkpt lat="44.49964" lon="2.26247">
        <ele>297.1</ele>
        <time>2011-08-09T08:26:19Z</time>
      </trkpt>
      <trkpt lat="44.49962" lon="2.2624">
        <ele>297.2</ele>
        <time>2011-08-09T08:26:20Z</time>
      </trkpt>
      <trkpt lat="44.49961" lon="2.26234">
        <ele>297</ele>
        <time>2011-08-09T08:26:21Z</time>
      </trkpt>
      <trkpt lat="44.49961" lon="2.26228">
        <ele>296.8</ele>
        <time>2011-08-09T08:26:22Z</time>
      </trkpt>
      <trkpt lat="44.49961" lon="2.26223">
        <ele>296.7</ele>
        <time>2011-08-09T08:26:23Z</time>
      </trkpt>
      <trkpt lat="44.49962" lon="2.26218">
        <ele>296.8</ele>
        <time>2011-08-09T08:26:24Z</time>
      </trkpt>
      <trkpt lat="44.49963" lon="2.26213">
        <ele>296.9</ele>
        <time>2011-08-09T08:26:25Z</time>
      </trkpt>
      <trkpt lat="44.49963" lon="2.26208">
        <ele>296.9</ele>
        <time>2011-08-09T08:26:26Z</time>
      </trkpt>
      <trkpt lat="44.49964" lon="2.26203">
        <ele>297.3</ele>
        <time>2011-08-09T08:26:27Z</time>
      </trkpt>
      <trkpt lat="44.49965" lon="2.26199">
        <ele>297.5</ele>
        <time>2011-08-09T08:26:28Z</time>
      </trkpt>
      <trkpt lat="44.49966" lon="2.26194">
        <ele>297.7</ele>
        <time>2011-08-09T08:26:29Z</time>
      </trkpt>
      <trkpt lat="44.49966" lon="2.26189">
        <ele>297.9</ele>
        <time>2011-08-09T08:26:30Z</time>
      </trkpt>
      <trkpt lat="44.49966" lon="2.26184">
        <ele>298</ele>
        <time>2011-08-09T08:26:31Z</time>
      </trkpt>
      <trkpt lat="44.49966" lon="2.26179">
        <ele>298.1</ele>
        <time>2011-08-09T08:26:32Z</time>
      </trkpt>
      <trkpt lat="44.49966" lon="2.26175">
        <ele>298.1</ele>
        <time>2011-08-09T08:26:33Z</time>
      </trkpt>
      <trkpt lat="44.49967" lon="2.2617">
        <ele>298</ele>
        <time>2011-08-09T08:26:34Z</time>
      </trkpt>
      <trkpt lat="44.49967" lon="2.26167">
        <ele>297.9</ele>
        <time>2011-08-09T08:26:35Z</time>
      </trkpt>
      <trkpt lat="44.49968" lon="2.26164">
        <ele>297.9</ele>
        <time>2011-08-09T08:26:36Z</time>
      </trkpt>
      <trkpt lat="44.49969" lon="2.2616">
        <ele>298.3</ele>
        <time>2011-08-09T08:26:37Z</time>
      </trkpt>
      <trkpt lat="44.49969" lon="2.26157">
        <ele>298.7</ele>
        <time>2011-08-09T08:26:38Z</time>
      </trkpt>
      <trkpt lat="44.4997" lon="2.26154">
        <ele>299</ele>
        <time>2011-08-09T08:26:39Z</time>
      </trkpt>
      <trkpt lat="44.4997" lon="2.2615">
        <ele>298.8</ele>
        <time>2011-08-09T08:26:40Z</time>
      </trkpt>
      <trkpt lat="44.4997" lon="2.26147">
        <ele>298.7</ele>
        <time>2011-08-09T08:26:41Z</time>
      </trkpt>
      <trkpt lat="44.49971" lon="2.26144">
        <ele>298.7</ele>
        <time>2011-08-09T08:26:42Z</time>
      </trkpt>
      <trkpt lat="44.49972" lon="2.26141">
        <ele>298.5</ele>
        <time>2011-08-09T08:26:43Z</time>
      </trkpt>
      <trkpt lat="44.49974" lon="2.26135">
        <ele>298.2</ele>
        <time>2011-08-09T08:26:45Z</time>
      </trkpt>
      <trkpt lat="44.49976" lon="2.2613">
        <ele>299.7</ele>
        <time>2011-08-09T08:26:47Z</time>
      </trkpt>
      <trkpt lat="44.49978" lon="2.26125">
        <ele>300.5</ele>
        <time>2011-08-09T08:26:49Z</time>
      </trkpt>
      <trkpt lat="44.4998" lon="2.26121">
        <ele>301.7</ele>
        <time>2011-08-09T08:26:51Z</time>
      </trkpt>
      <trkpt lat="44.49982" lon="2.26117">
        <ele>302.2</ele>
        <time>2011-08-09T08:26:53Z</time>
      </trkpt>
      <trkpt lat="44.49983" lon="2.26115">
        <ele>302.4</ele>
        <time>2011-08-09T08:26:54Z</time>
      </trkpt>
      <trkpt lat="44.49987" lon="2.2611">
        <ele>303.3</ele>
        <time>2011-08-09T08:26:58Z</time>
      </trkpt>
      <trkpt lat="44.4999" lon="2.26107">
        <ele>303</ele>
        <time>2011-08-09T08:27:00Z</time>
      </trkpt>
      <trkpt lat="44.49993" lon="2.26104">
        <ele>303.8</ele>
        <time>2011-08-09T08:27:03Z</time>
      </trkpt>
      <trkpt lat="44.49996" lon="2.26102">
        <ele>304.4</ele>
        <time>2011-08-09T08:27:05Z</time>
      </trkpt>
      <trkpt lat="44.5" lon="2.26098">
        <ele>305.7</ele>
        <time>2011-08-09T08:27:08Z</time>
      </trkpt>
      <trkpt lat="44.50003" lon="2.26095">
        <ele>304.6</ele>
        <time>2011-08-09T08:27:11Z</time>
      </trkpt>
      <trkpt lat="44.50007" lon="2.26091">
        <ele>305.6</ele>
        <time>2011-08-09T08:27:14Z</time>
      </trkpt>
      <trkpt lat="44.5001" lon="2.26089">
        <ele>306.4</ele>
        <time>2011-08-09T08:27:16Z</time>
      </trkpt>
      <trkpt lat="44.50012" lon="2.26086">
        <ele>307.1</ele>
        <time>2011-08-09T08:27:18Z</time>
      </trkpt>
      <trkpt lat="44.50015" lon="2.26084">
        <ele>307.7</ele>
        <time>2011-08-09T08:27:20Z</time>
      </trkpt>
      <trkpt lat="44.50017" lon="2.26081">
        <ele>308.5</ele>
        <time>2011-08-09T08:27:22Z</time>
      </trkpt>
      <trkpt lat="44.5002" lon="2.26078">
        <ele>308.9</ele>
        <time>2011-08-09T08:27:24Z</time>
      </trkpt>
      <trkpt lat="44.50022" lon="2.26076">
        <ele>308.8</ele>
        <time>2011-08-09T08:27:26Z</time>
      </trkpt>
      <trkpt lat="44.50025" lon="2.26073">
        <ele>309.2</ele>
        <time>2011-08-09T08:27:28Z</time>
      </trkpt>
      <trkpt lat="44.50029" lon="2.2607">
        <ele>310.3</ele>
        <time>2011-08-09T08:27:31Z</time>
      </trkpt>
      <trkpt lat="44.50032" lon="2.26068">
        <ele>311.4</ele>
        <time>2011-08-09T08:27:34Z</time>
      </trkpt>
      <trkpt lat="44.50036" lon="2.26065">
        <ele>312.2</ele>
        <time>2011-08-09T08:27:37Z</time>
      </trkpt>
      <trkpt lat="44.5004" lon="2.26063">
        <ele>312.6</ele>
        <time>2011-08-09T08:27:40Z</time>
      </trkpt>
      <trkpt lat="44.50044" lon="2.26062">
        <ele>313</ele>
        <time>2011-08-09T08:27:42Z</time>
      </trkpt>
      <trkpt lat="44.50047" lon="2.26061">
        <ele>313.3</ele>
        <time>2011-08-09T08:27:44Z</time>
      </trkpt>
      <trkpt lat="44.50051" lon="2.26061">
        <ele>313.5</ele>
        <time>2011-08-09T08:27:46Z</time>
      </trkpt>
      <trkpt lat="44.50055" lon="2.26061">
        <ele>313.5</ele>
        <time>2011-08-09T08:27:48Z</time>
      </trkpt>
      <trkpt lat="44.50058" lon="2.26063">
        <ele>313.9</ele>
        <time>2011-08-09T08:27:50Z</time>
      </trkpt>
      <trkpt lat="44.50061" lon="2.26064">
        <ele>314.4</ele>
        <time>2011-08-09T08:27:52Z</time>
      </trkpt>
      <trkpt lat="44.50064" lon="2.26067">
        <ele>315.3</ele>
        <time>2011-08-09T08:27:54Z</time>
      </trkpt>
      <trkpt lat="44.50066" lon="2.26068">
        <ele>315.6</ele>
        <time>2011-08-09T08:27:55Z</time>
      </trkpt>
      <trkpt lat="44.50071" lon="2.26071">
        <ele>316.6</ele>
        <time>2011-08-09T08:27:58Z</time>
      </trkpt>
      <trkpt lat="44.50074" lon="2.26073">
        <ele>316.7</ele>
        <time>2011-08-09T08:28:00Z</time>
      </trkpt>
      <trkpt lat="44.50077" lon="2.26075">
        <ele>316.5</ele>
        <time>2011-08-09T08:28:02Z</time>
      </trkpt>
      <trkpt lat="44.5008" lon="2.26078">
        <ele>316.1</ele>
        <time>2011-08-09T08:28:04Z</time>
      </trkpt>
      <trkpt lat="44.50083" lon="2.2608">
        <ele>316.4</ele>
        <time>2011-08-09T08:28:06Z</time>
      </trkpt>
      <trkpt lat="44.50087" lon="2.26082">
        <ele>317</ele>
        <time>2011-08-09T08:28:08Z</time>
      </trkpt>
      <trkpt lat="44.5009" lon="2.26083">
        <ele>317.5</ele>
        <time>2011-08-09T08:28:10Z</time>
      </trkpt>
      <trkpt lat="44.50093" lon="2.26085">
        <ele>317.8</ele>
        <time>2011-08-09T08:28:12Z</time>
      </trkpt>
      <trkpt lat="44.50096" lon="2.26086">
        <ele>318.3</ele>
        <time>2011-08-09T08:28:14Z</time>
      </trkpt>
      <trkpt lat="44.50099" lon="2.26087">
        <ele>319.3</ele>
        <time>2011-08-09T08:28:16Z</time>
      </trkpt>
      <trkpt lat="44.50102" lon="2.26087">
        <ele>320.3</ele>
        <time>2011-08-09T08:28:18Z</time>
      </trkpt>
      <trkpt lat="44.50105" lon="2.26087">
        <ele>320.2</ele>
        <time>2011-08-09T08:28:20Z</time>
      </trkpt>
      <trkpt lat="44.50109" lon="2.26087">
        <ele>320.1</ele>
        <time>2011-08-09T08:28:22Z</time>
      </trkpt>
      <trkpt lat="44.50112" lon="2.26086">
        <ele>319.9</ele>
        <time>2011-08-09T08:28:24Z</time>
      </trkpt>
      <trkpt lat="44.50115" lon="2.26085">
        <ele>320.3</ele>
        <time>2011-08-09T08:28:26Z</time>
      </trkpt>
      <trkpt lat="44.50118" lon="2.26084">
        <ele>320.8</ele>
        <time>2011-08-09T08:28:28Z</time>
      </trkpt>
      <trkpt lat="44.50122" lon="2.26082">
        <ele>321.6</ele>
        <time>2011-08-09T08:28:31Z</time>
      </trkpt>
      <trkpt lat="44.50126" lon="2.26079">
        <ele>321.9</ele>
        <time>2011-08-09T08:28:34Z</time>
      </trkpt>
      <trkpt lat="44.50129" lon="2.26076">
        <ele>322</ele>
        <time>2011-08-09T08:28:37Z</time>
      </trkpt>
      <trkpt lat="44.50132" lon="2.26072">
        <ele>322.8</ele>
        <time>2011-08-09T08:28:40Z</time>
      </trkpt>
      <trkpt lat="44.50134" lon="2.26069">
        <ele>323.2</ele>
        <time>2011-08-09T08:28:42Z</time>
      </trkpt>
      <trkpt lat="44.50136" lon="2.26065">
        <ele>323.3</ele>
        <time>2011-08-09T08:28:44Z</time>
      </trkpt>
      <trkpt lat="44.50138" lon="2.26059">
        <ele>323.3</ele>
        <time>2011-08-09T08:28:47Z</time>
      </trkpt>
      <trkpt lat="44.50139" lon="2.26055">
        <ele>324.2</ele>
        <time>2011-08-09T08:28:49Z</time>
      </trkpt>
      <trkpt lat="44.5014" lon="2.26051">
        <ele>324.8</ele>
        <time>2011-08-09T08:28:51Z</time>
      </trkpt>
      <trkpt lat="44.50142" lon="2.26047">
        <ele>325.3</ele>
        <time>2011-08-09T08:28:53Z</time>
      </trkpt>
      <trkpt lat="44.50145" lon="2.26044">
        <ele>325.7</ele>
        <time>2011-08-09T08:28:55Z</time>
      </trkpt>
      <trkpt lat="44.50146" lon="2.26043">
        <ele>325.8</ele>
        <time>2011-08-09T08:28:56Z</time>
      </trkpt>
      <trkpt lat="44.50151" lon="2.26038">
        <ele>326.4</ele>
        <time>2011-08-09T08:28:59Z</time>
      </trkpt>
      <trkpt lat="44.50154" lon="2.26035">
        <ele>326.5</ele>
        <time>2011-08-09T08:29:01Z</time>
      </trkpt>
      <trkpt lat="44.50157" lon="2.26032">
        <ele>326.6</ele>
        <time>2011-08-09T08:29:03Z</time>
      </trkpt>
      <trkpt lat="44.5016" lon="2.26028">
        <ele>326.5</ele>
        <time>2011-08-09T08:29:05Z</time>
      </trkpt>
      <trkpt lat="44.50164" lon="2.26025">
        <ele>326.7</ele>
        <time>2011-08-09T08:29:07Z</time>
      </trkpt>
      <trkpt lat="44.50167" lon="2.26021">
        <ele>327</ele>
        <time>2011-08-09T08:29:09Z</time>
      </trkpt>
      <trkpt lat="44.50171" lon="2.26018">
        <ele>327.6</ele>
        <time>2011-08-09T08:29:11Z</time>
      </trkpt>
      <trkpt lat="44.50173" lon="2.26016">
        <ele>327.8</ele>
        <time>2011-08-09T08:29:12Z</time>
      </trkpt>
      <trkpt lat="44.50175" lon="2.26014">
        <ele>327.7</ele>
        <time>2011-08-09T08:29:13Z</time>
      </trkpt>
      <trkpt lat="44.50176" lon="2.26012">
        <ele>327.7</ele>
        <time>2011-08-09T08:29:14Z</time>
      </trkpt>
      <trkpt lat="44.50178" lon="2.2601">
        <ele>327.7</ele>
        <time>2011-08-09T08:29:15Z</time>
      </trkpt>
      <trkpt lat="44.5018" lon="2.26008">
        <ele>327.7</ele>
        <time>2011-08-09T08:29:16Z</time>
      </trkpt>
      <trkpt lat="44.50182" lon="2.26007">
        <ele>327.8</ele>
        <time>2011-08-09T08:29:17Z</time>
      </trkpt>
      <trkpt lat="44.50184" lon="2.26005">
        <ele>327.8</ele>
        <time>2011-08-09T08:29:18Z</time>
      </trkpt>
      <trkpt lat="44.50186" lon="2.26003">
        <ele>327.8</ele>
        <time>2011-08-09T08:29:19Z</time>
      </trkpt>
      <trkpt lat="44.50188" lon="2.26001">
        <ele>328</ele>
        <time>2011-08-09T08:29:20Z</time>
      </trkpt>
      <trkpt lat="44.5019" lon="2.25999">
        <ele>328.1</ele>
        <time>2011-08-09T08:29:21Z</time>
      </trkpt>
      <trkpt lat="44.50192" lon="2.25998">
        <ele>328.2</ele>
        <time>2011-08-09T08:29:22Z</time>
      </trkpt>
      <trkpt lat="44.50194" lon="2.25996">
        <ele>328.3</ele>
        <time>2011-08-09T08:29:23Z</time>
      </trkpt>
      <trkpt lat="44.50196" lon="2.25994">
        <ele>328.4</ele>
        <time>2011-08-09T08:29:24Z</time>
      </trkpt>
      <trkpt lat="44.50198" lon="2.25992">
        <ele>328.5</ele>
        <time>2011-08-09T08:29:25Z</time>
      </trkpt>
      <trkpt lat="44.502" lon="2.25991">
        <ele>328.9</ele>
        <time>2011-08-09T08:29:26Z</time>
      </trkpt>
      <trkpt lat="44.50202" lon="2.25989">
        <ele>329.1</ele>
        <time>2011-08-09T08:29:27Z</time>
      </trkpt>
      <trkpt lat="44.50206" lon="2.25985">
        <ele>329.5</ele>
        <time>2011-08-09T08:29:29Z</time>
      </trkpt>
      <trkpt lat="44.50209" lon="2.25982">
        <ele>329.6</ele>
        <time>2011-08-09T08:29:31Z</time>
      </trkpt>
      <trkpt lat="44.50213" lon="2.25979">
        <ele>330.1</ele>
        <time>2011-08-09T08:29:33Z</time>
      </trkpt>
      <trkpt lat="44.50216" lon="2.25975">
        <ele>330.4</ele>
        <time>2011-08-09T08:29:35Z</time>
      </trkpt>
      <trkpt lat="44.5022" lon="2.25972">
        <ele>330.3</ele>
        <time>2011-08-09T08:29:37Z</time>
      </trkpt>
      <trkpt lat="44.50224" lon="2.25968">
        <ele>330.8</ele>
        <time>2011-08-09T08:29:39Z</time>
      </trkpt>
      <trkpt lat="44.50227" lon="2.25965">
        <ele>331.3</ele>
        <time>2011-08-09T08:29:41Z</time>
      </trkpt>
      <trkpt lat="44.50231" lon="2.25962">
        <ele>331.8</ele>
        <time>2011-08-09T08:29:43Z</time>
      </trkpt>
      <trkpt lat="44.50234" lon="2.25958">
        <ele>332.1</ele>
        <time>2011-08-09T08:29:45Z</time>
      </trkpt>
      <trkpt lat="44.50237" lon="2.25955">
        <ele>332.4</ele>
        <time>2011-08-09T08:29:47Z</time>
      </trkpt>
      <trkpt lat="44.50241" lon="2.25951">
        <ele>332.7</ele>
        <time>2011-08-09T08:29:49Z</time>
      </trkpt>
      <trkpt lat="44.50244" lon="2.25948">
        <ele>333.1</ele>
        <time>2011-08-09T08:29:51Z</time>
      </trkpt>
      <trkpt lat="44.50247" lon="2.25944">
        <ele>333.4</ele>
        <time>2011-08-09T08:29:53Z</time>
      </trkpt>
      <trkpt lat="44.5025" lon="2.25941">
        <ele>333.9</ele>
        <time>2011-08-09T08:29:55Z</time>
      </trkpt>
      <trkpt lat="44.50254" lon="2.25937">
        <ele>334.5</ele>
        <time>2011-08-09T08:29:57Z</time>
      </trkpt>
      <trkpt lat="44.50255" lon="2.25935">
        <ele>334.2</ele>
        <time>2011-08-09T08:29:58Z</time>
      </trkpt>
      <trkpt lat="44.50261" lon="2.2593">
        <ele>334</ele>
        <time>2011-08-09T08:30:01Z</time>
      </trkpt>
      <trkpt lat="44.50264" lon="2.25927">
        <ele>334.2</ele>
        <time>2011-08-09T08:30:03Z</time>
      </trkpt>
      <trkpt lat="44.50267" lon="2.25923">
        <ele>335.1</ele>
        <time>2011-08-09T08:30:05Z</time>
      </trkpt>
      <trkpt lat="44.50271" lon="2.2592">
        <ele>335.7</ele>
        <time>2011-08-09T08:30:07Z</time>
      </trkpt>
      <trkpt lat="44.50274" lon="2.25917">
        <ele>336.1</ele>
        <time>2011-08-09T08:30:09Z</time>
      </trkpt>
      <trkpt lat="44.50277" lon="2.25914">
        <ele>336.2</ele>
        <time>2011-08-09T08:30:11Z</time>
      </trkpt>
      <trkpt lat="44.50279" lon="2.25912">
        <ele>336.2</ele>
        <time>2011-08-09T08:30:13Z</time>
      </trkpt>
      <trkpt lat="44.50282" lon="2.25909">
        <ele>335.9</ele>
        <time>2011-08-09T08:30:15Z</time>
      </trkpt>
      <trkpt lat="44.50285" lon="2.25906">
        <ele>336.2</ele>
        <time>2011-08-09T08:30:17Z</time>
      </trkpt>
      <trkpt lat="44.50287" lon="2.25901">
        <ele>337.1</ele>
        <time>2011-08-09T08:30:20Z</time>
      </trkpt>
      <trkpt lat="44.50289" lon="2.25898">
        <ele>337.5</ele>
        <time>2011-08-09T08:30:22Z</time>
      </trkpt>
      <trkpt lat="44.50291" lon="2.25894">
        <ele>338.7</ele>
        <time>2011-08-09T08:30:24Z</time>
      </trkpt>
      <trkpt lat="44.50294" lon="2.25891">
        <ele>339.4</ele>
        <time>2011-08-09T08:30:26Z</time>
      </trkpt>
      <trkpt lat="44.50296" lon="2.25886">
        <ele>340.3</ele>
        <time>2011-08-09T08:30:29Z</time>
      </trkpt>
      <trkpt lat="44.503" lon="2.25882">
        <ele>340.3</ele>
        <time>2011-08-09T08:30:32Z</time>
      </trkpt>
      <trkpt lat="44.50302" lon="2.2588">
        <ele>340</ele>
        <time>2011-08-09T08:30:34Z</time>
      </trkpt>
      <trkpt lat="44.50305" lon="2.25876">
        <ele>341</ele>
        <time>2011-08-09T08:30:37Z</time>
      </trkpt>
      <trkpt lat="44.50309" lon="2.25873">
        <ele>342.1</ele>
        <time>2011-08-09T08:30:40Z</time>
      </trkpt>
      <trkpt lat="44.50312" lon="2.25871">
        <ele>343</ele>
        <time>2011-08-09T08:30:43Z</time>
      </trkpt>
      <trkpt lat="44.50316" lon="2.25868">
        <ele>344</ele>
        <time>2011-08-09T08:30:46Z</time>
      </trkpt>
      <trkpt lat="44.5032" lon="2.25869">
        <ele>344.7</ele>
        <time>2011-08-09T08:30:49Z</time>
      </trkpt>
      <trkpt lat="44.50323" lon="2.25873">
        <ele>345.2</ele>
        <time>2011-08-09T08:30:52Z</time>
      </trkpt>
      <trkpt lat="44.50325" lon="2.25877">
        <ele>345.3</ele>
        <time>2011-08-09T08:30:55Z</time>
      </trkpt>
      <trkpt lat="44.50327" lon="2.25882">
        <ele>345.5</ele>
        <time>2011-08-09T08:30:59Z</time>
      </trkpt>
      <trkpt lat="44.50328" lon="2.25883">
        <ele>345.6</ele>
        <time>2011-08-09T08:31:00Z</time>
      </trkpt>
      <trkpt lat="44.50327" lon="2.25893">
        <ele>347.6</ele>
        <time>2011-08-09T08:31:06Z</time>
      </trkpt>
      <trkpt lat="44.50327" lon="2.25899">
        <ele>348.3</ele>
        <time>2011-08-09T08:31:10Z</time>
      </trkpt>
      <trkpt lat="44.50327" lon="2.25904">
        <ele>349.6</ele>
        <time>2011-08-09T08:31:13Z</time>
      </trkpt>
      <trkpt lat="44.50328" lon="2.25909">
        <ele>350</ele>
        <time>2011-08-09T08:31:16Z</time>
      </trkpt>
      <trkpt lat="44.50328" lon="2.25914">
        <ele>350.2</ele>
        <time>2011-08-09T08:31:19Z</time>
      </trkpt>
      <trkpt lat="44.50329" lon="2.2592">
        <ele>351.4</ele>
        <time>2011-08-09T08:31:23Z</time>
      </trkpt>
      <trkpt lat="44.50329" lon="2.25926">
        <ele>352</ele>
        <time>2011-08-09T08:31:27Z</time>
      </trkpt>
      <trkpt lat="44.50329" lon="2.25932">
        <ele>352.4</ele>
        <time>2011-08-09T08:31:30Z</time>
      </trkpt>
      <trkpt lat="44.50328" lon="2.25938">
        <ele>352.4</ele>
        <time>2011-08-09T08:31:33Z</time>
      </trkpt>
      <trkpt lat="44.50327" lon="2.25944">
        <ele>352.7</ele>
        <time>2011-08-09T08:31:36Z</time>
      </trkpt>
      <trkpt lat="44.50327" lon="2.2595">
        <ele>353.7</ele>
        <time>2011-08-09T08:31:39Z</time>
      </trkpt>
      <trkpt lat="44.50327" lon="2.25954">
        <ele>354.3</ele>
        <time>2011-08-09T08:31:41Z</time>
      </trkpt>
      <trkpt lat="44.50326" lon="2.25958">
        <ele>355</ele>
        <time>2011-08-09T08:31:43Z</time>
      </trkpt>
      <trkpt lat="44.50325" lon="2.25962">
        <ele>355.7</ele>
        <time>2011-08-09T08:31:45Z</time>
      </trkpt>
      <trkpt lat="44.50324" lon="2.25966">
        <ele>355.6</ele>
        <time>2011-08-09T08:31:47Z</time>
      </trkpt>
      <trkpt lat="44.50323" lon="2.2597">
        <ele>355.5</ele>
        <time>2011-08-09T08:31:49Z</time>
      </trkpt>
      <trkpt lat="44.50322" lon="2.25974">
        <ele>356.2</ele>
        <time>2011-08-09T08:31:51Z</time>
      </trkpt>
      <trkpt lat="44.50321" lon="2.25979">
        <ele>356.8</ele>
        <time>2011-08-09T08:31:53Z</time>
      </trkpt>
      <trkpt lat="44.5032" lon="2.25983">
        <ele>357.2</ele>
        <time>2011-08-09T08:31:55Z</time>
      </trkpt>
      <trkpt lat="44.50318" lon="2.25988">
        <ele>357.8</ele>
        <time>2011-08-09T08:31:57Z</time>
      </trkpt>
      <trkpt lat="44.50317" lon="2.25992">
        <ele>358.8</ele>
        <time>2011-08-09T08:31:59Z</time>
      </trkpt>
      <trkpt lat="44.50316" lon="2.25996">
        <ele>359.7</ele>
        <time>2011-08-09T08:32:01Z</time>
      </trkpt>
      <trkpt lat="44.50315" lon="2.25998">
        <ele>359.9</ele>
        <time>2011-08-09T08:32:02Z</time>
      </trkpt>
      <trkpt lat="44.50313" lon="2.26004">
        <ele>360.2</ele>
        <time>2011-08-09T08:32:05Z</time>
      </trkpt>
      <trkpt lat="44.50312" lon="2.26008">
        <ele>360.2</ele>
        <time>2011-08-09T08:32:07Z</time>
      </trkpt>
      <trkpt lat="44.50311" lon="2.26014">
        <ele>360.6</ele>
        <time>2011-08-09T08:32:10Z</time>
      </trkpt>
      <trkpt lat="44.50309" lon="2.2602">
        <ele>361.3</ele>
        <time>2011-08-09T08:32:13Z</time>
      </trkpt>
      <trkpt lat="44.50307" lon="2.26023">
        <ele>362</ele>
        <time>2011-08-09T08:32:15Z</time>
      </trkpt>
      <trkpt lat="44.50305" lon="2.26027">
        <ele>362.8</ele>
        <time>2011-08-09T08:32:17Z</time>
      </trkpt>
      <trkpt lat="44.50302" lon="2.26032">
        <ele>363.1</ele>
        <time>2011-08-09T08:32:20Z</time>
      </trkpt>
      <trkpt lat="44.503" lon="2.26035">
        <ele>364.2</ele>
        <time>2011-08-09T08:32:23Z</time>
      </trkpt>
      <trkpt lat="44.50296" lon="2.26039">
        <ele>364.6</ele>
        <time>2011-08-09T08:32:26Z</time>
      </trkpt>
      <trkpt lat="44.50293" lon="2.26042">
        <ele>365.2</ele>
        <time>2011-08-09T08:32:29Z</time>
      </trkpt>
      <trkpt lat="44.50289" lon="2.26045">
        <ele>365.6</ele>
        <time>2011-08-09T08:32:32Z</time>
      </trkpt>
      <trkpt lat="44.50286" lon="2.26049">
        <ele>366.3</ele>
        <time>2011-08-09T08:32:35Z</time>
      </trkpt>
      <trkpt lat="44.50284" lon="2.26052">
        <ele>367.1</ele>
        <time>2011-08-09T08:32:37Z</time>
      </trkpt>
      <trkpt lat="44.50282" lon="2.26056">
        <ele>367.8</ele>
        <time>2011-08-09T08:32:39Z</time>
      </trkpt>
      <trkpt lat="44.5028" lon="2.26059">
        <ele>368.1</ele>
        <time>2011-08-09T08:32:41Z</time>
      </trkpt>
      <trkpt lat="44.50278" lon="2.26064">
        <ele>368.3</ele>
        <time>2011-08-09T08:32:44Z</time>
      </trkpt>
      <trkpt lat="44.50275" lon="2.26069">
        <ele>368.8</ele>
        <time>2011-08-09T08:32:47Z</time>
      </trkpt>
      <trkpt lat="44.50273" lon="2.26073">
        <ele>369</ele>
        <time>2011-08-09T08:32:49Z</time>
      </trkpt>
      <trkpt lat="44.50271" lon="2.26076">
        <ele>369.9</ele>
        <time>2011-08-09T08:32:51Z</time>
      </trkpt>
      <trkpt lat="44.50269" lon="2.2608">
        <ele>370.7</ele>
        <time>2011-08-09T08:32:53Z</time>
      </trkpt>
      <trkpt lat="44.50268" lon="2.26083">
        <ele>371.3</ele>
        <time>2011-08-09T08:32:55Z</time>
      </trkpt>
      <trkpt lat="44.50266" lon="2.26087">
        <ele>371.8</ele>
        <time>2011-08-09T08:32:57Z</time>
      </trkpt>
      <trkpt lat="44.50264" lon="2.26091">
        <ele>372.2</ele>
        <time>2011-08-09T08:32:59Z</time>
      </trkpt>
      <trkpt lat="44.50263" lon="2.26094">
        <ele>372.4</ele>
        <time>2011-08-09T08:33:01Z</time>
      </trkpt>
      <trkpt lat="44.5026" lon="2.26099">
        <ele>372.6</ele>
        <time>2011-08-09T08:33:04Z</time>
      </trkpt>
      <trkpt lat="44.5026" lon="2.26101">
        <ele>372.6</ele>
        <time>2011-08-09T08:33:05Z</time>
      </trkpt>
      <trkpt lat="44.50256" lon="2.26108">
        <ele>373.2</ele>
        <time>2011-08-09T08:33:09Z</time>
      </trkpt>
      <trkpt lat="44.50254" lon="2.26113">
        <ele>374.1</ele>
        <time>2011-08-09T08:33:12Z</time>
      </trkpt>
      <trkpt lat="44.50252" lon="2.26118">
        <ele>375.1</ele>
        <time>2011-08-09T08:33:15Z</time>
      </trkpt>
      <trkpt lat="44.5025" lon="2.26121">
        <ele>375.3</ele>
        <time>2011-08-09T08:33:17Z</time>
      </trkpt>
      <trkpt lat="44.50248" lon="2.26125">
        <ele>375.6</ele>
        <time>2011-08-09T08:33:19Z</time>
      </trkpt>
      <trkpt lat="44.50247" lon="2.26129">
        <ele>376</ele>
        <time>2011-08-09T08:33:21Z</time>
      </trkpt>
      <trkpt lat="44.50245" lon="2.26133">
        <ele>376.6</ele>
        <time>2011-08-09T08:33:23Z</time>
      </trkpt>
      <trkpt lat="44.50243" lon="2.26137">
        <ele>377.1</ele>
        <time>2011-08-09T08:33:25Z</time>
      </trkpt>
      <trkpt lat="44.50241" lon="2.26141">
        <ele>377.3</ele>
        <time>2011-08-09T08:33:27Z</time>
      </trkpt>
      <trkpt lat="44.5024" lon="2.26145">
        <ele>377.7</ele>
        <time>2011-08-09T08:33:29Z</time>
      </trkpt>
      <trkpt lat="44.50239" lon="2.26149">
        <ele>378.1</ele>
        <time>2011-08-09T08:33:31Z</time>
      </trkpt>
      <trkpt lat="44.50237" lon="2.26153">
        <ele>378.9</ele>
        <time>2011-08-09T08:33:33Z</time>
      </trkpt>
      <trkpt lat="44.50236" lon="2.26158">
        <ele>379.5</ele>
        <time>2011-08-09T08:33:35Z</time>
      </trkpt>
      <trkpt lat="44.50235" lon="2.26164">
        <ele>380.3</ele>
        <time>2011-08-09T08:33:38Z</time>
      </trkpt>
      <trkpt lat="44.50235" lon="2.26168">
        <ele>380.7</ele>
        <time>2011-08-09T08:33:40Z</time>
      </trkpt>
      <trkpt lat="44.50234" lon="2.26173">
        <ele>380.9</ele>
        <time>2011-08-09T08:33:42Z</time>
      </trkpt>
      <trkpt lat="44.50234" lon="2.26178">
        <ele>381.1</ele>
        <time>2011-08-09T08:33:44Z</time>
      </trkpt>
      <trkpt lat="44.50234" lon="2.26182">
        <ele>382.2</ele>
        <time>2011-08-09T08:33:46Z</time>
      </trkpt>
      <trkpt lat="44.50234" lon="2.26188">
        <ele>383.2</ele>
        <time>2011-08-09T08:33:49Z</time>
      </trkpt>
      <trkpt lat="44.50235" lon="2.26194">
        <ele>383.7</ele>
        <time>2011-08-09T08:33:52Z</time>
      </trkpt>
      <trkpt lat="44.50236" lon="2.262">
        <ele>383.5</ele>
        <time>2011-08-09T08:33:55Z</time>
      </trkpt>
      <trkpt lat="44.50236" lon="2.26206">
        <ele>384.6</ele>
        <time>2011-08-09T08:33:58Z</time>
      </trkpt>
      <trkpt lat="44.50237" lon="2.2621">
        <ele>385.4</ele>
        <time>2011-08-09T08:34:00Z</time>
      </trkpt>
      <trkpt lat="44.50238" lon="2.26214">
        <ele>386.1</ele>
        <time>2011-08-09T08:34:02Z</time>
      </trkpt>
      <trkpt lat="44.50239" lon="2.26218">
        <ele>386.5</ele>
        <time>2011-08-09T08:34:04Z</time>
      </trkpt>
      <trkpt lat="44.50239" lon="2.26223">
        <ele>386.9</ele>
        <time>2011-08-09T08:34:06Z</time>
      </trkpt>
      <trkpt lat="44.50239" lon="2.26226">
        <ele>387.2</ele>
        <time>2011-08-09T08:34:07Z</time>
      </trkpt>
      <trkpt lat="44.50239" lon="2.26233">
        <ele>386.9</ele>
        <time>2011-08-09T08:34:10Z</time>
      </trkpt>
      <trkpt lat="44.50238" lon="2.26238">
        <ele>386</ele>
        <time>2011-08-09T08:34:12Z</time>
      </trkpt>
      <trkpt lat="44.50237" lon="2.26243">
        <ele>385.8</ele>
        <time>2011-08-09T08:34:14Z</time>
      </trkpt>
      <trkpt lat="44.50236" lon="2.26248">
        <ele>385.8</ele>
        <time>2011-08-09T08:34:16Z</time>
      </trkpt>
      <trkpt lat="44.50235" lon="2.26254">
        <ele>385.9</ele>
        <time>2011-08-09T08:34:18Z</time>
      </trkpt>
      <trkpt lat="44.50234" lon="2.26259">
        <ele>386.3</ele>
        <time>2011-08-09T08:34:20Z</time>
      </trkpt>
      <trkpt lat="44.50233" lon="2.26263">
        <ele>386.8</ele>
        <time>2011-08-09T08:34:22Z</time>
      </trkpt>
      <trkpt lat="44.50232" lon="2.26268">
        <ele>387.4</ele>
        <time>2011-08-09T08:34:24Z</time>
      </trkpt>
      <trkpt lat="44.50231" lon="2.26272">
        <ele>387.9</ele>
        <time>2011-08-09T08:34:26Z</time>
      </trkpt>
      <trkpt lat="44.50231" lon="2.26277">
        <ele>388.3</ele>
        <time>2011-08-09T08:34:28Z</time>
      </trkpt>
      <trkpt lat="44.50231" lon="2.26281">
        <ele>387.6</ele>
        <time>2011-08-09T08:34:30Z</time>
      </trkpt>
      <trkpt lat="44.50231" lon="2.26285">
        <ele>387.7</ele>
        <time>2011-08-09T08:34:32Z</time>
      </trkpt>
      <trkpt lat="44.50231" lon="2.26292">
        <ele>388.2</ele>
        <time>2011-08-09T08:34:35Z</time>
      </trkpt>
      <trkpt lat="44.50232" lon="2.26296">
        <ele>387.8</ele>
        <time>2011-08-09T08:34:37Z</time>
      </trkpt>
      <trkpt lat="44.50233" lon="2.263">
        <ele>388</ele>
        <time>2011-08-09T08:34:39Z</time>
      </trkpt>
      <trkpt lat="44.50233" lon="2.26304">
        <ele>388.4</ele>
        <time>2011-08-09T08:34:41Z</time>
      </trkpt>
      <trkpt lat="44.50235" lon="2.2631">
        <ele>388.3</ele>
        <time>2011-08-09T08:34:44Z</time>
      </trkpt>
      <trkpt lat="44.50237" lon="2.26316">
        <ele>388.8</ele>
        <time>2011-08-09T08:34:47Z</time>
      </trkpt>
      <trkpt lat="44.50238" lon="2.2632">
        <ele>389.1</ele>
        <time>2011-08-09T08:34:49Z</time>
      </trkpt>
      <trkpt lat="44.50238" lon="2.26324">
        <ele>389.3</ele>
        <time>2011-08-09T08:34:51Z</time>
      </trkpt>
      <trkpt lat="44.50239" lon="2.26328">
        <ele>390</ele>
        <time>2011-08-09T08:34:53Z</time>
      </trkpt>
      <trkpt lat="44.5024" lon="2.26332">
        <ele>390.2</ele>
        <time>2011-08-09T08:34:55Z</time>
      </trkpt>
      <trkpt lat="44.50239" lon="2.26336">
        <ele>390.2</ele>
        <time>2011-08-09T08:34:57Z</time>
      </trkpt>
      <trkpt lat="44.50237" lon="2.2634">
        <ele>390.5</ele>
        <time>2011-08-09T08:34:59Z</time>
      </trkpt>
      <trkpt lat="44.50235" lon="2.26344">
        <ele>390.8</ele>
        <time>2011-08-09T08:35:01Z</time>
      </trkpt>
      <trkpt lat="44.50232" lon="2.26347">
        <ele>391.1</ele>
        <time>2011-08-09T08:35:03Z</time>
      </trkpt>
      <trkpt lat="44.50229" lon="2.2635">
        <ele>392</ele>
        <time>2011-08-09T08:35:05Z</time>
      </trkpt>
      <trkpt lat="44.50227" lon="2.26353">
        <ele>392.4</ele>
        <time>2011-08-09T08:35:07Z</time>
      </trkpt>
      <trkpt lat="44.50226" lon="2.26354">
        <ele>392.4</ele>
        <time>2011-08-09T08:35:08Z</time>
      </trkpt>
      <trkpt lat="44.50222" lon="2.2636">
        <ele>393.8</ele>
        <time>2011-08-09T08:35:12Z</time>
      </trkpt>
      <trkpt lat="44.5022" lon="2.26366">
        <ele>394.6</ele>
        <time>2011-08-09T08:35:15Z</time>
      </trkpt>
      <trkpt lat="44.50221" lon="2.26372">
        <ele>395.6</ele>
        <time>2011-08-09T08:35:18Z</time>
      </trkpt>
      <trkpt lat="44.50222" lon="2.26377">
        <ele>396.1</ele>
        <time>2011-08-09T08:35:21Z</time>
      </trkpt>
      <trkpt lat="44.50224" lon="2.26383">
        <ele>396.5</ele>
        <time>2011-08-09T08:35:24Z</time>
      </trkpt>
      <trkpt lat="44.50225" lon="2.26387">
        <ele>396.7</ele>
        <time>2011-08-09T08:35:26Z</time>
      </trkpt>
      <trkpt lat="44.50227" lon="2.26393">
        <ele>397</ele>
        <time>2011-08-09T08:35:29Z</time>
      </trkpt>
      <trkpt lat="44.50228" lon="2.26399">
        <ele>397.2</ele>
        <time>2011-08-09T08:35:32Z</time>
      </trkpt>
      <trkpt lat="44.50229" lon="2.26404">
        <ele>397.2</ele>
        <time>2011-08-09T08:35:35Z</time>
      </trkpt>
      <trkpt lat="44.5023" lon="2.2641">
        <ele>397.8</ele>
        <time>2011-08-09T08:35:38Z</time>
      </trkpt>
      <trkpt lat="44.50231" lon="2.26414">
        <ele>398.1</ele>
        <time>2011-08-09T08:35:40Z</time>
      </trkpt>
      <trkpt lat="44.50233" lon="2.26417">
        <ele>398.2</ele>
        <time>2011-08-09T08:35:42Z</time>
      </trkpt>
      <trkpt lat="44.50235" lon="2.26421">
        <ele>398.7</ele>
        <time>2011-08-09T08:35:44Z</time>
      </trkpt>
      <trkpt lat="44.50237" lon="2.26424">
        <ele>399.1</ele>
        <time>2011-08-09T08:35:46Z</time>
      </trkpt>
      <trkpt lat="44.50239" lon="2.26428">
        <ele>399.5</ele>
        <time>2011-08-09T08:35:48Z</time>
      </trkpt>
      <trkpt lat="44.50242" lon="2.26432">
        <ele>400.4</ele>
        <time>2011-08-09T08:35:51Z</time>
      </trkpt>
      <trkpt lat="44.50245" lon="2.26435">
        <ele>401.3</ele>
        <time>2011-08-09T08:35:53Z</time>
      </trkpt>
      <trkpt lat="44.50247" lon="2.26438">
        <ele>401.9</ele>
        <time>2011-08-09T08:35:55Z</time>
      </trkpt>
      <trkpt lat="44.50249" lon="2.26442">
        <ele>402.4</ele>
        <time>2011-08-09T08:35:57Z</time>
      </trkpt>
      <trkpt lat="44.50251" lon="2.26446">
        <ele>402.7</ele>
        <time>2011-08-09T08:35:59Z</time>
      </trkpt>
      <trkpt lat="44.50253" lon="2.2645">
        <ele>402.9</ele>
        <time>2011-08-09T08:36:01Z</time>
      </trkpt>
      <trkpt lat="44.50255" lon="2.26454">
        <ele>402.5</ele>
        <time>2011-08-09T08:36:03Z</time>
      </trkpt>
      <trkpt lat="44.50256" lon="2.26458">
        <ele>402.6</ele>
        <time>2011-08-09T08:36:05Z</time>
      </trkpt>
      <trkpt lat="44.50257" lon="2.26462">
        <ele>402.9</ele>
        <time>2011-08-09T08:36:07Z</time>
      </trkpt>
      <trkpt lat="44.50258" lon="2.26466">
        <ele>402.6</ele>
        <time>2011-08-09T08:36:09Z</time>
      </trkpt>
      <trkpt lat="44.50258" lon="2.26469">
        <ele>402.4</ele>
        <time>2011-08-09T08:36:10Z</time>
      </trkpt>
      <trkpt lat="44.50259" lon="2.26476">
        <ele>403.2</ele>
        <time>2011-08-09T08:36:13Z</time>
      </trkpt>
      <trkpt lat="44.50258" lon="2.2648">
        <ele>403.3</ele>
        <time>2011-08-09T08:36:15Z</time>
      </trkpt>
      <trkpt lat="44.50258" lon="2.26485">
        <ele>403.3</ele>
        <time>2011-08-09T08:36:17Z</time>
      </trkpt>
      <trkpt lat="44.50258" lon="2.2649">
        <ele>404.4</ele>
        <time>2011-08-09T08:36:19Z</time>
      </trkpt>
      <trkpt lat="44.50257" lon="2.26496">
        <ele>405.2</ele>
        <time>2011-08-09T08:36:22Z</time>
      </trkpt>
      <trkpt lat="44.50257" lon="2.26501">
        <ele>405</ele>
        <time>2011-08-09T08:36:25Z</time>
      </trkpt>
      <trkpt lat="44.50257" lon="2.26507">
        <ele>405.6</ele>
        <time>2011-08-09T08:36:28Z</time>
      </trkpt>
      <trkpt lat="44.50257" lon="2.26513">
        <ele>405.9</ele>
        <time>2011-08-09T08:36:31Z</time>
      </trkpt>
      <trkpt lat="44.50256" lon="2.26517">
        <ele>405.7</ele>
        <time>2011-08-09T08:36:33Z</time>
      </trkpt>
      <trkpt lat="44.50256" lon="2.26521">
        <ele>406.4</ele>
        <time>2011-08-09T08:36:35Z</time>
      </trkpt>
      <trkpt lat="44.50256" lon="2.26526">
        <ele>407.4</ele>
        <time>2011-08-09T08:36:37Z</time>
      </trkpt>
      <trkpt lat="44.50256" lon="2.26531">
        <ele>408.3</ele>
        <time>2011-08-09T08:36:39Z</time>
      </trkpt>
      <trkpt lat="44.50255" lon="2.26536">
        <ele>408.5</ele>
        <time>2011-08-09T08:36:41Z</time>
      </trkpt>
      <trkpt lat="44.50256" lon="2.26541">
        <ele>408.3</ele>
        <time>2011-08-09T08:36:43Z</time>
      </trkpt>
      <trkpt lat="44.50256" lon="2.26546">
        <ele>407.8</ele>
        <time>2011-08-09T08:36:45Z</time>
      </trkpt>
      <trkpt lat="44.50256" lon="2.26551">
        <ele>408.1</ele>
        <time>2011-08-09T08:36:47Z</time>
      </trkpt>
      <trkpt lat="44.50256" lon="2.26556">
        <ele>408.3</ele>
        <time>2011-08-09T08:36:49Z</time>
      </trkpt>
      <trkpt lat="44.50256" lon="2.26561">
        <ele>408.5</ele>
        <time>2011-08-09T08:36:51Z</time>
      </trkpt>
      <trkpt lat="44.50255" lon="2.26566">
        <ele>408.2</ele>
        <time>2011-08-09T08:36:53Z</time>
      </trkpt>
      <trkpt lat="44.50254" lon="2.26572">
        <ele>407.9</ele>
        <time>2011-08-09T08:36:55Z</time>
      </trkpt>
      <trkpt lat="44.50253" lon="2.26578">
        <ele>407.6</ele>
        <time>2011-08-09T08:36:57Z</time>
      </trkpt>
      <trkpt lat="44.50252" lon="2.26581">
        <ele>407.6</ele>
        <time>2011-08-09T08:36:58Z</time>
      </trkpt>
      <trkpt lat="44.50251" lon="2.26584">
        <ele>407.2</ele>
        <time>2011-08-09T08:36:59Z</time>
      </trkpt>
      <trkpt lat="44.5025" lon="2.26587">
        <ele>406.9</ele>
        <time>2011-08-09T08:37:00Z</time>
      </trkpt>
      <trkpt lat="44.5025" lon="2.2659">
        <ele>406.7</ele>
        <time>2011-08-09T08:37:01Z</time>
      </trkpt>
      <trkpt lat="44.5025" lon="2.26595">
        <ele>406.4</ele>
        <time>2011-08-09T08:37:02Z</time>
      </trkpt>
      <trkpt lat="44.50251" lon="2.26599">
        <ele>406.2</ele>
        <time>2011-08-09T08:37:03Z</time>
      </trkpt>
      <trkpt lat="44.50254" lon="2.26604">
        <ele>406</ele>
        <time>2011-08-09T08:37:04Z</time>
      </trkpt>
      <trkpt lat="44.50256" lon="2.2661">
        <ele>405.9</ele>
        <time>2011-08-09T08:37:05Z</time>
      </trkpt>
      <trkpt lat="44.50259" lon="2.26615">
        <ele>405.6</ele>
        <time>2011-08-09T08:37:06Z</time>
      </trkpt>
      <trkpt lat="44.50262" lon="2.26619">
        <ele>405.3</ele>
        <time>2011-08-09T08:37:07Z</time>
      </trkpt>
      <trkpt lat="44.50266" lon="2.26623">
        <ele>405.1</ele>
        <time>2011-08-09T08:37:08Z</time>
      </trkpt>
      <trkpt lat="44.5027" lon="2.26627">
        <ele>404.6</ele>
        <time>2011-08-09T08:37:09Z</time>
      </trkpt>
      <trkpt lat="44.50273" lon="2.26631">
        <ele>404.3</ele>
        <time>2011-08-09T08:37:10Z</time>
      </trkpt>
      <trkpt lat="44.50275" lon="2.26636">
        <ele>404</ele>
        <time>2011-08-09T08:37:11Z</time>
      </trkpt>
      <trkpt lat="44.50277" lon="2.2664">
        <ele>404.5</ele>
        <time>2011-08-09T08:37:12Z</time>
      </trkpt>
      <trkpt lat="44.50278" lon="2.26645">
        <ele>404.9</ele>
        <time>2011-08-09T08:37:13Z</time>
      </trkpt>
      <trkpt lat="44.50278" lon="2.26649">
        <ele>405.2</ele>
        <time>2011-08-09T08:37:14Z</time>
      </trkpt>
      <trkpt lat="44.50279" lon="2.26653">
        <ele>404.9</ele>
        <time>2011-08-09T08:37:15Z</time>
      </trkpt>
      <trkpt lat="44.5028" lon="2.26658">
        <ele>404.6</ele>
        <time>2011-08-09T08:37:16Z</time>
      </trkpt>
      <trkpt lat="44.5028" lon="2.26662">
        <ele>404.4</ele>
        <time>2011-08-09T08:37:17Z</time>
      </trkpt>
      <trkpt lat="44.50281" lon="2.26665">
        <ele>404.5</ele>
        <time>2011-08-09T08:37:18Z</time>
      </trkpt>
      <trkpt lat="44.50281" lon="2.26669">
        <ele>404.5</ele>
        <time>2011-08-09T08:37:19Z</time>
      </trkpt>
      <trkpt lat="44.50282" lon="2.26673">
        <ele>404.6</ele>
        <time>2011-08-09T08:37:20Z</time>
      </trkpt>
      <trkpt lat="44.50282" lon="2.26676">
        <ele>404.6</ele>
        <time>2011-08-09T08:37:21Z</time>
      </trkpt>
      <trkpt lat="44.50283" lon="2.2668">
        <ele>405</ele>
        <time>2011-08-09T08:37:22Z</time>
      </trkpt>
      <trkpt lat="44.50283" lon="2.26683">
        <ele>405.2</ele>
        <time>2011-08-09T08:37:23Z</time>
      </trkpt>
      <trkpt lat="44.50284" lon="2.26686">
        <ele>405.4</ele>
        <time>2011-08-09T08:37:24Z</time>
      </trkpt>
      <trkpt lat="44.50284" lon="2.2669">
        <ele>405.4</ele>
        <time>2011-08-09T08:37:25Z</time>
      </trkpt>
      <trkpt lat="44.50285" lon="2.26693">
        <ele>405.5</ele>
        <time>2011-08-09T08:37:26Z</time>
      </trkpt>
      <trkpt lat="44.50285" lon="2.26696">
        <ele>405.5</ele>
        <time>2011-08-09T08:37:27Z</time>
      </trkpt>
      <trkpt lat="44.50286" lon="2.26699">
        <ele>405.6</ele>
        <time>2011-08-09T08:37:28Z</time>
      </trkpt>
      <trkpt lat="44.50286" lon="2.26703">
        <ele>405.8</ele>
        <time>2011-08-09T08:37:29Z</time>
      </trkpt>
      <trkpt lat="44.50286" lon="2.26706">
        <ele>405.9</ele>
        <time>2011-08-09T08:37:30Z</time>
      </trkpt>
      <trkpt lat="44.50286" lon="2.2671">
        <ele>405.9</ele>
        <time>2011-08-09T08:37:31Z</time>
      </trkpt>
      <trkpt lat="44.50286" lon="2.26713">
        <ele>406</ele>
        <time>2011-08-09T08:37:32Z</time>
      </trkpt>
      <trkpt lat="44.50287" lon="2.26716">
        <ele>406</ele>
        <time>2011-08-09T08:37:33Z</time>
      </trkpt>
      <trkpt lat="44.50287" lon="2.2672">
        <ele>406.4</ele>
        <time>2011-08-09T08:37:34Z</time>
      </trkpt>
      <trkpt lat="44.50286" lon="2.26723">
        <ele>406.6</ele>
        <time>2011-08-09T08:37:35Z</time>
      </trkpt>
      <trkpt lat="44.50286" lon="2.26727">
        <ele>406.8</ele>
        <time>2011-08-09T08:37:36Z</time>
      </trkpt>
      <trkpt lat="44.50286" lon="2.2673">
        <ele>407</ele>
        <time>2011-08-09T08:37:37Z</time>
      </trkpt>
      <trkpt lat="44.50286" lon="2.26733">
        <ele>407</ele>
        <time>2011-08-09T08:37:38Z</time>
      </trkpt>
      <trkpt lat="44.50286" lon="2.26737">
        <ele>407</ele>
        <time>2011-08-09T08:37:39Z</time>
      </trkpt>
      <trkpt lat="44.50285" lon="2.2674">
        <ele>407.1</ele>
        <time>2011-08-09T08:37:40Z</time>
      </trkpt>
      <trkpt lat="44.50285" lon="2.26743">
        <ele>407</ele>
        <time>2011-08-09T08:37:41Z</time>
      </trkpt>
      <trkpt lat="44.50284" lon="2.26747">
        <ele>407</ele>
        <time>2011-08-09T08:37:42Z</time>
      </trkpt>
      <trkpt lat="44.50283" lon="2.26751">
        <ele>407</ele>
        <time>2011-08-09T08:37:43Z</time>
      </trkpt>
      <trkpt lat="44.50282" lon="2.26756">
        <ele>407</ele>
        <time>2011-08-09T08:37:44Z</time>
      </trkpt>
      <trkpt lat="44.50282" lon="2.26762">
        <ele>407</ele>
        <time>2011-08-09T08:37:45Z</time>
      </trkpt>
      <trkpt lat="44.50282" lon="2.26767">
        <ele>407</ele>
        <time>2011-08-09T08:37:46Z</time>
      </trkpt>
      <trkpt lat="44.50282" lon="2.26773">
        <ele>406.4</ele>
        <time>2011-08-09T08:37:47Z</time>
      </trkpt>
      <trkpt lat="44.50284" lon="2.26777">
        <ele>405.9</ele>
        <time>2011-08-09T08:37:48Z</time>
      </trkpt>
      <trkpt lat="44.50287" lon="2.26781">
        <ele>405.5</ele>
        <time>2011-08-09T08:37:49Z</time>
      </trkpt>
      <trkpt lat="44.50291" lon="2.26784">
        <ele>405.1</ele>
        <time>2011-08-09T08:37:50Z</time>
      </trkpt>
      <trkpt lat="44.50295" lon="2.26786">
        <ele>404.7</ele>
        <time>2011-08-09T08:37:51Z</time>
      </trkpt>
      <trkpt lat="44.503" lon="2.26788">
        <ele>404.4</ele>
        <time>2011-08-09T08:37:52Z</time>
      </trkpt>
      <trkpt lat="44.50305" lon="2.2679">
        <ele>403.9</ele>
        <time>2011-08-09T08:37:53Z</time>
      </trkpt>
      <trkpt lat="44.50309" lon="2.26791">
        <ele>403.5</ele>
        <time>2011-08-09T08:37:54Z</time>
      </trkpt>
      <trkpt lat="44.50314" lon="2.26793">
        <ele>403.2</ele>
        <time>2011-08-09T08:37:55Z</time>
      </trkpt>
      <trkpt lat="44.50318" lon="2.26794">
        <ele>402.9</ele>
        <time>2011-08-09T08:37:56Z</time>
      </trkpt>
      <trkpt lat="44.50322" lon="2.26796">
        <ele>402.9</ele>
        <time>2011-08-09T08:37:57Z</time>
      </trkpt>
      <trkpt lat="44.50326" lon="2.26797">
        <ele>402.9</ele>
        <time>2011-08-09T08:37:58Z</time>
      </trkpt>
      <trkpt lat="44.50329" lon="2.26798">
        <ele>402.9</ele>
        <time>2011-08-09T08:37:59Z</time>
      </trkpt>
      <trkpt lat="44.50333" lon="2.26799">
        <ele>403.4</ele>
        <time>2011-08-09T08:38:00Z</time>
      </trkpt>
      <trkpt lat="44.50336" lon="2.268">
        <ele>403.8</ele>
        <time>2011-08-09T08:38:01Z</time>
      </trkpt>
      <trkpt lat="44.50339" lon="2.26801">
        <ele>404.1</ele>
        <time>2011-08-09T08:38:02Z</time>
      </trkpt>
      <trkpt lat="44.50342" lon="2.26802">
        <ele>404</ele>
        <time>2011-08-09T08:38:03Z</time>
      </trkpt>
      <trkpt lat="44.50346" lon="2.26803">
        <ele>404</ele>
        <time>2011-08-09T08:38:04Z</time>
      </trkpt>
      <trkpt lat="44.50349" lon="2.26804">
        <ele>403.9</ele>
        <time>2011-08-09T08:38:05Z</time>
      </trkpt>
      <trkpt lat="44.50351" lon="2.26806">
        <ele>404.3</ele>
        <time>2011-08-09T08:38:06Z</time>
      </trkpt>
      <trkpt lat="44.50354" lon="2.26807">
        <ele>404.6</ele>
        <time>2011-08-09T08:38:07Z</time>
      </trkpt>
      <trkpt lat="44.50356" lon="2.26809">
        <ele>404.8</ele>
        <time>2011-08-09T08:38:08Z</time>
      </trkpt>
      <trkpt lat="44.50359" lon="2.26811">
        <ele>405</ele>
        <time>2011-08-09T08:38:09Z</time>
      </trkpt>
      <trkpt lat="44.50361" lon="2.26813">
        <ele>405.2</ele>
        <time>2011-08-09T08:38:10Z</time>
      </trkpt>
      <trkpt lat="44.50363" lon="2.26815">
        <ele>405.3</ele>
        <time>2011-08-09T08:38:11Z</time>
      </trkpt>
      <trkpt lat="44.50365" lon="2.26817">
        <ele>405.4</ele>
        <time>2011-08-09T08:38:12Z</time>
      </trkpt>
      <trkpt lat="44.50367" lon="2.2682">
        <ele>405.6</ele>
        <time>2011-08-09T08:38:13Z</time>
      </trkpt>
      <trkpt lat="44.50369" lon="2.26823">
        <ele>405.8</ele>
        <time>2011-08-09T08:38:14Z</time>
      </trkpt>
      <trkpt lat="44.50371" lon="2.26826">
        <ele>405.9</ele>
        <time>2011-08-09T08:38:15Z</time>
      </trkpt>
      <trkpt lat="44.50372" lon="2.26829">
        <ele>405.7</ele>
        <time>2011-08-09T08:38:16Z</time>
      </trkpt>
      <trkpt lat="44.50374" lon="2.26833">
        <ele>405.5</ele>
        <time>2011-08-09T08:38:17Z</time>
      </trkpt>
      <trkpt lat="44.50376" lon="2.26836">
        <ele>405.4</ele>
        <time>2011-08-09T08:38:18Z</time>
      </trkpt>
      <trkpt lat="44.50377" lon="2.2684">
        <ele>405.7</ele>
        <time>2011-08-09T08:38:19Z</time>
      </trkpt>
      <trkpt lat="44.50379" lon="2.26843">
        <ele>406</ele>
        <time>2011-08-09T08:38:20Z</time>
      </trkpt>
      <trkpt lat="44.5038" lon="2.26847">
        <ele>406.2</ele>
        <time>2011-08-09T08:38:21Z</time>
      </trkpt>
      <trkpt lat="44.50382" lon="2.26851">
        <ele>406.4</ele>
        <time>2011-08-09T08:38:22Z</time>
      </trkpt>
      <trkpt lat="44.50383" lon="2.26855">
        <ele>406.6</ele>
        <time>2011-08-09T08:38:23Z</time>
      </trkpt>
      <trkpt lat="44.50384" lon="2.26858">
        <ele>406.7</ele>
        <time>2011-08-09T08:38:24Z</time>
      </trkpt>
      <trkpt lat="44.50385" lon="2.26861">
        <ele>406.9</ele>
        <time>2011-08-09T08:38:25Z</time>
      </trkpt>
      <trkpt lat="44.50385" lon="2.26865">
        <ele>407</ele>
        <time>2011-08-09T08:38:26Z</time>
      </trkpt>
      <trkpt lat="44.50386" lon="2.26868">
        <ele>407.1</ele>
        <time>2011-08-09T08:38:27Z</time>
      </trkpt>
      <trkpt lat="44.50386" lon="2.26871">
        <ele>407.2</ele>
        <time>2011-08-09T08:38:28Z</time>
      </trkpt>
      <trkpt lat="44.50387" lon="2.26877">
        <ele>407.4</ele>
        <time>2011-08-09T08:38:30Z</time>
      </trkpt>
      <trkpt lat="44.50387" lon="2.26883">
        <ele>407.5</ele>
        <time>2011-08-09T08:38:32Z</time>
      </trkpt>
      <trkpt lat="44.50387" lon="2.26887">
        <ele>407.6</ele>
        <time>2011-08-09T08:38:33Z</time>
      </trkpt>
      <trkpt lat="44.50387" lon="2.2689">
        <ele>407.7</ele>
        <time>2011-08-09T08:38:34Z</time>
      </trkpt>
      <trkpt lat="44.50386" lon="2.26893">
        <ele>408.1</ele>
        <time>2011-08-09T08:38:35Z</time>
      </trkpt>
      <trkpt lat="44.50386" lon="2.26896">
        <ele>408.4</ele>
        <time>2011-08-09T08:38:36Z</time>
      </trkpt>
      <trkpt lat="44.50385" lon="2.26899">
        <ele>408.6</ele>
        <time>2011-08-09T08:38:37Z</time>
      </trkpt>
      <trkpt lat="44.50385" lon="2.26903">
        <ele>408.8</ele>
        <time>2011-08-09T08:38:38Z</time>
      </trkpt>
      <trkpt lat="44.50384" lon="2.26906">
        <ele>409</ele>
        <time>2011-08-09T08:38:39Z</time>
      </trkpt>
      <trkpt lat="44.50384" lon="2.26909">
        <ele>409.1</ele>
        <time>2011-08-09T08:38:40Z</time>
      </trkpt>
      <trkpt lat="44.50383" lon="2.26915">
        <ele>409.7</ele>
        <time>2011-08-09T08:38:42Z</time>
      </trkpt>
      <trkpt lat="44.50382" lon="2.26918">
        <ele>409.9</ele>
        <time>2011-08-09T08:38:43Z</time>
      </trkpt>
      <trkpt lat="44.5038" lon="2.26924">
        <ele>410.4</ele>
        <time>2011-08-09T08:38:45Z</time>
      </trkpt>
      <trkpt lat="44.5038" lon="2.26927">
        <ele>410.7</ele>
        <time>2011-08-09T08:38:46Z</time>
      </trkpt>
      <trkpt lat="44.50379" lon="2.2693">
        <ele>410.9</ele>
        <time>2011-08-09T08:38:47Z</time>
      </trkpt>
      <trkpt lat="44.50379" lon="2.26933">
        <ele>411.4</ele>
        <time>2011-08-09T08:38:48Z</time>
      </trkpt>
      <trkpt lat="44.50378" lon="2.26939">
        <ele>412.1</ele>
        <time>2011-08-09T08:38:50Z</time>
      </trkpt>
      <trkpt lat="44.50377" lon="2.26945">
        <ele>412.7</ele>
        <time>2011-08-09T08:38:52Z</time>
      </trkpt>
      <trkpt lat="44.50377" lon="2.26951">
        <ele>413.2</ele>
        <time>2011-08-09T08:38:54Z</time>
      </trkpt>
      <trkpt lat="44.50377" lon="2.26956">
        <ele>413.7</ele>
        <time>2011-08-09T08:38:56Z</time>
      </trkpt>
      <trkpt lat="44.50378" lon="2.26962">
        <ele>414.9</ele>
        <time>2011-08-09T08:38:58Z</time>
      </trkpt>
      <trkpt lat="44.50379" lon="2.26968">
        <ele>415.5</ele>
        <time>2011-08-09T08:39:00Z</time>
      </trkpt>
      <trkpt lat="44.5038" lon="2.26974">
        <ele>416</ele>
        <time>2011-08-09T08:39:02Z</time>
      </trkpt>
      <trkpt lat="44.50381" lon="2.2698">
        <ele>416.2</ele>
        <time>2011-08-09T08:39:04Z</time>
      </trkpt>
      <trkpt lat="44.50382" lon="2.26985">
        <ele>416.1</ele>
        <time>2011-08-09T08:39:06Z</time>
      </trkpt>
      <trkpt lat="44.50383" lon="2.26991">
        <ele>416.4</ele>
        <time>2011-08-09T08:39:08Z</time>
      </trkpt>
      <trkpt lat="44.50384" lon="2.26996">
        <ele>417.4</ele>
        <time>2011-08-09T08:39:10Z</time>
      </trkpt>
      <trkpt lat="44.50384" lon="2.27001">
        <ele>418.6</ele>
        <time>2011-08-09T08:39:12Z</time>
      </trkpt>
      <trkpt lat="44.50385" lon="2.27004">
        <ele>419</ele>
        <time>2011-08-09T08:39:13Z</time>
      </trkpt>
      <trkpt lat="44.50386" lon="2.27012">
        <ele>419.7</ele>
        <time>2011-08-09T08:39:16Z</time>
      </trkpt>
      <trkpt lat="44.50386" lon="2.27017">
        <ele>419.7</ele>
        <time>2011-08-09T08:39:18Z</time>
      </trkpt>
      <trkpt lat="44.50387" lon="2.27022">
        <ele>420.6</ele>
        <time>2011-08-09T08:39:20Z</time>
      </trkpt>
      <trkpt lat="44.50387" lon="2.27027">
        <ele>421.8</ele>
        <time>2011-08-09T08:39:22Z</time>
      </trkpt>
      <trkpt lat="44.50387" lon="2.27032">
        <ele>422.2</ele>
        <time>2011-08-09T08:39:24Z</time>
      </trkpt>
      <trkpt lat="44.50388" lon="2.27036">
        <ele>422.6</ele>
        <time>2011-08-09T08:39:26Z</time>
      </trkpt>
      <trkpt lat="44.50387" lon="2.27042">
        <ele>423.6</ele>
        <time>2011-08-09T08:39:29Z</time>
      </trkpt>
      <trkpt lat="44.50384" lon="2.27048">
        <ele>424.3</ele>
        <time>2011-08-09T08:39:32Z</time>
      </trkpt>
      <trkpt lat="44.50383" lon="2.27052">
        <ele>424.1</ele>
        <time>2011-08-09T08:39:34Z</time>
      </trkpt>
      <trkpt lat="44.50383" lon="2.27057">
        <ele>424.3</ele>
        <time>2011-08-09T08:39:36Z</time>
      </trkpt>
      <trkpt lat="44.50385" lon="2.27061">
        <ele>425.2</ele>
        <time>2011-08-09T08:39:39Z</time>
      </trkpt>
      <trkpt lat="44.50387" lon="2.27066">
        <ele>426</ele>
        <time>2011-08-09T08:39:42Z</time>
      </trkpt>
      <trkpt lat="44.50389" lon="2.27069">
        <ele>426.3</ele>
        <time>2011-08-09T08:39:44Z</time>
      </trkpt>
      <trkpt lat="44.50391" lon="2.27073">
        <ele>426.6</ele>
        <time>2011-08-09T08:39:46Z</time>
      </trkpt>
      <trkpt lat="44.50393" lon="2.27079">
        <ele>427.5</ele>
        <time>2011-08-09T08:39:49Z</time>
      </trkpt>
      <trkpt lat="44.50394" lon="2.27084">
        <ele>428.3</ele>
        <time>2011-08-09T08:39:52Z</time>
      </trkpt>
      <trkpt lat="44.50395" lon="2.2709">
        <ele>429.2</ele>
        <time>2011-08-09T08:39:55Z</time>
      </trkpt>
      <trkpt lat="44.50396" lon="2.27095">
        <ele>430.1</ele>
        <time>2011-08-09T08:39:58Z</time>
      </trkpt>
      <trkpt lat="44.50396" lon="2.27101">
        <ele>430.9</ele>
        <time>2011-08-09T08:40:01Z</time>
      </trkpt>
      <trkpt lat="44.50397" lon="2.27106">
        <ele>431.5</ele>
        <time>2011-08-09T08:40:03Z</time>
      </trkpt>
      <trkpt lat="44.50397" lon="2.2711">
        <ele>432.5</ele>
        <time>2011-08-09T08:40:05Z</time>
      </trkpt>
      <trkpt lat="44.50397" lon="2.27114">
        <ele>433</ele>
        <time>2011-08-09T08:40:07Z</time>
      </trkpt>
      <trkpt lat="44.50397" lon="2.27118">
        <ele>433.3</ele>
        <time>2011-08-09T08:40:09Z</time>
      </trkpt>
      <trkpt lat="44.50397" lon="2.27123">
        <ele>433.2</ele>
        <time>2011-08-09T08:40:11Z</time>
      </trkpt>
      <trkpt lat="44.50397" lon="2.27127">
        <ele>432.9</ele>
        <time>2011-08-09T08:40:13Z</time>
      </trkpt>
      <trkpt lat="44.50396" lon="2.27129">
        <ele>433.6</ele>
        <time>2011-08-09T08:40:14Z</time>
      </trkpt>
      <trkpt lat="44.50395" lon="2.27138">
        <ele>435.3</ele>
        <time>2011-08-09T08:40:18Z</time>
      </trkpt>
      <trkpt lat="44.50394" lon="2.27144">
        <ele>436</ele>
        <time>2011-08-09T08:40:21Z</time>
      </trkpt>
      <trkpt lat="44.50393" lon="2.27147">
        <ele>436.3</ele>
        <time>2011-08-09T08:40:23Z</time>
      </trkpt>
      <trkpt lat="44.50391" lon="2.27153">
        <ele>436.4</ele>
        <time>2011-08-09T08:40:26Z</time>
      </trkpt>
      <trkpt lat="44.50389" lon="2.27157">
        <ele>436.1</ele>
        <time>2011-08-09T08:40:28Z</time>
      </trkpt>
      <trkpt lat="44.50387" lon="2.27162">
        <ele>436.9</ele>
        <time>2011-08-09T08:40:31Z</time>
      </trkpt>
      <trkpt lat="44.50385" lon="2.27167">
        <ele>438.3</ele>
        <time>2011-08-09T08:40:34Z</time>
      </trkpt>
      <trkpt lat="44.50383" lon="2.27171">
        <ele>438.7</ele>
        <time>2011-08-09T08:40:36Z</time>
      </trkpt>
      <trkpt lat="44.50381" lon="2.27174">
        <ele>438.8</ele>
        <time>2011-08-09T08:40:38Z</time>
      </trkpt>
      <trkpt lat="44.50379" lon="2.27178">
        <ele>439.8</ele>
        <time>2011-08-09T08:40:40Z</time>
      </trkpt>
      <trkpt lat="44.50377" lon="2.27181">
        <ele>440.3</ele>
        <time>2011-08-09T08:40:42Z</time>
      </trkpt>
      <trkpt lat="44.50376" lon="2.27185">
        <ele>441</ele>
        <time>2011-08-09T08:40:44Z</time>
      </trkpt>
      <trkpt lat="44.50374" lon="2.27189">
        <ele>440.9</ele>
        <time>2011-08-09T08:40:46Z</time>
      </trkpt>
      <trkpt lat="44.50372" lon="2.27194">
        <ele>440.9</ele>
        <time>2011-08-09T08:40:49Z</time>
      </trkpt>
      <trkpt lat="44.50369" lon="2.27199">
        <ele>441.6</ele>
        <time>2011-08-09T08:40:52Z</time>
      </trkpt>
      <trkpt lat="44.50368" lon="2.27204">
        <ele>441.9</ele>
        <time>2011-08-09T08:40:54Z</time>
      </trkpt>
      <trkpt lat="44.50366" lon="2.27208">
        <ele>442.7</ele>
        <time>2011-08-09T08:40:56Z</time>
      </trkpt>
      <trkpt lat="44.50365" lon="2.27213">
        <ele>443.1</ele>
        <time>2011-08-09T08:40:58Z</time>
      </trkpt>
      <trkpt lat="44.50364" lon="2.27217">
        <ele>443.4</ele>
        <time>2011-08-09T08:41:00Z</time>
      </trkpt>
      <trkpt lat="44.50363" lon="2.27221">
        <ele>443.6</ele>
        <time>2011-08-09T08:41:02Z</time>
      </trkpt>
      <trkpt lat="44.50361" lon="2.27225">
        <ele>443.8</ele>
        <time>2011-08-09T08:41:04Z</time>
      </trkpt>
      <trkpt lat="44.5036" lon="2.27229">
        <ele>443.1</ele>
        <time>2011-08-09T08:41:06Z</time>
      </trkpt>
      <trkpt lat="44.50358" lon="2.27232">
        <ele>442.6</ele>
        <time>2011-08-09T08:41:08Z</time>
      </trkpt>
      <trkpt lat="44.50357" lon="2.27237">
        <ele>442.3</ele>
        <time>2011-08-09T08:41:10Z</time>
      </trkpt>
      <trkpt lat="44.50355" lon="2.27241">
        <ele>442.6</ele>
        <time>2011-08-09T08:41:12Z</time>
      </trkpt>
      <trkpt lat="44.50351" lon="2.27244">
        <ele>442.8</ele>
        <time>2011-08-09T08:41:14Z</time>
      </trkpt>
      <trkpt lat="44.5035" lon="2.27245">
        <ele>442.8</ele>
        <time>2011-08-09T08:41:15Z</time>
      </trkpt>
      <trkpt lat="44.50346" lon="2.2725">
        <ele>443</ele>
        <time>2011-08-09T08:41:18Z</time>
      </trkpt>
      <trkpt lat="44.50343" lon="2.27253">
        <ele>443.3</ele>
        <time>2011-08-09T08:41:20Z</time>
      </trkpt>
      <trkpt lat="44.5034" lon="2.27256">
        <ele>443.9</ele>
        <time>2011-08-09T08:41:22Z</time>
      </trkpt>
      <trkpt lat="44.50336" lon="2.27259">
        <ele>444.1</ele>
        <time>2011-08-09T08:41:24Z</time>
      </trkpt>
      <trkpt lat="44.50333" lon="2.27262">
        <ele>444.2</ele>
        <time>2011-08-09T08:41:26Z</time>
      </trkpt>
      <trkpt lat="44.5033" lon="2.27266">
        <ele>444.6</ele>
        <time>2011-08-09T08:41:28Z</time>
      </trkpt>
      <trkpt lat="44.50328" lon="2.27268">
        <ele>444.8</ele>
        <time>2011-08-09T08:41:30Z</time>
      </trkpt>
      <trkpt lat="44.50325" lon="2.27271">
        <ele>444.5</ele>
        <time>2011-08-09T08:41:32Z</time>
      </trkpt>
      <trkpt lat="44.50322" lon="2.27275">
        <ele>444.4</ele>
        <time>2011-08-09T08:41:34Z</time>
      </trkpt>
      <trkpt lat="44.50319" lon="2.27277">
        <ele>444.5</ele>
        <time>2011-08-09T08:41:35Z</time>
      </trkpt>
      <trkpt lat="44.50316" lon="2.2728">
        <ele>444.5</ele>
        <time>2011-08-09T08:41:36Z</time>
      </trkpt>
      <trkpt lat="44.50314" lon="2.27284">
        <ele>444.4</ele>
        <time>2011-08-09T08:41:37Z</time>
      </trkpt>
      <trkpt lat="44.50312" lon="2.27287">
        <ele>444.3</ele>
        <time>2011-08-09T08:41:38Z</time>
      </trkpt>
      <trkpt lat="44.5031" lon="2.27291">
        <ele>444.3</ele>
        <time>2011-08-09T08:41:39Z</time>
      </trkpt>
      <trkpt lat="44.50307" lon="2.27295">
        <ele>443.9</ele>
        <time>2011-08-09T08:41:40Z</time>
      </trkpt>
      <trkpt lat="44.50305" lon="2.27299">
        <ele>443.7</ele>
        <time>2011-08-09T08:41:41Z</time>
      </trkpt>
      <trkpt lat="44.50302" lon="2.27303">
        <ele>443.5</ele>
        <time>2011-08-09T08:41:42Z</time>
      </trkpt>
      <trkpt lat="44.50301" lon="2.27309">
        <ele>442.8</ele>
        <time>2011-08-09T08:41:43Z</time>
      </trkpt>
      <trkpt lat="44.50301" lon="2.27315">
        <ele>442.3</ele>
        <time>2011-08-09T08:41:44Z</time>
      </trkpt>
      <trkpt lat="44.50303" lon="2.27318">
        <ele>442</ele>
        <time>2011-08-09T08:41:45Z</time>
      </trkpt>
      <trkpt lat="44.50307" lon="2.27318">
        <ele>441.7</ele>
        <time>2011-08-09T08:41:46Z</time>
      </trkpt>
      <trkpt lat="44.50311" lon="2.27318">
        <ele>441.5</ele>
        <time>2011-08-09T08:41:47Z</time>
      </trkpt>
      <trkpt lat="44.50315" lon="2.27319">
        <ele>441.3</ele>
        <time>2011-08-09T08:41:48Z</time>
      </trkpt>
      <trkpt lat="44.50318" lon="2.27321">
        <ele>441.2</ele>
        <time>2011-08-09T08:41:49Z</time>
      </trkpt>
      <trkpt lat="44.50322" lon="2.27324">
        <ele>441.2</ele>
        <time>2011-08-09T08:41:50Z</time>
      </trkpt>
      <trkpt lat="44.50326" lon="2.27328">
        <ele>441.2</ele>
        <time>2011-08-09T08:41:51Z</time>
      </trkpt>
      <trkpt lat="44.5033" lon="2.27332">
        <ele>441.1</ele>
        <time>2011-08-09T08:41:52Z</time>
      </trkpt>
      <trkpt lat="44.50334" lon="2.27336">
        <ele>440.3</ele>
        <time>2011-08-09T08:41:53Z</time>
      </trkpt>
      <trkpt lat="44.50338" lon="2.27341">
        <ele>439.7</ele>
        <time>2011-08-09T08:41:54Z</time>
      </trkpt>
      <trkpt lat="44.50343" lon="2.27346">
        <ele>439.2</ele>
        <time>2011-08-09T08:41:55Z</time>
      </trkpt>
      <trkpt lat="44.50347" lon="2.27351">
        <ele>438.9</ele>
        <time>2011-08-09T08:41:56Z</time>
      </trkpt>
      <trkpt lat="44.5035" lon="2.27357">
        <ele>438.7</ele>
        <time>2011-08-09T08:41:57Z</time>
      </trkpt>
      <trkpt lat="44.50354" lon="2.27362">
        <ele>438.5</ele>
        <time>2011-08-09T08:41:58Z</time>
      </trkpt>
      <trkpt lat="44.50358" lon="2.27368">
        <ele>438.4</ele>
        <time>2011-08-09T08:41:59Z</time>
      </trkpt>
      <trkpt lat="44.50362" lon="2.27373">
        <ele>438.4</ele>
        <time>2011-08-09T08:42:00Z</time>
      </trkpt>
      <trkpt lat="44.50366" lon="2.27378">
        <ele>438.3</ele>
        <time>2011-08-09T08:42:01Z</time>
      </trkpt>
      <trkpt lat="44.50369" lon="2.27383">
        <ele>438.1</ele>
        <time>2011-08-09T08:42:02Z</time>
      </trkpt>
      <trkpt lat="44.50373" lon="2.27388">
        <ele>437.9</ele>
        <time>2011-08-09T08:42:03Z</time>
      </trkpt>
      <trkpt lat="44.50376" lon="2.27393">
        <ele>437.8</ele>
        <time>2011-08-09T08:42:04Z</time>
      </trkpt>
      <trkpt lat="44.50379" lon="2.27398">
        <ele>437.7</ele>
        <time>2011-08-09T08:42:05Z</time>
      </trkpt>
      <trkpt lat="44.50381" lon="2.27403">
        <ele>438.4</ele>
        <time>2011-08-09T08:42:06Z</time>
      </trkpt>
      <trkpt lat="44.50384" lon="2.27409">
        <ele>438.9</ele>
        <time>2011-08-09T08:42:07Z</time>
      </trkpt>
      <trkpt lat="44.50387" lon="2.27413">
        <ele>439.3</ele>
        <time>2011-08-09T08:42:08Z</time>
      </trkpt>
      <trkpt lat="44.5039" lon="2.27417">
        <ele>439.4</ele>
        <time>2011-08-09T08:42:09Z</time>
      </trkpt>
      <trkpt lat="44.50393" lon="2.27422">
        <ele>439.5</ele>
        <time>2011-08-09T08:42:10Z</time>
      </trkpt>
      <trkpt lat="44.50396" lon="2.27427">
        <ele>439.6</ele>
        <time>2011-08-09T08:42:11Z</time>
      </trkpt>
      <trkpt lat="44.50399" lon="2.2743">
        <ele>439.7</ele>
        <time>2011-08-09T08:42:12Z</time>
      </trkpt>
      <trkpt lat="44.50402" lon="2.27433">
        <ele>439.8</ele>
        <time>2011-08-09T08:42:13Z</time>
      </trkpt>
      <trkpt lat="44.50405" lon="2.27434">
        <ele>439.9</ele>
        <time>2011-08-09T08:42:14Z</time>
      </trkpt>
      <trkpt lat="44.50409" lon="2.27436">
        <ele>439.5</ele>
        <time>2011-08-09T08:42:16Z</time>
      </trkpt>
      <trkpt lat="44.50411" lon="2.27436">
        <ele>439.4</ele>
        <time>2011-08-09T08:42:17Z</time>
      </trkpt>
      <trkpt lat="44.50415" lon="2.27437">
        <ele>439.5</ele>
        <time>2011-08-09T08:42:19Z</time>
      </trkpt>
      <trkpt lat="44.50418" lon="2.27437">
        <ele>439.5</ele>
        <time>2011-08-09T08:42:20Z</time>
      </trkpt>
      <trkpt lat="44.5042" lon="2.27438">
        <ele>439.5</ele>
        <time>2011-08-09T08:42:21Z</time>
      </trkpt>
      <trkpt lat="44.50423" lon="2.27439">
        <ele>439.9</ele>
        <time>2011-08-09T08:42:22Z</time>
      </trkpt>
      <trkpt lat="44.50425" lon="2.27439">
        <ele>440.1</ele>
        <time>2011-08-09T08:42:23Z</time>
      </trkpt>
      <trkpt lat="44.50428" lon="2.2744">
        <ele>440.4</ele>
        <time>2011-08-09T08:42:24Z</time>
      </trkpt>
      <trkpt lat="44.50431" lon="2.2744">
        <ele>440.6</ele>
        <time>2011-08-09T08:42:25Z</time>
      </trkpt>
      <trkpt lat="44.50433" lon="2.27441">
        <ele>440.7</ele>
        <time>2011-08-09T08:42:26Z</time>
      </trkpt>
      <trkpt lat="44.50436" lon="2.27441">
        <ele>440.9</ele>
        <time>2011-08-09T08:42:27Z</time>
      </trkpt>
      <trkpt lat="44.50439" lon="2.27442">
        <ele>440.6</ele>
        <time>2011-08-09T08:42:28Z</time>
      </trkpt>
      <trkpt lat="44.50441" lon="2.27442">
        <ele>440.5</ele>
        <time>2011-08-09T08:42:29Z</time>
      </trkpt>
      <trkpt lat="44.50444" lon="2.27442">
        <ele>440.4</ele>
        <time>2011-08-09T08:42:30Z</time>
      </trkpt>
      <trkpt lat="44.50447" lon="2.27442">
        <ele>440.6</ele>
        <time>2011-08-09T08:42:31Z</time>
      </trkpt>
      <trkpt lat="44.5045" lon="2.27442">
        <ele>440.8</ele>
        <time>2011-08-09T08:42:32Z</time>
      </trkpt>
      <trkpt lat="44.50452" lon="2.27442">
        <ele>441</ele>
        <time>2011-08-09T08:42:33Z</time>
      </trkpt>
      <trkpt lat="44.50455" lon="2.27443">
        <ele>441.2</ele>
        <time>2011-08-09T08:42:34Z</time>
      </trkpt>
      <trkpt lat="44.50457" lon="2.27443">
        <ele>441.4</ele>
        <time>2011-08-09T08:42:35Z</time>
      </trkpt>
      <trkpt lat="44.5046" lon="2.27443">
        <ele>441.6</ele>
        <time>2011-08-09T08:42:36Z</time>
      </trkpt>
      <trkpt lat="44.50464" lon="2.27444">
        <ele>441.9</ele>
        <time>2011-08-09T08:42:38Z</time>
      </trkpt>
      <trkpt lat="44.50468" lon="2.27445">
        <ele>442.2</ele>
        <time>2011-08-09T08:42:40Z</time>
      </trkpt>
      <trkpt lat="44.50473" lon="2.27445">
        <ele>443.2</ele>
        <time>2011-08-09T08:42:42Z</time>
      </trkpt>
      <trkpt lat="44.50477" lon="2.27445">
        <ele>444</ele>
        <time>2011-08-09T08:42:44Z</time>
      </trkpt>
      <trkpt lat="44.50481" lon="2.27445">
        <ele>444.5</ele>
        <time>2011-08-09T08:42:46Z</time>
      </trkpt>
      <trkpt lat="44.50485" lon="2.27446">
        <ele>445</ele>
        <time>2011-08-09T08:42:48Z</time>
      </trkpt>
      <trkpt lat="44.50489" lon="2.27446">
        <ele>445.7</ele>
        <time>2011-08-09T08:42:50Z</time>
      </trkpt>
      <trkpt lat="44.50493" lon="2.27447">
        <ele>446.3</ele>
        <time>2011-08-09T08:42:52Z</time>
      </trkpt>
      <trkpt lat="44.50496" lon="2.27448">
        <ele>446.8</ele>
        <time>2011-08-09T08:42:54Z</time>
      </trkpt>
      <trkpt lat="44.505" lon="2.27449">
        <ele>447.2</ele>
        <time>2011-08-09T08:42:56Z</time>
      </trkpt>
      <trkpt lat="44.50504" lon="2.27449">
        <ele>447.8</ele>
        <time>2011-08-09T08:42:58Z</time>
      </trkpt>
      <trkpt lat="44.50508" lon="2.2745">
        <ele>448.1</ele>
        <time>2011-08-09T08:43:00Z</time>
      </trkpt>
      <trkpt lat="44.50512" lon="2.27451">
        <ele>448.1</ele>
        <time>2011-08-09T08:43:02Z</time>
      </trkpt>
      <trkpt lat="44.50516" lon="2.27452">
        <ele>448.7</ele>
        <time>2011-08-09T08:43:04Z</time>
      </trkpt>
      <trkpt lat="44.5052" lon="2.27452">
        <ele>448.7</ele>
        <time>2011-08-09T08:43:06Z</time>
      </trkpt>
      <trkpt lat="44.50524" lon="2.27453">
        <ele>448.4</ele>
        <time>2011-08-09T08:43:08Z</time>
      </trkpt>
      <trkpt lat="44.50528" lon="2.27454">
        <ele>448.6</ele>
        <time>2011-08-09T08:43:10Z</time>
      </trkpt>
      <trkpt lat="44.50533" lon="2.27454">
        <ele>449.1</ele>
        <time>2011-08-09T08:43:12Z</time>
      </trkpt>
      <trkpt lat="44.50537" lon="2.27454">
        <ele>449.6</ele>
        <time>2011-08-09T08:43:14Z</time>
      </trkpt>
      <trkpt lat="44.50539" lon="2.27454">
        <ele>449.8</ele>
        <time>2011-08-09T08:43:15Z</time>
      </trkpt>
      <trkpt lat="44.50541" lon="2.27453">
        <ele>450.2</ele>
        <time>2011-08-09T08:43:16Z</time>
      </trkpt>
      <trkpt lat="44.50546" lon="2.27452">
        <ele>450.8</ele>
        <time>2011-08-09T08:43:18Z</time>
      </trkpt>
      <trkpt lat="44.50548" lon="2.27452">
        <ele>451.1</ele>
        <time>2011-08-09T08:43:19Z</time>
      </trkpt>
      <trkpt lat="44.50554" lon="2.27451">
        <ele>451.6</ele>
        <time>2011-08-09T08:43:22Z</time>
      </trkpt>
      <trkpt lat="44.50558" lon="2.2745">
        <ele>451.6</ele>
        <time>2011-08-09T08:43:24Z</time>
      </trkpt>
      <trkpt lat="44.50563" lon="2.27449">
        <ele>452.1</ele>
        <time>2011-08-09T08:43:26Z</time>
      </trkpt>
      <trkpt lat="44.50567" lon="2.27448">
        <ele>452.3</ele>
        <time>2011-08-09T08:43:28Z</time>
      </trkpt>
      <trkpt lat="44.50571" lon="2.27448">
        <ele>453.2</ele>
        <time>2011-08-09T08:43:30Z</time>
      </trkpt>
      <trkpt lat="44.50575" lon="2.27447">
        <ele>453.7</ele>
        <time>2011-08-09T08:43:32Z</time>
      </trkpt>
      <trkpt lat="44.5058" lon="2.27447">
        <ele>454</ele>
        <time>2011-08-09T08:43:34Z</time>
      </trkpt>
      <trkpt lat="44.50584" lon="2.27446">
        <ele>453.9</ele>
        <time>2011-08-09T08:43:36Z</time>
      </trkpt>
      <trkpt lat="44.50588" lon="2.27446">
        <ele>454.1</ele>
        <time>2011-08-09T08:43:38Z</time>
      </trkpt>
      <trkpt lat="44.50592" lon="2.27445">
        <ele>454.5</ele>
        <time>2011-08-09T08:43:40Z</time>
      </trkpt>
      <trkpt lat="44.50596" lon="2.27444">
        <ele>455.5</ele>
        <time>2011-08-09T08:43:42Z</time>
      </trkpt>
      <trkpt lat="44.506" lon="2.27443">
        <ele>456.2</ele>
        <time>2011-08-09T08:43:44Z</time>
      </trkpt>
      <trkpt lat="44.50604" lon="2.27442">
        <ele>456.6</ele>
        <time>2011-08-09T08:43:46Z</time>
      </trkpt>
      <trkpt lat="44.50608" lon="2.27441">
        <ele>456.8</ele>
        <time>2011-08-09T08:43:48Z</time>
      </trkpt>
      <trkpt lat="44.50612" lon="2.27441">
        <ele>456.8</ele>
        <time>2011-08-09T08:43:50Z</time>
      </trkpt>
      <trkpt lat="44.50615" lon="2.2744">
        <ele>457.4</ele>
        <time>2011-08-09T08:43:52Z</time>
      </trkpt>
      <trkpt lat="44.50619" lon="2.27441">
        <ele>458.5</ele>
        <time>2011-08-09T08:43:55Z</time>
      </trkpt>
      <trkpt lat="44.50623" lon="2.27441">
        <ele>459.7</ele>
        <time>2011-08-09T08:44:06Z</time>
      </trkpt>
      <trkpt lat="44.50627" lon="2.2744">
        <ele>458.8</ele>
        <time>2011-08-09T08:44:15Z</time>
      </trkpt>
      <trkpt lat="44.50631" lon="2.27438">
        <ele>459.2</ele>
        <time>2011-08-09T08:44:18Z</time>
      </trkpt>
      <trkpt lat="44.50634" lon="2.27437">
        <ele>459.5</ele>
        <time>2011-08-09T08:44:21Z</time>
      </trkpt>
      <trkpt lat="44.50635" lon="2.27436">
        <ele>459.5</ele>
        <time>2011-08-09T08:44:22Z</time>
      </trkpt>
      <trkpt lat="44.50642" lon="2.27442">
        <ele>457.8</ele>
        <time>2011-08-09T08:44:47Z</time>
      </trkpt>
      <trkpt lat="44.50643" lon="2.27448">
        <ele>453.7</ele>
        <time>2011-08-09T08:45:06Z</time>
      </trkpt>
      <trkpt lat="44.50641" lon="2.27452">
        <ele>453.3</ele>
        <time>2011-08-09T08:45:14Z</time>
      </trkpt>
      <trkpt lat="44.50638" lon="2.27456">
        <ele>453.8</ele>
        <time>2011-08-09T08:45:16Z</time>
      </trkpt>
      <trkpt lat="44.50636" lon="2.27458">
        <ele>453.6</ele>
        <time>2011-08-09T08:45:17Z</time>
      </trkpt>
      <trkpt lat="44.50635" lon="2.27461">
        <ele>453.4</ele>
        <time>2011-08-09T08:45:18Z</time>
      </trkpt>
      <trkpt lat="44.50632" lon="2.27465">
        <ele>453.2</ele>
        <time>2011-08-09T08:45:20Z</time>
      </trkpt>
      <trkpt lat="44.5063" lon="2.27469">
        <ele>453.1</ele>
        <time>2011-08-09T08:45:22Z</time>
      </trkpt>
      <trkpt lat="44.50629" lon="2.27471">
        <ele>453.1</ele>
        <time>2011-08-09T08:45:23Z</time>
      </trkpt>
      <trkpt lat="44.50628" lon="2.2748">
        <ele>451.1</ele>
        <time>2011-08-09T08:45:39Z</time>
      </trkpt>
      <trkpt lat="44.50628" lon="2.27486">
        <ele>451.5</ele>
        <time>2011-08-09T08:46:06Z</time>
      </trkpt>
      <trkpt lat="44.50626" lon="2.27491">
        <ele>451.5</ele>
        <time>2011-08-09T08:46:09Z</time>
      </trkpt>
      <trkpt lat="44.50624" lon="2.27495">
        <ele>450.9</ele>
        <time>2011-08-09T08:46:11Z</time>
      </trkpt>
      <trkpt lat="44.50622" lon="2.275">
        <ele>450.2</ele>
        <time>2011-08-09T08:46:13Z</time>
      </trkpt>
      <trkpt lat="44.5062" lon="2.27504">
        <ele>449.7</ele>
        <time>2011-08-09T08:46:16Z</time>
      </trkpt>
      <trkpt lat="44.50618" lon="2.2751">
        <ele>449</ele>
        <time>2011-08-09T08:46:22Z</time>
      </trkpt>
      <trkpt lat="44.50619" lon="2.27515">
        <ele>448.6</ele>
        <time>2011-08-09T08:46:26Z</time>
      </trkpt>
      <trkpt lat="44.50619" lon="2.27517">
        <ele>448.8</ele>
        <time>2011-08-09T08:46:27Z</time>
      </trkpt>
      <trkpt lat="44.50617" lon="2.27525">
        <ele>448.6</ele>
        <time>2011-08-09T08:46:32Z</time>
      </trkpt>
      <trkpt lat="44.50616" lon="2.2753">
        <ele>447.9</ele>
        <time>2011-08-09T08:46:34Z</time>
      </trkpt>
      <trkpt lat="44.50616" lon="2.27534">
        <ele>447.6</ele>
        <time>2011-08-09T08:46:35Z</time>
      </trkpt>
      <trkpt lat="44.50615" lon="2.27537">
        <ele>447.3</ele>
        <time>2011-08-09T08:46:36Z</time>
      </trkpt>
      <trkpt lat="44.50614" lon="2.27542">
        <ele>446.6</ele>
        <time>2011-08-09T08:46:38Z</time>
      </trkpt>
      <trkpt lat="44.50617" lon="2.27543">
        <ele>443.9</ele>
        <time>2011-08-09T08:46:42Z</time>
      </trkpt>
      <trkpt lat="44.50621" lon="2.27539">
        <ele>441.5</ele>
        <time>2011-08-09T08:46:46Z</time>
      </trkpt>
      <trkpt lat="44.50623" lon="2.27535">
        <ele>440.6</ele>
        <time>2011-08-09T08:46:49Z</time>
      </trkpt>
      <trkpt lat="44.50626" lon="2.2753">
        <ele>439.5</ele>
        <time>2011-08-09T08:46:51Z</time>
      </trkpt>
      <trkpt lat="44.50629" lon="2.27535">
        <ele>438.7</ele>
        <time>2011-08-09T08:46:55Z</time>
      </trkpt>
      <trkpt lat="44.50629" lon="2.27539">
        <ele>437.4</ele>
        <time>2011-08-09T08:46:57Z</time>
      </trkpt>
      <trkpt lat="44.5063" lon="2.27542">
        <ele>437</ele>
        <time>2011-08-09T08:46:58Z</time>
      </trkpt>
      <trkpt lat="44.5063" lon="2.27546">
        <ele>436.5</ele>
        <time>2011-08-09T08:46:59Z</time>
      </trkpt>
      <trkpt lat="44.5063" lon="2.27551">
        <ele>436.1</ele>
        <time>2011-08-09T08:47:00Z</time>
      </trkpt>
      <trkpt lat="44.50631" lon="2.27554">
        <ele>435.8</ele>
        <time>2011-08-09T08:47:01Z</time>
      </trkpt>
      <trkpt lat="44.50631" lon="2.27558">
        <ele>435.6</ele>
        <time>2011-08-09T08:47:02Z</time>
      </trkpt>
      <trkpt lat="44.5063" lon="2.27562">
        <ele>434.4</ele>
        <time>2011-08-09T08:47:03Z</time>
      </trkpt>
      <trkpt lat="44.5063" lon="2.27565">
        <ele>433.4</ele>
        <time>2011-08-09T08:47:04Z</time>
      </trkpt>
      <trkpt lat="44.5063" lon="2.27569">
        <ele>432.7</ele>
        <time>2011-08-09T08:47:05Z</time>
      </trkpt>
      <trkpt lat="44.5063" lon="2.27572">
        <ele>431.8</ele>
        <time>2011-08-09T08:47:06Z</time>
      </trkpt>
      <trkpt lat="44.5063" lon="2.27575">
        <ele>431</ele>
        <time>2011-08-09T08:47:07Z</time>
      </trkpt>
      <trkpt lat="44.5063" lon="2.27579">
        <ele>430.5</ele>
        <time>2011-08-09T08:47:08Z</time>
      </trkpt>
      <trkpt lat="44.50629" lon="2.27583">
        <ele>429.6</ele>
        <time>2011-08-09T08:47:09Z</time>
      </trkpt>
      <trkpt lat="44.50627" lon="2.27586">
        <ele>428.9</ele>
        <time>2011-08-09T08:47:10Z</time>
      </trkpt>
      <trkpt lat="44.50627" lon="2.27591">
        <ele>427.2</ele>
        <time>2011-08-09T08:47:12Z</time>
      </trkpt>
      <trkpt lat="44.50629" lon="2.27594">
        <ele>426.2</ele>
        <time>2011-08-09T08:47:13Z</time>
      </trkpt>
      <trkpt lat="44.50631" lon="2.27596">
        <ele>425.5</ele>
        <time>2011-08-09T08:47:14Z</time>
      </trkpt>
      <trkpt lat="44.50633" lon="2.27598">
        <ele>424.3</ele>
        <time>2011-08-09T08:47:15Z</time>
      </trkpt>
      <trkpt lat="44.50635" lon="2.276">
        <ele>423.4</ele>
        <time>2011-08-09T08:47:16Z</time>
      </trkpt>
      <trkpt lat="44.50635" lon="2.27603">
        <ele>422.7</ele>
        <time>2011-08-09T08:47:17Z</time>
      </trkpt>
      <trkpt lat="44.50636" lon="2.27607">
        <ele>422</ele>
        <time>2011-08-09T08:47:18Z</time>
      </trkpt>
      <trkpt lat="44.50635" lon="2.2761">
        <ele>421.5</ele>
        <time>2011-08-09T08:47:19Z</time>
      </trkpt>
      <trkpt lat="44.50635" lon="2.27615">
        <ele>421</ele>
        <time>2011-08-09T08:47:20Z</time>
      </trkpt>
      <trkpt lat="44.50635" lon="2.27618">
        <ele>420.7</ele>
        <time>2011-08-09T08:47:21Z</time>
      </trkpt>
      <trkpt lat="44.50638" lon="2.27622">
        <ele>418.6</ele>
        <time>2011-08-09T08:47:23Z</time>
      </trkpt>
      <trkpt lat="44.50642" lon="2.27621">
        <ele>416.2</ele>
        <time>2011-08-09T08:47:26Z</time>
      </trkpt>
      <trkpt lat="44.50645" lon="2.27621">
        <ele>415.6</ele>
        <time>2011-08-09T08:47:27Z</time>
      </trkpt>
      <trkpt lat="44.50647" lon="2.2762">
        <ele>414.5</ele>
        <time>2011-08-09T08:47:28Z</time>
      </trkpt>
      <trkpt lat="44.5065" lon="2.27619">
        <ele>413.7</ele>
        <time>2011-08-09T08:47:29Z</time>
      </trkpt>
      <trkpt lat="44.50653" lon="2.27615">
        <ele>411.8</ele>
        <time>2011-08-09T08:47:31Z</time>
      </trkpt>
      <trkpt lat="44.50657" lon="2.27617">
        <ele>409</ele>
        <time>2011-08-09T08:47:34Z</time>
      </trkpt>
      <trkpt lat="44.50658" lon="2.27619">
        <ele>408.1</ele>
        <time>2011-08-09T08:47:35Z</time>
      </trkpt>
      <trkpt lat="44.50659" lon="2.27622">
        <ele>407.5</ele>
        <time>2011-08-09T08:47:36Z</time>
      </trkpt>
      <trkpt lat="44.5066" lon="2.27626">
        <ele>407</ele>
        <time>2011-08-09T08:47:37Z</time>
      </trkpt>
      <trkpt lat="44.5066" lon="2.27629">
        <ele>406.3</ele>
        <time>2011-08-09T08:47:38Z</time>
      </trkpt>
      <trkpt lat="44.50659" lon="2.27632">
        <ele>405.7</ele>
        <time>2011-08-09T08:47:39Z</time>
      </trkpt>
      <trkpt lat="44.50658" lon="2.27636">
        <ele>405.3</ele>
        <time>2011-08-09T08:47:40Z</time>
      </trkpt>
      <trkpt lat="44.50657" lon="2.2764">
        <ele>405</ele>
        <time>2011-08-09T08:47:41Z</time>
      </trkpt>
      <trkpt lat="44.50656" lon="2.27643">
        <ele>404.7</ele>
        <time>2011-08-09T08:47:42Z</time>
      </trkpt>
      <trkpt lat="44.50655" lon="2.27646">
        <ele>404.5</ele>
        <time>2011-08-09T08:47:43Z</time>
      </trkpt>
      <trkpt lat="44.50655" lon="2.2765">
        <ele>404</ele>
        <time>2011-08-09T08:47:44Z</time>
      </trkpt>
      <trkpt lat="44.50653" lon="2.27652">
        <ele>403.7</ele>
        <time>2011-08-09T08:47:45Z</time>
      </trkpt>
      <trkpt lat="44.50651" lon="2.27654">
        <ele>403.4</ele>
        <time>2011-08-09T08:47:46Z</time>
      </trkpt>
      <trkpt lat="44.50648" lon="2.27656">
        <ele>402.9</ele>
        <time>2011-08-09T08:47:48Z</time>
      </trkpt>
      <trkpt lat="44.50644" lon="2.27656">
        <ele>402.9</ele>
        <time>2011-08-09T08:47:50Z</time>
      </trkpt>
      <trkpt lat="44.50642" lon="2.2766">
        <ele>403</ele>
        <time>2011-08-09T08:47:52Z</time>
      </trkpt>
      <trkpt lat="44.50641" lon="2.27666">
        <ele>403</ele>
        <time>2011-08-09T08:47:54Z</time>
      </trkpt>
      <trkpt lat="44.5064" lon="2.27669">
        <ele>402.8</ele>
        <time>2011-08-09T08:47:56Z</time>
      </trkpt>
      <trkpt lat="44.50638" lon="2.27674">
        <ele>402.4</ele>
        <time>2011-08-09T08:47:58Z</time>
      </trkpt>
      <trkpt lat="44.50637" lon="2.27677">
        <ele>402.2</ele>
        <time>2011-08-09T08:47:59Z</time>
      </trkpt>
      <trkpt lat="44.50633" lon="2.2768">
        <ele>400.8</ele>
        <time>2011-08-09T08:48:01Z</time>
      </trkpt>
      <trkpt lat="44.5063" lon="2.27681">
        <ele>400.2</ele>
        <time>2011-08-09T08:48:03Z</time>
      </trkpt>
      <trkpt lat="44.50628" lon="2.27686">
        <ele>400</ele>
        <time>2011-08-09T08:48:05Z</time>
      </trkpt>
      <trkpt lat="44.50629" lon="2.2769">
        <ele>399.2</ele>
        <time>2011-08-09T08:48:06Z</time>
      </trkpt>
      <trkpt lat="44.50628" lon="2.27696">
        <ele>398</ele>
        <time>2011-08-09T08:48:08Z</time>
      </trkpt>
      <trkpt lat="44.50624" lon="2.27698">
        <ele>396.7</ele>
        <time>2011-08-09T08:48:10Z</time>
      </trkpt>
      <trkpt lat="44.50621" lon="2.277">
        <ele>395.9</ele>
        <time>2011-08-09T08:48:11Z</time>
      </trkpt>
      <trkpt lat="44.50619" lon="2.27701">
        <ele>395.4</ele>
        <time>2011-08-09T08:48:12Z</time>
      </trkpt>
      <trkpt lat="44.50616" lon="2.27702">
        <ele>394.4</ele>
        <time>2011-08-09T08:48:13Z</time>
      </trkpt>
      <trkpt lat="44.50614" lon="2.27707">
        <ele>393.2</ele>
        <time>2011-08-09T08:48:15Z</time>
      </trkpt>
      <trkpt lat="44.50615" lon="2.2771">
        <ele>392.3</ele>
        <time>2011-08-09T08:48:16Z</time>
      </trkpt>
      <trkpt lat="44.50616" lon="2.27713">
        <ele>391.7</ele>
        <time>2011-08-09T08:48:17Z</time>
      </trkpt>
      <trkpt lat="44.50616" lon="2.27717">
        <ele>391.2</ele>
        <time>2011-08-09T08:48:18Z</time>
      </trkpt>
      <trkpt lat="44.50617" lon="2.27721">
        <ele>390.1</ele>
        <time>2011-08-09T08:48:19Z</time>
      </trkpt>
      <trkpt lat="44.50617" lon="2.27725">
        <ele>389.3</ele>
        <time>2011-08-09T08:48:20Z</time>
      </trkpt>
      <trkpt lat="44.50617" lon="2.27728">
        <ele>388.7</ele>
        <time>2011-08-09T08:48:21Z</time>
      </trkpt>
      <trkpt lat="44.50618" lon="2.27731">
        <ele>387.5</ele>
        <time>2011-08-09T08:48:22Z</time>
      </trkpt>
      <trkpt lat="44.50619" lon="2.27735">
        <ele>386.6</ele>
        <time>2011-08-09T08:48:23Z</time>
      </trkpt>
      <trkpt lat="44.50621" lon="2.27739">
        <ele>385.4</ele>
        <time>2011-08-09T08:48:25Z</time>
      </trkpt>
      <trkpt lat="44.50625" lon="2.27742">
        <ele>383.6</ele>
        <time>2011-08-09T08:48:27Z</time>
      </trkpt>
      <trkpt lat="44.50628" lon="2.27743">
        <ele>383</ele>
        <time>2011-08-09T08:48:28Z</time>
      </trkpt>
      <trkpt lat="44.50631" lon="2.27744">
        <ele>382</ele>
        <time>2011-08-09T08:48:29Z</time>
      </trkpt>
      <trkpt lat="44.50633" lon="2.27743">
        <ele>381.3</ele>
        <time>2011-08-09T08:48:30Z</time>
      </trkpt>
      <trkpt lat="44.50637" lon="2.27743">
        <ele>380.7</ele>
        <time>2011-08-09T08:48:31Z</time>
      </trkpt>
      <trkpt lat="44.50639" lon="2.27744">
        <ele>380.2</ele>
        <time>2011-08-09T08:48:32Z</time>
      </trkpt>
      <trkpt lat="44.50642" lon="2.27746">
        <ele>379.8</ele>
        <time>2011-08-09T08:48:33Z</time>
      </trkpt>
      <trkpt lat="44.50645" lon="2.27748">
        <ele>378.4</ele>
        <time>2011-08-09T08:48:35Z</time>
      </trkpt>
      <trkpt lat="44.50648" lon="2.27753">
        <ele>376.1</ele>
        <time>2011-08-09T08:48:43Z</time>
      </trkpt>
      <trkpt lat="44.50651" lon="2.27757">
        <ele>374.6</ele>
        <time>2011-08-09T08:48:53Z</time>
      </trkpt>
      <trkpt lat="44.50655" lon="2.27757">
        <ele>374.6</ele>
        <time>2011-08-09T08:49:05Z</time>
      </trkpt>
      <trkpt lat="44.50659" lon="2.2776">
        <ele>374.9</ele>
        <time>2011-08-09T08:49:15Z</time>
      </trkpt>
      <trkpt lat="44.50663" lon="2.2776">
        <ele>374</ele>
        <time>2011-08-09T08:49:23Z</time>
      </trkpt>
      <trkpt lat="44.50666" lon="2.27761">
        <ele>372.8</ele>
        <time>2011-08-09T08:49:29Z</time>
      </trkpt>
      <trkpt lat="44.50667" lon="2.27761">
        <ele>372.5</ele>
        <time>2011-08-09T08:49:30Z</time>
      </trkpt>
      <trkpt lat="44.50674" lon="2.27763">
        <ele>371.7</ele>
        <time>2011-08-09T08:49:36Z</time>
      </trkpt>
      <trkpt lat="44.50677" lon="2.27763">
        <ele>371.3</ele>
        <time>2011-08-09T08:49:38Z</time>
      </trkpt>
      <trkpt lat="44.5068" lon="2.27762">
        <ele>371.2</ele>
        <time>2011-08-09T08:49:40Z</time>
      </trkpt>
      <trkpt lat="44.50683" lon="2.27759">
        <ele>370.7</ele>
        <time>2011-08-09T08:49:42Z</time>
      </trkpt>
      <trkpt lat="44.50686" lon="2.27756">
        <ele>370</ele>
        <time>2011-08-09T08:49:44Z</time>
      </trkpt>
      <trkpt lat="44.50689" lon="2.27753">
        <ele>370.9</ele>
        <time>2011-08-09T08:49:46Z</time>
      </trkpt>
      <trkpt lat="44.50692" lon="2.27749">
        <ele>371</ele>
        <time>2011-08-09T08:49:48Z</time>
      </trkpt>
      <trkpt lat="44.50695" lon="2.27746">
        <ele>370.8</ele>
        <time>2011-08-09T08:49:50Z</time>
      </trkpt>
      <trkpt lat="44.50698" lon="2.27743">
        <ele>370.7</ele>
        <time>2011-08-09T08:49:52Z</time>
      </trkpt>
      <trkpt lat="44.50701" lon="2.2774">
        <ele>370.6</ele>
        <time>2011-08-09T08:49:54Z</time>
      </trkpt>
      <trkpt lat="44.50703" lon="2.27737">
        <ele>370.3</ele>
        <time>2011-08-09T08:49:56Z</time>
      </trkpt>
      <trkpt lat="44.50707" lon="2.27734">
        <ele>369.8</ele>
        <time>2011-08-09T08:49:59Z</time>
      </trkpt>
      <trkpt lat="44.50706" lon="2.2774">
        <ele>368.6</ele>
        <time>2011-08-09T08:50:08Z</time>
      </trkpt>
      <trkpt lat="44.50704" lon="2.27742">
        <ele>368.2</ele>
        <time>2011-08-09T08:50:09Z</time>
      </trkpt>
      <trkpt lat="44.50702" lon="2.27745">
        <ele>367.9</ele>
        <time>2011-08-09T08:50:10Z</time>
      </trkpt>
      <trkpt lat="44.50699" lon="2.27749">
        <ele>367.7</ele>
        <time>2011-08-09T08:50:11Z</time>
      </trkpt>
      <trkpt lat="44.50697" lon="2.27753">
        <ele>367.5</ele>
        <time>2011-08-09T08:50:12Z</time>
      </trkpt>
      <trkpt lat="44.50696" lon="2.27757">
        <ele>367.4</ele>
        <time>2011-08-09T08:50:13Z</time>
      </trkpt>
      <trkpt lat="44.50699" lon="2.2776">
        <ele>364.2</ele>
        <time>2011-08-09T08:50:24Z</time>
      </trkpt>
      <trkpt lat="44.50703" lon="2.27763">
        <ele>364.5</ele>
        <time>2011-08-09T08:50:26Z</time>
      </trkpt>
      <trkpt lat="44.50707" lon="2.27766">
        <ele>364.6</ele>
        <time>2011-08-09T08:50:28Z</time>
      </trkpt>
      <trkpt lat="44.50711" lon="2.27766">
        <ele>364.6</ele>
        <time>2011-08-09T08:50:30Z</time>
      </trkpt>
      <trkpt lat="44.50713" lon="2.27766">
        <ele>364.6</ele>
        <time>2011-08-09T08:50:31Z</time>
      </trkpt>
      <trkpt lat="44.50715" lon="2.27766">
        <ele>364.5</ele>
        <time>2011-08-09T08:50:32Z</time>
      </trkpt>
      <trkpt lat="44.50718" lon="2.27766">
        <ele>364.6</ele>
        <time>2011-08-09T08:50:33Z</time>
      </trkpt>
      <trkpt lat="44.5072" lon="2.27767">
        <ele>364.6</ele>
        <time>2011-08-09T08:50:34Z</time>
      </trkpt>
      <trkpt lat="44.50723" lon="2.27767">
        <ele>364.7</ele>
        <time>2011-08-09T08:50:35Z</time>
      </trkpt>
      <trkpt lat="44.50727" lon="2.27768">
        <ele>364.2</ele>
        <time>2011-08-09T08:50:37Z</time>
      </trkpt>
      <trkpt lat="44.50731" lon="2.27769">
        <ele>364</ele>
        <time>2011-08-09T08:50:39Z</time>
      </trkpt>
      <trkpt lat="44.50733" lon="2.2777">
        <ele>363.9</ele>
        <time>2011-08-09T08:50:40Z</time>
      </trkpt>
      <trkpt lat="44.50735" lon="2.27772">
        <ele>363.8</ele>
        <time>2011-08-09T08:50:41Z</time>
      </trkpt>
      <trkpt lat="44.50737" lon="2.27774">
        <ele>363.7</ele>
        <time>2011-08-09T08:50:42Z</time>
      </trkpt>
      <trkpt lat="44.50739" lon="2.27776">
        <ele>363.9</ele>
        <time>2011-08-09T08:50:43Z</time>
      </trkpt>
      <trkpt lat="44.50741" lon="2.27779">
        <ele>364</ele>
        <time>2011-08-09T08:50:44Z</time>
      </trkpt>
      <trkpt lat="44.50743" lon="2.27782">
        <ele>364.1</ele>
        <time>2011-08-09T08:50:45Z</time>
      </trkpt>
      <trkpt lat="44.50745" lon="2.27784">
        <ele>364.4</ele>
        <time>2011-08-09T08:50:46Z</time>
      </trkpt>
      <trkpt lat="44.50747" lon="2.27787">
        <ele>364.6</ele>
        <time>2011-08-09T08:50:47Z</time>
      </trkpt>
      <trkpt lat="44.50749" lon="2.2779">
        <ele>364.7</ele>
        <time>2011-08-09T08:50:48Z</time>
      </trkpt>
      <trkpt lat="44.50751" lon="2.27792">
        <ele>365.2</ele>
        <time>2011-08-09T08:50:49Z</time>
      </trkpt>
      <trkpt lat="44.50753" lon="2.27794">
        <ele>365.5</ele>
        <time>2011-08-09T08:50:50Z</time>
      </trkpt>
      <trkpt lat="44.50755" lon="2.27796">
        <ele>365.7</ele>
        <time>2011-08-09T08:50:51Z</time>
      </trkpt>
      <trkpt lat="44.50757" lon="2.27798">
        <ele>365.9</ele>
        <time>2011-08-09T08:50:52Z</time>
      </trkpt>
      <trkpt lat="44.50759" lon="2.278">
        <ele>366</ele>
        <time>2011-08-09T08:50:53Z</time>
      </trkpt>
      <trkpt lat="44.50762" lon="2.27802">
        <ele>366.1</ele>
        <time>2011-08-09T08:50:54Z</time>
      </trkpt>
      <trkpt lat="44.50764" lon="2.27805">
        <ele>366.2</ele>
        <time>2011-08-09T08:50:55Z</time>
      </trkpt>
      <trkpt lat="44.50767" lon="2.27807">
        <ele>365.8</ele>
        <time>2011-08-09T08:50:56Z</time>
      </trkpt>
      <trkpt lat="44.50771" lon="2.2781">
        <ele>365.5</ele>
        <time>2011-08-09T08:50:57Z</time>
      </trkpt>
      <trkpt lat="44.50775" lon="2.27812">
        <ele>365.3</ele>
        <time>2011-08-09T08:50:58Z</time>
      </trkpt>
      <trkpt lat="44.5078" lon="2.27814">
        <ele>364.9</ele>
        <time>2011-08-09T08:50:59Z</time>
      </trkpt>
      <trkpt lat="44.50784" lon="2.27816">
        <ele>364.7</ele>
        <time>2011-08-09T08:51:00Z</time>
      </trkpt>
      <trkpt lat="44.50787" lon="2.27818">
        <ele>364.5</ele>
        <time>2011-08-09T08:51:01Z</time>
      </trkpt>
      <trkpt lat="44.5079" lon="2.27819">
        <ele>363.6</ele>
        <time>2011-08-09T08:51:02Z</time>
      </trkpt>
      <trkpt lat="44.50793" lon="2.27821">
        <ele>362.5</ele>
        <time>2011-08-09T08:51:04Z</time>
      </trkpt>
      <trkpt lat="44.50796" lon="2.27824">
        <ele>360.7</ele>
        <time>2011-08-09T08:51:07Z</time>
      </trkpt>
      <trkpt lat="44.50798" lon="2.27829">
        <ele>360.1</ele>
        <time>2011-08-09T08:51:10Z</time>
      </trkpt>
      <trkpt lat="44.50799" lon="2.27834">
        <ele>359.6</ele>
        <time>2011-08-09T08:51:12Z</time>
      </trkpt>
      <trkpt lat="44.50801" lon="2.27838">
        <ele>359.1</ele>
        <time>2011-08-09T08:51:14Z</time>
      </trkpt>
      <trkpt lat="44.50806" lon="2.27837">
        <ele>358.6</ele>
        <time>2011-08-09T08:51:16Z</time>
      </trkpt>
      <trkpt lat="44.50807" lon="2.27834">
        <ele>358.5</ele>
        <time>2011-08-09T08:51:17Z</time>
      </trkpt>
      <trkpt lat="44.5081" lon="2.27829">
        <ele>357.9</ele>
        <time>2011-08-09T08:51:19Z</time>
      </trkpt>
      <trkpt lat="44.50811" lon="2.27826">
        <ele>357.7</ele>
        <time>2011-08-09T08:51:20Z</time>
      </trkpt>
      <trkpt lat="44.50813" lon="2.27824">
        <ele>357.5</ele>
        <time>2011-08-09T08:51:21Z</time>
      </trkpt>
      <trkpt lat="44.50815" lon="2.27822">
        <ele>357.4</ele>
        <time>2011-08-09T08:51:22Z</time>
      </trkpt>
      <trkpt lat="44.50817" lon="2.2782">
        <ele>357.3</ele>
        <time>2011-08-09T08:51:23Z</time>
      </trkpt>
      <trkpt lat="44.50818" lon="2.27817">
        <ele>357.1</ele>
        <time>2011-08-09T08:51:24Z</time>
      </trkpt>
      <trkpt lat="44.5082" lon="2.27815">
        <ele>356.9</ele>
        <time>2011-08-09T08:51:25Z</time>
      </trkpt>
      <trkpt lat="44.50821" lon="2.27812">
        <ele>356.8</ele>
        <time>2011-08-09T08:51:26Z</time>
      </trkpt>
      <trkpt lat="44.50823" lon="2.27809">
        <ele>356.8</ele>
        <time>2011-08-09T08:51:27Z</time>
      </trkpt>
      <trkpt lat="44.50825" lon="2.27805">
        <ele>356.7</ele>
        <time>2011-08-09T08:51:28Z</time>
      </trkpt>
      <trkpt lat="44.50826" lon="2.27802">
        <ele>356.7</ele>
        <time>2011-08-09T08:51:29Z</time>
      </trkpt>
      <trkpt lat="44.50828" lon="2.27798">
        <ele>356.7</ele>
        <time>2011-08-09T08:51:30Z</time>
      </trkpt>
      <trkpt lat="44.5083" lon="2.27795">
        <ele>357.1</ele>
        <time>2011-08-09T08:51:31Z</time>
      </trkpt>
      <trkpt lat="44.50832" lon="2.27791">
        <ele>357.3</ele>
        <time>2011-08-09T08:51:32Z</time>
      </trkpt>
      <trkpt lat="44.50834" lon="2.27788">
        <ele>357.5</ele>
        <time>2011-08-09T08:51:33Z</time>
      </trkpt>
      <trkpt lat="44.50836" lon="2.27785">
        <ele>357.4</ele>
        <time>2011-08-09T08:51:34Z</time>
      </trkpt>
      <trkpt lat="44.50837" lon="2.27781">
        <ele>357.3</ele>
        <time>2011-08-09T08:51:35Z</time>
      </trkpt>
      <trkpt lat="44.50839" lon="2.27778">
        <ele>357.2</ele>
        <time>2011-08-09T08:51:36Z</time>
      </trkpt>
      <trkpt lat="44.5084" lon="2.27775">
        <ele>357.3</ele>
        <time>2011-08-09T08:51:37Z</time>
      </trkpt>
      <trkpt lat="44.50842" lon="2.27772">
        <ele>357.4</ele>
        <time>2011-08-09T08:51:38Z</time>
      </trkpt>
      <trkpt lat="44.50844" lon="2.27769">
        <ele>357.4</ele>
        <time>2011-08-09T08:51:39Z</time>
      </trkpt>
      <trkpt lat="44.50846" lon="2.27766">
        <ele>358</ele>
        <time>2011-08-09T08:51:40Z</time>
      </trkpt>
      <trkpt lat="44.50847" lon="2.27763">
        <ele>358.5</ele>
        <time>2011-08-09T08:51:41Z</time>
      </trkpt>
      <trkpt lat="44.50849" lon="2.2776">
        <ele>358.8</ele>
        <time>2011-08-09T08:51:42Z</time>
      </trkpt>
      <trkpt lat="44.5085" lon="2.27757">
        <ele>358.9</ele>
        <time>2011-08-09T08:51:43Z</time>
      </trkpt>
      <trkpt lat="44.50851" lon="2.27754">
        <ele>358.9</ele>
        <time>2011-08-09T08:51:44Z</time>
      </trkpt>
      <trkpt lat="44.50852" lon="2.27751">
        <ele>359</ele>
        <time>2011-08-09T08:51:45Z</time>
      </trkpt>
      <trkpt lat="44.50854" lon="2.27748">
        <ele>359</ele>
        <time>2011-08-09T08:51:46Z</time>
      </trkpt>
      <trkpt lat="44.50855" lon="2.27745">
        <ele>359.3</ele>
        <time>2011-08-09T08:51:47Z</time>
      </trkpt>
      <trkpt lat="44.50857" lon="2.27742">
        <ele>359.5</ele>
        <time>2011-08-09T08:51:48Z</time>
      </trkpt>
      <trkpt lat="44.50858" lon="2.27739">
        <ele>359.6</ele>
        <time>2011-08-09T08:51:49Z</time>
      </trkpt>
      <trkpt lat="44.5086" lon="2.27736">
        <ele>360</ele>
        <time>2011-08-09T08:51:50Z</time>
      </trkpt>
      <trkpt lat="44.50861" lon="2.27733">
        <ele>360.2</ele>
        <time>2011-08-09T08:51:51Z</time>
      </trkpt>
      <trkpt lat="44.50863" lon="2.2773">
        <ele>360.5</ele>
        <time>2011-08-09T08:51:52Z</time>
      </trkpt>
      <trkpt lat="44.50864" lon="2.27727">
        <ele>360.5</ele>
        <time>2011-08-09T08:51:53Z</time>
      </trkpt>
      <trkpt lat="44.50865" lon="2.27724">
        <ele>360.6</ele>
        <time>2011-08-09T08:51:54Z</time>
      </trkpt>
      <trkpt lat="44.50866" lon="2.27721">
        <ele>360.6</ele>
        <time>2011-08-09T08:51:55Z</time>
      </trkpt>
      <trkpt lat="44.50867" lon="2.27718">
        <ele>360.9</ele>
        <time>2011-08-09T08:51:56Z</time>
      </trkpt>
      <trkpt lat="44.50869" lon="2.27715">
        <ele>361.1</ele>
        <time>2011-08-09T08:51:57Z</time>
      </trkpt>
      <trkpt lat="44.5087" lon="2.27712">
        <ele>361.3</ele>
        <time>2011-08-09T08:51:58Z</time>
      </trkpt>
      <trkpt lat="44.50872" lon="2.27709">
        <ele>361</ele>
        <time>2011-08-09T08:51:59Z</time>
      </trkpt>
      <trkpt lat="44.50873" lon="2.27707">
        <ele>360.7</ele>
        <time>2011-08-09T08:52:00Z</time>
      </trkpt>
      <trkpt lat="44.50875" lon="2.27704">
        <ele>360.6</ele>
        <time>2011-08-09T08:52:01Z</time>
      </trkpt>
      <trkpt lat="44.50876" lon="2.27702">
        <ele>360.5</ele>
        <time>2011-08-09T08:52:02Z</time>
      </trkpt>
      <trkpt lat="44.50878" lon="2.27699">
        <ele>361</ele>
        <time>2011-08-09T08:52:03Z</time>
      </trkpt>
      <trkpt lat="44.5088" lon="2.27697">
        <ele>361.5</ele>
        <time>2011-08-09T08:52:04Z</time>
      </trkpt>
      <trkpt lat="44.50882" lon="2.27694">
        <ele>361.8</ele>
        <time>2011-08-09T08:52:05Z</time>
      </trkpt>
      <trkpt lat="44.50884" lon="2.27692">
        <ele>362</ele>
        <time>2011-08-09T08:52:06Z</time>
      </trkpt>
      <trkpt lat="44.50886" lon="2.27689">
        <ele>362.2</ele>
        <time>2011-08-09T08:52:07Z</time>
      </trkpt>
      <trkpt lat="44.50888" lon="2.27687">
        <ele>362.4</ele>
        <time>2011-08-09T08:52:08Z</time>
      </trkpt>
      <trkpt lat="44.5089" lon="2.27685">
        <ele>362.6</ele>
        <time>2011-08-09T08:52:09Z</time>
      </trkpt>
      <trkpt lat="44.50893" lon="2.27682">
        <ele>362.8</ele>
        <time>2011-08-09T08:52:10Z</time>
      </trkpt>
      <trkpt lat="44.50895" lon="2.2768">
        <ele>362.9</ele>
        <time>2011-08-09T08:52:11Z</time>
      </trkpt>
      <trkpt lat="44.50897" lon="2.27678">
        <ele>362.9</ele>
        <time>2011-08-09T08:52:12Z</time>
      </trkpt>
      <trkpt lat="44.509" lon="2.27676">
        <ele>362.9</ele>
        <time>2011-08-09T08:52:13Z</time>
      </trkpt>
      <trkpt lat="44.50902" lon="2.27674">
        <ele>362.9</ele>
        <time>2011-08-09T08:52:14Z</time>
      </trkpt>
      <trkpt lat="44.50904" lon="2.27672">
        <ele>363.1</ele>
        <time>2011-08-09T08:52:15Z</time>
      </trkpt>
      <trkpt lat="44.50907" lon="2.2767">
        <ele>363.3</ele>
        <time>2011-08-09T08:52:16Z</time>
      </trkpt>
      <trkpt lat="44.50909" lon="2.27668">
        <ele>363.4</ele>
        <time>2011-08-09T08:52:17Z</time>
      </trkpt>
      <trkpt lat="44.50911" lon="2.27666">
        <ele>363.5</ele>
        <time>2011-08-09T08:52:18Z</time>
      </trkpt>
      <trkpt lat="44.50913" lon="2.27663">
        <ele>363.8</ele>
        <time>2011-08-09T08:52:19Z</time>
      </trkpt>
      <trkpt lat="44.50916" lon="2.27661">
        <ele>364.1</ele>
        <time>2011-08-09T08:52:20Z</time>
      </trkpt>
      <trkpt lat="44.50918" lon="2.27658">
        <ele>364.3</ele>
        <time>2011-08-09T08:52:21Z</time>
      </trkpt>
      <trkpt lat="44.5092" lon="2.27656">
        <ele>364.9</ele>
        <time>2011-08-09T08:52:22Z</time>
      </trkpt>
      <trkpt lat="44.50921" lon="2.27654">
        <ele>365.3</ele>
        <time>2011-08-09T08:52:23Z</time>
      </trkpt>
      <trkpt lat="44.50923" lon="2.27652">
        <ele>365.7</ele>
        <time>2011-08-09T08:52:24Z</time>
      </trkpt>
      <trkpt lat="44.50925" lon="2.2765">
        <ele>365.7</ele>
        <time>2011-08-09T08:52:25Z</time>
      </trkpt>
      <trkpt lat="44.50927" lon="2.27648">
        <ele>365.7</ele>
        <time>2011-08-09T08:52:26Z</time>
      </trkpt>
      <trkpt lat="44.50928" lon="2.27645">
        <ele>365.8</ele>
        <time>2011-08-09T08:52:27Z</time>
      </trkpt>
      <trkpt lat="44.5093" lon="2.27643">
        <ele>366.4</ele>
        <time>2011-08-09T08:52:28Z</time>
      </trkpt>
      <trkpt lat="44.50931" lon="2.2764">
        <ele>366.8</ele>
        <time>2011-08-09T08:52:29Z</time>
      </trkpt>
      <trkpt lat="44.50933" lon="2.27638">
        <ele>367.2</ele>
        <time>2011-08-09T08:52:30Z</time>
      </trkpt>
      <trkpt lat="44.50935" lon="2.27635">
        <ele>367.3</ele>
        <time>2011-08-09T08:52:31Z</time>
      </trkpt>
      <trkpt lat="44.50937" lon="2.27631">
        <ele>367.5</ele>
        <time>2011-08-09T08:52:33Z</time>
      </trkpt>
      <trkpt lat="44.50939" lon="2.27628">
        <ele>367.6</ele>
        <time>2011-08-09T08:52:34Z</time>
      </trkpt>
      <trkpt lat="44.5094" lon="2.27625">
        <ele>368.2</ele>
        <time>2011-08-09T08:52:35Z</time>
      </trkpt>
      <trkpt lat="44.50941" lon="2.27622">
        <ele>368.6</ele>
        <time>2011-08-09T08:52:36Z</time>
      </trkpt>
      <trkpt lat="44.50943" lon="2.27617">
        <ele>368.8</ele>
        <time>2011-08-09T08:52:38Z</time>
      </trkpt>
      <trkpt lat="44.50946" lon="2.27613">
        <ele>368.6</ele>
        <time>2011-08-09T08:52:40Z</time>
      </trkpt>
      <trkpt lat="44.50948" lon="2.27607">
        <ele>371.1</ele>
        <time>2011-08-09T08:52:42Z</time>
      </trkpt>
      <trkpt lat="44.50949" lon="2.27602">
        <ele>372.3</ele>
        <time>2011-08-09T08:52:44Z</time>
      </trkpt>
      <trkpt lat="44.5095" lon="2.27597">
        <ele>372.7</ele>
        <time>2011-08-09T08:52:46Z</time>
      </trkpt>
      <trkpt lat="44.50951" lon="2.27591">
        <ele>372.1</ele>
        <time>2011-08-09T08:52:48Z</time>
      </trkpt>
      <trkpt lat="44.50951" lon="2.27586">
        <ele>371.9</ele>
        <time>2011-08-09T08:52:50Z</time>
      </trkpt>
      <trkpt lat="44.50952" lon="2.2758">
        <ele>372</ele>
        <time>2011-08-09T08:52:52Z</time>
      </trkpt>
      <trkpt lat="44.50952" lon="2.27575">
        <ele>372</ele>
        <time>2011-08-09T08:52:54Z</time>
      </trkpt>
      <trkpt lat="44.50952" lon="2.27572">
        <ele>372</ele>
        <time>2011-08-09T08:52:55Z</time>
      </trkpt>
      <trkpt lat="44.50951" lon="2.27568">
        <ele>372</ele>
        <time>2011-08-09T08:52:56Z</time>
      </trkpt>
      <trkpt lat="44.50951" lon="2.27563">
        <ele>373.1</ele>
        <time>2011-08-09T08:52:58Z</time>
      </trkpt>
      <trkpt lat="44.50951" lon="2.27558">
        <ele>374</ele>
        <time>2011-08-09T08:53:00Z</time>
      </trkpt>
      <trkpt lat="44.50951" lon="2.27553">
        <ele>374.9</ele>
        <time>2011-08-09T08:53:02Z</time>
      </trkpt>
      <trkpt lat="44.5095" lon="2.27549">
        <ele>376.3</ele>
        <time>2011-08-09T08:53:04Z</time>
      </trkpt>
      <trkpt lat="44.50949" lon="2.27544">
        <ele>376.5</ele>
        <time>2011-08-09T08:53:07Z</time>
      </trkpt>
      <trkpt lat="44.50948" lon="2.27537">
        <ele>376.5</ele>
        <time>2011-08-09T08:53:10Z</time>
      </trkpt>
      <trkpt lat="44.50947" lon="2.27533">
        <ele>376.7</ele>
        <time>2011-08-09T08:53:12Z</time>
      </trkpt>
      <trkpt lat="44.50946" lon="2.27528">
        <ele>376.6</ele>
        <time>2011-08-09T08:53:14Z</time>
      </trkpt>
      <trkpt lat="44.50945" lon="2.27523">
        <ele>376.9</ele>
        <time>2011-08-09T08:53:16Z</time>
      </trkpt>
      <trkpt lat="44.50944" lon="2.27518">
        <ele>377.4</ele>
        <time>2011-08-09T08:53:18Z</time>
      </trkpt>
      <trkpt lat="44.50943" lon="2.27513">
        <ele>378.3</ele>
        <time>2011-08-09T08:53:20Z</time>
      </trkpt>
      <trkpt lat="44.50942" lon="2.2751">
        <ele>378.6</ele>
        <time>2011-08-09T08:53:21Z</time>
      </trkpt>
      <trkpt lat="44.50942" lon="2.27504">
        <ele>378.2</ele>
        <time>2011-08-09T08:53:23Z</time>
      </trkpt>
      <trkpt lat="44.50942" lon="2.27498">
        <ele>378</ele>
        <time>2011-08-09T08:53:25Z</time>
      </trkpt>
      <trkpt lat="44.50942" lon="2.27493">
        <ele>378.4</ele>
        <time>2011-08-09T08:53:27Z</time>
      </trkpt>
      <trkpt lat="44.50943" lon="2.27488">
        <ele>379.1</ele>
        <time>2011-08-09T08:53:29Z</time>
      </trkpt>
      <trkpt lat="44.50944" lon="2.27483">
        <ele>379.8</ele>
        <time>2011-08-09T08:53:31Z</time>
      </trkpt>
      <trkpt lat="44.50946" lon="2.27479">
        <ele>380.7</ele>
        <time>2011-08-09T08:53:33Z</time>
      </trkpt>
      <trkpt lat="44.50948" lon="2.27474">
        <ele>381.3</ele>
        <time>2011-08-09T08:53:35Z</time>
      </trkpt>
      <trkpt lat="44.50949" lon="2.27471">
        <ele>381.6</ele>
        <time>2011-08-09T08:53:36Z</time>
      </trkpt>
      <trkpt lat="44.50951" lon="2.27464">
        <ele>382</ele>
        <time>2011-08-09T08:53:39Z</time>
      </trkpt>
      <trkpt lat="44.50952" lon="2.2746">
        <ele>382.1</ele>
        <time>2011-08-09T08:53:41Z</time>
      </trkpt>
      <trkpt lat="44.50953" lon="2.27454">
        <ele>381.8</ele>
        <time>2011-08-09T08:53:43Z</time>
      </trkpt>
      <trkpt lat="44.50954" lon="2.27448">
        <ele>382.3</ele>
        <time>2011-08-09T08:53:45Z</time>
      </trkpt>
      <trkpt lat="44.50954" lon="2.27445">
        <ele>382.8</ele>
        <time>2011-08-09T08:53:46Z</time>
      </trkpt>
      <trkpt lat="44.50956" lon="2.2744">
        <ele>383.2</ele>
        <time>2011-08-09T08:53:48Z</time>
      </trkpt>
      <trkpt lat="44.50959" lon="2.27435">
        <ele>383.2</ele>
        <time>2011-08-09T08:53:50Z</time>
      </trkpt>
      <trkpt lat="44.50961" lon="2.27429">
        <ele>383.8</ele>
        <time>2011-08-09T08:53:52Z</time>
      </trkpt>
      <trkpt lat="44.50962" lon="2.27424">
        <ele>384.1</ele>
        <time>2011-08-09T08:53:54Z</time>
      </trkpt>
      <trkpt lat="44.50963" lon="2.27418">
        <ele>384.2</ele>
        <time>2011-08-09T08:53:56Z</time>
      </trkpt>
      <trkpt lat="44.50964" lon="2.27415">
        <ele>384.9</ele>
        <time>2011-08-09T08:53:57Z</time>
      </trkpt>
      <trkpt lat="44.50966" lon="2.27412">
        <ele>385.5</ele>
        <time>2011-08-09T08:53:58Z</time>
      </trkpt>
      <trkpt lat="44.50969" lon="2.27408">
        <ele>386.2</ele>
        <time>2011-08-09T08:54:00Z</time>
      </trkpt>
      <trkpt lat="44.50972" lon="2.27405">
        <ele>386.7</ele>
        <time>2011-08-09T08:54:02Z</time>
      </trkpt>
      <trkpt lat="44.50975" lon="2.27404">
        <ele>387.4</ele>
        <time>2011-08-09T08:54:04Z</time>
      </trkpt>
      <trkpt lat="44.50979" lon="2.27403">
        <ele>388.1</ele>
        <time>2011-08-09T08:54:06Z</time>
      </trkpt>
      <trkpt lat="44.50983" lon="2.27403">
        <ele>388.5</ele>
        <time>2011-08-09T08:54:08Z</time>
      </trkpt>
      <trkpt lat="44.50986" lon="2.27403">
        <ele>388.6</ele>
        <time>2011-08-09T08:54:10Z</time>
      </trkpt>
      <trkpt lat="44.50989" lon="2.27403">
        <ele>388.6</ele>
        <time>2011-08-09T08:54:12Z</time>
      </trkpt>
      <trkpt lat="44.50992" lon="2.27403">
        <ele>388.5</ele>
        <time>2011-08-09T08:54:13Z</time>
      </trkpt>
      <trkpt lat="44.50995" lon="2.27403">
        <ele>388.4</ele>
        <time>2011-08-09T08:54:14Z</time>
      </trkpt>
      <trkpt lat="44.50999" lon="2.27402">
        <ele>388.3</ele>
        <time>2011-08-09T08:54:16Z</time>
      </trkpt>
      <trkpt lat="44.51003" lon="2.27403">
        <ele>388.1</ele>
        <time>2011-08-09T08:54:18Z</time>
      </trkpt>
      <trkpt lat="44.51007" lon="2.27404">
        <ele>388.3</ele>
        <time>2011-08-09T08:54:20Z</time>
      </trkpt>
      <trkpt lat="44.51011" lon="2.27405">
        <ele>388.6</ele>
        <time>2011-08-09T08:54:22Z</time>
      </trkpt>
      <trkpt lat="44.51015" lon="2.27406">
        <ele>389.2</ele>
        <time>2011-08-09T08:54:24Z</time>
      </trkpt>
      <trkpt lat="44.51019" lon="2.27407">
        <ele>389.9</ele>
        <time>2011-08-09T08:54:26Z</time>
      </trkpt>
      <trkpt lat="44.51022" lon="2.27408">
        <ele>390.3</ele>
        <time>2011-08-09T08:54:27Z</time>
      </trkpt>
      <trkpt lat="44.51024" lon="2.27408">
        <ele>390.6</ele>
        <time>2011-08-09T08:54:28Z</time>
      </trkpt>
      <trkpt lat="44.51028" lon="2.27408">
        <ele>390.7</ele>
        <time>2011-08-09T08:54:30Z</time>
      </trkpt>
      <trkpt lat="44.51031" lon="2.27407">
        <ele>390.7</ele>
        <time>2011-08-09T08:54:31Z</time>
      </trkpt>
      <trkpt lat="44.51033" lon="2.27407">
        <ele>390.7</ele>
        <time>2011-08-09T08:54:32Z</time>
      </trkpt>
      <trkpt lat="44.51037" lon="2.27406">
        <ele>391</ele>
        <time>2011-08-09T08:54:34Z</time>
      </trkpt>
      <trkpt lat="44.51041" lon="2.27405">
        <ele>391.5</ele>
        <time>2011-08-09T08:54:36Z</time>
      </trkpt>
      <trkpt lat="44.51043" lon="2.27405">
        <ele>391.8</ele>
        <time>2011-08-09T08:54:37Z</time>
      </trkpt>
      <trkpt lat="44.5105" lon="2.27404">
        <ele>391.8</ele>
        <time>2011-08-09T08:54:40Z</time>
      </trkpt>
      <trkpt lat="44.51053" lon="2.27404">
        <ele>391.8</ele>
        <time>2011-08-09T08:54:42Z</time>
      </trkpt>
      <trkpt lat="44.51057" lon="2.27405">
        <ele>391.9</ele>
        <time>2011-08-09T08:54:44Z</time>
      </trkpt>
      <trkpt lat="44.51061" lon="2.27405">
        <ele>392.6</ele>
        <time>2011-08-09T08:54:46Z</time>
      </trkpt>
      <trkpt lat="44.51064" lon="2.27407">
        <ele>393</ele>
        <time>2011-08-09T08:54:48Z</time>
      </trkpt>
      <trkpt lat="44.51068" lon="2.27408">
        <ele>393.1</ele>
        <time>2011-08-09T08:54:50Z</time>
      </trkpt>
      <trkpt lat="44.51073" lon="2.2741">
        <ele>393.2</ele>
        <time>2011-08-09T08:54:52Z</time>
      </trkpt>
      <trkpt lat="44.51076" lon="2.27412">
        <ele>393.4</ele>
        <time>2011-08-09T08:54:54Z</time>
      </trkpt>
      <trkpt lat="44.5108" lon="2.27414">
        <ele>393.9</ele>
        <time>2011-08-09T08:54:56Z</time>
      </trkpt>
      <trkpt lat="44.51083" lon="2.27417">
        <ele>394.7</ele>
        <time>2011-08-09T08:54:58Z</time>
      </trkpt>
      <trkpt lat="44.51086" lon="2.2742">
        <ele>395.4</ele>
        <time>2011-08-09T08:55:00Z</time>
      </trkpt>
      <trkpt lat="44.51089" lon="2.27423">
        <ele>395.9</ele>
        <time>2011-08-09T08:55:02Z</time>
      </trkpt>
      <trkpt lat="44.51093" lon="2.27426">
        <ele>396.2</ele>
        <time>2011-08-09T08:55:04Z</time>
      </trkpt>
      <trkpt lat="44.51096" lon="2.27429">
        <ele>396</ele>
        <time>2011-08-09T08:55:06Z</time>
      </trkpt>
      <trkpt lat="44.511" lon="2.27432">
        <ele>397</ele>
        <time>2011-08-09T08:55:15Z</time>
      </trkpt>
      <trkpt lat="44.51105" lon="2.27432">
        <ele>396.8</ele>
        <time>2011-08-09T08:55:37Z</time>
      </trkpt>
      <trkpt lat="44.51105" lon="2.27432">
        <ele>396.7</ele>
        <time>2011-08-09T08:55:38Z</time>
      </trkpt>
      <trkpt lat="44.5111" lon="2.27436">
        <ele>397.1</ele>
        <time>2011-08-09T08:58:11Z</time>
      </trkpt>
      <trkpt lat="44.51112" lon="2.27437">
        <ele>396.9</ele>
        <time>2011-08-09T08:58:12Z</time>
      </trkpt>
      <trkpt lat="44.51116" lon="2.27441">
        <ele>396.6</ele>
        <time>2011-08-09T08:58:14Z</time>
      </trkpt>
      <trkpt lat="44.51119" lon="2.27443">
        <ele>396.5</ele>
        <time>2011-08-09T08:58:15Z</time>
      </trkpt>
      <trkpt lat="44.51121" lon="2.27445">
        <ele>396.3</ele>
        <time>2011-08-09T08:58:16Z</time>
      </trkpt>
      <trkpt lat="44.51125" lon="2.27448">
        <ele>396.2</ele>
        <time>2011-08-09T08:58:17Z</time>
      </trkpt>
      <trkpt lat="44.51128" lon="2.27451">
        <ele>396.1</ele>
        <time>2011-08-09T08:58:18Z</time>
      </trkpt>
      <trkpt lat="44.51131" lon="2.27453">
        <ele>395.6</ele>
        <time>2011-08-09T08:58:19Z</time>
      </trkpt>
      <trkpt lat="44.51134" lon="2.27455">
        <ele>395.2</ele>
        <time>2011-08-09T08:58:20Z</time>
      </trkpt>
      <trkpt lat="44.51136" lon="2.27457">
        <ele>395</ele>
        <time>2011-08-09T08:58:21Z</time>
      </trkpt>
      <trkpt lat="44.5114" lon="2.27459">
        <ele>394.6</ele>
        <time>2011-08-09T08:58:22Z</time>
      </trkpt>
      <trkpt lat="44.51143" lon="2.27461">
        <ele>394.4</ele>
        <time>2011-08-09T08:58:23Z</time>
      </trkpt>
      <trkpt lat="44.51146" lon="2.27461">
        <ele>394.2</ele>
        <time>2011-08-09T08:58:24Z</time>
      </trkpt>
      <trkpt lat="44.5115" lon="2.27459">
        <ele>394</ele>
        <time>2011-08-09T08:58:25Z</time>
      </trkpt>
      <trkpt lat="44.51153" lon="2.27456">
        <ele>393.6</ele>
        <time>2011-08-09T08:58:26Z</time>
      </trkpt>
      <trkpt lat="44.51157" lon="2.27453">
        <ele>393.3</ele>
        <time>2011-08-09T08:58:27Z</time>
      </trkpt>
      <trkpt lat="44.5116" lon="2.27449">
        <ele>393</ele>
        <time>2011-08-09T08:58:28Z</time>
      </trkpt>
      <trkpt lat="44.51164" lon="2.27444">
        <ele>392.3</ele>
        <time>2011-08-09T08:58:29Z</time>
      </trkpt>
      <trkpt lat="44.51167" lon="2.27439">
        <ele>391.8</ele>
        <time>2011-08-09T08:58:30Z</time>
      </trkpt>
      <trkpt lat="44.51171" lon="2.27434">
        <ele>391.4</ele>
        <time>2011-08-09T08:58:31Z</time>
      </trkpt>
      <trkpt lat="44.51173" lon="2.27429">
        <ele>390.9</ele>
        <time>2011-08-09T08:58:32Z</time>
      </trkpt>
      <trkpt lat="44.51177" lon="2.27424">
        <ele>390.6</ele>
        <time>2011-08-09T08:58:33Z</time>
      </trkpt>
      <trkpt lat="44.5118" lon="2.27422">
        <ele>390.4</ele>
        <time>2011-08-09T08:58:34Z</time>
      </trkpt>
      <trkpt lat="44.51184" lon="2.2742">
        <ele>390.5</ele>
        <time>2011-08-09T08:58:35Z</time>
      </trkpt>
      <trkpt lat="44.51188" lon="2.27418">
        <ele>390.6</ele>
        <time>2011-08-09T08:58:36Z</time>
      </trkpt>
      <trkpt lat="44.51191" lon="2.27416">
        <ele>390.7</ele>
        <time>2011-08-09T08:58:37Z</time>
      </trkpt>
      <trkpt lat="44.51195" lon="2.27414">
        <ele>390.9</ele>
        <time>2011-08-09T08:58:38Z</time>
      </trkpt>
      <trkpt lat="44.51199" lon="2.27412">
        <ele>391</ele>
        <time>2011-08-09T08:58:39Z</time>
      </trkpt>
      <trkpt lat="44.51202" lon="2.27411">
        <ele>391</ele>
        <time>2011-08-09T08:58:40Z</time>
      </trkpt>
      <trkpt lat="44.51206" lon="2.27411">
        <ele>391.1</ele>
        <time>2011-08-09T08:58:41Z</time>
      </trkpt>
      <trkpt lat="44.5121" lon="2.2741">
        <ele>391.2</ele>
        <time>2011-08-09T08:58:42Z</time>
      </trkpt>
      <trkpt lat="44.51214" lon="2.2741">
        <ele>391.3</ele>
        <time>2011-08-09T08:58:43Z</time>
      </trkpt>
      <trkpt lat="44.51218" lon="2.2741">
        <ele>391.3</ele>
        <time>2011-08-09T08:58:44Z</time>
      </trkpt>
      <trkpt lat="44.51221" lon="2.2741">
        <ele>391.1</ele>
        <time>2011-08-09T08:58:45Z</time>
      </trkpt>
      <trkpt lat="44.51224" lon="2.27409">
        <ele>390.9</ele>
        <time>2011-08-09T08:58:46Z</time>
      </trkpt>
      <trkpt lat="44.51228" lon="2.2741">
        <ele>390.7</ele>
        <time>2011-08-09T08:58:47Z</time>
      </trkpt>
      <trkpt lat="44.51231" lon="2.2741">
        <ele>390.8</ele>
        <time>2011-08-09T08:58:48Z</time>
      </trkpt>
      <trkpt lat="44.51235" lon="2.2741">
        <ele>390.8</ele>
        <time>2011-08-09T08:58:49Z</time>
      </trkpt>
      <trkpt lat="44.51238" lon="2.2741">
        <ele>390.8</ele>
        <time>2011-08-09T08:58:50Z</time>
      </trkpt>
      <trkpt lat="44.51243" lon="2.2741">
        <ele>390.5</ele>
        <time>2011-08-09T08:58:51Z</time>
      </trkpt>
      <trkpt lat="44.51247" lon="2.2741">
        <ele>390.2</ele>
        <time>2011-08-09T08:58:52Z</time>
      </trkpt>
      <trkpt lat="44.51252" lon="2.27409">
        <ele>390</ele>
        <time>2011-08-09T08:58:53Z</time>
      </trkpt>
      <trkpt lat="44.51257" lon="2.27407">
        <ele>389.5</ele>
        <time>2011-08-09T08:58:54Z</time>
      </trkpt>
      <trkpt lat="44.51262" lon="2.27405">
        <ele>389.1</ele>
        <time>2011-08-09T08:58:55Z</time>
      </trkpt>
      <trkpt lat="44.51266" lon="2.27403">
        <ele>388.9</ele>
        <time>2011-08-09T08:58:56Z</time>
      </trkpt>
      <trkpt lat="44.5127" lon="2.27403">
        <ele>388.6</ele>
        <time>2011-08-09T08:58:57Z</time>
      </trkpt>
      <trkpt lat="44.51275" lon="2.27403">
        <ele>387.9</ele>
        <time>2011-08-09T08:58:58Z</time>
      </trkpt>
      <trkpt lat="44.51281" lon="2.27402">
        <ele>387.3</ele>
        <time>2011-08-09T08:58:59Z</time>
      </trkpt>
      <trkpt lat="44.51287" lon="2.27402">
        <ele>386.9</ele>
        <time>2011-08-09T08:59:00Z</time>
      </trkpt>
      <trkpt lat="44.51292" lon="2.27403">
        <ele>385.4</ele>
        <time>2011-08-09T08:59:01Z</time>
      </trkpt>
      <trkpt lat="44.51296" lon="2.27403">
        <ele>384.4</ele>
        <time>2011-08-09T08:59:02Z</time>
      </trkpt>
      <trkpt lat="44.51301" lon="2.27403">
        <ele>383.6</ele>
        <time>2011-08-09T08:59:03Z</time>
      </trkpt>
      <trkpt lat="44.51304" lon="2.27402">
        <ele>382.2</ele>
        <time>2011-08-09T08:59:04Z</time>
      </trkpt>
      <trkpt lat="44.51307" lon="2.27401">
        <ele>381.1</ele>
        <time>2011-08-09T08:59:05Z</time>
      </trkpt>
      <trkpt lat="44.5131" lon="2.274">
        <ele>380.4</ele>
        <time>2011-08-09T08:59:06Z</time>
      </trkpt>
      <trkpt lat="44.51312" lon="2.27397">
        <ele>379.3</ele>
        <time>2011-08-09T08:59:07Z</time>
      </trkpt>
      <trkpt lat="44.51314" lon="2.27395">
        <ele>378.6</ele>
        <time>2011-08-09T08:59:08Z</time>
      </trkpt>
      <trkpt lat="44.51318" lon="2.27392">
        <ele>378</ele>
        <time>2011-08-09T08:59:09Z</time>
      </trkpt>
      <trkpt lat="44.51321" lon="2.27389">
        <ele>377.2</ele>
        <time>2011-08-09T08:59:10Z</time>
      </trkpt>
      <trkpt lat="44.51325" lon="2.27387">
        <ele>376.7</ele>
        <time>2011-08-09T08:59:11Z</time>
      </trkpt>
      <trkpt lat="44.51329" lon="2.27387">
        <ele>376.2</ele>
        <time>2011-08-09T08:59:12Z</time>
      </trkpt>
      <trkpt lat="44.51333" lon="2.27389">
        <ele>375.9</ele>
        <time>2011-08-09T08:59:13Z</time>
      </trkpt>
      <trkpt lat="44.51335" lon="2.2739">
        <ele>375</ele>
        <time>2011-08-09T08:59:14Z</time>
      </trkpt>
      <trkpt lat="44.51338" lon="2.27389">
        <ele>374.3</ele>
        <time>2011-08-09T08:59:15Z</time>
      </trkpt>
      <trkpt lat="44.51341" lon="2.27386">
        <ele>373.8</ele>
        <time>2011-08-09T08:59:16Z</time>
      </trkpt>
      <trkpt lat="44.51343" lon="2.27382">
        <ele>373</ele>
        <time>2011-08-09T08:59:17Z</time>
      </trkpt>
      <trkpt lat="44.51345" lon="2.27377">
        <ele>372.4</ele>
        <time>2011-08-09T08:59:18Z</time>
      </trkpt>
      <trkpt lat="44.51346" lon="2.27372">
        <ele>371.9</ele>
        <time>2011-08-09T08:59:19Z</time>
      </trkpt>
      <trkpt lat="44.51346" lon="2.27366">
        <ele>371.1</ele>
        <time>2011-08-09T08:59:20Z</time>
      </trkpt>
      <trkpt lat="44.51345" lon="2.27359">
        <ele>370.5</ele>
        <time>2011-08-09T08:59:21Z</time>
      </trkpt>
      <trkpt lat="44.51344" lon="2.27351">
        <ele>370.1</ele>
        <time>2011-08-09T08:59:22Z</time>
      </trkpt>
      <trkpt lat="44.51342" lon="2.27345">
        <ele>369.1</ele>
        <time>2011-08-09T08:59:23Z</time>
      </trkpt>
      <trkpt lat="44.51341" lon="2.27339">
        <ele>368.3</ele>
        <time>2011-08-09T08:59:24Z</time>
      </trkpt>
      <trkpt lat="44.5134" lon="2.27334">
        <ele>367.7</ele>
        <time>2011-08-09T08:59:25Z</time>
      </trkpt>
      <trkpt lat="44.51339" lon="2.27328">
        <ele>366.8</ele>
        <time>2011-08-09T08:59:26Z</time>
      </trkpt>
      <trkpt lat="44.51338" lon="2.27322">
        <ele>366.2</ele>
        <time>2011-08-09T08:59:27Z</time>
      </trkpt>
      <trkpt lat="44.51337" lon="2.27316">
        <ele>365.7</ele>
        <time>2011-08-09T08:59:28Z</time>
      </trkpt>
      <trkpt lat="44.51335" lon="2.2731">
        <ele>365.2</ele>
        <time>2011-08-09T08:59:29Z</time>
      </trkpt>
      <trkpt lat="44.51332" lon="2.27304">
        <ele>364.9</ele>
        <time>2011-08-09T08:59:30Z</time>
      </trkpt>
      <trkpt lat="44.5133" lon="2.27299">
        <ele>364.6</ele>
        <time>2011-08-09T08:59:31Z</time>
      </trkpt>
      <trkpt lat="44.51328" lon="2.27295">
        <ele>364.5</ele>
        <time>2011-08-09T08:59:32Z</time>
      </trkpt>
      <trkpt lat="44.51327" lon="2.2729">
        <ele>362.5</ele>
        <time>2011-08-09T08:59:35Z</time>
      </trkpt>
      <trkpt lat="44.51327" lon="2.27285">
        <ele>362.1</ele>
        <time>2011-08-09T08:59:39Z</time>
      </trkpt>
      <trkpt lat="44.51328" lon="2.2728">
        <ele>361.6</ele>
        <time>2011-08-09T08:59:43Z</time>
      </trkpt>
      <trkpt lat="44.51326" lon="2.27275">
        <ele>361.5</ele>
        <time>2011-08-09T08:59:45Z</time>
      </trkpt>
      <trkpt lat="44.51325" lon="2.27272">
        <ele>361.5</ele>
        <time>2011-08-09T08:59:46Z</time>
      </trkpt>
      <trkpt lat="44.51324" lon="2.27269">
        <ele>361.5</ele>
        <time>2011-08-09T08:59:47Z</time>
      </trkpt>
      <trkpt lat="44.51323" lon="2.27265">
        <ele>361.5</ele>
        <time>2011-08-09T08:59:48Z</time>
      </trkpt>
      <trkpt lat="44.51321" lon="2.2726">
        <ele>361.6</ele>
        <time>2011-08-09T08:59:50Z</time>
      </trkpt>
      <trkpt lat="44.51319" lon="2.27255">
        <ele>361.7</ele>
        <time>2011-08-09T08:59:53Z</time>
      </trkpt>
      <trkpt lat="44.51317" lon="2.27252">
        <ele>362</ele>
        <time>2011-08-09T08:59:55Z</time>
      </trkpt>
      <trkpt lat="44.51315" lon="2.27246">
        <ele>362.6</ele>
        <time>2011-08-09T08:59:58Z</time>
      </trkpt>
      <trkpt lat="44.51314" lon="2.2724">
        <ele>363.1</ele>
        <time>2011-08-09T09:00:01Z</time>
      </trkpt>
      <trkpt lat="44.51315" lon="2.27236">
        <ele>363.4</ele>
        <time>2011-08-09T09:00:03Z</time>
      </trkpt>
      <trkpt lat="44.51316" lon="2.2723">
        <ele>363.5</ele>
        <time>2011-08-09T09:00:05Z</time>
      </trkpt>
      <trkpt lat="44.51318" lon="2.27226">
        <ele>363.7</ele>
        <time>2011-08-09T09:00:07Z</time>
      </trkpt>
      <trkpt lat="44.5132" lon="2.27222">
        <ele>364.4</ele>
        <time>2011-08-09T09:00:09Z</time>
      </trkpt>
      <trkpt lat="44.51323" lon="2.27219">
        <ele>365.1</ele>
        <time>2011-08-09T09:00:11Z</time>
      </trkpt>
      <trkpt lat="44.51326" lon="2.27215">
        <ele>365.8</ele>
        <time>2011-08-09T09:00:19Z</time>
      </trkpt>
      <trkpt lat="44.51327" lon="2.27214">
        <ele>365.6</ele>
        <time>2011-08-09T09:00:20Z</time>
      </trkpt>
      <trkpt lat="44.51332" lon="2.27206">
        <ele>366.8</ele>
        <time>2011-08-09T09:00:24Z</time>
      </trkpt>
      <trkpt lat="44.51334" lon="2.27204">
        <ele>367.2</ele>
        <time>2011-08-09T09:00:25Z</time>
      </trkpt>
      <trkpt lat="44.51336" lon="2.27202">
        <ele>367.5</ele>
        <time>2011-08-09T09:00:26Z</time>
      </trkpt>
      <trkpt lat="44.51338" lon="2.27201">
        <ele>367.4</ele>
        <time>2011-08-09T09:00:27Z</time>
      </trkpt>
      <trkpt lat="44.5134" lon="2.27199">
        <ele>367.3</ele>
        <time>2011-08-09T09:00:28Z</time>
      </trkpt>
      <trkpt lat="44.51342" lon="2.27198">
        <ele>367.2</ele>
        <time>2011-08-09T09:00:29Z</time>
      </trkpt>
      <trkpt lat="44.51345" lon="2.27197">
        <ele>367.9</ele>
        <time>2011-08-09T09:00:30Z</time>
      </trkpt>
      <trkpt lat="44.51348" lon="2.27194">
        <ele>368.7</ele>
        <time>2011-08-09T09:00:32Z</time>
      </trkpt>
      <trkpt lat="44.51352" lon="2.27191">
        <ele>368.8</ele>
        <time>2011-08-09T09:00:34Z</time>
      </trkpt>
      <trkpt lat="44.51356" lon="2.27189">
        <ele>368.8</ele>
        <time>2011-08-09T09:00:36Z</time>
      </trkpt>
      <trkpt lat="44.5136" lon="2.27186">
        <ele>369.7</ele>
        <time>2011-08-09T09:00:38Z</time>
      </trkpt>
      <trkpt lat="44.51364" lon="2.27184">
        <ele>370.4</ele>
        <time>2011-08-09T09:00:40Z</time>
      </trkpt>
      <trkpt lat="44.51366" lon="2.27183">
        <ele>370.7</ele>
        <time>2011-08-09T09:00:41Z</time>
      </trkpt>
      <trkpt lat="44.51368" lon="2.27182">
        <ele>371</ele>
        <time>2011-08-09T09:00:42Z</time>
      </trkpt>
      <trkpt lat="44.51371" lon="2.27181">
        <ele>370.9</ele>
        <time>2011-08-09T09:00:43Z</time>
      </trkpt>
      <trkpt lat="44.51373" lon="2.2718">
        <ele>370.8</ele>
        <time>2011-08-09T09:00:44Z</time>
      </trkpt>
      <trkpt lat="44.51375" lon="2.2718">
        <ele>370.7</ele>
        <time>2011-08-09T09:00:45Z</time>
      </trkpt>
      <trkpt lat="44.51378" lon="2.27179">
        <ele>370.9</ele>
        <time>2011-08-09T09:00:46Z</time>
      </trkpt>
      <trkpt lat="44.5138" lon="2.27178">
        <ele>371.1</ele>
        <time>2011-08-09T09:00:47Z</time>
      </trkpt>
      <trkpt lat="44.51382" lon="2.27177">
        <ele>371.2</ele>
        <time>2011-08-09T09:00:48Z</time>
      </trkpt>
      <trkpt lat="44.51385" lon="2.27176">
        <ele>371.7</ele>
        <time>2011-08-09T09:00:49Z</time>
      </trkpt>
      <trkpt lat="44.51387" lon="2.27175">
        <ele>372.1</ele>
        <time>2011-08-09T09:00:50Z</time>
      </trkpt>
      <trkpt lat="44.51389" lon="2.27175">
        <ele>372.4</ele>
        <time>2011-08-09T09:00:51Z</time>
      </trkpt>
      <trkpt lat="44.51391" lon="2.27174">
        <ele>372.5</ele>
        <time>2011-08-09T09:00:52Z</time>
      </trkpt>
      <trkpt lat="44.51394" lon="2.27173">
        <ele>372.6</ele>
        <time>2011-08-09T09:00:53Z</time>
      </trkpt>
      <trkpt lat="44.51396" lon="2.27173">
        <ele>372.7</ele>
        <time>2011-08-09T09:00:54Z</time>
      </trkpt>
      <trkpt lat="44.51398" lon="2.27172">
        <ele>372.7</ele>
        <time>2011-08-09T09:00:55Z</time>
      </trkpt>
      <trkpt lat="44.51403" lon="2.27171">
        <ele>373.5</ele>
        <time>2011-08-09T09:00:57Z</time>
      </trkpt>
      <trkpt lat="44.51405" lon="2.2717">
        <ele>373.7</ele>
        <time>2011-08-09T09:00:58Z</time>
      </trkpt>
      <trkpt lat="44.51407" lon="2.27169">
        <ele>373.9</ele>
        <time>2011-08-09T09:00:59Z</time>
      </trkpt>
      <trkpt lat="44.51409" lon="2.27168">
        <ele>374.1</ele>
        <time>2011-08-09T09:01:00Z</time>
      </trkpt>
      <trkpt lat="44.51412" lon="2.27167">
        <ele>374.2</ele>
        <time>2011-08-09T09:01:01Z</time>
      </trkpt>
      <trkpt lat="44.51414" lon="2.27165">
        <ele>374.2</ele>
        <time>2011-08-09T09:01:02Z</time>
      </trkpt>
      <trkpt lat="44.51416" lon="2.27163">
        <ele>374.3</ele>
        <time>2011-08-09T09:01:03Z</time>
      </trkpt>
      <trkpt lat="44.51418" lon="2.27162">
        <ele>374.3</ele>
        <time>2011-08-09T09:01:04Z</time>
      </trkpt>
      <trkpt lat="44.5142" lon="2.2716">
        <ele>373.9</ele>
        <time>2011-08-09T09:01:05Z</time>
      </trkpt>
      <trkpt lat="44.51422" lon="2.27158">
        <ele>373.7</ele>
        <time>2011-08-09T09:01:06Z</time>
      </trkpt>
      <trkpt lat="44.51424" lon="2.27155">
        <ele>373.5</ele>
        <time>2011-08-09T09:01:07Z</time>
      </trkpt>
      <trkpt lat="44.51425" lon="2.27153">
        <ele>373.6</ele>
        <time>2011-08-09T09:01:08Z</time>
      </trkpt>
      <trkpt lat="44.51427" lon="2.2715">
        <ele>373.7</ele>
        <time>2011-08-09T09:01:09Z</time>
      </trkpt>
      <trkpt lat="44.51429" lon="2.27144">
        <ele>373.9</ele>
        <time>2011-08-09T09:01:11Z</time>
      </trkpt>
      <trkpt lat="44.51429" lon="2.27141">
        <ele>374.1</ele>
        <time>2011-08-09T09:01:12Z</time>
      </trkpt>
      <trkpt lat="44.51431" lon="2.27136">
        <ele>374.4</ele>
        <time>2011-08-09T09:01:14Z</time>
      </trkpt>
      <trkpt lat="44.51433" lon="2.27131">
        <ele>374.9</ele>
        <time>2011-08-09T09:01:16Z</time>
      </trkpt>
      <trkpt lat="44.51435" lon="2.27126">
        <ele>375.5</ele>
        <time>2011-08-09T09:01:18Z</time>
      </trkpt>
      <trkpt lat="44.51436" lon="2.2712">
        <ele>376</ele>
        <time>2011-08-09T09:01:20Z</time>
      </trkpt>
      <trkpt lat="44.51437" lon="2.27118">
        <ele>376.1</ele>
        <time>2011-08-09T09:01:21Z</time>
      </trkpt>
      <trkpt lat="44.51439" lon="2.2711">
        <ele>376.6</ele>
        <time>2011-08-09T09:01:24Z</time>
      </trkpt>
      <trkpt lat="44.5144" lon="2.27104">
        <ele>376.8</ele>
        <time>2011-08-09T09:01:26Z</time>
      </trkpt>
      <trkpt lat="44.51442" lon="2.27099">
        <ele>377.6</ele>
        <time>2011-08-09T09:01:28Z</time>
      </trkpt>
      <trkpt lat="44.51444" lon="2.27095">
        <ele>378.6</ele>
        <time>2011-08-09T09:01:30Z</time>
      </trkpt>
      <trkpt lat="44.51446" lon="2.27092">
        <ele>378.6</ele>
        <time>2011-08-09T09:01:32Z</time>
      </trkpt>
      <trkpt lat="44.5145" lon="2.27089">
        <ele>379</ele>
        <time>2011-08-09T09:01:34Z</time>
      </trkpt>
      <trkpt lat="44.51453" lon="2.27086">
        <ele>379.4</ele>
        <time>2011-08-09T09:01:36Z</time>
      </trkpt>
      <trkpt lat="44.51455" lon="2.27081">
        <ele>380.2</ele>
        <time>2011-08-09T09:01:38Z</time>
      </trkpt>
      <trkpt lat="44.51457" lon="2.27076">
        <ele>380.5</ele>
        <time>2011-08-09T09:01:40Z</time>
      </trkpt>
      <trkpt lat="44.51459" lon="2.27071">
        <ele>380.6</ele>
        <time>2011-08-09T09:01:42Z</time>
      </trkpt>
      <trkpt lat="44.5146" lon="2.27066">
        <ele>381</ele>
        <time>2011-08-09T09:01:44Z</time>
      </trkpt>
      <trkpt lat="44.5146" lon="2.27061">
        <ele>381.4</ele>
        <time>2011-08-09T09:01:46Z</time>
      </trkpt>
      <trkpt lat="44.5146" lon="2.27056">
        <ele>382.2</ele>
        <time>2011-08-09T09:01:48Z</time>
      </trkpt>
      <trkpt lat="44.51461" lon="2.27051">
        <ele>382.8</ele>
        <time>2011-08-09T09:01:50Z</time>
      </trkpt>
      <trkpt lat="44.51461" lon="2.27045">
        <ele>383.3</ele>
        <time>2011-08-09T09:01:52Z</time>
      </trkpt>
      <trkpt lat="44.51461" lon="2.2704">
        <ele>384.3</ele>
        <time>2011-08-09T09:01:54Z</time>
      </trkpt>
      <trkpt lat="44.51461" lon="2.27036">
        <ele>384.8</ele>
        <time>2011-08-09T09:01:56Z</time>
      </trkpt>
      <trkpt lat="44.51461" lon="2.27031">
        <ele>385</ele>
        <time>2011-08-09T09:01:58Z</time>
      </trkpt>
      <trkpt lat="44.51461" lon="2.27027">
        <ele>385.1</ele>
        <time>2011-08-09T09:02:00Z</time>
      </trkpt>
      <trkpt lat="44.51461" lon="2.27022">
        <ele>385.2</ele>
        <time>2011-08-09T09:02:02Z</time>
      </trkpt>
      <trkpt lat="44.51462" lon="2.27018">
        <ele>386.5</ele>
        <time>2011-08-09T09:02:04Z</time>
      </trkpt>
      <trkpt lat="44.51462" lon="2.27013">
        <ele>387.1</ele>
        <time>2011-08-09T09:02:06Z</time>
      </trkpt>
      <trkpt lat="44.51463" lon="2.27008">
        <ele>387.4</ele>
        <time>2011-08-09T09:02:08Z</time>
      </trkpt>
      <trkpt lat="44.51465" lon="2.27003">
        <ele>387.8</ele>
        <time>2011-08-09T09:02:10Z</time>
      </trkpt>
      <trkpt lat="44.51465" lon="2.26997">
        <ele>388.3</ele>
        <time>2011-08-09T09:02:12Z</time>
      </trkpt>
      <trkpt lat="44.51466" lon="2.26992">
        <ele>388.7</ele>
        <time>2011-08-09T09:02:14Z</time>
      </trkpt>
      <trkpt lat="44.51467" lon="2.26987">
        <ele>389.8</ele>
        <time>2011-08-09T09:02:16Z</time>
      </trkpt>
      <trkpt lat="44.51467" lon="2.26982">
        <ele>391.1</ele>
        <time>2011-08-09T09:02:18Z</time>
      </trkpt>
      <trkpt lat="44.51468" lon="2.26977">
        <ele>392</ele>
        <time>2011-08-09T09:02:20Z</time>
      </trkpt>
      <trkpt lat="44.51469" lon="2.26973">
        <ele>392.2</ele>
        <time>2011-08-09T09:02:22Z</time>
      </trkpt>
      <trkpt lat="44.51469" lon="2.2697">
        <ele>392.2</ele>
        <time>2011-08-09T09:02:23Z</time>
      </trkpt>
      <trkpt lat="44.51471" lon="2.26964">
        <ele>392.7</ele>
        <time>2011-08-09T09:02:26Z</time>
      </trkpt>
      <trkpt lat="44.51472" lon="2.26959">
        <ele>393.3</ele>
        <time>2011-08-09T09:02:28Z</time>
      </trkpt>
      <trkpt lat="44.51474" lon="2.26954">
        <ele>393.8</ele>
        <time>2011-08-09T09:02:30Z</time>
      </trkpt>
      <trkpt lat="44.51475" lon="2.2695">
        <ele>394.2</ele>
        <time>2011-08-09T09:02:32Z</time>
      </trkpt>
      <trkpt lat="44.51477" lon="2.26946">
        <ele>394.5</ele>
        <time>2011-08-09T09:02:34Z</time>
      </trkpt>
      <trkpt lat="44.51478" lon="2.26942">
        <ele>395.4</ele>
        <time>2011-08-09T09:02:36Z</time>
      </trkpt>
      <trkpt lat="44.5148" lon="2.26937">
        <ele>396.1</ele>
        <time>2011-08-09T09:02:38Z</time>
      </trkpt>
      <trkpt lat="44.51482" lon="2.26934">
        <ele>396.6</ele>
        <time>2011-08-09T09:02:40Z</time>
      </trkpt>
      <trkpt lat="44.51483" lon="2.2693">
        <ele>396.8</ele>
        <time>2011-08-09T09:02:42Z</time>
      </trkpt>
      <trkpt lat="44.51485" lon="2.26926">
        <ele>397</ele>
        <time>2011-08-09T09:02:44Z</time>
      </trkpt>
      <trkpt lat="44.51487" lon="2.26922">
        <ele>397.2</ele>
        <time>2011-08-09T09:02:46Z</time>
      </trkpt>
      <trkpt lat="44.51489" lon="2.26918">
        <ele>397.4</ele>
        <time>2011-08-09T09:02:48Z</time>
      </trkpt>
      <trkpt lat="44.5149" lon="2.26914">
        <ele>397.6</ele>
        <time>2011-08-09T09:02:50Z</time>
      </trkpt>
      <trkpt lat="44.51492" lon="2.2691">
        <ele>397.5</ele>
        <time>2011-08-09T09:02:52Z</time>
      </trkpt>
      <trkpt lat="44.51495" lon="2.26909">
        <ele>397.8</ele>
        <time>2011-08-09T09:02:54Z</time>
      </trkpt>
      <trkpt lat="44.51499" lon="2.26908">
        <ele>398.2</ele>
        <time>2011-08-09T09:02:56Z</time>
      </trkpt>
      <trkpt lat="44.51502" lon="2.26909">
        <ele>398.9</ele>
        <time>2011-08-09T09:02:58Z</time>
      </trkpt>
      <trkpt lat="44.51505" lon="2.2691">
        <ele>399.4</ele>
        <time>2011-08-09T09:03:00Z</time>
      </trkpt>
      <trkpt lat="44.51508" lon="2.26912">
        <ele>399.7</ele>
        <time>2011-08-09T09:03:02Z</time>
      </trkpt>
      <trkpt lat="44.51512" lon="2.26912">
        <ele>400.9</ele>
        <time>2011-08-09T09:03:04Z</time>
      </trkpt>
      <trkpt lat="44.51516" lon="2.26912">
        <ele>401.5</ele>
        <time>2011-08-09T09:03:06Z</time>
      </trkpt>
      <trkpt lat="44.5152" lon="2.26911">
        <ele>401</ele>
        <time>2011-08-09T09:03:08Z</time>
      </trkpt>
      <trkpt lat="44.51524" lon="2.2691">
        <ele>401.1</ele>
        <time>2011-08-09T09:03:10Z</time>
      </trkpt>
      <trkpt lat="44.51528" lon="2.26909">
        <ele>401.4</ele>
        <time>2011-08-09T09:03:12Z</time>
      </trkpt>
      <trkpt lat="44.51532" lon="2.26907">
        <ele>401.5</ele>
        <time>2011-08-09T09:03:14Z</time>
      </trkpt>
      <trkpt lat="44.51536" lon="2.26906">
        <ele>401.4</ele>
        <time>2011-08-09T09:03:16Z</time>
      </trkpt>
      <trkpt lat="44.51539" lon="2.26905">
        <ele>401.2</ele>
        <time>2011-08-09T09:03:18Z</time>
      </trkpt>
      <trkpt lat="44.51542" lon="2.26903">
        <ele>401.7</ele>
        <time>2011-08-09T09:03:20Z</time>
      </trkpt>
      <trkpt lat="44.51545" lon="2.26901">
        <ele>402</ele>
        <time>2011-08-09T09:03:22Z</time>
      </trkpt>
      <trkpt lat="44.51548" lon="2.269">
        <ele>402.1</ele>
        <time>2011-08-09T09:03:24Z</time>
      </trkpt>
      <trkpt lat="44.51549" lon="2.26899">
        <ele>402.2</ele>
        <time>2011-08-09T09:03:25Z</time>
      </trkpt>
      <trkpt lat="44.51555" lon="2.26896">
        <ele>404.2</ele>
        <time>2011-08-09T09:03:29Z</time>
      </trkpt>
      <trkpt lat="44.51558" lon="2.26894">
        <ele>405.3</ele>
        <time>2011-08-09T09:03:31Z</time>
      </trkpt>
      <trkpt lat="44.51561" lon="2.26892">
        <ele>405.6</ele>
        <time>2011-08-09T09:03:33Z</time>
      </trkpt>
      <trkpt lat="44.51564" lon="2.26889">
        <ele>406.5</ele>
        <time>2011-08-09T09:03:36Z</time>
      </trkpt>
      <trkpt lat="44.51568" lon="2.26887">
        <ele>407.4</ele>
        <time>2011-08-09T09:03:39Z</time>
      </trkpt>
      <trkpt lat="44.51572" lon="2.26885">
        <ele>407.8</ele>
        <time>2011-08-09T09:03:42Z</time>
      </trkpt>
      <trkpt lat="44.51576" lon="2.26885">
        <ele>408.1</ele>
        <time>2011-08-09T09:03:45Z</time>
      </trkpt>
      <trkpt lat="44.51579" lon="2.26886">
        <ele>408.4</ele>
        <time>2011-08-09T09:03:47Z</time>
      </trkpt>
      <trkpt lat="44.51583" lon="2.26887">
        <ele>408.5</ele>
        <time>2011-08-09T09:03:49Z</time>
      </trkpt>
      <trkpt lat="44.51585" lon="2.26888">
        <ele>408.6</ele>
        <time>2011-08-09T09:03:50Z</time>
      </trkpt>
      <trkpt lat="44.51587" lon="2.26889">
        <ele>408.5</ele>
        <time>2011-08-09T09:03:51Z</time>
      </trkpt>
      <trkpt lat="44.5159" lon="2.2689">
        <ele>408.4</ele>
        <time>2011-08-09T09:03:52Z</time>
      </trkpt>
      <trkpt lat="44.51593" lon="2.26891">
        <ele>408.4</ele>
        <time>2011-08-09T09:03:53Z</time>
      </trkpt>
      <trkpt lat="44.51595" lon="2.26891">
        <ele>408.6</ele>
        <time>2011-08-09T09:03:54Z</time>
      </trkpt>
      <trkpt lat="44.51597" lon="2.26893">
        <ele>408.8</ele>
        <time>2011-08-09T09:03:55Z</time>
      </trkpt>
      <trkpt lat="44.516" lon="2.26893">
        <ele>408.9</ele>
        <time>2011-08-09T09:03:56Z</time>
      </trkpt>
      <trkpt lat="44.51602" lon="2.26894">
        <ele>409</ele>
        <time>2011-08-09T09:03:57Z</time>
      </trkpt>
      <trkpt lat="44.51605" lon="2.26895">
        <ele>408.4</ele>
        <time>2011-08-09T09:03:58Z</time>
      </trkpt>
      <trkpt lat="44.51607" lon="2.26895">
        <ele>408</ele>
        <time>2011-08-09T09:03:59Z</time>
      </trkpt>
      <trkpt lat="44.5161" lon="2.26895">
        <ele>407.7</ele>
        <time>2011-08-09T09:04:00Z</time>
      </trkpt>
      <trkpt lat="44.51612" lon="2.26896">
        <ele>408</ele>
        <time>2011-08-09T09:04:01Z</time>
      </trkpt>
      <trkpt lat="44.51615" lon="2.26896">
        <ele>408.2</ele>
        <time>2011-08-09T09:04:02Z</time>
      </trkpt>
      <trkpt lat="44.51619" lon="2.26894">
        <ele>408</ele>
        <time>2011-08-09T09:04:04Z</time>
      </trkpt>
      <trkpt lat="44.51622" lon="2.26892">
        <ele>407.6</ele>
        <time>2011-08-09T09:04:06Z</time>
      </trkpt>
      <trkpt lat="44.51626" lon="2.26889">
        <ele>406.8</ele>
        <time>2011-08-09T09:04:08Z</time>
      </trkpt>
      <trkpt lat="44.51628" lon="2.26887">
        <ele>406.6</ele>
        <time>2011-08-09T09:04:09Z</time>
      </trkpt>
      <trkpt lat="44.5163" lon="2.26885">
        <ele>406.6</ele>
        <time>2011-08-09T09:04:10Z</time>
      </trkpt>
      <trkpt lat="44.51633" lon="2.26883">
        <ele>406.5</ele>
        <time>2011-08-09T09:04:11Z</time>
      </trkpt>
      <trkpt lat="44.51635" lon="2.2688">
        <ele>406.5</ele>
        <time>2011-08-09T09:04:12Z</time>
      </trkpt>
      <trkpt lat="44.51637" lon="2.26878">
        <ele>406.5</ele>
        <time>2011-08-09T09:04:13Z</time>
      </trkpt>
      <trkpt lat="44.5164" lon="2.26876">
        <ele>406.6</ele>
        <time>2011-08-09T09:04:14Z</time>
      </trkpt>
      <trkpt lat="44.51644" lon="2.26875">
        <ele>406.7</ele>
        <time>2011-08-09T09:04:16Z</time>
      </trkpt>
      <trkpt lat="44.51648" lon="2.26875">
        <ele>406.6</ele>
        <time>2011-08-09T09:04:18Z</time>
      </trkpt>
      <trkpt lat="44.51651" lon="2.26875">
        <ele>406.5</ele>
        <time>2011-08-09T09:04:19Z</time>
      </trkpt>
      <trkpt lat="44.51654" lon="2.26876">
        <ele>406.4</ele>
        <time>2011-08-09T09:04:20Z</time>
      </trkpt>
      <trkpt lat="44.51657" lon="2.26877">
        <ele>406.3</ele>
        <time>2011-08-09T09:04:21Z</time>
      </trkpt>
      <trkpt lat="44.5166" lon="2.26879">
        <ele>406.2</ele>
        <time>2011-08-09T09:04:22Z</time>
      </trkpt>
      <trkpt lat="44.51664" lon="2.2688">
        <ele>405.3</ele>
        <time>2011-08-09T09:04:23Z</time>
      </trkpt>
      <trkpt lat="44.5167" lon="2.26884">
        <ele>404.6</ele>
        <time>2011-08-09T09:04:24Z</time>
      </trkpt>
      <trkpt lat="44.51676" lon="2.26887">
        <ele>404.1</ele>
        <time>2011-08-09T09:04:25Z</time>
      </trkpt>
      <trkpt lat="44.51682" lon="2.2689">
        <ele>403.4</ele>
        <time>2011-08-09T09:04:26Z</time>
      </trkpt>
      <trkpt lat="44.51688" lon="2.26892">
        <ele>402.9</ele>
        <time>2011-08-09T09:04:27Z</time>
      </trkpt>
      <trkpt lat="44.51695" lon="2.26894">
        <ele>402.6</ele>
        <time>2011-08-09T09:04:28Z</time>
      </trkpt>
      <trkpt lat="44.51703" lon="2.26895">
        <ele>402.3</ele>
        <time>2011-08-09T09:04:29Z</time>
      </trkpt>
      <trkpt lat="44.51711" lon="2.26895">
        <ele>401.2</ele>
        <time>2011-08-09T09:04:30Z</time>
      </trkpt>
      <trkpt lat="44.51719" lon="2.26894">
        <ele>400.4</ele>
        <time>2011-08-09T09:04:31Z</time>
      </trkpt>
      <trkpt lat="44.51729" lon="2.26893">
        <ele>399.8</ele>
        <time>2011-08-09T09:04:32Z</time>
      </trkpt>
      <trkpt lat="44.51738" lon="2.26892">
        <ele>397.9</ele>
        <time>2011-08-09T09:04:33Z</time>
      </trkpt>
      <trkpt lat="44.51749" lon="2.26891">
        <ele>396.5</ele>
        <time>2011-08-09T09:04:34Z</time>
      </trkpt>
      <trkpt lat="44.5176" lon="2.26891">
        <ele>395.4</ele>
        <time>2011-08-09T09:04:35Z</time>
      </trkpt>
      <trkpt lat="44.5177" lon="2.26893">
        <ele>393.1</ele>
        <time>2011-08-09T09:04:36Z</time>
      </trkpt>
      <trkpt lat="44.51778" lon="2.26894">
        <ele>391.4</ele>
        <time>2011-08-09T09:04:37Z</time>
      </trkpt>
      <trkpt lat="44.51785" lon="2.26894">
        <ele>390.2</ele>
        <time>2011-08-09T09:04:38Z</time>
      </trkpt>
      <trkpt lat="44.51793" lon="2.2689">
        <ele>388.3</ele>
        <time>2011-08-09T09:04:39Z</time>
      </trkpt>
      <trkpt lat="44.51799" lon="2.26885">
        <ele>387</ele>
        <time>2011-08-09T09:04:40Z</time>
      </trkpt>
      <trkpt lat="44.51806" lon="2.26879">
        <ele>385.9</ele>
        <time>2011-08-09T09:04:41Z</time>
      </trkpt>
      <trkpt lat="44.51814" lon="2.26871">
        <ele>384.2</ele>
        <time>2011-08-09T09:04:42Z</time>
      </trkpt>
      <trkpt lat="44.51822" lon="2.26865">
        <ele>383</ele>
        <time>2011-08-09T09:04:43Z</time>
      </trkpt>
      <trkpt lat="44.51831" lon="2.26859">
        <ele>382</ele>
        <time>2011-08-09T09:04:44Z</time>
      </trkpt>
      <trkpt lat="44.51839" lon="2.26852">
        <ele>380.3</ele>
        <time>2011-08-09T09:04:45Z</time>
      </trkpt>
      <trkpt lat="44.51848" lon="2.26847">
        <ele>379.1</ele>
        <time>2011-08-09T09:04:46Z</time>
      </trkpt>
      <trkpt lat="44.51857" lon="2.26844">
        <ele>378.1</ele>
        <time>2011-08-09T09:04:47Z</time>
      </trkpt>
      <trkpt lat="44.51865" lon="2.26841">
        <ele>377.4</ele>
        <time>2011-08-09T09:04:48Z</time>
      </trkpt>
      <trkpt lat="44.51871" lon="2.26835">
        <ele>376.4</ele>
        <time>2011-08-09T09:04:49Z</time>
      </trkpt>
      <trkpt lat="44.51876" lon="2.26829">
        <ele>375.6</ele>
        <time>2011-08-09T09:04:50Z</time>
      </trkpt>
      <trkpt lat="44.51881" lon="2.26823">
        <ele>375</ele>
        <time>2011-08-09T09:04:51Z</time>
      </trkpt>
      <trkpt lat="44.51887" lon="2.26818">
        <ele>374.5</ele>
        <time>2011-08-09T09:04:52Z</time>
      </trkpt>
      <trkpt lat="44.51893" lon="2.26815">
        <ele>374.2</ele>
        <time>2011-08-09T09:04:53Z</time>
      </trkpt>
      <trkpt lat="44.51899" lon="2.26814">
        <ele>373.9</ele>
        <time>2011-08-09T09:04:54Z</time>
      </trkpt>
      <trkpt lat="44.51905" lon="2.26813">
        <ele>373.5</ele>
        <time>2011-08-09T09:04:55Z</time>
      </trkpt>
      <trkpt lat="44.51912" lon="2.26809">
        <ele>373.1</ele>
        <time>2011-08-09T09:04:56Z</time>
      </trkpt>
      <trkpt lat="44.5192" lon="2.26806">
        <ele>372.9</ele>
        <time>2011-08-09T09:04:57Z</time>
      </trkpt>
      <trkpt lat="44.51927" lon="2.26805">
        <ele>372.1</ele>
        <time>2011-08-09T09:04:58Z</time>
      </trkpt>
      <trkpt lat="44.51934" lon="2.26805">
        <ele>371.5</ele>
        <time>2011-08-09T09:04:59Z</time>
      </trkpt>
      <trkpt lat="44.51942" lon="2.26804">
        <ele>371</ele>
        <time>2011-08-09T09:05:00Z</time>
      </trkpt>
      <trkpt lat="44.51948" lon="2.26801">
        <ele>369.7</ele>
        <time>2011-08-09T09:05:01Z</time>
      </trkpt>
      <trkpt lat="44.51951" lon="2.26798">
        <ele>366.4</ele>
        <time>2011-08-09T09:05:07Z</time>
      </trkpt>
      <trkpt lat="44.51953" lon="2.26802">
        <ele>365.1</ele>
        <time>2011-08-09T09:05:12Z</time>
      </trkpt>
      <trkpt lat="44.51955" lon="2.26806">
        <ele>364.8</ele>
        <time>2011-08-09T09:05:14Z</time>
      </trkpt>
      <trkpt lat="44.51956" lon="2.26809">
        <ele>364.8</ele>
        <time>2011-08-09T09:05:15Z</time>
      </trkpt>
      <trkpt lat="44.51957" lon="2.26813">
        <ele>364.9</ele>
        <time>2011-08-09T09:05:16Z</time>
      </trkpt>
      <trkpt lat="44.51957" lon="2.26817">
        <ele>364.4</ele>
        <time>2011-08-09T09:05:17Z</time>
      </trkpt>
      <trkpt lat="44.51955" lon="2.26822">
        <ele>364</ele>
        <time>2011-08-09T09:05:18Z</time>
      </trkpt>
      <trkpt lat="44.51953" lon="2.26825">
        <ele>363.7</ele>
        <time>2011-08-09T09:05:19Z</time>
      </trkpt>
      <trkpt lat="44.51955" lon="2.2683">
        <ele>361.6</ele>
        <time>2011-08-09T09:05:22Z</time>
      </trkpt>
      <trkpt lat="44.51957" lon="2.26829">
        <ele>361</ele>
        <time>2011-08-09T09:05:23Z</time>
      </trkpt>
      <trkpt lat="44.5196" lon="2.26828">
        <ele>360.3</ele>
        <time>2011-08-09T09:05:24Z</time>
      </trkpt>
      <trkpt lat="44.51963" lon="2.26826">
        <ele>359.8</ele>
        <time>2011-08-09T09:05:25Z</time>
      </trkpt>
      <trkpt lat="44.51966" lon="2.26825">
        <ele>359.4</ele>
        <time>2011-08-09T09:05:26Z</time>
      </trkpt>
      <trkpt lat="44.51969" lon="2.26825">
        <ele>358.5</ele>
        <time>2011-08-09T09:05:27Z</time>
      </trkpt>
      <trkpt lat="44.51973" lon="2.26824">
        <ele>357.8</ele>
        <time>2011-08-09T09:05:28Z</time>
      </trkpt>
      <trkpt lat="44.51976" lon="2.26827">
        <ele>357.2</ele>
        <time>2011-08-09T09:05:29Z</time>
      </trkpt>
      <trkpt lat="44.51979" lon="2.2683">
        <ele>356.7</ele>
        <time>2011-08-09T09:05:30Z</time>
      </trkpt>
      <trkpt lat="44.51982" lon="2.26834">
        <ele>356.2</ele>
        <time>2011-08-09T09:05:31Z</time>
      </trkpt>
      <trkpt lat="44.51985" lon="2.26838">
        <ele>355.9</ele>
        <time>2011-08-09T09:05:32Z</time>
      </trkpt>
      <trkpt lat="44.51989" lon="2.26842">
        <ele>354.4</ele>
        <time>2011-08-09T09:05:33Z</time>
      </trkpt>
      <trkpt lat="44.51993" lon="2.26847">
        <ele>353.3</ele>
        <time>2011-08-09T09:05:34Z</time>
      </trkpt>
      <trkpt lat="44.51997" lon="2.26852">
        <ele>352.5</ele>
        <time>2011-08-09T09:05:35Z</time>
      </trkpt>
      <trkpt lat="44.52001" lon="2.26857">
        <ele>351.9</ele>
        <time>2011-08-09T09:05:36Z</time>
      </trkpt>
      <trkpt lat="44.52005" lon="2.26862">
        <ele>350.6</ele>
        <time>2011-08-09T09:05:37Z</time>
      </trkpt>
      <trkpt lat="44.52008" lon="2.26866">
        <ele>349.6</ele>
        <time>2011-08-09T09:05:38Z</time>
      </trkpt>
      <trkpt lat="44.52011" lon="2.2687">
        <ele>347.4</ele>
        <time>2011-08-09T09:05:40Z</time>
      </trkpt>
      <trkpt lat="44.52013" lon="2.26873">
        <ele>346.3</ele>
        <time>2011-08-09T09:05:41Z</time>
      </trkpt>
      <trkpt lat="44.52017" lon="2.26876">
        <ele>345.5</ele>
        <time>2011-08-09T09:05:42Z</time>
      </trkpt>
      <trkpt lat="44.5202" lon="2.2688">
        <ele>344.8</ele>
        <time>2011-08-09T09:05:43Z</time>
      </trkpt>
      <trkpt lat="44.52023" lon="2.26883">
        <ele>344.2</ele>
        <time>2011-08-09T09:05:44Z</time>
      </trkpt>
      <trkpt lat="44.52025" lon="2.26887">
        <ele>343.8</ele>
        <time>2011-08-09T09:05:45Z</time>
      </trkpt>
      <trkpt lat="44.52029" lon="2.26892">
        <ele>342.7</ele>
        <time>2011-08-09T09:05:46Z</time>
      </trkpt>
      <trkpt lat="44.52031" lon="2.26898">
        <ele>341.9</ele>
        <time>2011-08-09T09:05:47Z</time>
      </trkpt>
      <trkpt lat="44.52033" lon="2.26902">
        <ele>341.2</ele>
        <time>2011-08-09T09:05:48Z</time>
      </trkpt>
      <trkpt lat="44.52035" lon="2.26906">
        <ele>339.9</ele>
        <time>2011-08-09T09:05:49Z</time>
      </trkpt>
      <trkpt lat="44.52038" lon="2.26909">
        <ele>338.9</ele>
        <time>2011-08-09T09:05:50Z</time>
      </trkpt>
      <trkpt lat="44.52041" lon="2.26911">
        <ele>338.1</ele>
        <time>2011-08-09T09:05:51Z</time>
      </trkpt>
      <trkpt lat="44.52043" lon="2.26917">
        <ele>336.4</ele>
        <time>2011-08-09T09:05:53Z</time>
      </trkpt>
      <trkpt lat="44.52042" lon="2.26922">
        <ele>335</ele>
        <time>2011-08-09T09:05:55Z</time>
      </trkpt>
      <trkpt lat="44.52042" lon="2.26925">
        <ele>334.6</ele>
        <time>2011-08-09T09:05:56Z</time>
      </trkpt>
      <trkpt lat="44.52041" lon="2.26929">
        <ele>334.4</ele>
        <time>2011-08-09T09:05:57Z</time>
      </trkpt>
      <trkpt lat="44.52041" lon="2.26933">
        <ele>334.2</ele>
        <time>2011-08-09T09:05:58Z</time>
      </trkpt>
      <trkpt lat="44.5204" lon="2.26937">
        <ele>333.8</ele>
        <time>2011-08-09T09:05:59Z</time>
      </trkpt>
      <trkpt lat="44.52039" lon="2.26941">
        <ele>333.5</ele>
        <time>2011-08-09T09:06:00Z</time>
      </trkpt>
      <trkpt lat="44.52038" lon="2.26945">
        <ele>333.3</ele>
        <time>2011-08-09T09:06:01Z</time>
      </trkpt>
      <trkpt lat="44.52038" lon="2.26948">
        <ele>333</ele>
        <time>2011-08-09T09:06:02Z</time>
      </trkpt>
      <trkpt lat="44.52037" lon="2.26951">
        <ele>332.7</ele>
        <time>2011-08-09T09:06:03Z</time>
      </trkpt>
      <trkpt lat="44.52035" lon="2.26955">
        <ele>332.6</ele>
        <time>2011-08-09T09:06:04Z</time>
      </trkpt>
      <trkpt lat="44.52033" lon="2.2696">
        <ele>331.7</ele>
        <time>2011-08-09T09:06:05Z</time>
      </trkpt>
      <trkpt lat="44.5203" lon="2.26965">
        <ele>331.1</ele>
        <time>2011-08-09T09:06:06Z</time>
      </trkpt>
      <trkpt lat="44.52027" lon="2.26969">
        <ele>330.6</ele>
        <time>2011-08-09T09:06:07Z</time>
      </trkpt>
      <trkpt lat="44.52023" lon="2.26973">
        <ele>330.7</ele>
        <time>2011-08-09T09:06:08Z</time>
      </trkpt>
      <trkpt lat="44.52019" lon="2.26975">
        <ele>330.8</ele>
        <time>2011-08-09T09:06:09Z</time>
      </trkpt>
      <trkpt lat="44.52014" lon="2.26974">
        <ele>330.8</ele>
        <time>2011-08-09T09:06:10Z</time>
      </trkpt>
      <trkpt lat="44.5201" lon="2.26973">
        <ele>330.8</ele>
        <time>2011-08-09T09:06:11Z</time>
      </trkpt>
      <trkpt lat="44.52006" lon="2.26973">
        <ele>330</ele>
        <time>2011-08-09T09:06:12Z</time>
      </trkpt>
      <trkpt lat="44.52004" lon="2.26973">
        <ele>329.3</ele>
        <time>2011-08-09T09:06:13Z</time>
      </trkpt>
      <trkpt lat="44.52001" lon="2.26973">
        <ele>328.9</ele>
        <time>2011-08-09T09:06:14Z</time>
      </trkpt>
      <trkpt lat="44.51997" lon="2.26973">
        <ele>328.9</ele>
        <time>2011-08-09T09:06:15Z</time>
      </trkpt>
      <trkpt lat="44.51994" lon="2.26974">
        <ele>329</ele>
        <time>2011-08-09T09:06:16Z</time>
      </trkpt>
      <trkpt lat="44.5199" lon="2.26977">
        <ele>329.1</ele>
        <time>2011-08-09T09:06:17Z</time>
      </trkpt>
      <trkpt lat="44.51987" lon="2.26982">
        <ele>328.5</ele>
        <time>2011-08-09T09:06:18Z</time>
      </trkpt>
      <trkpt lat="44.51984" lon="2.26988">
        <ele>328.1</ele>
        <time>2011-08-09T09:06:19Z</time>
      </trkpt>
      <trkpt lat="44.51981" lon="2.26994">
        <ele>327.8</ele>
        <time>2011-08-09T09:06:20Z</time>
      </trkpt>
      <trkpt lat="44.51978" lon="2.27001">
        <ele>326.9</ele>
        <time>2011-08-09T09:06:21Z</time>
      </trkpt>
      <trkpt lat="44.51975" lon="2.27009">
        <ele>326.2</ele>
        <time>2011-08-09T09:06:22Z</time>
      </trkpt>
      <trkpt lat="44.51971" lon="2.27017">
        <ele>325.7</ele>
        <time>2011-08-09T09:06:23Z</time>
      </trkpt>
      <trkpt lat="44.51966" lon="2.27025">
        <ele>324.3</ele>
        <time>2011-08-09T09:06:24Z</time>
      </trkpt>
      <trkpt lat="44.51961" lon="2.27032">
        <ele>323.2</ele>
        <time>2011-08-09T09:06:25Z</time>
      </trkpt>
      <trkpt lat="44.51955" lon="2.27039">
        <ele>322.4</ele>
        <time>2011-08-09T09:06:26Z</time>
      </trkpt>
      <trkpt lat="44.51948" lon="2.27045">
        <ele>321.8</ele>
        <time>2011-08-09T09:06:27Z</time>
      </trkpt>
      <trkpt lat="44.51941" lon="2.27049">
        <ele>321.1</ele>
        <time>2011-08-09T09:06:28Z</time>
      </trkpt>
      <trkpt lat="44.51934" lon="2.27052">
        <ele>320.6</ele>
        <time>2011-08-09T09:06:29Z</time>
      </trkpt>
      <trkpt lat="44.51927" lon="2.27053">
        <ele>320.2</ele>
        <time>2011-08-09T09:06:30Z</time>
      </trkpt>
      <trkpt lat="44.51919" lon="2.27055">
        <ele>318.6</ele>
        <time>2011-08-09T09:06:31Z</time>
      </trkpt>
      <trkpt lat="44.51912" lon="2.27056">
        <ele>317.5</ele>
        <time>2011-08-09T09:06:32Z</time>
      </trkpt>
      <trkpt lat="44.51906" lon="2.27057">
        <ele>316.6</ele>
        <time>2011-08-09T09:06:33Z</time>
      </trkpt>
      <trkpt lat="44.51899" lon="2.27059">
        <ele>316.1</ele>
        <time>2011-08-09T09:06:34Z</time>
      </trkpt>
      <trkpt lat="44.51892" lon="2.2706">
        <ele>315.7</ele>
        <time>2011-08-09T09:06:35Z</time>
      </trkpt>
      <trkpt lat="44.51886" lon="2.27063">
        <ele>315.5</ele>
        <time>2011-08-09T09:06:36Z</time>
      </trkpt>
      <trkpt lat="44.51881" lon="2.27066">
        <ele>315.2</ele>
        <time>2011-08-09T09:06:37Z</time>
      </trkpt>
      <trkpt lat="44.51878" lon="2.2707">
        <ele>315</ele>
        <time>2011-08-09T09:06:38Z</time>
      </trkpt>
      <trkpt lat="44.51875" lon="2.27073">
        <ele>314.8</ele>
        <time>2011-08-09T09:06:39Z</time>
      </trkpt>
      <trkpt lat="44.51872" lon="2.27077">
        <ele>315.1</ele>
        <time>2011-08-09T09:06:40Z</time>
      </trkpt>
      <trkpt lat="44.51868" lon="2.27081">
        <ele>315.4</ele>
        <time>2011-08-09T09:06:41Z</time>
      </trkpt>
      <trkpt lat="44.51865" lon="2.27085">
        <ele>315.6</ele>
        <time>2011-08-09T09:06:42Z</time>
      </trkpt>
      <trkpt lat="44.51862" lon="2.27089">
        <ele>315.7</ele>
        <time>2011-08-09T09:06:43Z</time>
      </trkpt>
      <trkpt lat="44.5186" lon="2.27093">
        <ele>316</ele>
        <time>2011-08-09T09:06:44Z</time>
      </trkpt>
      <trkpt lat="44.51857" lon="2.27096">
        <ele>316.3</ele>
        <time>2011-08-09T09:06:45Z</time>
      </trkpt>
      <trkpt lat="44.51855" lon="2.27099">
        <ele>316.4</ele>
        <time>2011-08-09T09:06:46Z</time>
      </trkpt>
      <trkpt lat="44.51853" lon="2.27101">
        <ele>316.3</ele>
        <time>2011-08-09T09:06:47Z</time>
      </trkpt>
      <trkpt lat="44.51851" lon="2.27104">
        <ele>316.2</ele>
        <time>2011-08-09T09:06:48Z</time>
      </trkpt>
      <trkpt lat="44.51849" lon="2.27106">
        <ele>316.1</ele>
        <time>2011-08-09T09:06:49Z</time>
      </trkpt>
      <trkpt lat="44.51847" lon="2.27109">
        <ele>316.3</ele>
        <time>2011-08-09T09:06:50Z</time>
      </trkpt>
      <trkpt lat="44.51845" lon="2.27111">
        <ele>316.6</ele>
        <time>2011-08-09T09:06:51Z</time>
      </trkpt>
      <trkpt lat="44.51843" lon="2.27114">
        <ele>316.7</ele>
        <time>2011-08-09T09:06:52Z</time>
      </trkpt>
      <trkpt lat="44.51841" lon="2.27116">
        <ele>316.9</ele>
        <time>2011-08-09T09:06:53Z</time>
      </trkpt>
      <trkpt lat="44.51838" lon="2.27118">
        <ele>317</ele>
        <time>2011-08-09T09:06:54Z</time>
      </trkpt>
      <trkpt lat="44.51836" lon="2.27119">
        <ele>317.1</ele>
        <time>2011-08-09T09:06:55Z</time>
      </trkpt>
      <trkpt lat="44.51833" lon="2.2712">
        <ele>316.9</ele>
        <time>2011-08-09T09:06:56Z</time>
      </trkpt>
      <trkpt lat="44.5183" lon="2.27121">
        <ele>316.8</ele>
        <time>2011-08-09T09:06:57Z</time>
      </trkpt>
      <trkpt lat="44.51828" lon="2.27122">
        <ele>316.7</ele>
        <time>2011-08-09T09:06:58Z</time>
      </trkpt>
      <trkpt lat="44.51825" lon="2.27123">
        <ele>316.6</ele>
        <time>2011-08-09T09:06:59Z</time>
      </trkpt>
      <trkpt lat="44.51822" lon="2.27125">
        <ele>316.2</ele>
        <time>2011-08-09T09:07:00Z</time>
      </trkpt>
      <trkpt lat="44.51819" lon="2.27128">
        <ele>315.9</ele>
        <time>2011-08-09T09:07:01Z</time>
      </trkpt>
      <trkpt lat="44.51815" lon="2.27131">
        <ele>315.7</ele>
        <time>2011-08-09T09:07:02Z</time>
      </trkpt>
      <trkpt lat="44.51811" lon="2.27134">
        <ele>314.9</ele>
        <time>2011-08-09T09:07:03Z</time>
      </trkpt>
      <trkpt lat="44.51807" lon="2.27137">
        <ele>314.4</ele>
        <time>2011-08-09T09:07:04Z</time>
      </trkpt>
      <trkpt lat="44.51803" lon="2.2714">
        <ele>313.9</ele>
        <time>2011-08-09T09:07:05Z</time>
      </trkpt>
      <trkpt lat="44.51799" lon="2.27143">
        <ele>313.2</ele>
        <time>2011-08-09T09:07:06Z</time>
      </trkpt>
      <trkpt lat="44.51795" lon="2.27146">
        <ele>312.6</ele>
        <time>2011-08-09T09:07:07Z</time>
      </trkpt>
      <trkpt lat="44.5179" lon="2.27149">
        <ele>312.2</ele>
        <time>2011-08-09T09:07:08Z</time>
      </trkpt>
      <trkpt lat="44.51785" lon="2.27153">
        <ele>312</ele>
        <time>2011-08-09T09:07:09Z</time>
      </trkpt>
      <trkpt lat="44.51781" lon="2.27157">
        <ele>311.9</ele>
        <time>2011-08-09T09:07:10Z</time>
      </trkpt>
      <trkpt lat="44.51777" lon="2.27162">
        <ele>311.8</ele>
        <time>2011-08-09T09:07:11Z</time>
      </trkpt>
      <trkpt lat="44.51774" lon="2.27168">
        <ele>311.6</ele>
        <time>2011-08-09T09:07:12Z</time>
      </trkpt>
      <trkpt lat="44.51772" lon="2.27174">
        <ele>311.4</ele>
        <time>2011-08-09T09:07:13Z</time>
      </trkpt>
      <trkpt lat="44.51772" lon="2.27179">
        <ele>311.3</ele>
        <time>2011-08-09T09:07:14Z</time>
      </trkpt>
      <trkpt lat="44.51773" lon="2.27183">
        <ele>311.2</ele>
        <time>2011-08-09T09:07:15Z</time>
      </trkpt>
      <trkpt lat="44.51775" lon="2.27186">
        <ele>310.3</ele>
        <time>2011-08-09T09:07:16Z</time>
      </trkpt>
      <trkpt lat="44.51777" lon="2.27187">
        <ele>309.7</ele>
        <time>2011-08-09T09:07:17Z</time>
      </trkpt>
      <trkpt lat="44.5178" lon="2.27189">
        <ele>309.2</ele>
        <time>2011-08-09T09:07:18Z</time>
      </trkpt>
      <trkpt lat="44.51784" lon="2.2719">
        <ele>308.9</ele>
        <time>2011-08-09T09:07:19Z</time>
      </trkpt>
      <trkpt lat="44.51787" lon="2.27192">
        <ele>308.7</ele>
        <time>2011-08-09T09:07:20Z</time>
      </trkpt>
      <trkpt lat="44.51791" lon="2.27193">
        <ele>308.5</ele>
        <time>2011-08-09T09:07:21Z</time>
      </trkpt>
      <trkpt lat="44.51795" lon="2.27195">
        <ele>308.4</ele>
        <time>2011-08-09T09:07:22Z</time>
      </trkpt>
      <trkpt lat="44.51799" lon="2.27196">
        <ele>308.4</ele>
        <time>2011-08-09T09:07:23Z</time>
      </trkpt>
      <trkpt lat="44.51803" lon="2.27197">
        <ele>308.3</ele>
        <time>2011-08-09T09:07:24Z</time>
      </trkpt>
      <trkpt lat="44.51807" lon="2.27198">
        <ele>307.8</ele>
        <time>2011-08-09T09:07:25Z</time>
      </trkpt>
      <trkpt lat="44.51811" lon="2.272">
        <ele>307.4</ele>
        <time>2011-08-09T09:07:26Z</time>
      </trkpt>
      <trkpt lat="44.51815" lon="2.27201">
        <ele>307.2</ele>
        <time>2011-08-09T09:07:27Z</time>
      </trkpt>
      <trkpt lat="44.51819" lon="2.27202">
        <ele>306.2</ele>
        <time>2011-08-09T09:07:28Z</time>
      </trkpt>
      <trkpt lat="44.51823" lon="2.27204">
        <ele>305.5</ele>
        <time>2011-08-09T09:07:29Z</time>
      </trkpt>
      <trkpt lat="44.51827" lon="2.27205">
        <ele>305</ele>
        <time>2011-08-09T09:07:30Z</time>
      </trkpt>
      <trkpt lat="44.51832" lon="2.27206">
        <ele>304.6</ele>
        <time>2011-08-09T09:07:31Z</time>
      </trkpt>
      <trkpt lat="44.51836" lon="2.27208">
        <ele>304.3</ele>
        <time>2011-08-09T09:07:32Z</time>
      </trkpt>
      <trkpt lat="44.5184" lon="2.27209">
        <ele>304</ele>
        <time>2011-08-09T09:07:33Z</time>
      </trkpt>
      <trkpt lat="44.51845" lon="2.2721">
        <ele>303.9</ele>
        <time>2011-08-09T09:07:34Z</time>
      </trkpt>
      <trkpt lat="44.51849" lon="2.27211">
        <ele>303.2</ele>
        <time>2011-08-09T09:07:35Z</time>
      </trkpt>
      <trkpt lat="44.51852" lon="2.27212">
        <ele>302.8</ele>
        <time>2011-08-09T09:07:36Z</time>
      </trkpt>
      <trkpt lat="44.51856" lon="2.27213">
        <ele>301.9</ele>
        <time>2011-08-09T09:07:39Z</time>
      </trkpt>
      <trkpt lat="44.51859" lon="2.27214">
        <ele>300.5</ele>
        <time>2011-08-09T09:07:46Z</time>
      </trkpt>
      <trkpt lat="44.51861" lon="2.27214">
        <ele>300.6</ele>
        <time>2011-08-09T09:07:47Z</time>
      </trkpt>
      <trkpt lat="44.51864" lon="2.27214">
        <ele>300.7</ele>
        <time>2011-08-09T09:07:48Z</time>
      </trkpt>
      <trkpt lat="44.51868" lon="2.27213">
        <ele>300.8</ele>
        <time>2011-08-09T09:07:49Z</time>
      </trkpt>
      <trkpt lat="44.51872" lon="2.27212">
        <ele>300.8</ele>
        <time>2011-08-09T09:07:50Z</time>
      </trkpt>
      <trkpt lat="44.51877" lon="2.27211">
        <ele>300.3</ele>
        <time>2011-08-09T09:07:51Z</time>
      </trkpt>
      <trkpt lat="44.51881" lon="2.27209">
        <ele>299.9</ele>
        <time>2011-08-09T09:07:52Z</time>
      </trkpt>
      <trkpt lat="44.51886" lon="2.27206">
        <ele>299.6</ele>
        <time>2011-08-09T09:07:53Z</time>
      </trkpt>
      <trkpt lat="44.5189" lon="2.27204">
        <ele>298.8</ele>
        <time>2011-08-09T09:07:54Z</time>
      </trkpt>
      <trkpt lat="44.51894" lon="2.27204">
        <ele>298.2</ele>
        <time>2011-08-09T09:07:55Z</time>
      </trkpt>
      <trkpt lat="44.51898" lon="2.27205">
        <ele>297.8</ele>
        <time>2011-08-09T09:07:56Z</time>
      </trkpt>
      <trkpt lat="44.51903" lon="2.27208">
        <ele>297.3</ele>
        <time>2011-08-09T09:07:57Z</time>
      </trkpt>
      <trkpt lat="44.51907" lon="2.27214">
        <ele>296.9</ele>
        <time>2011-08-09T09:07:58Z</time>
      </trkpt>
      <trkpt lat="44.51911" lon="2.27221">
        <ele>296.6</ele>
        <time>2011-08-09T09:07:59Z</time>
      </trkpt>
      <trkpt lat="44.51914" lon="2.27227">
        <ele>296.3</ele>
        <time>2011-08-09T09:08:00Z</time>
      </trkpt>
      <trkpt lat="44.51917" lon="2.27233">
        <ele>296.1</ele>
        <time>2011-08-09T09:08:01Z</time>
      </trkpt>
      <trkpt lat="44.51921" lon="2.27239">
        <ele>295.9</ele>
        <time>2011-08-09T09:08:02Z</time>
      </trkpt>
      <trkpt lat="44.51923" lon="2.27245">
        <ele>295.1</ele>
        <time>2011-08-09T09:08:03Z</time>
      </trkpt>
      <trkpt lat="44.51926" lon="2.27251">
        <ele>294.5</ele>
        <time>2011-08-09T09:08:04Z</time>
      </trkpt>
      <trkpt lat="44.51929" lon="2.27257">
        <ele>294</ele>
        <time>2011-08-09T09:08:05Z</time>
      </trkpt>
      <trkpt lat="44.51932" lon="2.27262">
        <ele>293.7</ele>
        <time>2011-08-09T09:08:06Z</time>
      </trkpt>
      <trkpt lat="44.51937" lon="2.27265">
        <ele>293.2</ele>
        <time>2011-08-09T09:08:07Z</time>
      </trkpt>
      <trkpt lat="44.51942" lon="2.27266">
        <ele>292.8</ele>
        <time>2011-08-09T09:08:08Z</time>
      </trkpt>
      <trkpt lat="44.51947" lon="2.27267">
        <ele>292.4</ele>
        <time>2011-08-09T09:08:09Z</time>
      </trkpt>
      <trkpt lat="44.51952" lon="2.27267">
        <ele>292.7</ele>
        <time>2011-08-09T09:08:10Z</time>
      </trkpt>
      <trkpt lat="44.51957" lon="2.27267">
        <ele>292.9</ele>
        <time>2011-08-09T09:08:11Z</time>
      </trkpt>
      <trkpt lat="44.51962" lon="2.27267">
        <ele>293.1</ele>
        <time>2011-08-09T09:08:12Z</time>
      </trkpt>
      <trkpt lat="44.51967" lon="2.27268">
        <ele>293.2</ele>
        <time>2011-08-09T09:08:13Z</time>
      </trkpt>
      <trkpt lat="44.51971" lon="2.2727">
        <ele>293.3</ele>
        <time>2011-08-09T09:08:14Z</time>
      </trkpt>
      <trkpt lat="44.51974" lon="2.27274">
        <ele>293.4</ele>
        <time>2011-08-09T09:08:15Z</time>
      </trkpt>
      <trkpt lat="44.51977" lon="2.27279">
        <ele>293</ele>
        <time>2011-08-09T09:08:16Z</time>
      </trkpt>
      <trkpt lat="44.51979" lon="2.27283">
        <ele>292.8</ele>
        <time>2011-08-09T09:08:17Z</time>
      </trkpt>
      <trkpt lat="44.51981" lon="2.27288">
        <ele>292.6</ele>
        <time>2011-08-09T09:08:18Z</time>
      </trkpt>
      <trkpt lat="44.51984" lon="2.27293">
        <ele>292.7</ele>
        <time>2011-08-09T09:08:19Z</time>
      </trkpt>
      <trkpt lat="44.51986" lon="2.27297">
        <ele>292.9</ele>
        <time>2011-08-09T09:08:20Z</time>
      </trkpt>
      <trkpt lat="44.51988" lon="2.27302">
        <ele>293</ele>
        <time>2011-08-09T09:08:21Z</time>
      </trkpt>
      <trkpt lat="44.5199" lon="2.27306">
        <ele>293.1</ele>
        <time>2011-08-09T09:08:22Z</time>
      </trkpt>
      <trkpt lat="44.51992" lon="2.2731">
        <ele>292.8</ele>
        <time>2011-08-09T09:08:23Z</time>
      </trkpt>
      <trkpt lat="44.51995" lon="2.27313">
        <ele>292.6</ele>
        <time>2011-08-09T09:08:24Z</time>
      </trkpt>
      <trkpt lat="44.51997" lon="2.27317">
        <ele>292.4</ele>
        <time>2011-08-09T09:08:25Z</time>
      </trkpt>
      <trkpt lat="44.51999" lon="2.27321">
        <ele>292.4</ele>
        <time>2011-08-09T09:08:26Z</time>
      </trkpt>
      <trkpt lat="44.52002" lon="2.27324">
        <ele>292.3</ele>
        <time>2011-08-09T09:08:27Z</time>
      </trkpt>
      <trkpt lat="44.52004" lon="2.27328">
        <ele>292.3</ele>
        <time>2011-08-09T09:08:28Z</time>
      </trkpt>
      <trkpt lat="44.52007" lon="2.27331">
        <ele>292.5</ele>
        <time>2011-08-09T09:08:29Z</time>
      </trkpt>
      <trkpt lat="44.5201" lon="2.27334">
        <ele>292.6</ele>
        <time>2011-08-09T09:08:30Z</time>
      </trkpt>
      <trkpt lat="44.52013" lon="2.27337">
        <ele>292.7</ele>
        <time>2011-08-09T09:08:31Z</time>
      </trkpt>
      <trkpt lat="44.52016" lon="2.2734">
        <ele>292.6</ele>
        <time>2011-08-09T09:08:32Z</time>
      </trkpt>
      <trkpt lat="44.52019" lon="2.27343">
        <ele>292.5</ele>
        <time>2011-08-09T09:08:33Z</time>
      </trkpt>
      <trkpt lat="44.52023" lon="2.27346">
        <ele>292.5</ele>
        <time>2011-08-09T09:08:34Z</time>
      </trkpt>
      <trkpt lat="44.52026" lon="2.27348">
        <ele>292.2</ele>
        <time>2011-08-09T09:08:35Z</time>
      </trkpt>
      <trkpt lat="44.5203" lon="2.27351">
        <ele>292</ele>
        <time>2011-08-09T09:08:36Z</time>
      </trkpt>
      <trkpt lat="44.52034" lon="2.27353">
        <ele>291.8</ele>
        <time>2011-08-09T09:08:37Z</time>
      </trkpt>
      <trkpt lat="44.52037" lon="2.27356">
        <ele>292</ele>
        <time>2011-08-09T09:08:38Z</time>
      </trkpt>
      <trkpt lat="44.52041" lon="2.27359">
        <ele>292.2</ele>
        <time>2011-08-09T09:08:39Z</time>
      </trkpt>
      <trkpt lat="44.52044" lon="2.27362">
        <ele>292.3</ele>
        <time>2011-08-09T09:08:40Z</time>
      </trkpt>
      <trkpt lat="44.52048" lon="2.27365">
        <ele>292.4</ele>
        <time>2011-08-09T09:08:41Z</time>
      </trkpt>
      <trkpt lat="44.52052" lon="2.27367">
        <ele>292.4</ele>
        <time>2011-08-09T09:08:42Z</time>
      </trkpt>
      <trkpt lat="44.52055" lon="2.27371">
        <ele>292.4</ele>
        <time>2011-08-09T09:08:43Z</time>
      </trkpt>
      <trkpt lat="44.52059" lon="2.27374">
        <ele>292.4</ele>
        <time>2011-08-09T09:08:44Z</time>
      </trkpt>
      <trkpt lat="44.52063" lon="2.27377">
        <ele>292.1</ele>
        <time>2011-08-09T09:08:45Z</time>
      </trkpt>
      <trkpt lat="44.52067" lon="2.27381">
        <ele>291.8</ele>
        <time>2011-08-09T09:08:46Z</time>
      </trkpt>
      <trkpt lat="44.5207" lon="2.27384">
        <ele>291.7</ele>
        <time>2011-08-09T09:08:47Z</time>
      </trkpt>
      <trkpt lat="44.52074" lon="2.27388">
        <ele>291.6</ele>
        <time>2011-08-09T09:08:48Z</time>
      </trkpt>
      <trkpt lat="44.52078" lon="2.27391">
        <ele>291.5</ele>
        <time>2011-08-09T09:08:49Z</time>
      </trkpt>
      <trkpt lat="44.52081" lon="2.27395">
        <ele>291.5</ele>
        <time>2011-08-09T09:08:50Z</time>
      </trkpt>
      <trkpt lat="44.52084" lon="2.27399">
        <ele>291.5</ele>
        <time>2011-08-09T09:08:51Z</time>
      </trkpt>
      <trkpt lat="44.52088" lon="2.27402">
        <ele>291.4</ele>
        <time>2011-08-09T09:08:52Z</time>
      </trkpt>
      <trkpt lat="44.52091" lon="2.27406">
        <ele>291.4</ele>
        <time>2011-08-09T09:08:53Z</time>
      </trkpt>
      <trkpt lat="44.52094" lon="2.2741">
        <ele>291.3</ele>
        <time>2011-08-09T09:08:54Z</time>
      </trkpt>
      <trkpt lat="44.52097" lon="2.27414">
        <ele>291.2</ele>
        <time>2011-08-09T09:08:55Z</time>
      </trkpt>
      <trkpt lat="44.521" lon="2.27418">
        <ele>291.1</ele>
        <time>2011-08-09T09:08:56Z</time>
      </trkpt>
      <trkpt lat="44.52103" lon="2.27422">
        <ele>291</ele>
        <time>2011-08-09T09:08:57Z</time>
      </trkpt>
      <trkpt lat="44.52106" lon="2.27427">
        <ele>290.8</ele>
        <time>2011-08-09T09:08:58Z</time>
      </trkpt>
      <trkpt lat="44.52109" lon="2.27431">
        <ele>290.6</ele>
        <time>2011-08-09T09:08:59Z</time>
      </trkpt>
      <trkpt lat="44.52111" lon="2.27436">
        <ele>290.5</ele>
        <time>2011-08-09T09:09:00Z</time>
      </trkpt>
      <trkpt lat="44.52114" lon="2.27441">
        <ele>290.4</ele>
        <time>2011-08-09T09:09:01Z</time>
      </trkpt>
      <trkpt lat="44.52116" lon="2.27446">
        <ele>290.4</ele>
        <time>2011-08-09T09:09:02Z</time>
      </trkpt>
      <trkpt lat="44.52119" lon="2.27451">
        <ele>290.4</ele>
        <time>2011-08-09T09:09:03Z</time>
      </trkpt>
      <trkpt lat="44.52121" lon="2.27455">
        <ele>290.7</ele>
        <time>2011-08-09T09:09:04Z</time>
      </trkpt>
      <trkpt lat="44.52123" lon="2.2746">
        <ele>290.9</ele>
        <time>2011-08-09T09:09:05Z</time>
      </trkpt>
      <trkpt lat="44.52125" lon="2.27466">
        <ele>291</ele>
        <time>2011-08-09T09:09:06Z</time>
      </trkpt>
      <trkpt lat="44.52127" lon="2.27471">
        <ele>290.6</ele>
        <time>2011-08-09T09:09:07Z</time>
      </trkpt>
      <trkpt lat="44.52128" lon="2.27476">
        <ele>290.3</ele>
        <time>2011-08-09T09:09:08Z</time>
      </trkpt>
      <trkpt lat="44.52129" lon="2.27482">
        <ele>290.1</ele>
        <time>2011-08-09T09:09:09Z</time>
      </trkpt>
      <trkpt lat="44.5213" lon="2.27487">
        <ele>290.4</ele>
        <time>2011-08-09T09:09:10Z</time>
      </trkpt>
      <trkpt lat="44.52131" lon="2.27493">
        <ele>290.7</ele>
        <time>2011-08-09T09:09:11Z</time>
      </trkpt>
      <trkpt lat="44.52132" lon="2.27498">
        <ele>290.8</ele>
        <time>2011-08-09T09:09:12Z</time>
      </trkpt>
      <trkpt lat="44.52133" lon="2.27504">
        <ele>291</ele>
        <time>2011-08-09T09:09:13Z</time>
      </trkpt>
      <trkpt lat="44.52133" lon="2.27509">
        <ele>291.1</ele>
        <time>2011-08-09T09:09:14Z</time>
      </trkpt>
      <trkpt lat="44.52134" lon="2.27515">
        <ele>291.2</ele>
        <time>2011-08-09T09:09:15Z</time>
      </trkpt>
      <trkpt lat="44.52134" lon="2.27521">
        <ele>291.3</ele>
        <time>2011-08-09T09:09:16Z</time>
      </trkpt>
      <trkpt lat="44.52135" lon="2.27526">
        <ele>291.4</ele>
        <time>2011-08-09T09:09:17Z</time>
      </trkpt>
      <trkpt lat="44.52135" lon="2.27532">
        <ele>291.5</ele>
        <time>2011-08-09T09:09:18Z</time>
      </trkpt>
      <trkpt lat="44.52136" lon="2.27537">
        <ele>291.6</ele>
        <time>2011-08-09T09:09:19Z</time>
      </trkpt>
      <trkpt lat="44.52137" lon="2.27543">
        <ele>291.5</ele>
        <time>2011-08-09T09:09:20Z</time>
      </trkpt>
      <trkpt lat="44.52137" lon="2.27548">
        <ele>291.5</ele>
        <time>2011-08-09T09:09:21Z</time>
      </trkpt>
      <trkpt lat="44.52138" lon="2.27554">
        <ele>291.4</ele>
        <time>2011-08-09T09:09:22Z</time>
      </trkpt>
      <trkpt lat="44.52138" lon="2.27559">
        <ele>291.6</ele>
        <time>2011-08-09T09:09:23Z</time>
      </trkpt>
      <trkpt lat="44.52139" lon="2.27565">
        <ele>291.8</ele>
        <time>2011-08-09T09:09:24Z</time>
      </trkpt>
      <trkpt lat="44.5214" lon="2.2757">
        <ele>291.9</ele>
        <time>2011-08-09T09:09:25Z</time>
      </trkpt>
      <trkpt lat="44.52141" lon="2.27576">
        <ele>291.7</ele>
        <time>2011-08-09T09:09:26Z</time>
      </trkpt>
      <trkpt lat="44.52142" lon="2.27581">
        <ele>291.6</ele>
        <time>2011-08-09T09:09:27Z</time>
      </trkpt>
      <trkpt lat="44.52143" lon="2.27586">
        <ele>291.5</ele>
        <time>2011-08-09T09:09:28Z</time>
      </trkpt>
      <trkpt lat="44.52144" lon="2.27592">
        <ele>291.4</ele>
        <time>2011-08-09T09:09:29Z</time>
      </trkpt>
      <trkpt lat="44.52145" lon="2.27597">
        <ele>291.8</ele>
        <time>2011-08-09T09:09:30Z</time>
      </trkpt>
      <trkpt lat="44.52147" lon="2.27602">
        <ele>292.2</ele>
        <time>2011-08-09T09:09:31Z</time>
      </trkpt>
      <trkpt lat="44.52148" lon="2.27607">
        <ele>292.4</ele>
        <time>2011-08-09T09:09:32Z</time>
      </trkpt>
      <trkpt lat="44.5215" lon="2.27612">
        <ele>292.7</ele>
        <time>2011-08-09T09:09:33Z</time>
      </trkpt>
      <trkpt lat="44.52151" lon="2.27618">
        <ele>292.8</ele>
        <time>2011-08-09T09:09:34Z</time>
      </trkpt>
      <trkpt lat="44.52153" lon="2.27623">
        <ele>293</ele>
        <time>2011-08-09T09:09:35Z</time>
      </trkpt>
      <trkpt lat="44.52154" lon="2.27628">
        <ele>293.2</ele>
        <time>2011-08-09T09:09:36Z</time>
      </trkpt>
      <trkpt lat="44.52156" lon="2.27633">
        <ele>293.4</ele>
        <time>2011-08-09T09:09:37Z</time>
      </trkpt>
      <trkpt lat="44.52158" lon="2.27638">
        <ele>293.5</ele>
        <time>2011-08-09T09:09:38Z</time>
      </trkpt>
      <trkpt lat="44.52159" lon="2.27643">
        <ele>293.6</ele>
        <time>2011-08-09T09:09:39Z</time>
      </trkpt>
      <trkpt lat="44.52161" lon="2.27648">
        <ele>293.6</ele>
        <time>2011-08-09T09:09:40Z</time>
      </trkpt>
      <trkpt lat="44.52163" lon="2.27653">
        <ele>293.6</ele>
        <time>2011-08-09T09:09:41Z</time>
      </trkpt>
      <trkpt lat="44.52164" lon="2.27659">
        <ele>293.9</ele>
        <time>2011-08-09T09:09:42Z</time>
      </trkpt>
      <trkpt lat="44.52166" lon="2.27663">
        <ele>294.1</ele>
        <time>2011-08-09T09:09:43Z</time>
      </trkpt>
      <trkpt lat="44.52168" lon="2.27668">
        <ele>294.3</ele>
        <time>2011-08-09T09:09:44Z</time>
      </trkpt>
      <trkpt lat="44.52169" lon="2.27673">
        <ele>294.4</ele>
        <time>2011-08-09T09:09:45Z</time>
      </trkpt>
      <trkpt lat="44.52171" lon="2.27678">
        <ele>293.8</ele>
        <time>2011-08-09T09:09:46Z</time>
      </trkpt>
      <trkpt lat="44.52172" lon="2.27683">
        <ele>293.3</ele>
        <time>2011-08-09T09:09:47Z</time>
      </trkpt>
      <trkpt lat="44.52174" lon="2.27688">
        <ele>293</ele>
        <time>2011-08-09T09:09:48Z</time>
      </trkpt>
      <trkpt lat="44.52175" lon="2.27693">
        <ele>293.1</ele>
        <time>2011-08-09T09:09:49Z</time>
      </trkpt>
      <trkpt lat="44.52177" lon="2.27698">
        <ele>293.2</ele>
        <time>2011-08-09T09:09:50Z</time>
      </trkpt>
      <trkpt lat="44.52178" lon="2.27703">
        <ele>293.2</ele>
        <time>2011-08-09T09:09:51Z</time>
      </trkpt>
      <trkpt lat="44.5218" lon="2.27708">
        <ele>293.6</ele>
        <time>2011-08-09T09:09:52Z</time>
      </trkpt>
      <trkpt lat="44.52181" lon="2.27713">
        <ele>293.9</ele>
        <time>2011-08-09T09:09:53Z</time>
      </trkpt>
      <trkpt lat="44.52182" lon="2.27718">
        <ele>294.1</ele>
        <time>2011-08-09T09:09:54Z</time>
      </trkpt>
      <trkpt lat="44.52183" lon="2.27724">
        <ele>293.9</ele>
        <time>2011-08-09T09:09:55Z</time>
      </trkpt>
      <trkpt lat="44.52183" lon="2.27729">
        <ele>293.7</ele>
        <time>2011-08-09T09:09:56Z</time>
      </trkpt>
      <trkpt lat="44.52184" lon="2.27733">
        <ele>293.6</ele>
        <time>2011-08-09T09:09:57Z</time>
      </trkpt>
      <trkpt lat="44.52184" lon="2.27738">
        <ele>293.5</ele>
        <time>2011-08-09T09:09:58Z</time>
      </trkpt>
      <trkpt lat="44.52184" lon="2.27742">
        <ele>293.3</ele>
        <time>2011-08-09T09:09:59Z</time>
      </trkpt>
      <trkpt lat="44.52184" lon="2.27746">
        <ele>293.3</ele>
        <time>2011-08-09T09:10:00Z</time>
      </trkpt>
      <trkpt lat="44.52184" lon="2.2775">
        <ele>293.2</ele>
        <time>2011-08-09T09:10:01Z</time>
      </trkpt>
      <trkpt lat="44.52184" lon="2.27753">
        <ele>293.5</ele>
        <time>2011-08-09T09:10:02Z</time>
      </trkpt>
      <trkpt lat="44.52184" lon="2.2776">
        <ele>293.8</ele>
        <time>2011-08-09T09:10:04Z</time>
      </trkpt>
      <trkpt lat="44.52184" lon="2.27763">
        <ele>294</ele>
        <time>2011-08-09T09:10:05Z</time>
      </trkpt>
      <trkpt lat="44.52184" lon="2.27766">
        <ele>294.1</ele>
        <time>2011-08-09T09:10:06Z</time>
      </trkpt>
      <trkpt lat="44.52184" lon="2.2777">
        <ele>294.1</ele>
        <time>2011-08-09T09:10:07Z</time>
      </trkpt>
      <trkpt lat="44.52184" lon="2.27773">
        <ele>294.3</ele>
        <time>2011-08-09T09:10:08Z</time>
      </trkpt>
      <trkpt lat="44.52184" lon="2.27777">
        <ele>294.4</ele>
        <time>2011-08-09T09:10:09Z</time>
      </trkpt>
      <trkpt lat="44.52184" lon="2.27782">
        <ele>294.5</ele>
        <time>2011-08-09T09:10:10Z</time>
      </trkpt>
      <trkpt lat="44.52184" lon="2.27787">
        <ele>294.3</ele>
        <time>2011-08-09T09:10:11Z</time>
      </trkpt>
      <trkpt lat="44.52184" lon="2.27793">
        <ele>294.2</ele>
        <time>2011-08-09T09:10:12Z</time>
      </trkpt>
      <trkpt lat="44.52186" lon="2.27799">
        <ele>294.1</ele>
        <time>2011-08-09T09:10:13Z</time>
      </trkpt>
      <trkpt lat="44.52187" lon="2.27804">
        <ele>293.8</ele>
        <time>2011-08-09T09:10:14Z</time>
      </trkpt>
      <trkpt lat="44.52189" lon="2.2781">
        <ele>293.5</ele>
        <time>2011-08-09T09:10:15Z</time>
      </trkpt>
      <trkpt lat="44.52191" lon="2.27816">
        <ele>293.4</ele>
        <time>2011-08-09T09:10:16Z</time>
      </trkpt>
      <trkpt lat="44.52192" lon="2.27821">
        <ele>292.2</ele>
        <time>2011-08-09T09:10:17Z</time>
      </trkpt>
      <trkpt lat="44.52194" lon="2.27826">
        <ele>291.3</ele>
        <time>2011-08-09T09:10:18Z</time>
      </trkpt>
      <trkpt lat="44.52196" lon="2.27829">
        <ele>290.7</ele>
        <time>2011-08-09T09:10:19Z</time>
      </trkpt>
      <trkpt lat="44.522" lon="2.27832">
        <ele>290.2</ele>
        <time>2011-08-09T09:10:20Z</time>
      </trkpt>
      <trkpt lat="44.52204" lon="2.27832">
        <ele>289.7</ele>
        <time>2011-08-09T09:10:21Z</time>
      </trkpt>
      <trkpt lat="44.52208" lon="2.2783">
        <ele>289.3</ele>
        <time>2011-08-09T09:10:22Z</time>
      </trkpt>
      <trkpt lat="44.52212" lon="2.27829">
        <ele>289.1</ele>
        <time>2011-08-09T09:10:23Z</time>
      </trkpt>
      <trkpt lat="44.52215" lon="2.27828">
        <ele>288.4</ele>
        <time>2011-08-09T09:10:24Z</time>
      </trkpt>
      <trkpt lat="44.52219" lon="2.27828">
        <ele>287.8</ele>
        <time>2011-08-09T09:10:25Z</time>
      </trkpt>
      <trkpt lat="44.52222" lon="2.27831">
        <ele>287.4</ele>
        <time>2011-08-09T09:10:26Z</time>
      </trkpt>
      <trkpt lat="44.52224" lon="2.27837">
        <ele>287.3</ele>
        <time>2011-08-09T09:10:27Z</time>
      </trkpt>
      <trkpt lat="44.52225" lon="2.27843">
        <ele>287.1</ele>
        <time>2011-08-09T09:10:28Z</time>
      </trkpt>
      <trkpt lat="44.52226" lon="2.27849">
        <ele>287</ele>
        <time>2011-08-09T09:10:29Z</time>
      </trkpt>
      <trkpt lat="44.52228" lon="2.27855">
        <ele>286.8</ele>
        <time>2011-08-09T09:10:30Z</time>
      </trkpt>
      <trkpt lat="44.52229" lon="2.27862">
        <ele>286.6</ele>
        <time>2011-08-09T09:10:31Z</time>
      </trkpt>
      <trkpt lat="44.5223" lon="2.27869">
        <ele>286.4</ele>
        <time>2011-08-09T09:10:32Z</time>
      </trkpt>
      <trkpt lat="44.52231" lon="2.27875">
        <ele>286.2</ele>
        <time>2011-08-09T09:10:33Z</time>
      </trkpt>
      <trkpt lat="44.52232" lon="2.27882">
        <ele>286.1</ele>
        <time>2011-08-09T09:10:34Z</time>
      </trkpt>
      <trkpt lat="44.52234" lon="2.27888">
        <ele>286</ele>
        <time>2011-08-09T09:10:35Z</time>
      </trkpt>
      <trkpt lat="44.52237" lon="2.27893">
        <ele>285.9</ele>
        <time>2011-08-09T09:10:36Z</time>
      </trkpt>
      <trkpt lat="44.52242" lon="2.27895">
        <ele>286</ele>
        <time>2011-08-09T09:10:37Z</time>
      </trkpt>
      <trkpt lat="44.52247" lon="2.27897">
        <ele>286.1</ele>
        <time>2011-08-09T09:10:38Z</time>
      </trkpt>
      <trkpt lat="44.52251" lon="2.27898">
        <ele>286.2</ele>
        <time>2011-08-09T09:10:39Z</time>
      </trkpt>
      <trkpt lat="44.52255" lon="2.27898">
        <ele>286</ele>
        <time>2011-08-09T09:10:40Z</time>
      </trkpt>
      <trkpt lat="44.52259" lon="2.27898">
        <ele>286</ele>
        <time>2011-08-09T09:10:41Z</time>
      </trkpt>
      <trkpt lat="44.52263" lon="2.27897">
        <ele>285.9</ele>
        <time>2011-08-09T09:10:42Z</time>
      </trkpt>
      <trkpt lat="44.52266" lon="2.27897">
        <ele>286.5</ele>
        <time>2011-08-09T09:10:43Z</time>
      </trkpt>
      <trkpt lat="44.5227" lon="2.27896">
        <ele>287</ele>
        <time>2011-08-09T09:10:44Z</time>
      </trkpt>
      <trkpt lat="44.52273" lon="2.27895">
        <ele>287.3</ele>
        <time>2011-08-09T09:10:45Z</time>
      </trkpt>
      <trkpt lat="44.52277" lon="2.27894">
        <ele>287.3</ele>
        <time>2011-08-09T09:10:46Z</time>
      </trkpt>
      <trkpt lat="44.5228" lon="2.27893">
        <ele>287.2</ele>
        <time>2011-08-09T09:10:47Z</time>
      </trkpt>
      <trkpt lat="44.52284" lon="2.27893">
        <ele>287.2</ele>
        <time>2011-08-09T09:10:48Z</time>
      </trkpt>
      <trkpt lat="44.52288" lon="2.27892">
        <ele>287.4</ele>
        <time>2011-08-09T09:10:49Z</time>
      </trkpt>
      <trkpt lat="44.52291" lon="2.27891">
        <ele>287.6</ele>
        <time>2011-08-09T09:10:50Z</time>
      </trkpt>
      <trkpt lat="44.52295" lon="2.27891">
        <ele>287.8</ele>
        <time>2011-08-09T09:10:51Z</time>
      </trkpt>
      <trkpt lat="44.52298" lon="2.27891">
        <ele>287.9</ele>
        <time>2011-08-09T09:10:52Z</time>
      </trkpt>
      <trkpt lat="44.52302" lon="2.27891">
        <ele>288.1</ele>
        <time>2011-08-09T09:10:53Z</time>
      </trkpt>
      <trkpt lat="44.52306" lon="2.27891">
        <ele>288.4</ele>
        <time>2011-08-09T09:10:54Z</time>
      </trkpt>
      <trkpt lat="44.52309" lon="2.27891">
        <ele>288.5</ele>
        <time>2011-08-09T09:10:55Z</time>
      </trkpt>
      <trkpt lat="44.52313" lon="2.27892">
        <ele>288.4</ele>
        <time>2011-08-09T09:10:56Z</time>
      </trkpt>
      <trkpt lat="44.52316" lon="2.27893">
        <ele>288.3</ele>
        <time>2011-08-09T09:10:57Z</time>
      </trkpt>
      <trkpt lat="44.5232" lon="2.27893">
        <ele>288.2</ele>
        <time>2011-08-09T09:10:58Z</time>
      </trkpt>
      <trkpt lat="44.52323" lon="2.27894">
        <ele>288.2</ele>
        <time>2011-08-09T09:10:59Z</time>
      </trkpt>
      <trkpt lat="44.52326" lon="2.27895">
        <ele>288.3</ele>
        <time>2011-08-09T09:11:00Z</time>
      </trkpt>
      <trkpt lat="44.5233" lon="2.27896">
        <ele>288.3</ele>
        <time>2011-08-09T09:11:01Z</time>
      </trkpt>
      <trkpt lat="44.52333" lon="2.27897">
        <ele>288.3</ele>
        <time>2011-08-09T09:11:02Z</time>
      </trkpt>
      <trkpt lat="44.52337" lon="2.27898">
        <ele>288.3</ele>
        <time>2011-08-09T09:11:03Z</time>
      </trkpt>
      <trkpt lat="44.5234" lon="2.279">
        <ele>288.3</ele>
        <time>2011-08-09T09:11:04Z</time>
      </trkpt>
      <trkpt lat="44.52343" lon="2.27901">
        <ele>288.6</ele>
        <time>2011-08-09T09:11:05Z</time>
      </trkpt>
      <trkpt lat="44.52347" lon="2.27902">
        <ele>288.7</ele>
        <time>2011-08-09T09:11:06Z</time>
      </trkpt>
      <trkpt lat="44.5235" lon="2.27903">
        <ele>288.9</ele>
        <time>2011-08-09T09:11:07Z</time>
      </trkpt>
      <trkpt lat="44.52353" lon="2.27904">
        <ele>289</ele>
        <time>2011-08-09T09:11:08Z</time>
      </trkpt>
      <trkpt lat="44.52357" lon="2.27905">
        <ele>289</ele>
        <time>2011-08-09T09:11:09Z</time>
      </trkpt>
      <trkpt lat="44.5236" lon="2.27906">
        <ele>289</ele>
        <time>2011-08-09T09:11:10Z</time>
      </trkpt>
      <trkpt lat="44.52364" lon="2.27906">
        <ele>289</ele>
        <time>2011-08-09T09:11:11Z</time>
      </trkpt>
      <trkpt lat="44.52367" lon="2.27906">
        <ele>289.1</ele>
        <time>2011-08-09T09:11:12Z</time>
      </trkpt>
      <trkpt lat="44.52369" lon="2.27906">
        <ele>289.1</ele>
        <time>2011-08-09T09:11:13Z</time>
      </trkpt>
      <trkpt lat="44.52372" lon="2.27908">
        <ele>289.1</ele>
        <time>2011-08-09T09:11:14Z</time>
      </trkpt>
      <trkpt lat="44.52374" lon="2.27909">
        <ele>289.4</ele>
        <time>2011-08-09T09:11:15Z</time>
      </trkpt>
      <trkpt lat="44.52376" lon="2.27911">
        <ele>289.7</ele>
        <time>2011-08-09T09:11:16Z</time>
      </trkpt>
      <trkpt lat="44.52379" lon="2.27912">
        <ele>289.9</ele>
        <time>2011-08-09T09:11:17Z</time>
      </trkpt>
      <trkpt lat="44.52381" lon="2.27914">
        <ele>289.7</ele>
        <time>2011-08-09T09:11:18Z</time>
      </trkpt>
      <trkpt lat="44.52384" lon="2.27916">
        <ele>289.5</ele>
        <time>2011-08-09T09:11:19Z</time>
      </trkpt>
      <trkpt lat="44.52389" lon="2.27918">
        <ele>289.4</ele>
        <time>2011-08-09T09:11:20Z</time>
      </trkpt>
      <trkpt lat="44.52394" lon="2.2792">
        <ele>288.8</ele>
        <time>2011-08-09T09:11:21Z</time>
      </trkpt>
      <trkpt lat="44.52399" lon="2.27923">
        <ele>288.3</ele>
        <time>2011-08-09T09:11:22Z</time>
      </trkpt>
      <trkpt lat="44.52404" lon="2.27925">
        <ele>288</ele>
        <time>2011-08-09T09:11:23Z</time>
      </trkpt>
      <trkpt lat="44.52408" lon="2.27927">
        <ele>287.8</ele>
        <time>2011-08-09T09:11:24Z</time>
      </trkpt>
      <trkpt lat="44.52412" lon="2.27929">
        <ele>286.7</ele>
        <time>2011-08-09T09:11:25Z</time>
      </trkpt>
      <trkpt lat="44.52415" lon="2.2793">
        <ele>285.9</ele>
        <time>2011-08-09T09:11:26Z</time>
      </trkpt>
      <trkpt lat="44.52418" lon="2.2793">
        <ele>285.3</ele>
        <time>2011-08-09T09:11:27Z</time>
      </trkpt>
      <trkpt lat="44.52421" lon="2.27932">
        <ele>283.4</ele>
        <time>2011-08-09T09:11:29Z</time>
      </trkpt>
      <trkpt lat="44.52425" lon="2.27933">
        <ele>282.1</ele>
        <time>2011-08-09T09:11:31Z</time>
      </trkpt>
      <trkpt lat="44.52429" lon="2.27935">
        <ele>281.4</ele>
        <time>2011-08-09T09:11:33Z</time>
      </trkpt>
      <trkpt lat="44.5243" lon="2.27936">
        <ele>281</ele>
        <time>2011-08-09T09:11:34Z</time>
      </trkpt>
      <trkpt lat="44.52433" lon="2.27943">
        <ele>279.4</ele>
        <time>2011-08-09T09:11:38Z</time>
      </trkpt>
      <trkpt lat="44.52433" lon="2.27948">
        <ele>278.3</ele>
        <time>2011-08-09T09:11:40Z</time>
      </trkpt>
      <trkpt lat="44.52433" lon="2.2795">
        <ele>277.8</ele>
        <time>2011-08-09T09:11:41Z</time>
      </trkpt>
      <trkpt lat="44.52433" lon="2.27954">
        <ele>277.4</ele>
        <time>2011-08-09T09:11:42Z</time>
      </trkpt>
      <trkpt lat="44.52432" lon="2.2796">
        <ele>277.1</ele>
        <time>2011-08-09T09:11:43Z</time>
      </trkpt>
      <trkpt lat="44.52431" lon="2.27966">
        <ele>276.3</ele>
        <time>2011-08-09T09:11:44Z</time>
      </trkpt>
      <trkpt lat="44.52431" lon="2.27974">
        <ele>275.7</ele>
        <time>2011-08-09T09:11:45Z</time>
      </trkpt>
      <trkpt lat="44.52432" lon="2.27983">
        <ele>275.2</ele>
        <time>2011-08-09T09:11:46Z</time>
      </trkpt>
      <trkpt lat="44.52433" lon="2.27992">
        <ele>274.2</ele>
        <time>2011-08-09T09:11:47Z</time>
      </trkpt>
      <trkpt lat="44.52434" lon="2.28001">
        <ele>273.5</ele>
        <time>2011-08-09T09:11:48Z</time>
      </trkpt>
      <trkpt lat="44.52436" lon="2.28009">
        <ele>273</ele>
        <time>2011-08-09T09:11:49Z</time>
      </trkpt>
      <trkpt lat="44.52438" lon="2.28017">
        <ele>272.2</ele>
        <time>2011-08-09T09:11:50Z</time>
      </trkpt>
      <trkpt lat="44.52439" lon="2.28026">
        <ele>271.6</ele>
        <time>2011-08-09T09:11:51Z</time>
      </trkpt>
      <trkpt lat="44.52441" lon="2.28034">
        <ele>271.1</ele>
        <time>2011-08-09T09:11:52Z</time>
      </trkpt>
      <trkpt lat="44.52443" lon="2.28042">
        <ele>270.9</ele>
        <time>2011-08-09T09:11:53Z</time>
      </trkpt>
      <trkpt lat="44.52445" lon="2.28049">
        <ele>270.7</ele>
        <time>2011-08-09T09:11:54Z</time>
      </trkpt>
      <trkpt lat="44.52447" lon="2.28057">
        <ele>270.6</ele>
        <time>2011-08-09T09:11:55Z</time>
      </trkpt>
      <trkpt lat="44.52449" lon="2.28064">
        <ele>270.4</ele>
        <time>2011-08-09T09:11:56Z</time>
      </trkpt>
      <trkpt lat="44.52451" lon="2.28071">
        <ele>270.3</ele>
        <time>2011-08-09T09:11:57Z</time>
      </trkpt>
      <trkpt lat="44.52452" lon="2.28077">
        <ele>270.1</ele>
        <time>2011-08-09T09:11:58Z</time>
      </trkpt>
      <trkpt lat="44.52453" lon="2.28083">
        <ele>270.1</ele>
        <time>2011-08-09T09:11:59Z</time>
      </trkpt>
      <trkpt lat="44.52454" lon="2.28089">
        <ele>270</ele>
        <time>2011-08-09T09:12:00Z</time>
      </trkpt>
      <trkpt lat="44.52455" lon="2.28096">
        <ele>269.9</ele>
        <time>2011-08-09T09:12:01Z</time>
      </trkpt>
      <trkpt lat="44.52456" lon="2.28103">
        <ele>269.8</ele>
        <time>2011-08-09T09:12:02Z</time>
      </trkpt>
      <trkpt lat="44.52457" lon="2.2811">
        <ele>269.8</ele>
        <time>2011-08-09T09:12:03Z</time>
      </trkpt>
      <trkpt lat="44.52458" lon="2.28117">
        <ele>269.8</ele>
        <time>2011-08-09T09:12:04Z</time>
      </trkpt>
      <trkpt lat="44.5246" lon="2.28124">
        <ele>269.8</ele>
        <time>2011-08-09T09:12:05Z</time>
      </trkpt>
      <trkpt lat="44.52462" lon="2.28131">
        <ele>269.9</ele>
        <time>2011-08-09T09:12:06Z</time>
      </trkpt>
      <trkpt lat="44.52464" lon="2.28137">
        <ele>269.9</ele>
        <time>2011-08-09T09:12:07Z</time>
      </trkpt>
      <trkpt lat="44.52466" lon="2.28143">
        <ele>270</ele>
        <time>2011-08-09T09:12:08Z</time>
      </trkpt>
      <trkpt lat="44.52468" lon="2.2815">
        <ele>270</ele>
        <time>2011-08-09T09:12:09Z</time>
      </trkpt>
      <trkpt lat="44.52471" lon="2.28157">
        <ele>270</ele>
        <time>2011-08-09T09:12:10Z</time>
      </trkpt>
      <trkpt lat="44.52474" lon="2.28163">
        <ele>270</ele>
        <time>2011-08-09T09:12:11Z</time>
      </trkpt>
      <trkpt lat="44.52477" lon="2.28169">
        <ele>269.8</ele>
        <time>2011-08-09T09:12:12Z</time>
      </trkpt>
      <trkpt lat="44.52479" lon="2.28175">
        <ele>269.7</ele>
        <time>2011-08-09T09:12:13Z</time>
      </trkpt>
      <trkpt lat="44.52481" lon="2.28182">
        <ele>269.6</ele>
        <time>2011-08-09T09:12:14Z</time>
      </trkpt>
      <trkpt lat="44.52484" lon="2.28188">
        <ele>269.5</ele>
        <time>2011-08-09T09:12:15Z</time>
      </trkpt>
      <trkpt lat="44.52487" lon="2.28194">
        <ele>269.5</ele>
        <time>2011-08-09T09:12:16Z</time>
      </trkpt>
      <trkpt lat="44.52489" lon="2.282">
        <ele>269.4</ele>
        <time>2011-08-09T09:12:17Z</time>
      </trkpt>
      <trkpt lat="44.52492" lon="2.28206">
        <ele>269.4</ele>
        <time>2011-08-09T09:12:18Z</time>
      </trkpt>
      <trkpt lat="44.52495" lon="2.28212">
        <ele>269.6</ele>
        <time>2011-08-09T09:12:19Z</time>
      </trkpt>
      <trkpt lat="44.52497" lon="2.28218">
        <ele>269.8</ele>
        <time>2011-08-09T09:12:20Z</time>
      </trkpt>
      <trkpt lat="44.525" lon="2.28224">
        <ele>269.9</ele>
        <time>2011-08-09T09:12:21Z</time>
      </trkpt>
      <trkpt lat="44.52501" lon="2.2823">
        <ele>269.7</ele>
        <time>2011-08-09T09:12:22Z</time>
      </trkpt>
      <trkpt lat="44.52501" lon="2.28236">
        <ele>269.6</ele>
        <time>2011-08-09T09:12:23Z</time>
      </trkpt>
      <trkpt lat="44.52502" lon="2.28243">
        <ele>269.5</ele>
        <time>2011-08-09T09:12:24Z</time>
      </trkpt>
      <trkpt lat="44.52502" lon="2.28249">
        <ele>269.8</ele>
        <time>2011-08-09T09:12:25Z</time>
      </trkpt>
      <trkpt lat="44.52502" lon="2.28256">
        <ele>270</ele>
        <time>2011-08-09T09:12:26Z</time>
      </trkpt>
      <trkpt lat="44.52501" lon="2.28262">
        <ele>270.1</ele>
        <time>2011-08-09T09:12:27Z</time>
      </trkpt>
      <trkpt lat="44.52501" lon="2.28268">
        <ele>270.1</ele>
        <time>2011-08-09T09:12:28Z</time>
      </trkpt>
      <trkpt lat="44.525" lon="2.28274">
        <ele>270.2</ele>
        <time>2011-08-09T09:12:29Z</time>
      </trkpt>
      <trkpt lat="44.525" lon="2.2828">
        <ele>270.2</ele>
        <time>2011-08-09T09:12:30Z</time>
      </trkpt>
      <trkpt lat="44.525" lon="2.28286">
        <ele>269.8</ele>
        <time>2011-08-09T09:12:31Z</time>
      </trkpt>
      <trkpt lat="44.52499" lon="2.28292">
        <ele>269.4</ele>
        <time>2011-08-09T09:12:32Z</time>
      </trkpt>
      <trkpt lat="44.52498" lon="2.28298">
        <ele>269.2</ele>
        <time>2011-08-09T09:12:33Z</time>
      </trkpt>
      <trkpt lat="44.52498" lon="2.28304">
        <ele>269</ele>
        <time>2011-08-09T09:12:34Z</time>
      </trkpt>
      <trkpt lat="44.52497" lon="2.2831">
        <ele>268.9</ele>
        <time>2011-08-09T09:12:35Z</time>
      </trkpt>
      <trkpt lat="44.52497" lon="2.28316">
        <ele>268.8</ele>
        <time>2011-08-09T09:12:36Z</time>
      </trkpt>
      <trkpt lat="44.52497" lon="2.28322">
        <ele>268.7</ele>
        <time>2011-08-09T09:12:37Z</time>
      </trkpt>
      <trkpt lat="44.52497" lon="2.28328">
        <ele>268.8</ele>
        <time>2011-08-09T09:12:38Z</time>
      </trkpt>
      <trkpt lat="44.52497" lon="2.28335">
        <ele>268.9</ele>
        <time>2011-08-09T09:12:39Z</time>
      </trkpt>
      <trkpt lat="44.52496" lon="2.28343">
        <ele>268.9</ele>
        <time>2011-08-09T09:12:40Z</time>
      </trkpt>
      <trkpt lat="44.52496" lon="2.2835">
        <ele>268.8</ele>
        <time>2011-08-09T09:12:41Z</time>
      </trkpt>
      <trkpt lat="44.52496" lon="2.28357">
        <ele>268.8</ele>
        <time>2011-08-09T09:12:42Z</time>
      </trkpt>
      <trkpt lat="44.52496" lon="2.28363">
        <ele>268.8</ele>
        <time>2011-08-09T09:12:43Z</time>
      </trkpt>
      <trkpt lat="44.52496" lon="2.2837">
        <ele>268.6</ele>
        <time>2011-08-09T09:12:44Z</time>
      </trkpt>
      <trkpt lat="44.52496" lon="2.28377">
        <ele>268.5</ele>
        <time>2011-08-09T09:12:45Z</time>
      </trkpt>
      <trkpt lat="44.52496" lon="2.28384">
        <ele>268.4</ele>
        <time>2011-08-09T09:12:46Z</time>
      </trkpt>
      <trkpt lat="44.52496" lon="2.2839">
        <ele>268.6</ele>
        <time>2011-08-09T09:12:47Z</time>
      </trkpt>
      <trkpt lat="44.52496" lon="2.28396">
        <ele>268.8</ele>
        <time>2011-08-09T09:12:48Z</time>
      </trkpt>
      <trkpt lat="44.52496" lon="2.28403">
        <ele>268.9</ele>
        <time>2011-08-09T09:12:49Z</time>
      </trkpt>
      <trkpt lat="44.52496" lon="2.28409">
        <ele>269</ele>
        <time>2011-08-09T09:12:50Z</time>
      </trkpt>
      <trkpt lat="44.52496" lon="2.28415">
        <ele>269.4</ele>
        <time>2011-08-09T09:12:51Z</time>
      </trkpt>
      <trkpt lat="44.52496" lon="2.2842">
        <ele>269.7</ele>
        <time>2011-08-09T09:12:52Z</time>
      </trkpt>
      <trkpt lat="44.52496" lon="2.28426">
        <ele>269.9</ele>
        <time>2011-08-09T09:12:53Z</time>
      </trkpt>
      <trkpt lat="44.52495" lon="2.28432">
        <ele>269.7</ele>
        <time>2011-08-09T09:12:54Z</time>
      </trkpt>
      <trkpt lat="44.52495" lon="2.28438">
        <ele>269.6</ele>
        <time>2011-08-09T09:12:55Z</time>
      </trkpt>
      <trkpt lat="44.52494" lon="2.28444">
        <ele>269.5</ele>
        <time>2011-08-09T09:12:56Z</time>
      </trkpt>
      <trkpt lat="44.52494" lon="2.2845">
        <ele>269.5</ele>
        <time>2011-08-09T09:12:57Z</time>
      </trkpt>
      <trkpt lat="44.52493" lon="2.28455">
        <ele>269.6</ele>
        <time>2011-08-09T09:12:58Z</time>
      </trkpt>
      <trkpt lat="44.52492" lon="2.28459">
        <ele>269.6</ele>
        <time>2011-08-09T09:12:59Z</time>
      </trkpt>
      <trkpt lat="44.52491" lon="2.28464">
        <ele>269.6</ele>
        <time>2011-08-09T09:13:00Z</time>
      </trkpt>
      <trkpt lat="44.52491" lon="2.28468">
        <ele>269.7</ele>
        <time>2011-08-09T09:13:01Z</time>
      </trkpt>
      <trkpt lat="44.5249" lon="2.28473">
        <ele>269.7</ele>
        <time>2011-08-09T09:13:02Z</time>
      </trkpt>
      <trkpt lat="44.52489" lon="2.28477">
        <ele>269.8</ele>
        <time>2011-08-09T09:13:03Z</time>
      </trkpt>
      <trkpt lat="44.52489" lon="2.28482">
        <ele>269.9</ele>
        <time>2011-08-09T09:13:04Z</time>
      </trkpt>
      <trkpt lat="44.52488" lon="2.28487">
        <ele>269.9</ele>
        <time>2011-08-09T09:13:05Z</time>
      </trkpt>
      <trkpt lat="44.52488" lon="2.28492">
        <ele>270</ele>
        <time>2011-08-09T09:13:06Z</time>
      </trkpt>
      <trkpt lat="44.52487" lon="2.28497">
        <ele>269.9</ele>
        <time>2011-08-09T09:13:07Z</time>
      </trkpt>
      <trkpt lat="44.52486" lon="2.28502">
        <ele>269.8</ele>
        <time>2011-08-09T09:13:08Z</time>
      </trkpt>
      <trkpt lat="44.52485" lon="2.28507">
        <ele>269.7</ele>
        <time>2011-08-09T09:13:09Z</time>
      </trkpt>
      <trkpt lat="44.52484" lon="2.28512">
        <ele>269.9</ele>
        <time>2011-08-09T09:13:10Z</time>
      </trkpt>
      <trkpt lat="44.52484" lon="2.28517">
        <ele>270.1</ele>
        <time>2011-08-09T09:13:11Z</time>
      </trkpt>
      <trkpt lat="44.52483" lon="2.28522">
        <ele>270.3</ele>
        <time>2011-08-09T09:13:12Z</time>
      </trkpt>
      <trkpt lat="44.52482" lon="2.28527">
        <ele>270.6</ele>
        <time>2011-08-09T09:13:13Z</time>
      </trkpt>
      <trkpt lat="44.52481" lon="2.28532">
        <ele>270.8</ele>
        <time>2011-08-09T09:13:14Z</time>
      </trkpt>
      <trkpt lat="44.5248" lon="2.28537">
        <ele>271</ele>
        <time>2011-08-09T09:13:15Z</time>
      </trkpt>
      <trkpt lat="44.52479" lon="2.28542">
        <ele>271.2</ele>
        <time>2011-08-09T09:13:16Z</time>
      </trkpt>
      <trkpt lat="44.52478" lon="2.28547">
        <ele>271.4</ele>
        <time>2011-08-09T09:13:17Z</time>
      </trkpt>
      <trkpt lat="44.52477" lon="2.28552">
        <ele>271.5</ele>
        <time>2011-08-09T09:13:18Z</time>
      </trkpt>
      <trkpt lat="44.52476" lon="2.28557">
        <ele>271.7</ele>
        <time>2011-08-09T09:13:19Z</time>
      </trkpt>
      <trkpt lat="44.52476" lon="2.28562">
        <ele>271.8</ele>
        <time>2011-08-09T09:13:20Z</time>
      </trkpt>
      <trkpt lat="44.52475" lon="2.28567">
        <ele>271.8</ele>
        <time>2011-08-09T09:13:21Z</time>
      </trkpt>
      <trkpt lat="44.52474" lon="2.28572">
        <ele>271.9</ele>
        <time>2011-08-09T09:13:22Z</time>
      </trkpt>
      <trkpt lat="44.52473" lon="2.28577">
        <ele>272.3</ele>
        <time>2011-08-09T09:13:23Z</time>
      </trkpt>
      <trkpt lat="44.52472" lon="2.28582">
        <ele>272.6</ele>
        <time>2011-08-09T09:13:24Z</time>
      </trkpt>
      <trkpt lat="44.52471" lon="2.28587">
        <ele>272.9</ele>
        <time>2011-08-09T09:13:25Z</time>
      </trkpt>
      <trkpt lat="44.5247" lon="2.28592">
        <ele>272.7</ele>
        <time>2011-08-09T09:13:26Z</time>
      </trkpt>
      <trkpt lat="44.52469" lon="2.28596">
        <ele>272.5</ele>
        <time>2011-08-09T09:13:27Z</time>
      </trkpt>
      <trkpt lat="44.52468" lon="2.28601">
        <ele>272.4</ele>
        <time>2011-08-09T09:13:28Z</time>
      </trkpt>
      <trkpt lat="44.52468" lon="2.28606">
        <ele>272.3</ele>
        <time>2011-08-09T09:13:29Z</time>
      </trkpt>
      <trkpt lat="44.52467" lon="2.28611">
        <ele>272.1</ele>
        <time>2011-08-09T09:13:30Z</time>
      </trkpt>
      <trkpt lat="44.52466" lon="2.28616">
        <ele>272</ele>
        <time>2011-08-09T09:13:31Z</time>
      </trkpt>
      <trkpt lat="44.52466" lon="2.28621">
        <ele>272</ele>
        <time>2011-08-09T09:13:32Z</time>
      </trkpt>
      <trkpt lat="44.52465" lon="2.28627">
        <ele>272</ele>
        <time>2011-08-09T09:13:33Z</time>
      </trkpt>
      <trkpt lat="44.52465" lon="2.28632">
        <ele>271.9</ele>
        <time>2011-08-09T09:13:34Z</time>
      </trkpt>
      <trkpt lat="44.52464" lon="2.28638">
        <ele>272.7</ele>
        <time>2011-08-09T09:13:35Z</time>
      </trkpt>
      <trkpt lat="44.52464" lon="2.28643">
        <ele>273.3</ele>
        <time>2011-08-09T09:13:36Z</time>
      </trkpt>
      <trkpt lat="44.52463" lon="2.28648">
        <ele>273.7</ele>
        <time>2011-08-09T09:13:37Z</time>
      </trkpt>
      <trkpt lat="44.52463" lon="2.28653">
        <ele>274</ele>
        <time>2011-08-09T09:13:38Z</time>
      </trkpt>
      <trkpt lat="44.52462" lon="2.28658">
        <ele>273.5</ele>
        <time>2011-08-09T09:13:39Z</time>
      </trkpt>
      <trkpt lat="44.52462" lon="2.28664">
        <ele>273.1</ele>
        <time>2011-08-09T09:13:40Z</time>
      </trkpt>
      <trkpt lat="44.52462" lon="2.28669">
        <ele>272.8</ele>
        <time>2011-08-09T09:13:41Z</time>
      </trkpt>
      <trkpt lat="44.52462" lon="2.28674">
        <ele>272.7</ele>
        <time>2011-08-09T09:13:42Z</time>
      </trkpt>
      <trkpt lat="44.52461" lon="2.28679">
        <ele>272.7</ele>
        <time>2011-08-09T09:13:43Z</time>
      </trkpt>
      <trkpt lat="44.5246" lon="2.28684">
        <ele>272.7</ele>
        <time>2011-08-09T09:13:44Z</time>
      </trkpt>
      <trkpt lat="44.52459" lon="2.2869">
        <ele>272.8</ele>
        <time>2011-08-09T09:13:45Z</time>
      </trkpt>
      <trkpt lat="44.52459" lon="2.28695">
        <ele>272.8</ele>
        <time>2011-08-09T09:13:46Z</time>
      </trkpt>
      <trkpt lat="44.52458" lon="2.287">
        <ele>272.9</ele>
        <time>2011-08-09T09:13:47Z</time>
      </trkpt>
      <trkpt lat="44.52457" lon="2.28705">
        <ele>273.4</ele>
        <time>2011-08-09T09:13:48Z</time>
      </trkpt>
      <trkpt lat="44.52456" lon="2.2871">
        <ele>273.8</ele>
        <time>2011-08-09T09:13:49Z</time>
      </trkpt>
      <trkpt lat="44.52456" lon="2.28715">
        <ele>274.1</ele>
        <time>2011-08-09T09:13:50Z</time>
      </trkpt>
      <trkpt lat="44.52455" lon="2.28721">
        <ele>274.2</ele>
        <time>2011-08-09T09:13:51Z</time>
      </trkpt>
      <trkpt lat="44.52454" lon="2.28726">
        <ele>274.4</ele>
        <time>2011-08-09T09:13:52Z</time>
      </trkpt>
      <trkpt lat="44.52453" lon="2.28731">
        <ele>274.4</ele>
        <time>2011-08-09T09:13:53Z</time>
      </trkpt>
      <trkpt lat="44.52452" lon="2.28736">
        <ele>274.5</ele>
        <time>2011-08-09T09:13:54Z</time>
      </trkpt>
      <trkpt lat="44.5245" lon="2.2874">
        <ele>274.2</ele>
        <time>2011-08-09T09:13:55Z</time>
      </trkpt>
      <trkpt lat="44.52448" lon="2.28745">
        <ele>274.1</ele>
        <time>2011-08-09T09:13:56Z</time>
      </trkpt>
      <trkpt lat="44.52446" lon="2.28749">
        <ele>273.9</ele>
        <time>2011-08-09T09:13:57Z</time>
      </trkpt>
      <trkpt lat="44.52444" lon="2.28754">
        <ele>274.4</ele>
        <time>2011-08-09T09:13:58Z</time>
      </trkpt>
      <trkpt lat="44.52442" lon="2.28758">
        <ele>274.7</ele>
        <time>2011-08-09T09:13:59Z</time>
      </trkpt>
      <trkpt lat="44.5244" lon="2.28763">
        <ele>274.9</ele>
        <time>2011-08-09T09:14:00Z</time>
      </trkpt>
      <trkpt lat="44.52438" lon="2.28766">
        <ele>274.7</ele>
        <time>2011-08-09T09:14:01Z</time>
      </trkpt>
      <trkpt lat="44.52437" lon="2.2877">
        <ele>274.6</ele>
        <time>2011-08-09T09:14:02Z</time>
      </trkpt>
      <trkpt lat="44.5244" lon="2.28775">
        <ele>274.8</ele>
        <time>2011-08-09T09:14:04Z</time>
      </trkpt>
      <trkpt lat="44.52442" lon="2.28776">
        <ele>275.1</ele>
        <time>2011-08-09T09:14:05Z</time>
      </trkpt>
      <trkpt lat="44.52444" lon="2.28778">
        <ele>275.3</ele>
        <time>2011-08-09T09:14:06Z</time>
      </trkpt>
      <trkpt lat="44.52447" lon="2.28783">
        <ele>275.3</ele>
        <time>2011-08-09T09:14:07Z</time>
      </trkpt>
      <trkpt lat="44.52448" lon="2.2879">
        <ele>275.3</ele>
        <time>2011-08-09T09:14:08Z</time>
      </trkpt>
      <trkpt lat="44.52448" lon="2.28798">
        <ele>275.3</ele>
        <time>2011-08-09T09:14:09Z</time>
      </trkpt>
      <trkpt lat="44.52447" lon="2.28806">
        <ele>274.7</ele>
        <time>2011-08-09T09:14:10Z</time>
      </trkpt>
      <trkpt lat="44.52446" lon="2.28813">
        <ele>274.2</ele>
        <time>2011-08-09T09:14:11Z</time>
      </trkpt>
      <trkpt lat="44.52444" lon="2.28821">
        <ele>273.9</ele>
        <time>2011-08-09T09:14:12Z</time>
      </trkpt>
      <trkpt lat="44.52442" lon="2.28829">
        <ele>273.6</ele>
        <time>2011-08-09T09:14:13Z</time>
      </trkpt>
      <trkpt lat="44.5244" lon="2.28837">
        <ele>273.6</ele>
        <time>2011-08-09T09:14:14Z</time>
      </trkpt>
      <trkpt lat="44.52438" lon="2.28844">
        <ele>273.6</ele>
        <time>2011-08-09T09:14:15Z</time>
      </trkpt>
      <trkpt lat="44.52436" lon="2.28851">
        <ele>273.6</ele>
        <time>2011-08-09T09:14:16Z</time>
      </trkpt>
      <trkpt lat="44.52435" lon="2.28859">
        <ele>273.4</ele>
        <time>2011-08-09T09:14:17Z</time>
      </trkpt>
      <trkpt lat="44.52434" lon="2.28866">
        <ele>273.2</ele>
        <time>2011-08-09T09:14:18Z</time>
      </trkpt>
      <trkpt lat="44.52434" lon="2.28873">
        <ele>273.1</ele>
        <time>2011-08-09T09:14:19Z</time>
      </trkpt>
      <trkpt lat="44.52433" lon="2.2888">
        <ele>273.1</ele>
        <time>2011-08-09T09:14:20Z</time>
      </trkpt>
      <trkpt lat="44.52433" lon="2.28886">
        <ele>273.1</ele>
        <time>2011-08-09T09:14:21Z</time>
      </trkpt>
      <trkpt lat="44.52433" lon="2.28892">
        <ele>273.1</ele>
        <time>2011-08-09T09:14:22Z</time>
      </trkpt>
      <trkpt lat="44.52433" lon="2.28897">
        <ele>273</ele>
        <time>2011-08-09T09:14:23Z</time>
      </trkpt>
      <trkpt lat="44.52433" lon="2.28902">
        <ele>272.9</ele>
        <time>2011-08-09T09:14:24Z</time>
      </trkpt>
      <trkpt lat="44.52434" lon="2.28907">
        <ele>272.8</ele>
        <time>2011-08-09T09:14:25Z</time>
      </trkpt>
      <trkpt lat="44.52434" lon="2.28912">
        <ele>273.1</ele>
        <time>2011-08-09T09:14:26Z</time>
      </trkpt>
      <trkpt lat="44.52435" lon="2.28917">
        <ele>273.2</ele>
        <time>2011-08-09T09:14:27Z</time>
      </trkpt>
      <trkpt lat="44.52436" lon="2.28921">
        <ele>273.3</ele>
        <time>2011-08-09T09:14:28Z</time>
      </trkpt>
      <trkpt lat="44.52438" lon="2.28925">
        <ele>273.4</ele>
        <time>2011-08-09T09:14:29Z</time>
      </trkpt>
      <trkpt lat="44.5244" lon="2.28929">
        <ele>274</ele>
        <time>2011-08-09T09:14:30Z</time>
      </trkpt>
      <trkpt lat="44.52441" lon="2.28933">
        <ele>274.4</ele>
        <time>2011-08-09T09:14:31Z</time>
      </trkpt>
      <trkpt lat="44.52443" lon="2.28937">
        <ele>274.6</ele>
        <time>2011-08-09T09:14:32Z</time>
      </trkpt>
      <trkpt lat="44.52445" lon="2.2894">
        <ele>274.5</ele>
        <time>2011-08-09T09:14:33Z</time>
      </trkpt>
      <trkpt lat="44.52446" lon="2.28943">
        <ele>274.3</ele>
        <time>2011-08-09T09:14:34Z</time>
      </trkpt>
      <trkpt lat="44.52448" lon="2.28946">
        <ele>274.2</ele>
        <time>2011-08-09T09:14:35Z</time>
      </trkpt>
      <trkpt lat="44.5245" lon="2.28949">
        <ele>274</ele>
        <time>2011-08-09T09:14:36Z</time>
      </trkpt>
      <trkpt lat="44.52451" lon="2.28953">
        <ele>273.9</ele>
        <time>2011-08-09T09:14:37Z</time>
      </trkpt>
      <trkpt lat="44.52453" lon="2.28957">
        <ele>273.8</ele>
        <time>2011-08-09T09:14:38Z</time>
      </trkpt>
      <trkpt lat="44.52455" lon="2.2896">
        <ele>273.7</ele>
        <time>2011-08-09T09:14:39Z</time>
      </trkpt>
      <trkpt lat="44.52457" lon="2.28963">
        <ele>273.6</ele>
        <time>2011-08-09T09:14:40Z</time>
      </trkpt>
      <trkpt lat="44.52459" lon="2.28966">
        <ele>273.6</ele>
        <time>2011-08-09T09:14:41Z</time>
      </trkpt>
      <trkpt lat="44.52461" lon="2.2897">
        <ele>273.9</ele>
        <time>2011-08-09T09:14:42Z</time>
      </trkpt>
      <trkpt lat="44.52462" lon="2.28973">
        <ele>274.1</ele>
        <time>2011-08-09T09:14:43Z</time>
      </trkpt>
      <trkpt lat="44.52464" lon="2.28976">
        <ele>274.3</ele>
        <time>2011-08-09T09:14:44Z</time>
      </trkpt>
      <trkpt lat="44.52466" lon="2.28978">
        <ele>274.4</ele>
        <time>2011-08-09T09:14:45Z</time>
      </trkpt>
      <trkpt lat="44.52468" lon="2.2898">
        <ele>274.5</ele>
        <time>2011-08-09T09:14:46Z</time>
      </trkpt>
      <trkpt lat="44.5247" lon="2.28982">
        <ele>274.6</ele>
        <time>2011-08-09T09:14:47Z</time>
      </trkpt>
      <trkpt lat="44.52472" lon="2.28984">
        <ele>274.7</ele>
        <time>2011-08-09T09:14:48Z</time>
      </trkpt>
      <trkpt lat="44.52474" lon="2.28984">
        <ele>275.1</ele>
        <time>2011-08-09T09:14:49Z</time>
      </trkpt>
      <trkpt lat="44.52477" lon="2.28984">
        <ele>275.4</ele>
        <time>2011-08-09T09:14:50Z</time>
      </trkpt>
      <trkpt lat="44.52479" lon="2.28982">
        <ele>275.6</ele>
        <time>2011-08-09T09:14:51Z</time>
      </trkpt>
      <trkpt lat="44.52482" lon="2.28979">
        <ele>275.5</ele>
        <time>2011-08-09T09:14:52Z</time>
      </trkpt>
      <trkpt lat="44.52484" lon="2.28975">
        <ele>275.4</ele>
        <time>2011-08-09T09:14:53Z</time>
      </trkpt>
      <trkpt lat="44.52486" lon="2.28971">
        <ele>275.3</ele>
        <time>2011-08-09T09:14:54Z</time>
      </trkpt>
      <trkpt lat="44.52489" lon="2.28967">
        <ele>274.9</ele>
        <time>2011-08-09T09:14:55Z</time>
      </trkpt>
      <trkpt lat="44.52493" lon="2.28964">
        <ele>274.6</ele>
        <time>2011-08-09T09:14:56Z</time>
      </trkpt>
      <trkpt lat="44.52497" lon="2.28961">
        <ele>274.4</ele>
        <time>2011-08-09T09:14:57Z</time>
      </trkpt>
      <trkpt lat="44.525" lon="2.28958">
        <ele>274.6</ele>
        <time>2011-08-09T09:14:58Z</time>
      </trkpt>
      <trkpt lat="44.52502" lon="2.28956">
        <ele>274.7</ele>
        <time>2011-08-09T09:14:59Z</time>
      </trkpt>
      <trkpt lat="44.52505" lon="2.28961">
        <ele>274.5</ele>
        <time>2011-08-09T09:15:02Z</time>
      </trkpt>
      <trkpt lat="44.52503" lon="2.28965">
        <ele>274.1</ele>
        <time>2011-08-09T09:15:04Z</time>
      </trkpt>
      <trkpt lat="44.52501" lon="2.2897">
        <ele>274.9</ele>
        <time>2011-08-09T09:15:06Z</time>
      </trkpt>
      <trkpt lat="44.52499" lon="2.28974">
        <ele>275.7</ele>
        <time>2011-08-09T09:15:08Z</time>
      </trkpt>
      <trkpt lat="44.52496" lon="2.28979">
        <ele>276.9</ele>
        <time>2011-08-09T09:15:11Z</time>
      </trkpt>
      <trkpt lat="44.52495" lon="2.28983">
        <ele>277.4</ele>
        <time>2011-08-09T09:15:13Z</time>
      </trkpt>
      <trkpt lat="44.52495" lon="2.28988">
        <ele>278.4</ele>
        <time>2011-08-09T09:15:15Z</time>
      </trkpt>
      <trkpt lat="44.52495" lon="2.28993">
        <ele>279.2</ele>
        <time>2011-08-09T09:15:17Z</time>
      </trkpt>
      <trkpt lat="44.52495" lon="2.28999">
        <ele>279.8</ele>
        <time>2011-08-09T09:15:19Z</time>
      </trkpt>
      <trkpt lat="44.52496" lon="2.29004">
        <ele>280.5</ele>
        <time>2011-08-09T09:15:21Z</time>
      </trkpt>
      <trkpt lat="44.52498" lon="2.29008">
        <ele>281.3</ele>
        <time>2011-08-09T09:15:23Z</time>
      </trkpt>
      <trkpt lat="44.52499" lon="2.29012">
        <ele>281.4</ele>
        <time>2011-08-09T09:15:25Z</time>
      </trkpt>
      <trkpt lat="44.52501" lon="2.29016">
        <ele>281.7</ele>
        <time>2011-08-09T09:15:27Z</time>
      </trkpt>
      <trkpt lat="44.52504" lon="2.29021">
        <ele>282.9</ele>
        <time>2011-08-09T09:15:30Z</time>
      </trkpt>
      <trkpt lat="44.52505" lon="2.29024">
        <ele>283.8</ele>
        <time>2011-08-09T09:15:32Z</time>
      </trkpt>
      <trkpt lat="44.52507" lon="2.29028">
        <ele>285.1</ele>
        <time>2011-08-09T09:15:34Z</time>
      </trkpt>
      <trkpt lat="44.52509" lon="2.29032">
        <ele>285.9</ele>
        <time>2011-08-09T09:15:36Z</time>
      </trkpt>
      <trkpt lat="44.52512" lon="2.29037">
        <ele>286.2</ele>
        <time>2011-08-09T09:15:39Z</time>
      </trkpt>
      <trkpt lat="44.52513" lon="2.29039">
        <ele>287.1</ele>
        <time>2011-08-09T09:15:40Z</time>
      </trkpt>
      <trkpt lat="44.52516" lon="2.29049">
        <ele>288.3</ele>
        <time>2011-08-09T09:15:45Z</time>
      </trkpt>
      <trkpt lat="44.52517" lon="2.29052">
        <ele>288.3</ele>
        <time>2011-08-09T09:15:47Z</time>
      </trkpt>
      <trkpt lat="44.52519" lon="2.29056">
        <ele>288.7</ele>
        <time>2011-08-09T09:15:49Z</time>
      </trkpt>
      <trkpt lat="44.5252" lon="2.2906">
        <ele>289.1</ele>
        <time>2011-08-09T09:15:51Z</time>
      </trkpt>
      <trkpt lat="44.52521" lon="2.29064">
        <ele>289.6</ele>
        <time>2011-08-09T09:15:53Z</time>
      </trkpt>
      <trkpt lat="44.52522" lon="2.2907">
        <ele>290.8</ele>
        <time>2011-08-09T09:15:56Z</time>
      </trkpt>
      <trkpt lat="44.52524" lon="2.29074">
        <ele>291.7</ele>
        <time>2011-08-09T09:15:58Z</time>
      </trkpt>
      <trkpt lat="44.52525" lon="2.29078">
        <ele>291.9</ele>
        <time>2011-08-09T09:16:00Z</time>
      </trkpt>
      <trkpt lat="44.52525" lon="2.29084">
        <ele>293</ele>
        <time>2011-08-09T09:16:03Z</time>
      </trkpt>
      <trkpt lat="44.52525" lon="2.29088">
        <ele>293.4</ele>
        <time>2011-08-09T09:16:05Z</time>
      </trkpt>
      <trkpt lat="44.52525" lon="2.29091">
        <ele>293.4</ele>
        <time>2011-08-09T09:16:06Z</time>
      </trkpt>
      <trkpt lat="44.52526" lon="2.29095">
        <ele>293.5</ele>
        <time>2011-08-09T09:16:07Z</time>
      </trkpt>
      <trkpt lat="44.52525" lon="2.29101">
        <ele>293.5</ele>
        <time>2011-08-09T09:16:08Z</time>
      </trkpt>
      <trkpt lat="44.52525" lon="2.29107">
        <ele>292.8</ele>
        <time>2011-08-09T09:16:09Z</time>
      </trkpt>
      <trkpt lat="44.52524" lon="2.29115">
        <ele>292.3</ele>
        <time>2011-08-09T09:16:10Z</time>
      </trkpt>
      <trkpt lat="44.52524" lon="2.29124">
        <ele>291.9</ele>
        <time>2011-08-09T09:16:11Z</time>
      </trkpt>
      <trkpt lat="44.52523" lon="2.29133">
        <ele>290.8</ele>
        <time>2011-08-09T09:16:12Z</time>
      </trkpt>
      <trkpt lat="44.52522" lon="2.29143">
        <ele>290</ele>
        <time>2011-08-09T09:16:13Z</time>
      </trkpt>
      <trkpt lat="44.5252" lon="2.29151">
        <ele>289.4</ele>
        <time>2011-08-09T09:16:14Z</time>
      </trkpt>
      <trkpt lat="44.52519" lon="2.29159">
        <ele>288.5</ele>
        <time>2011-08-09T09:16:15Z</time>
      </trkpt>
      <trkpt lat="44.52518" lon="2.29167">
        <ele>287.7</ele>
        <time>2011-08-09T09:16:16Z</time>
      </trkpt>
      <trkpt lat="44.52517" lon="2.29173">
        <ele>287.2</ele>
        <time>2011-08-09T09:16:17Z</time>
      </trkpt>
      <trkpt lat="44.52515" lon="2.29178">
        <ele>287.1</ele>
        <time>2011-08-09T09:16:18Z</time>
      </trkpt>
      <trkpt lat="44.52514" lon="2.29181">
        <ele>287.1</ele>
        <time>2011-08-09T09:16:19Z</time>
      </trkpt>
      <trkpt lat="44.52512" lon="2.29185">
        <ele>287.1</ele>
        <time>2011-08-09T09:16:20Z</time>
      </trkpt>
      <trkpt lat="44.5251" lon="2.29189">
        <ele>287.2</ele>
        <time>2011-08-09T09:16:21Z</time>
      </trkpt>
      <trkpt lat="44.52508" lon="2.29194">
        <ele>287.4</ele>
        <time>2011-08-09T09:16:23Z</time>
      </trkpt>
      <trkpt lat="44.52506" lon="2.29198">
        <ele>287.8</ele>
        <time>2011-08-09T09:16:25Z</time>
      </trkpt>
      <trkpt lat="44.52503" lon="2.29201">
        <ele>288.1</ele>
        <time>2011-08-09T09:16:27Z</time>
      </trkpt>
      <trkpt lat="44.525" lon="2.29204">
        <ele>288.4</ele>
        <time>2011-08-09T09:16:29Z</time>
      </trkpt>
      <trkpt lat="44.52498" lon="2.29209">
        <ele>289.2</ele>
        <time>2011-08-09T09:16:32Z</time>
      </trkpt>
      <trkpt lat="44.52495" lon="2.29213">
        <ele>289</ele>
        <time>2011-08-09T09:16:36Z</time>
      </trkpt>
      <trkpt lat="44.5249" lon="2.29213">
        <ele>290.1</ele>
        <time>2011-08-09T09:16:40Z</time>
      </trkpt>
      <trkpt lat="44.52489" lon="2.29215">
        <ele>290.1</ele>
        <time>2011-08-09T09:16:41Z</time>
      </trkpt>
      <trkpt lat="44.52487" lon="2.29221">
        <ele>289.8</ele>
        <time>2011-08-09T09:16:44Z</time>
      </trkpt>
      <trkpt lat="44.52486" lon="2.29226">
        <ele>289.5</ele>
        <time>2011-08-09T09:16:46Z</time>
      </trkpt>
      <trkpt lat="44.52485" lon="2.29231">
        <ele>289.5</ele>
        <time>2011-08-09T09:16:48Z</time>
      </trkpt>
      <trkpt lat="44.52485" lon="2.29235">
        <ele>289.4</ele>
        <time>2011-08-09T09:16:50Z</time>
      </trkpt>
      <trkpt lat="44.52484" lon="2.2924">
        <ele>289.2</ele>
        <time>2011-08-09T09:16:52Z</time>
      </trkpt>
      <trkpt lat="44.52484" lon="2.29244">
        <ele>289.4</ele>
        <time>2011-08-09T09:16:54Z</time>
      </trkpt>
      <trkpt lat="44.52483" lon="2.29249">
        <ele>289.8</ele>
        <time>2011-08-09T09:16:56Z</time>
      </trkpt>
      <trkpt lat="44.52482" lon="2.29254">
        <ele>290.3</ele>
        <time>2011-08-09T09:16:58Z</time>
      </trkpt>
      <trkpt lat="44.52482" lon="2.29259">
        <ele>290.5</ele>
        <time>2011-08-09T09:17:00Z</time>
      </trkpt>
      <trkpt lat="44.52481" lon="2.29264">
        <ele>290.5</ele>
        <time>2011-08-09T09:17:02Z</time>
      </trkpt>
      <trkpt lat="44.5248" lon="2.29269">
        <ele>291.4</ele>
        <time>2011-08-09T09:17:04Z</time>
      </trkpt>
      <trkpt lat="44.52479" lon="2.29274">
        <ele>291.8</ele>
        <time>2011-08-09T09:17:06Z</time>
      </trkpt>
      <trkpt lat="44.52479" lon="2.29279">
        <ele>292</ele>
        <time>2011-08-09T09:17:08Z</time>
      </trkpt>
      <trkpt lat="44.52478" lon="2.29283">
        <ele>291.5</ele>
        <time>2011-08-09T09:17:10Z</time>
      </trkpt>
      <trkpt lat="44.52476" lon="2.29289">
        <ele>292</ele>
        <time>2011-08-09T09:17:13Z</time>
      </trkpt>
      <trkpt lat="44.52476" lon="2.29294">
        <ele>292.6</ele>
        <time>2011-08-09T09:17:16Z</time>
      </trkpt>
      <trkpt lat="44.52476" lon="2.293">
        <ele>292.9</ele>
        <time>2011-08-09T09:17:19Z</time>
      </trkpt>
      <trkpt lat="44.52473" lon="2.29298">
        <ele>292.9</ele>
        <time>2011-08-09T09:17:30Z</time>
      </trkpt>
      <trkpt lat="44.52473" lon="2.29293">
        <ele>293.4</ele>
        <time>2011-08-09T09:17:32Z</time>
      </trkpt>
      <trkpt lat="44.52473" lon="2.29288">
        <ele>294.6</ele>
        <time>2011-08-09T09:17:35Z</time>
      </trkpt>
      <trkpt lat="44.52473" lon="2.29282">
        <ele>296.1</ele>
        <time>2011-08-09T09:17:39Z</time>
      </trkpt>
      <trkpt lat="44.52474" lon="2.29276">
        <ele>297</ele>
        <time>2011-08-09T09:17:42Z</time>
      </trkpt>
      <trkpt lat="44.52474" lon="2.29274">
        <ele>297.3</ele>
        <time>2011-08-09T09:17:43Z</time>
      </trkpt>
      <trkpt lat="44.52475" lon="2.29267">
        <ele>297.6</ele>
        <time>2011-08-09T09:17:46Z</time>
      </trkpt>
      <trkpt lat="44.52475" lon="2.29261">
        <ele>298.2</ele>
        <time>2011-08-09T09:17:49Z</time>
      </trkpt>
      <trkpt lat="44.52476" lon="2.29257">
        <ele>298.2</ele>
        <time>2011-08-09T09:17:51Z</time>
      </trkpt>
      <trkpt lat="44.52475" lon="2.29251">
        <ele>298.2</ele>
        <time>2011-08-09T09:17:54Z</time>
      </trkpt>
      <trkpt lat="44.52474" lon="2.29245">
        <ele>298.9</ele>
        <time>2011-08-09T09:18:02Z</time>
      </trkpt>
      <trkpt lat="44.52473" lon="2.2924">
        <ele>299.4</ele>
        <time>2011-08-09T09:18:09Z</time>
      </trkpt>
      <trkpt lat="44.52473" lon="2.29235">
        <ele>299.8</ele>
        <time>2011-08-09T09:18:14Z</time>
      </trkpt>
      <trkpt lat="44.52473" lon="2.29229">
        <ele>300.8</ele>
        <time>2011-08-09T09:18:23Z</time>
      </trkpt>
      <trkpt lat="44.52471" lon="2.29223">
        <ele>301.8</ele>
        <time>2011-08-09T09:18:30Z</time>
      </trkpt>
      <trkpt lat="44.52468" lon="2.2922">
        <ele>302.1</ele>
        <time>2011-08-09T09:18:33Z</time>
      </trkpt>
      <trkpt lat="44.52465" lon="2.29217">
        <ele>302.6</ele>
        <time>2011-08-09T09:18:36Z</time>
      </trkpt>
      <trkpt lat="44.52461" lon="2.29216">
        <ele>303.2</ele>
        <time>2011-08-09T09:18:39Z</time>
      </trkpt>
      <trkpt lat="44.52457" lon="2.29218">
        <ele>304.3</ele>
        <time>2011-08-09T09:18:42Z</time>
      </trkpt>
      <trkpt lat="44.52455" lon="2.29223">
        <ele>305.3</ele>
        <time>2011-08-09T09:18:45Z</time>
      </trkpt>
      <trkpt lat="44.52454" lon="2.29224">
        <ele>305.5</ele>
        <time>2011-08-09T09:18:46Z</time>
      </trkpt>
      <trkpt lat="44.5245" lon="2.29231">
        <ele>307.7</ele>
        <time>2011-08-09T09:18:52Z</time>
      </trkpt>
      <trkpt lat="44.52447" lon="2.29235">
        <ele>308.5</ele>
        <time>2011-08-09T09:18:55Z</time>
      </trkpt>
      <trkpt lat="44.52444" lon="2.29238">
        <ele>309.6</ele>
        <time>2011-08-09T09:18:58Z</time>
      </trkpt>
      <trkpt lat="44.52441" lon="2.2924">
        <ele>310.9</ele>
        <time>2011-08-09T09:19:00Z</time>
      </trkpt>
      <trkpt lat="44.52438" lon="2.29242">
        <ele>311</ele>
        <time>2011-08-09T09:19:02Z</time>
      </trkpt>
      <trkpt lat="44.52436" lon="2.29244">
        <ele>311.3</ele>
        <time>2011-08-09T09:19:04Z</time>
      </trkpt>
      <trkpt lat="44.52433" lon="2.29247">
        <ele>311.5</ele>
        <time>2011-08-09T09:19:06Z</time>
      </trkpt>
      <trkpt lat="44.5243" lon="2.29252">
        <ele>312.9</ele>
        <time>2011-08-09T09:19:09Z</time>
      </trkpt>
      <trkpt lat="44.52429" lon="2.29257">
        <ele>313.6</ele>
        <time>2011-08-09T09:19:12Z</time>
      </trkpt>
      <trkpt lat="44.52426" lon="2.29261">
        <ele>315</ele>
        <time>2011-08-09T09:19:15Z</time>
      </trkpt>
      <trkpt lat="44.52424" lon="2.29265">
        <ele>315.4</ele>
        <time>2011-08-09T09:19:18Z</time>
      </trkpt>
      <trkpt lat="44.52422" lon="2.2927">
        <ele>315.4</ele>
        <time>2011-08-09T09:19:22Z</time>
      </trkpt>
      <trkpt lat="44.5242" lon="2.29275">
        <ele>316.6</ele>
        <time>2011-08-09T09:19:25Z</time>
      </trkpt>
      <trkpt lat="44.52419" lon="2.29279">
        <ele>316.6</ele>
        <time>2011-08-09T09:19:27Z</time>
      </trkpt>
      <trkpt lat="44.52417" lon="2.29284">
        <ele>317.2</ele>
        <time>2011-08-09T09:19:30Z</time>
      </trkpt>
      <trkpt lat="44.52416" lon="2.29286">
        <ele>307.6</ele>
        <time>2011-08-09T09:19:33Z</time>
      </trkpt>
      <trkpt lat="44.52407" lon="2.29283">
        <ele>309.5</ele>
        <time>2011-08-09T09:19:40Z</time>
      </trkpt>
      <trkpt lat="44.52398" lon="2.2928">
        <ele>311.3</ele>
        <time>2011-08-09T09:21:33Z</time>
      </trkpt>
      <trkpt lat="44.52303" lon="2.29254">
        <ele>328.2</ele>
        <time>2011-08-09T09:21:34Z</time>
      </trkpt>
    </trkseg>
  </trk>
</gpx>